BCO-DMO ERDDAP
Accessing BCO-DMO data
log in    
Brought to you by BCO-DMO    
 
 
location latitude longitude year dataset probe_serialNum date time2 temp pH conductivity HDO_mgL HDO_percentSat pH_mV salinity depth ISO_DateTime_EST comments
unitless degrees_north degrees_east unitless unt unitless unitless unitless degrees Celsius unitless uS/cm milligrams per liter (mg/L) unitless (percent) millivolts (mV) PSS m unitless unitless
Mumford_Cove 41.32526111 -72.02088 2015 monitoringMC_01 3151818 2015-05-13 13:00 16.35 8.08 44510 9.22 112.2 -54.44 28.81 2015-05-13T13:00
Mumford_Cove 41.32526111 -72.02088 2015 monitoringMC_01 3151818 2015-05-13 13:30 15.83 8.19 44600 10.45 125.8 -60.58 28.86 2015-05-13T13:30
Mumford_Cove 41.32526111 -72.02088 2015 monitoringMC_01 3151818 2015-05-13 14:00 16.3 8.16 44710 10.05 122.3 -58.55 28.95 2015-05-13T14:00
Mumford_Cove 41.32526111 -72.02088 2015 monitoringMC_01 3151818 2015-05-13 14:30 16.78 8.1 44840 9.61 118.0 -55.5 29.05 2015-05-13T14:30
Mumford_Cove 41.32526111 -72.02088 2015 monitoringMC_01 3151818 2015-05-13 15:00 16.75 8.13 45060 9.83 120.8 -57.02 29.21 2015-05-13T15:00
Mumford_Cove 41.32526111 -72.02088 2015 monitoringMC_01 3151818 2015-05-13 15:30 14.06 8.21 45730 10.74 125.4 -61.32 29.64 2015-05-13T15:30
Mumford_Cove 41.32526111 -72.02088 2015 monitoringMC_01 3151818 2015-05-13 16:00 13.15 8.23 45700 10.95 125.5 -62.21 29.59 2015-05-13T16:00
Mumford_Cove 41.32526111 -72.02088 2015 monitoringMC_01 3151818 2015-05-13 16:30 13.05 8.24 45720 11.08 126.7 -62.47 29.6 2015-05-13T16:30
Mumford_Cove 41.32526111 -72.02088 2015 monitoringMC_01 3151818 2015-05-13 17:00 13.07 8.24 45720 11.08 126.8 -62.73 29.61 2015-05-13T17:00
Mumford_Cove 41.32526111 -72.02088 2015 monitoringMC_01 3151818 2015-05-13 17:30 13.06 8.25 45520 11.05 126.3 -62.92 29.46 2015-05-13T17:30
Mumford_Cove 41.32526111 -72.02088 2015 monitoringMC_01 3151818 2015-05-13 18:00 12.81 8.25 45610 11.03 125.4 -62.99 29.52 2015-05-13T18:00
Mumford_Cove 41.32526111 -72.02088 2015 monitoringMC_01 3151818 2015-05-13 18:30 12.7 8.25 45690 11.04 125.3 -63.15 29.57 2015-05-13T18:30
Mumford_Cove 41.32526111 -72.02088 2015 monitoringMC_01 3151818 2015-05-13 19:00 12.66 8.25 45640 10.92 123.8 -63.23 29.53 2015-05-13T19:00
Mumford_Cove 41.32526111 -72.02088 2015 monitoringMC_01 3151818 2015-05-13 19:30 12.59 8.25 45680 10.92 123.6 -62.94 29.56 2015-05-13T19:30
Mumford_Cove 41.32526111 -72.02088 2015 monitoringMC_01 3151818 2015-05-13 20:00 12.15 8.24 45740 10.63 119.2 -62.17 29.59 2015-05-13T20:00
Mumford_Cove 41.32526111 -72.02088 2015 monitoringMC_01 3151818 2015-05-13 20:30 12.14 8.24 45790 10.58 118.7 -62.05 29.62 2015-05-13T20:30
Mumford_Cove 41.32526111 -72.02088 2015 monitoringMC_01 3151818 2015-05-13 21:00 12.15 8.25 45790 10.46 117.4 -62.59 29.62 2015-05-13T21:00
Mumford_Cove 41.32526111 -72.02088 2015 monitoringMC_01 3151818 2015-05-13 21:30 12.11 8.23 45790 10.51 117.8 -61.76 29.62 2015-05-13T21:30
Mumford_Cove 41.32526111 -72.02088 2015 monitoringMC_01 3151818 2015-05-13 22:00 12.11 8.22 45740 10.33 115.8 -61.17 29.58 2015-05-13T22:00
Mumford_Cove 41.32526111 -72.02088 2015 monitoringMC_01 3151818 2015-05-13 22:30 12.11 8.22 45740 10.1 113.2 -61.19 29.58 2015-05-13T22:30
Mumford_Cove 41.32526111 -72.02088 2015 monitoringMC_01 3151818 2015-05-13 23:00 12.58 8.23 45680 10.41 117.8 -61.99 29.56 2015-05-13T23:00
Mumford_Cove 41.32526111 -72.02088 2015 monitoringMC_01 3151818 2015-05-13 23:30 12.58 8.19 45710 9.91 112.2 -59.8 29.58 2015-05-13T23:30
Mumford_Cove 41.32526111 -72.02088 2015 monitoringMC_01 3151818 2015-05-14 0:00 12.42 8.17 45660 9.54 107.6 -58.56 29.54 2015-05-14T00:00
Mumford_Cove 41.32526111 -72.02088 2015 monitoringMC_01 3151818 2015-05-14 0:30 12.76 8.16 45770 9.52 108.2 -58.17 29.63 2015-05-14T00:30
Mumford_Cove 41.32526111 -72.02088 2015 monitoringMC_01 3151818 2015-05-14 1:00 12.6 8.16 45680 9.43 106.8 -57.64 29.56 2015-05-14T01:00
Mumford_Cove 41.32526111 -72.02088 2015 monitoringMC_01 3151818 2015-05-14 1:30 12.43 8.14 45700 9.1 102.6 -56.72 29.57 2015-05-14T01:30
Mumford_Cove 41.32526111 -72.02088 2015 monitoringMC_01 3151818 2015-05-14 2:00 12.24 8.09 45610 8.61 96.7 -53.7 29.5 2015-05-14T02:00
Mumford_Cove 41.32526111 -72.02088 2015 monitoringMC_01 3151818 2015-05-14 2:30 12.82 8.09 45500 8.54 97.1 -53.74 29.44 2015-05-14T02:30
Mumford_Cove 41.32526111 -72.02088 2015 monitoringMC_01 3151818 2015-05-14 3:00 13.5 8.06 45260 8.21 94.6 -52.47 29.29 2015-05-14T03:00
Mumford_Cove 41.32526111 -72.02088 2015 monitoringMC_01 3151818 2015-05-14 3:30 13.67 8.06 44940 8.11 93.6 -52.5 29.06 2015-05-14T03:30
Mumford_Cove 41.32526111 -72.02088 2015 monitoringMC_01 3151818 2015-05-14 4:00 13.11 8.1 45080 8.38 95.7 -54.36 29.15 2015-05-14T04:00
Mumford_Cove 41.32526111 -72.02088 2015 monitoringMC_01 3151818 2015-05-14 4:30 11.44 8.12 45580 8.79 97.0 -55.56 29.44 2015-05-14T04:30
Mumford_Cove 41.32526111 -72.02088 2015 monitoringMC_01 3151818 2015-05-14 5:00 10.83 8.17 45620 9.23 100.6 -57.81 29.44 2015-05-14T05:00
Mumford_Cove 41.32526111 -72.02088 2015 monitoringMC_01 3151818 2015-05-14 5:30 10.27 8.19 45850 9.55 102.9 -58.97 29.57 2015-05-14T05:30
Mumford_Cove 41.32526111 -72.02088 2015 monitoringMC_01 3151818 2015-05-14 6:00 10.37 8.18 45750 9.47 102.2 -58.48 29.51 2015-05-14T06:00
Mumford_Cove 41.32526111 -72.02088 2015 monitoringMC_01 3151818 2015-05-14 6:30 10.23 8.18 45820 9.47 101.9 -58.63 29.55 2015-05-14T06:30
Mumford_Cove 41.32526111 -72.02088 2015 monitoringMC_01 3151818 2015-05-14 7:00 10.1 8.18 45860 9.49 101.9 -58.56 29.57 2015-05-14T07:00
Mumford_Cove 41.32526111 -72.02088 2015 monitoringMC_01 3151818 2015-05-14 7:30 10.09 8.18 45850 9.48 101.8 -58.67 29.56 2015-05-14T07:30
Mumford_Cove 41.32526111 -72.02088 2015 monitoringMC_01 3151818 2015-05-14 8:00 10.16 8.18 45870 9.47 101.7 -58.61 29.58 2015-05-14T08:00
Mumford_Cove 41.32526111 -72.02088 2015 monitoringMC_01 3151818 2015-05-14 8:30 10.22 8.19 45900 9.6 103.4 -59.12 29.61 2015-05-14T08:30
Mumford_Cove 41.32526111 -72.02088 2015 monitoringMC_01 3151818 2015-05-14 9:00 10.33 8.2 45770 9.74 105.0 -59.86 29.52 2015-05-14T09:00
Mumford_Cove 41.32526111 -72.02088 2015 monitoringMC_01 3151818 2015-05-14 9:30 10.51 8.22 45810 9.93 107.5 -60.94 29.56 2015-05-14T09:30
Mumford_Cove 41.32526111 -72.02088 2015 monitoringMC_01 3151818 2015-05-14 10:00 10.7 8.22 45750 9.97 108.4 -60.98 29.53 2015-05-14T10:00
Mumford_Cove 41.32526111 -72.02088 2015 monitoringMC_01 3151818 2015-05-14 10:30 10.7 8.22 45680 9.99 108.6 -60.76 29.48 2015-05-14T10:30
Mumford_Cove 41.32526111 -72.02088 2015 monitoringMC_01 3151818 2015-05-14 11:00 10.89 8.24 45700 10.53 114.9 -62.24 29.5 2015-05-14T11:00
Mumford_Cove 41.32526111 -72.02088 2015 monitoringMC_01 3151818 2015-05-14 11:30 11.61 8.22 45540 10.4 115.2 -60.85 29.42 2015-05-14T11:30
Mumford_Cove 41.32526111 -72.02088 2015 monitoringMC_01 3151818 2015-05-14 12:00 11.83 8.21 45600 10.39 115.7 -60.48 29.47 2015-05-14T12:00
Mumford_Cove 41.32526111 -72.02088 2015 monitoringMC_01 3151818 2015-05-14 12:30 12.45 8.21 45580 10.41 117.5 -60.43 29.48 2015-05-14T12:30
Mumford_Cove 41.32526111 -72.02088 2015 monitoringMC_01 3151818 2015-05-14 13:00 12.98 8.19 45540 10.41 118.7 -59.95 29.47 2015-05-14T13:00
Mumford_Cove 41.32526111 -72.02088 2015 monitoringMC_01 3151818 2015-05-14 13:30 12.24 8.22 45610 10.54 118.4 -61.23 29.5 2015-05-14T13:30
Mumford_Cove 41.32526111 -72.02088 2015 monitoringMC_01 3151818 2015-05-14 14:00 13.0 8.23 45390 10.56 120.5 -62.0 29.37 2015-05-14T14:00
Mumford_Cove 41.32526111 -72.02088 2015 monitoringMC_01 3151818 2015-05-14 14:30 13.48 8.25 45420 11.08 127.7 -63.0 29.4 2015-05-14T14:30
Mumford_Cove 41.32526111 -72.02088 2015 monitoringMC_01 3151818 2015-05-14 15:00 15.77 8.2 44950 10.55 127.0 -60.69 29.12 2015-05-14T15:00
Mumford_Cove 41.32526111 -72.02088 2015 monitoringMC_01 3151818 2015-05-14 15:30 15.86 8.23 45050 10.95 132.2 -62.51 29.19 2015-05-14T15:30
Mumford_Cove 41.32526111 -72.02088 2015 monitoringMC_01 3151818 2015-05-14 16:00 16.0 8.2 45280 10.69 129.6 -61.18 29.36 2015-05-14T16:00
Mumford_Cove 41.32526111 -72.02088 2015 monitoringMC_01 3151818 2015-05-14 16:30 15.44 8.21 45300 10.57 126.7 -61.51 29.36 2015-05-14T16:30
Mumford_Cove 41.32526111 -72.02088 2015 monitoringMC_01 3151818 2015-05-14 17:00 14.95 8.23 45280 10.8 128.2 -62.23 29.34 2015-05-14T17:00
Mumford_Cove 41.32526111 -72.02088 2015 monitoringMC_01 3151818 2015-05-14 17:30 14.68 8.23 45390 10.76 127.1 -62.33 29.41 2015-05-14T17:30
Mumford_Cove 41.32526111 -72.02088 2015 monitoringMC_01 3151818 2015-05-14 18:00 14.39 8.26 45320 10.98 128.9 -63.84 29.36 2015-05-14T18:00
Mumford_Cove 41.32526111 -72.02088 2015 monitoringMC_01 3151818 2015-05-14 18:30 14.01 8.25 45530 10.9 127.0 -63.13 29.5 2015-05-14T18:30
Mumford_Cove 41.32526111 -72.02088 2015 monitoringMC_01 3151818 2015-05-14 19:00 13.65 8.26 45520 11.03 127.6 -63.73 29.48 2015-05-14T19:00
Mumford_Cove 41.32526111 -72.02088 2015 monitoringMC_01 3151818 2015-05-14 19:30 13.89 8.26 45500 11.02 128.1 -63.92 29.47 2015-05-14T19:30
Mumford_Cove 41.32526111 -72.02088 2015 monitoringMC_01 3151818 2015-05-14 20:00 14.0 8.26 45560 10.94 127.5 -64.01 29.52 2015-05-14T20:00
Mumford_Cove 41.32526111 -72.02088 2015 monitoringMC_01 3151818 2015-05-14 20:30 13.98 8.26 45520 10.94 127.4 -63.78 29.49 2015-05-14T20:30
Mumford_Cove 41.32526111 -72.02088 2015 monitoringMC_01 3151818 2015-05-14 21:00 13.84 8.25 45470 10.73 124.6 -63.04 29.45 2015-05-14T21:00
Mumford_Cove 41.32526111 -72.02088 2015 monitoringMC_01 3151818 2015-05-14 21:30 13.77 8.23 45520 10.39 120.5 -62.17 29.48 2015-05-14T21:30
Mumford_Cove 41.32526111 -72.02088 2015 monitoringMC_01 3151818 2015-05-14 22:00 13.8 8.22 45550 10.14 117.7 -61.61 29.51 2015-05-14T22:00
Mumford_Cove 41.32526111 -72.02088 2015 monitoringMC_01 3151818 2015-05-14 22:30 13.82 8.23 45590 9.84 114.3 -62.0 29.53 2015-05-14T22:30
Mumford_Cove 41.32526111 -72.02088 2015 monitoringMC_01 3151818 2015-05-14 23:00 13.84 8.24 45520 9.35 108.6 -62.66 29.48 2015-05-14T23:00
Mumford_Cove 41.32526111 -72.02088 2015 monitoringMC_01 3151818 2015-05-14 23:30 13.97 8.23 45440 8.99 104.7 -62.32 29.43 2015-05-14T23:30
Mumford_Cove 41.32526111 -72.02088 2015 monitoringMC_01 3151818 2015-05-15 0:00 14.17 8.22 45410 9.97 116.6 -61.47 29.41 2015-05-15T00:00
Mumford_Cove 41.32526111 -72.02088 2015 monitoringMC_01 3151818 2015-05-15 0:30 14.81 8.21 45440 10.08 119.3 -61.32 29.45 2015-05-15T00:30
Mumford_Cove 41.32526111 -72.02088 2015 monitoringMC_01 3151818 2015-05-15 1:00 15.59 8.17 45100 9.73 116.9 -58.88 29.22 2015-05-15T01:00
Mumford_Cove 41.32526111 -72.02088 2015 monitoringMC_01 3151818 2015-05-15 1:30 15.94 8.12 44980 9.11 110.2 -56.31 29.14 2015-05-15T01:30
Mumford_Cove 41.32526111 -72.02088 2015 monitoringMC_01 3151818 2015-05-15 2:00 14.36 8.09 45650 8.38 98.4 -54.36 29.59 2015-05-15T02:00
Mumford_Cove 41.32526111 -72.02088 2015 monitoringMC_01 3151818 2015-05-15 2:30 14.86 8.2 45200 9.77 115.7 -60.41 29.28 2015-05-15T02:30
Mumford_Cove 41.32526111 -72.02088 2015 monitoringMC_01 3151818 2015-05-15 3:00 14.37 8.07 45170 8.23 96.4 -53.49 29.25 2015-05-15T03:00
Mumford_Cove 41.32526111 -72.02088 2015 monitoringMC_01 3151818 2015-05-15 3:30 14.78 8.07 44800 8.48 100.1 -53.34 28.99 2015-05-15T03:30
Mumford_Cove 41.32526111 -72.02088 2015 monitoringMC_01 3151818 2015-05-15 4:00 14.53 8.07 44690 8.32 97.6 -53.37 28.91 2015-05-15T04:00
Mumford_Cove 41.32526111 -72.02088 2015 monitoringMC_01 3151818 2015-05-15 4:30 13.8 8.11 45090 8.57 99.3 -55.4 29.17 2015-05-15T04:30
Mumford_Cove 41.32526111 -72.02088 2015 monitoringMC_01 3151818 2015-05-15 5:00 12.8 8.16 45580 8.83 100.4 -57.75 29.5 2015-05-15T05:00
Mumford_Cove 41.32526111 -72.02088 2015 monitoringMC_01 3151818 2015-05-15 5:30 11.0 8.22 45760 9.86 107.9 -61.11 29.55 2015-05-15T05:30
Mumford_Cove 41.32526111 -72.02088 2015 monitoringMC_01 3151818 2015-05-15 6:00 10.47 8.23 45950 10.02 108.5 -61.37 29.66 2015-05-15T06:00
Mumford_Cove 41.32526111 -72.02088 2015 monitoringMC_01 3151818 2015-05-15 6:30 10.31 8.23 45990 9.96 107.5 -61.26 29.68 2015-05-15T06:30
Mumford_Cove 41.32526111 -72.02088 2015 monitoringMC_01 3151818 2015-05-15 7:00 10.13 8.23 45950 10.05 107.9 -61.38 29.64 2015-05-15T07:00
Mumford_Cove 41.32526111 -72.02088 2015 monitoringMC_01 3151818 2015-05-15 7:30 10.13 8.23 45830 10.09 108.3 -61.47 29.55 2015-05-15T07:30
Mumford_Cove 41.32526111 -72.02088 2015 monitoringMC_01 3151818 2015-05-15 8:00 10.17 8.24 45880 10.07 108.3 -61.65 29.59 2015-05-15T08:00
Mumford_Cove 41.32526111 -72.02088 2015 monitoringMC_01 3151818 2015-05-15 8:30 10.24 8.24 45950 10.11 108.9 -61.76 29.64 2015-05-15T08:30
Mumford_Cove 41.32526111 -72.02088 2015 monitoringMC_01 3151818 2015-05-15 9:00 10.27 8.24 45950 10.14 109.3 -61.87 29.65 2015-05-15T09:00
Mumford_Cove 41.32526111 -72.02088 2015 monitoringMC_01 3151818 2015-05-15 9:30 10.35 8.25 45910 10.15 109.6 -62.54 29.62 2015-05-15T09:30
Mumford_Cove 41.32526111 -72.02088 2015 monitoringMC_01 3151818 2015-05-15 10:00 10.87 8.25 45850 10.23 111.7 -62.77 29.61 2015-05-15T10:00
Mumford_Cove 41.32526111 -72.02088 2015 monitoringMC_01 3151818 2015-05-15 10:30 10.9 8.27 45780 10.12 110.5 -63.57 29.56 2015-05-15T10:30
Mumford_Cove 41.32526111 -72.02088 2015 monitoringMC_01 3151818 2015-05-15 11:00 10.88 8.26 45840 10.23 111.7 -63.27 29.6 2015-05-15T11:00
Mumford_Cove 41.32526111 -72.02088 2015 monitoringMC_01 3151818 2015-05-15 11:30 10.97 8.27 45790 10.65 116.5 -63.5 29.57 2015-05-15T11:30
Mumford_Cove 41.32526111 -72.02088 2015 monitoringMC_01 3151818 2015-05-15 12:00 11.04 8.27 45790 10.82 118.5 -63.71 29.57 2015-05-15T12:00
Mumford_Cove 41.32526111 -72.02088 2015 monitoringMC_01 3151818 2015-05-15 12:30 11.91 8.31 45880 11.37 126.9 -66.14 29.68 2015-05-15T12:30
Mumford_Cove 41.32526111 -72.02088 2015 monitoringMC_01 3151818 2015-05-15 13:00 12.32 8.21 45740 10.36 116.7 -60.39 29.59 2015-05-15T13:00
Mumford_Cove 41.32526111 -72.02088 2015 monitoringMC_01 3151818 2015-05-15 13:30 11.84 8.25 45810 10.44 116.4 -62.55 29.62 2015-05-15T13:30
Mumford_Cove 41.32526111 -72.02088 2015 monitoringMC_01 3151818 2015-05-15 14:00 11.76 8.3 45710 11.28 125.5 -65.29 29.55 2015-05-15T14:00
Mumford_Cove 41.32526111 -72.02088 2015 monitoringMC_01 3151818 2015-05-15 14:30 13.07 8.22 45500 10.54 120.5 -61.6 29.45 2015-05-15T14:30
Mumford_Cove 41.32526111 -72.02088 2015 monitoringMC_01 3151818 2015-05-15 15:00 12.56 8.26 45590 10.75 121.6 -63.24 29.49 2015-05-15T15:00
Mumford_Cove 41.32526111 -72.02088 2015 monitoringMC_01 3151818 2015-05-15 15:30 14.41 8.29 45250 11.33 133.0 -65.67 29.31 2015-05-15T15:30
Mumford_Cove 41.32526111 -72.02088 2015 monitoringMC_01 3151818 2015-05-15 16:00 14.91 8.24 45280 10.72 127.2 -62.83 29.34 2015-05-15T16:00
Mumford_Cove 41.32526111 -72.02088 2015 monitoringMC_01 3151818 2015-05-15 16:30 14.9 8.27 45470 11.16 132.4 -64.81 29.47 2015-05-15T16:30
Mumford_Cove 41.32526111 -72.02088 2015 monitoringMC_01 3151818 2015-05-15 17:00 13.29 8.27 45650 11.1 127.5 -64.35 29.56 2015-05-15T17:00
Mumford_Cove 41.32526111 -72.02088 2015 monitoringMC_01 3151818 2015-05-15 17:30 12.71 8.3 45680 11.42 129.6 -65.67 29.56 2015-05-15T17:30
Mumford_Cove 41.32526111 -72.02088 2015 monitoringMC_01 3151818 2015-05-15 18:00 12.34 8.3 45760 11.45 129.0 -65.9 29.61 2015-05-15T18:00
Mumford_Cove 41.32526111 -72.02088 2015 monitoringMC_01 3151818 2015-05-15 18:30 12.09 8.31 45830 11.48 128.7 -66.12 29.65 2015-05-15T18:30
Mumford_Cove 41.32526111 -72.02088 2015 monitoringMC_01 3151818 2015-05-15 19:00 11.77 8.31 45750 11.53 128.3 -66.01 29.58 2015-05-15T19:00
Mumford_Cove 41.32526111 -72.02088 2015 monitoringMC_01 3151818 2015-05-15 19:30 11.92 8.31 45700 11.45 127.7 -66.08 29.55 2015-05-15T19:30
Mumford_Cove 41.32526111 -72.02088 2015 monitoringMC_01 3151818 2015-05-15 20:00 12.04 8.31 45780 11.43 127.9 -65.99 29.61 2015-05-15T20:00
Mumford_Cove 41.32526111 -72.02088 2015 monitoringMC_01 3151818 2015-05-15 20:30 12.0 8.31 45730 11.36 127.0 -66.04 29.57 2015-05-15T20:30
Mumford_Cove 41.32526111 -72.02088 2015 monitoringMC_01 3151818 2015-05-15 21:00 12.1 8.31 45790 11.33 127.0 -65.97 29.62 2015-05-15T21:00
Mumford_Cove 41.32526111 -72.02088 2015 monitoringMC_01 3151818 2015-05-15 21:30 12.13 8.31 45760 11.32 126.9 -66.0 29.6 2015-05-15T21:30
Mumford_Cove 41.32526111 -72.02088 2015 monitoringMC_01 3151818 2015-05-15 22:00 12.15 8.31 45760 11.27 126.4 -65.96 29.6 2015-05-15T22:00
Mumford_Cove 41.32526111 -72.02088 2015 monitoringMC_01 3151818 2015-05-15 22:30 12.12 8.29 45720 11.08 124.2 -64.81 29.57 2015-05-15T22:30
Mumford_Cove 41.32526111 -72.02088 2015 monitoringMC_01 3151818 2015-05-15 23:00 12.15 8.27 45740 10.72 120.3 -63.86 29.59 2015-05-15T23:00
Mumford_Cove 41.32526111 -72.02088 2015 monitoringMC_01 3151818 2015-05-15 23:30 12.18 8.29 45720 10.82 121.5 -65.03 29.57 2015-05-15T23:30
Mumford_Cove 41.32526111 -72.02088 2015 monitoringMC_01 3151818 2015-05-16 0:00 12.22 8.28 45720 10.82 121.6 -64.45 29.57 2015-05-16T00:00
Mumford_Cove 41.32526111 -72.02088 2015 monitoringMC_01 3151818 2015-05-16 0:30 12.32 8.28 45760 10.78 121.4 -64.52 29.61 2015-05-16T00:30
Mumford_Cove 41.32526111 -72.02088 2015 monitoringMC_01 3151818 2015-05-16 1:00 12.38 8.24 45750 10.65 120.1 -62.29 29.6 2015-05-16T01:00
Mumford_Cove 41.32526111 -72.02088 2015 monitoringMC_01 3151818 2015-05-16 1:30 12.76 8.24 45630 10.34 117.4 -62.29 29.53 2015-05-16T01:30
Mumford_Cove 41.32526111 -72.02088 2015 monitoringMC_01 3151818 2015-05-16 2:00 13.56 8.24 45370 10.44 120.5 -62.36 29.37 2015-05-16T02:00
Mumford_Cove 41.32526111 -72.02088 2015 monitoringMC_01 3151818 2015-05-16 2:30 12.87 8.16 45910 9.25 105.5 -57.91 29.74 2015-05-16T02:30
Mumford_Cove 41.32526111 -72.02088 2015 monitoringMC_01 3151818 2015-05-16 3:00 12.49 8.15 45800 8.84 100.0 -57.45 29.64 2015-05-16T03:00
Mumford_Cove 41.32526111 -72.02088 2015 monitoringMC_01 3151818 2015-05-16 3:30 13.0 8.16 45680 9.46 108.1 -58.22 29.57 2015-05-16T03:30
Mumford_Cove 41.32526111 -72.02088 2015 monitoringMC_01 3151818 2015-05-16 4:00 13.79 8.12 45410 8.81 102.1 -56.06 29.4 2015-05-16T04:00
Mumford_Cove 41.32526111 -72.02088 2015 monitoringMC_01 3151818 2015-05-16 4:30 14.11 8.11 45260 8.67 101.2 -55.35 29.31 2015-05-16T04:30
Mumford_Cove 41.32526111 -72.02088 2015 monitoringMC_01 3151818 2015-05-16 5:00 13.55 8.15 45410 9.12 105.3 -57.64 29.4 2015-05-16T05:00
Mumford_Cove 41.32526111 -72.02088 2015 monitoringMC_01 3151818 2015-05-16 5:30 11.77 8.21 45760 9.71 108.1 -60.78 29.58 2015-05-16T05:30
Mumford_Cove 41.32526111 -72.02088 2015 monitoringMC_01 3151818 2015-05-16 6:00 10.73 8.23 45900 10.1 110.0 -61.57 29.64 2015-05-16T06:00
Mumford_Cove 41.32526111 -72.02088 2015 monitoringMC_01 3151818 2015-05-16 6:30 10.52 8.24 45980 10.12 109.7 -61.76 29.68 2015-05-16T06:30
Mumford_Cove 41.32526111 -72.02088 2015 monitoringMC_01 3151818 2015-05-16 7:00 10.4 8.23 45980 10.12 109.4 -61.5 29.68 2015-05-16T07:00
Mumford_Cove 41.32526111 -72.02088 2015 monitoringMC_01 3151818 2015-05-16 7:30 10.21 8.24 45960 10.16 109.3 -61.59 29.65 2015-05-16T07:30
Mumford_Cove 41.32526111 -72.02088 2015 monitoringMC_01 3151818 2015-05-16 8:00 10.27 8.23 46050 10.11 109.0 -61.53 29.72 2015-05-16T08:00
Mumford_Cove 41.32526111 -72.02088 2015 monitoringMC_01 3151818 2015-05-16 8:30 10.19 8.23 46070 10.07 108.4 -61.41 29.73 2015-05-16T08:30
Mumford_Cove 41.32526111 -72.02088 2015 monitoringMC_01 3151818 2015-05-16 9:00 10.35 8.24 45940 10.0 108.0 -61.59 29.64 2015-05-16T09:00
Mumford_Cove 41.32526111 -72.02088 2015 monitoringMC_01 3151818 2015-05-16 9:30 10.28 8.23 45930 9.91 106.8 -61.22 29.63 2015-05-16T09:30
Mumford_Cove 41.32526111 -72.02088 2015 monitoringMC_01 3151818 2015-05-16 10:00 10.4 8.24 45990 10.09 109.1 -62.12 29.68 2015-05-16T10:00
Mumford_Cove 41.32526111 -72.02088 2015 monitoringMC_01 3151818 2015-05-16 10:30 10.49 8.24 45900 10.04 108.7 -61.94 29.62 2015-05-16T10:30
Mumford_Cove 41.32526111 -72.02088 2015 monitoringMC_01 3151818 2015-05-16 11:00 10.73 8.25 45920 10.15 110.5 -62.23 29.65 2015-05-16T11:00
Mumford_Cove 41.32526111 -72.02088 2015 monitoringMC_01 3151818 2015-05-16 11:30 10.8 8.25 45930 10.28 112.1 -62.48 29.66 2015-05-16T11:30
Mumford_Cove 41.32526111 -72.02088 2015 monitoringMC_01 3151818 2015-05-16 12:00 10.93 8.26 45930 10.51 115.0 -63.33 29.67 2015-05-16T12:00
Mumford_Cove 41.32526111 -72.02088 2015 monitoringMC_01 3151818 2015-05-16 12:30 11.16 8.28 45770 10.68 117.3 -64.04 29.56 2015-05-16T12:30
Mumford_Cove 41.32526111 -72.02088 2015 monitoringMC_01 3151818 2015-05-16 13:00 11.15 8.32 45910 11.39 125.1 -66.36 29.66 2015-05-16T13:00
Mumford_Cove 41.32526111 -72.02088 2015 monitoringMC_01 3151818 2015-05-16 13:30 11.65 8.3 45860 11.59 128.7 -65.61 29.65 2015-05-16T13:30
Mumford_Cove 41.32526111 -72.02088 2015 monitoringMC_01 3151818 2015-05-16 14:00 12.34 8.26 45450 10.75 120.9 -63.35 29.39 2015-05-16T14:00
Mumford_Cove 41.32526111 -72.02088 2015 monitoringMC_01 3151818 2015-05-16 14:30 12.74 8.25 45480 11.24 127.5 -62.77 29.42 2015-05-16T14:30
Mumford_Cove 41.32526111 -72.02088 2015 monitoringMC_01 3151818 2015-05-16 15:00 11.57 8.41 45850 12.9 143.0 -71.75 29.64 2015-05-16T15:00
Mumford_Cove 41.32526111 -72.02088 2015 monitoringMC_01 3151818 2015-05-16 15:30 11.64 8.41 45950 12.81 142.2 -71.62 29.72 2015-05-16T15:30
Mumford_Cove 41.32526111 -72.02088 2015 monitoringMC_01 3151818 2015-05-16 16:00 12.07 8.37 45810 12.42 139.2 -69.33 29.63 2015-05-16T16:00
Mumford_Cove 41.32526111 -72.02088 2015 monitoringMC_01 3151818 2015-05-16 16:30 13.73 8.25 45350 10.78 124.8 -63.36 29.36 2015-05-16T16:30
Mumford_Cove 41.32526111 -72.02088 2015 monitoringMC_01 3151818 2015-05-16 17:00 13.64 8.22 45480 10.27 118.8 -61.35 29.45 2015-05-16T17:00
Mumford_Cove 41.32526111 -72.02088 2015 monitoringMC_01 3151818 2015-05-16 17:30 13.38 8.22 45610 10.22 117.7 -61.19 29.54 2015-05-16T17:30
Mumford_Cove 41.32526111 -72.02088 2015 monitoringMC_01 3151818 2015-05-16 18:00 11.65 8.26 45890 10.8 120.0 -63.27 29.67 2015-05-16T18:00
Mumford_Cove 41.32526111 -72.02088 2015 monitoringMC_01 3151818 2015-05-16 18:30 11.14 8.28 45920 10.93 120.1 -64.23 29.67 2015-05-16T18:30
Mumford_Cove 41.32526111 -72.02088 2015 monitoringMC_01 3151818 2015-05-16 19:00 10.76 8.29 45960 11.04 120.3 -64.93 29.68 2015-05-16T19:00
Mumford_Cove 41.32526111 -72.02088 2015 monitoringMC_01 3151818 2015-05-16 19:30 10.74 8.29 45970 11.03 120.1 -64.85 29.69 2015-05-16T19:30
Mumford_Cove 41.32526111 -72.02088 2015 monitoringMC_01 3151818 2015-05-16 20:00 10.71 8.29 45970 10.98 119.5 -64.84 29.68 2015-05-16T20:00
Mumford_Cove 41.32526111 -72.02088 2015 monitoringMC_01 3151818 2015-05-16 20:30 10.67 8.29 45920 10.98 119.4 -64.84 29.65 2015-05-16T20:30
Mumford_Cove 41.32526111 -72.02088 2015 monitoringMC_01 3151818 2015-05-16 21:00 10.53 8.29 46020 10.97 118.9 -64.7 29.71 2015-05-16T21:00
Mumford_Cove 41.32526111 -72.02088 2015 monitoringMC_01 3151818 2015-05-16 21:30 10.53 8.29 46000 10.96 118.8 -64.53 29.7 2015-05-16T21:30
Mumford_Cove 41.32526111 -72.02088 2015 monitoringMC_01 3151818 2015-05-16 22:00 10.57 8.29 45990 10.9 118.3 -64.43 29.69 2015-05-16T22:00
Mumford_Cove 41.32526111 -72.02088 2015 monitoringMC_01 3151818 2015-05-16 22:30 10.6 8.29 45900 10.77 116.9 -64.71 29.63 2015-05-16T22:30
Mumford_Cove 41.32526111 -72.02088 2015 monitoringMC_01 3151818 2015-05-16 23:00 10.56 8.28 46030 10.67 115.8 -64.08 29.72 2015-05-16T23:00
Mumford_Cove 41.32526111 -72.02088 2015 monitoringMC_01 3151818 2015-05-16 23:30 10.58 8.27 45970 10.67 115.8 -63.77 29.68 2015-05-16T23:30
Mumford_Cove 41.32526111 -72.02088 2015 monitoringMC_01 3151818 2015-05-17 0:00 10.64 8.27 46040 10.62 115.4 -63.66 29.73 2015-05-17T00:00
Mumford_Cove 41.32526111 -72.02088 2015 monitoringMC_01 3151818 2015-05-17 0:30 10.66 8.27 45980 10.43 113.5 -63.65 29.69 2015-05-17T00:30
Mumford_Cove 41.32526111 -72.02088 2015 monitoringMC_01 3151818 2015-05-17 1:00 10.7 8.26 46080 10.49 114.2 -62.95 29.76 2015-05-17T01:00
Mumford_Cove 41.32526111 -72.02088 2015 monitoringMC_01 3151818 2015-05-17 1:30 10.79 8.25 45920 10.34 112.7 -62.71 29.65 2015-05-17T01:30
Mumford_Cove 41.32526111 -72.02088 2015 monitoringMC_01 3151818 2015-05-17 2:00 11.12 8.24 45910 10.28 112.9 -62.17 29.66 2015-05-17T02:00
Mumford_Cove 41.32526111 -72.02088 2015 monitoringMC_01 3151818 2015-05-17 2:30 11.35 8.23 45940 10.21 112.7 -61.56 29.7 2015-05-17T02:30
Mumford_Cove 41.32526111 -72.02088 2015 monitoringMC_01 3151818 2015-05-17 3:00 12.28 8.17 45710 9.42 105.9 -58.27 29.57 2015-05-17T03:00
Mumford_Cove 41.32526111 -72.02088 2015 monitoringMC_01 3151818 2015-05-17 3:30 11.7 8.17 45840 9.33 103.7 -58.18 29.64 2015-05-17T03:30
Mumford_Cove 41.32526111 -72.02088 2015 monitoringMC_01 3151818 2015-05-17 4:00 11.16 8.2 45910 9.68 106.4 -59.72 29.66 2015-05-17T04:00
Mumford_Cove 41.32526111 -72.02088 2015 monitoringMC_01 3151818 2015-05-17 4:30 11.22 8.17 45870 9.4 103.4 -58.12 29.64 2015-05-17T04:30
Mumford_Cove 41.32526111 -72.02088 2015 monitoringMC_01 3151818 2015-05-17 5:00 13.01 8.09 45060 8.55 97.4 -53.98 29.13 2015-05-17T05:00
Mumford_Cove 41.32526111 -72.02088 2015 monitoringMC_01 3151818 2015-05-17 5:30 12.81 8.09 45150 8.51 96.6 -53.97 29.19 2015-05-17T05:30
Mumford_Cove 41.32526111 -72.02088 2015 monitoringMC_01 3151818 2015-05-17 6:00 12.31 8.13 45360 8.9 100.0 -56.07 29.32 2015-05-17T06:00
Mumford_Cove 41.32526111 -72.02088 2015 monitoringMC_01 3151818 2015-05-17 6:30 11.05 8.18 45790 9.38 102.7 -58.49 29.57 2015-05-17T06:30
Mumford_Cove 41.32526111 -72.02088 2015 monitoringMC_01 3151818 2015-05-17 7:00 10.44 8.2 45950 9.69 104.8 -59.78 29.66 2015-05-17T07:00
Mumford_Cove 41.32526111 -72.02088 2015 monitoringMC_01 3151818 2015-05-17 7:30 10.31 8.21 45940 9.83 106.1 -60.3 29.64 2015-05-17T07:30
Mumford_Cove 41.32526111 -72.02088 2015 monitoringMC_01 3151818 2015-05-17 8:00 10.18 8.22 45980 9.9 106.5 -60.95 29.66 2015-05-17T08:00
Mumford_Cove 41.32526111 -72.02088 2015 monitoringMC_01 3151818 2015-05-17 8:30 10.09 8.23 46090 10.02 107.6 -61.27 29.74 2015-05-17T08:30
Mumford_Cove 41.32526111 -72.02088 2015 monitoringMC_01 3151818 2015-05-17 9:00 10.11 8.24 46010 10.0 107.4 -61.67 29.68 2015-05-17T09:00
Mumford_Cove 41.32526111 -72.02088 2015 monitoringMC_01 3151818 2015-05-17 9:30 10.29 8.23 45980 10.11 109.0 -61.54 29.67 2015-05-17T09:30
Mumford_Cove 41.32526111 -72.02088 2015 monitoringMC_01 3151818 2015-05-17 10:00 10.19 8.25 46060 10.35 111.4 -62.6 29.72 2015-05-17T10:00
Mumford_Cove 41.32526111 -72.02088 2015 monitoringMC_01 3151818 2015-05-17 10:30 10.46 8.27 46110 10.34 112.0 -63.68 29.77 2015-05-17T10:30
Mumford_Cove 41.32526111 -72.02088 2015 monitoringMC_01 3151818 2015-05-17 11:00 10.54 8.28 46000 10.67 115.7 -63.86 29.7 2015-05-17T11:00
Mumford_Cove 41.32526111 -72.02088 2015 monitoringMC_01 3151818 2015-05-17 11:30 10.73 8.28 46000 10.72 116.8 -63.97 29.71 2015-05-17T11:30
Mumford_Cove 41.32526111 -72.02088 2015 monitoringMC_01 3151818 2015-05-17 12:00 10.86 8.28 46010 10.83 118.3 -64.18 29.72 2015-05-17T12:00
Mumford_Cove 41.32526111 -72.02088 2015 monitoringMC_01 3151818 2015-05-17 12:30 11.09 8.3 45950 10.89 119.6 -65.19 29.69 2015-05-17T12:30
Mumford_Cove 41.32526111 -72.02088 2015 monitoringMC_01 3151818 2015-05-17 13:00 11.19 8.29 46010 11.09 122.0 -65.05 29.74 2015-05-17T13:00
Mumford_Cove 41.32526111 -72.02088 2015 monitoringMC_01 3151818 2015-05-17 13:30 11.54 8.3 45900 11.24 124.5 -65.46 29.68 2015-05-17T13:30
Mumford_Cove 41.32526111 -72.02088 2015 monitoringMC_01 3151818 2015-05-17 14:00 12.27 8.32 45800 11.81 132.9 -67.0 29.63 2015-05-17T14:00
Mumford_Cove 41.32526111 -72.02088 2015 monitoringMC_01 3151818 2015-05-17 14:30 13.58 8.23 45690 11.18 129.2 -62.15 29.6 2015-05-17T14:30
Mumford_Cove 41.32526111 -72.02088 2015 monitoringMC_01 3151818 2015-05-17 15:00 12.59 8.27 45710 11.45 129.7 -64.35 29.58 2015-05-17T15:00
Mumford_Cove 41.32526111 -72.02088 2015 monitoringMC_01 3151818 2015-05-17 15:30 11.97 8.3 45860 11.47 128.2 -65.48 29.67 2015-05-17T15:30
Mumford_Cove 41.32526111 -72.02088 2015 monitoringMC_01 3151818 2015-05-17 16:00 12.71 8.23 45700 11.62 131.9 -61.85 29.58 2015-05-17T16:00
Mumford_Cove 41.32526111 -72.02088 2015 monitoringMC_01 3151818 2015-05-17 16:30 13.05 8.23 45680 10.61 121.3 -62.01 29.58 2015-05-17T16:30
Mumford_Cove 41.32526111 -72.02088 2015 monitoringMC_01 3151818 2015-05-17 17:00 14.34 8.32 45700 12.04 141.4 -67.37 29.63 2015-05-17T17:00
Mumford_Cove 41.32526111 -72.02088 2015 monitoringMC_01 3151818 2015-05-17 17:30 15.72 8.3 45570 11.73 141.6 -66.56 29.56 2015-05-17T17:30
Mumford_Cove 41.32526111 -72.02088 2015 monitoringMC_01 3151818 2015-05-17 18:00 16.68 8.26 45960 11.3 139.2 -64.76 29.85 2015-05-17T18:00
Mumford_Cove 41.32526111 -72.02088 2015 monitoringMC_01 3151818 2015-05-17 18:30 16.72 8.26 45780 11.13 137.2 -64.68 29.72 2015-05-17T18:30
Mumford_Cove 41.32526111 -72.02088 2015 monitoringMC_01 3151818 2015-05-17 19:00 14.68 8.27 46140 11.15 132.1 -64.41 29.95 2015-05-17T19:00
Mumford_Cove 41.32526111 -72.02088 2015 monitoringMC_01 3151818 2015-05-17 19:30 13.25 8.29 46070 11.42 131.3 -65.61 29.86 2015-05-17T19:30
Mumford_Cove 41.32526111 -72.02088 2015 monitoringMC_01 3151818 2015-05-17 20:00 12.89 8.29 46050 11.33 129.3 -65.53 29.84 2015-05-17T20:00
Mumford_Cove 41.32526111 -72.02088 2015 monitoringMC_01 3151818 2015-05-17 20:30 12.6 8.29 46130 11.29 128.0 -65.12 29.88 2015-05-17T20:30
Mumford_Cove 41.32526111 -72.02088 2015 monitoringMC_01 3151818 2015-05-17 21:00 12.67 8.29 46030 11.07 125.8 -64.97 29.81 2015-05-17T21:00
Mumford_Cove 41.32526111 -72.02088 2015 monitoringMC_01 3151818 2015-05-17 21:30 12.52 8.27 46030 10.98 124.4 -64.15 29.81 2015-05-17T21:30
Mumford_Cove 41.32526111 -72.02088 2015 monitoringMC_01 3151818 2015-05-17 22:00 12.45 8.27 46100 10.79 122.0 -63.79 29.86 2015-05-17T22:00
Mumford_Cove 41.32526111 -72.02088 2015 monitoringMC_01 3151818 2015-05-17 22:30 12.44 8.27 46080 10.75 121.6 -63.84 29.84 2015-05-17T22:30
Mumford_Cove 41.32526111 -72.02088 2015 monitoringMC_01 3151818 2015-05-17 23:00 12.43 8.26 46010 10.67 120.5 -63.49 29.79 2015-05-17T23:00
Mumford_Cove 41.32526111 -72.02088 2015 monitoringMC_01 3151818 2015-05-17 23:30 12.55 8.27 45960 10.64 120.5 -63.93 29.76 2015-05-17T23:30
Mumford_Cove 41.32526111 -72.02088 2015 monitoringMC_01 3151818 2015-05-18 0:00 12.53 8.25 46030 10.5 118.9 -62.79 29.81 2015-05-18T00:00
Mumford_Cove 41.32526111 -72.02088 2015 monitoringMC_01 3151818 2015-05-18 0:30 12.67 8.26 45940 10.47 118.9 -63.67 29.75 2015-05-18T00:30
Mumford_Cove 41.32526111 -72.02088 2015 monitoringMC_01 3151818 2015-05-18 1:00 12.68 8.29 45870 10.05 114.1 -65.26 29.7 2015-05-18T01:00
Mumford_Cove 41.32526111 -72.02088 2015 monitoringMC_01 3151818 2015-05-18 1:30 12.71 8.26 46080 10.43 118.6 -63.31 29.85 2015-05-18T01:30
Mumford_Cove 41.32526111 -72.02088 2015 monitoringMC_01 3151818 2015-05-18 2:00 12.5 8.19 46090 9.82 111.2 -59.83 29.85 2015-05-18T02:00
Mumford_Cove 41.32526111 -72.02088 2015 monitoringMC_01 3151818 2015-05-18 2:30 12.78 8.21 46030 10.06 114.5 -60.88 29.82 2015-05-18T02:30
Mumford_Cove 41.32526111 -72.02088 2015 monitoringMC_01 3151818 2015-05-18 3:00 13.65 8.18 45900 9.69 112.3 -59.4 29.75 2015-05-18T03:00
Mumford_Cove 41.32526111 -72.02088 2015 monitoringMC_01 3151818 2015-05-18 3:30 14.46 8.16 45870 9.33 109.9 -58.06 29.75 2015-05-18T03:30
Mumford_Cove 41.32526111 -72.02088 2015 monitoringMC_01 3151818 2015-05-18 4:00 14.8 8.14 45640 9.22 109.3 -57.36 29.59 2015-05-18T04:00
Mumford_Cove 41.32526111 -72.02088 2015 monitoringMC_01 3151818 2015-05-18 4:30 15.04 8.12 45610 8.95 106.6 -56.38 29.58 2015-05-18T04:30
Mumford_Cove 41.32526111 -72.02088 2015 monitoringMC_01 3151818 2015-05-18 5:00 14.59 8.13 45720 9.04 106.7 -56.54 29.65 2015-05-18T05:00
Mumford_Cove 41.32526111 -72.02088 2015 monitoringMC_01 3151818 2015-05-18 5:30 14.37 8.06 45490 8.01 94.0 -52.42 29.48 2015-05-18T05:30
Mumford_Cove 41.32526111 -72.02088 2015 monitoringMC_01 3151818 2015-05-18 6:00 15.25 8.08 45060 8.43 100.6 -54.04 29.19 2015-05-18T06:00
Mumford_Cove 41.32526111 -72.02088 2015 monitoringMC_01 3151818 2015-05-18 6:30 14.5 8.1 45560 8.58 101.1 -55.03 29.53 2015-05-18T06:30
Mumford_Cove 41.32526111 -72.02088 2015 monitoringMC_01 3151818 2015-05-18 7:00 13.56 8.14 45640 9.02 104.2 -57.14 29.56 2015-05-18T07:00
Mumford_Cove 41.32526111 -72.02088 2015 monitoringMC_01 3151818 2015-05-18 7:30 12.61 8.16 45840 9.22 104.5 -58.06 29.68 2015-05-18T07:30
Mumford_Cove 41.32526111 -72.02088 2015 monitoringMC_01 3151818 2015-05-18 8:00 11.88 8.2 46010 9.62 107.5 -59.85 29.77 2015-05-18T08:00
Mumford_Cove 41.32526111 -72.02088 2015 monitoringMC_01 3151818 2015-05-18 8:30 11.56 8.23 46320 9.92 110.1 -61.3 29.98 2015-05-18T08:30
Mumford_Cove 41.32526111 -72.02088 2015 monitoringMC_01 3151818 2015-05-18 9:00 11.28 8.24 46050 10.07 111.0 -62.07 29.77 2015-05-18T09:00
Mumford_Cove 41.32526111 -72.02088 2015 monitoringMC_01 3151818 2015-05-18 9:30 10.75 8.27 46270 10.44 113.8 -63.44 29.9 2015-05-18T09:30
Mumford_Cove 41.32526111 -72.02088 2015 monitoringMC_01 3151818 2015-05-18 10:00 10.9 8.27 46260 10.62 116.2 -63.7 29.9 2015-05-18T10:00
Mumford_Cove 41.32526111 -72.02088 2015 monitoringMC_01 3151818 2015-05-18 10:30 11.68 8.24 46110 10.3 114.6 -61.93 29.83 2015-05-18T10:30
Mumford_Cove 41.32526111 -72.02088 2015 monitoringMC_01 3151818 2015-05-18 11:00 11.35 8.28 46140 10.62 117.3 -64.26 29.84 2015-05-18T11:00
Mumford_Cove 41.32526111 -72.02088 2015 monitoringMC_01 3151818 2015-05-18 11:30 11.93 8.29 46120 11.14 124.6 -64.83 29.85 2015-05-18T11:30
Mumford_Cove 41.32526111 -72.02088 2015 monitoringMC_01 3151818 2015-05-18 12:00 12.77 8.23 46020 10.32 117.5 -61.75 29.81 2015-05-18T12:00
Mumford_Cove 41.32526111 -72.02088 2015 monitoringMC_01 3151818 2015-05-18 12:30 12.91 8.27 46100 10.83 123.7 -64.15 29.87 2015-05-18T12:30
Mumford_Cove 41.32526111 -72.02088 2015 monitoringMC_01 3151818 2015-05-18 13:00 13.28 8.29 45870 11.19 128.7 -65.1 29.72 2015-05-18T13:00
Mumford_Cove 41.32526111 -72.02088 2015 monitoringMC_01 3151818 2015-05-18 13:30 14.38 8.22 45880 10.46 123.0 -61.82 29.76 2015-05-18T13:30
Mumford_Cove 41.32526111 -72.02088 2015 monitoringMC_01 3151818 2015-05-18 14:00 15.37 8.17 45580 9.78 117.3 -59.14 29.56 2015-05-18T14:00
Mumford_Cove 41.32526111 -72.02088 2015 monitoringMC_01 3151818 2015-05-18 14:30 15.97 8.15 45550 9.62 116.6 -58.31 29.55 2015-05-18T14:30
Mumford_Cove 41.32526111 -72.02088 2015 monitoringMC_01 3151818 2015-05-18 15:00 16.54 8.15 45400 9.69 118.8 -58.5 29.45 2015-05-18T15:00
Mumford_Cove 41.32526111 -72.02088 2015 monitoringMC_01 3151818 2015-05-18 15:30 17.07 8.18 45240 10.03 124.1 -59.88 29.34 2015-05-18T15:30
Mumford_Cove 41.32526111 -72.02088 2015 monitoringMC_01 3151818 2015-05-18 16:00 17.34 8.22 45130 10.84 134.9 -62.6 29.26 2015-05-18T16:00
Mumford_Cove 41.32526111 -72.02088 2015 monitoringMC_01 3151818 2015-05-18 16:30 17.31 8.21 45150 10.56 131.2 -61.98 29.28 2015-05-18T16:30
Mumford_Cove 41.32526111 -72.02088 2015 monitoringMC_01 3151818 2015-05-18 17:00 17.36 8.23 45140 10.78 134.1 -62.89 29.27 2015-05-18T17:00
Mumford_Cove 41.32526111 -72.02088 2015 monitoringMC_01 3151818 2015-05-18 17:30 17.22 8.26 45190 10.93 135.6 -64.69 29.3 2015-05-18T17:30
Mumford_Cove 41.32526111 -72.02088 2015 monitoringMC_01 3151818 2015-05-18 18:00 16.54 8.38 45330 12.49 153.1 -71.2 29.4 2015-05-18T18:00
Mumford_Cove 41.32526111 -72.02088 2015 monitoringMC_01 3151818 2015-05-18 18:30 16.37 8.35 45500 12.15 148.5 -69.79 29.52 2015-05-18T18:30
Mumford_Cove 41.32526111 -72.02088 2015 monitoringMC_01 3151818 2015-05-18 19:00 15.82 8.25 45700 11.19 135.4 -64.01 29.66 2015-05-18T19:00
Mumford_Cove 41.32526111 -72.02088 2015 monitoringMC_01 3151818 2015-05-18 19:30 15.35 8.25 45990 10.69 128.3 -63.91 29.86 2015-05-18T19:30
Mumford_Cove 41.32526111 -72.02088 2015 monitoringMC_01 3151818 2015-05-18 20:00 14.52 8.26 46060 10.79 127.4 -63.97 29.89 2015-05-18T20:00
Mumford_Cove 41.32526111 -72.02088 2015 monitoringMC_01 3151818 2015-05-18 20:30 13.95 8.25 46110 10.73 125.2 -63.33 29.91 2015-05-18T20:30
Mumford_Cove 41.32526111 -72.02088 2015 monitoringMC_01 3151818 2015-05-18 21:00 13.57 8.25 46090 10.63 123.1 -63.06 29.89 2015-05-18T21:00
Mumford_Cove 41.32526111 -72.02088 2015 monitoringMC_01 3151818 2015-05-18 21:30 12.91 8.25 46190 10.57 120.7 -62.83 29.94 2015-05-18T21:30
Mumford_Cove 41.32526111 -72.02088 2015 monitoringMC_01 3151818 2015-05-18 22:00 12.68 8.24 46110 10.44 118.7 -62.41 29.87 2015-05-18T22:00
Mumford_Cove 41.32526111 -72.02088 2015 monitoringMC_01 3151818 2015-05-18 22:30 12.73 8.24 46310 10.33 117.6 -62.39 30.02 2015-05-18T22:30
Mumford_Cove 41.32526111 -72.02088 2015 monitoringMC_01 3151818 2015-05-18 23:00 12.78 8.23 46200 10.19 116.1 -62.08 29.94 2015-05-18T23:00
Mumford_Cove 41.32526111 -72.02088 2015 monitoringMC_01 3151818 2015-05-18 23:30 12.66 8.23 46190 10.06 114.4 -61.73 29.93 2015-05-18T23:30
Mumford_Cove 41.32526111 -72.02088 2015 monitoringMC_01 3151818 2015-05-19 0:00 12.58 8.23 46220 10.02 113.7 -61.83 29.95 2015-05-19T00:00
Mumford_Cove 41.32526111 -72.02088 2015 monitoringMC_01 3151818 2015-05-19 0:30 12.75 8.22 46120 9.91 112.8 -61.11 29.88 2015-05-19T00:30
Mumford_Cove 41.32526111 -72.02088 2015 monitoringMC_01 3151818 2015-05-19 1:00 12.66 8.21 46120 9.7 110.2 -61.0 29.88 2015-05-19T01:00
Mumford_Cove 41.32526111 -72.02088 2015 monitoringMC_01 3151818 2015-05-19 1:30 12.63 8.2 46210 9.54 108.4 -60.23 29.94 2015-05-19T01:30
Mumford_Cove 41.32526111 -72.02088 2015 monitoringMC_01 3151818 2015-05-19 2:00 12.66 8.21 46070 9.34 106.1 -60.46 29.84 2015-05-19T02:00
Mumford_Cove 41.32526111 -72.02088 2015 monitoringMC_01 3151818 2015-05-19 2:30 12.75 8.21 46150 9.37 106.7 -60.49 29.9 2015-05-19T02:30
Mumford_Cove 41.32526111 -72.02088 2015 monitoringMC_01 3151818 2015-05-19 3:00 12.78 8.17 46250 9.13 104.1 -58.33 29.98 2015-05-19T03:00
Mumford_Cove 41.32526111 -72.02088 2015 monitoringMC_01 3151818 2015-05-19 3:30 13.17 8.17 46120 9.07 104.2 -58.32 29.9 2015-05-19T03:30
Mumford_Cove 41.32526111 -72.02088 2015 monitoringMC_01 3151818 2015-05-19 4:00 14.29 8.17 45860 9.06 106.3 -58.84 29.74 2015-05-19T04:00
Mumford_Cove 41.32526111 -72.02088 2015 monitoringMC_01 3151818 2015-05-19 4:30 14.8 8.13 45920 8.65 102.6 -56.69 29.8 2015-05-19T04:30
Mumford_Cove 41.32526111 -72.02088 2015 monitoringMC_01 3151818 2015-05-19 5:00 14.89 8.12 45950 8.37 99.5 -56.21 29.82 2015-05-19T05:00
Mumford_Cove 41.32526111 -72.02088 2015 monitoringMC_01 3151818 2015-05-19 5:30 13.5 8.09 46120 7.75 89.6 -53.91 29.91 2015-05-19T05:30
Mumford_Cove 41.32526111 -72.02088 2015 monitoringMC_01 3151818 2015-05-19 6:00 14.25 8.07 45630 7.92 92.9 -53.44 29.57 2015-05-19T06:00
Mumford_Cove 41.32526111 -72.02088 2015 monitoringMC_01 3151818 2015-05-19 6:30 13.5 8.03 46040 7.25 83.8 -50.79 29.85 2015-05-19T06:30
Mumford_Cove 41.32526111 -72.02088 2015 monitoringMC_01 3151818 2015-05-19 7:00 15.11 8.08 45300 7.91 94.2 -53.8 29.36 2015-05-19T07:00
Mumford_Cove 41.32526111 -72.02088 2015 monitoringMC_01 3151818 2015-05-19 7:30 14.44 8.11 45460 8.24 96.9 -55.4 29.46 2015-05-19T07:30
Mumford_Cove 41.32526111 -72.02088 2015 monitoringMC_01 3151818 2015-05-19 8:00 13.65 8.13 45960 8.61 99.8 -56.37 29.8 2015-05-19T08:00
Mumford_Cove 41.32526111 -72.02088 2015 monitoringMC_01 3151818 2015-05-19 8:30 12.21 8.17 46060 9.03 101.6 -58.37 29.82 2015-05-19T08:30
Mumford_Cove 41.32526111 -72.02088 2015 monitoringMC_01 3151818 2015-05-19 9:00 11.49 8.18 46090 9.41 104.2 -58.91 29.81 2015-05-19T09:00
Mumford_Cove 41.32526111 -72.02088 2015 monitoringMC_01 3151818 2015-05-19 9:30 11.25 8.2 46160 9.58 105.6 -59.78 29.85 2015-05-19T09:30
Mumford_Cove 41.32526111 -72.02088 2015 monitoringMC_01 3151818 2015-05-19 10:00 11.19 8.2 46110 9.63 106.0 -59.98 29.81 2015-05-19T10:00
Mumford_Cove 41.32526111 -72.02088 2015 monitoringMC_01 3151818 2015-05-19 10:30 11.09 8.2 46190 9.68 106.3 -60.05 29.86 2015-05-19T10:30
Mumford_Cove 41.32526111 -72.02088 2015 monitoringMC_01 3151818 2015-05-19 11:00 11.17 8.2 46190 9.63 105.9 -59.95 29.87 2015-05-19T11:00
Mumford_Cove 41.32526111 -72.02088 2015 monitoringMC_01 3151818 2015-05-19 11:30 11.31 8.21 46070 9.49 104.7 -60.36 29.79 2015-05-19T11:30
Mumford_Cove 41.32526111 -72.02088 2015 monitoringMC_01 3151818 2015-05-19 12:00 11.3 8.23 46150 9.44 104.1 -61.72 29.84 2015-05-19T12:00
Mumford_Cove 41.32526111 -72.02088 2015 monitoringMC_01 3151818 2015-05-19 12:30 11.26 8.25 46170 9.02 99.4 -62.37 29.86 2015-05-19T12:30
Mumford_Cove 41.32526111 -72.02088 2015 monitoringMC_01 3151818 2015-05-19 13:00 11.35 8.27 46140 9.46 104.5 -63.93 29.84 2015-05-19T13:00
Mumford_Cove 41.32526111 -72.02088 2015 monitoringMC_01 3151818 2015-05-19 13:30 11.36 8.23 46150 9.62 106.3 -61.27 29.85 2015-05-19T13:30
Mumford_Cove 41.32526111 -72.02088 2015 monitoringMC_01 3151818 2015-05-19 14:00 11.22 8.21 46090 9.66 106.4 -60.26 29.8 2015-05-19T14:00
Mumford_Cove 41.32526111 -72.02088 2015 monitoringMC_01 3151818 2015-05-19 14:30 11.34 8.26 46080 9.44 104.2 -63.33 29.79 2015-05-19T14:30
Mumford_Cove 41.32526111 -72.02088 2015 monitoringMC_01 3151818 2015-05-19 15:00 11.41 8.26 46110 8.95 99.0 -63.24 29.82 2015-05-19T15:00
Mumford_Cove 41.32526111 -72.02088 2015 monitoringMC_01 3151818 2015-05-19 15:30 11.47 8.26 46150 9.58 106.1 -63.03 29.85 2015-05-19T15:30
Mumford_Cove 41.32526111 -72.02088 2015 monitoringMC_01 3151818 2015-05-19 16:00 11.57 8.27 46180 9.5 105.5 -63.77 29.88 2015-05-19T16:00
Mumford_Cove 41.32526111 -72.02088 2015 monitoringMC_01 3151818 2015-05-19 16:30 11.61 8.29 46120 9.83 109.2 -65.12 29.84 2015-05-19T16:30
Mumford_Cove 41.32526111 -72.02088 2015 monitoringMC_01 3151818 2015-05-19 17:00 11.61 8.29 46180 9.54 106.0 -65.2 29.88 2015-05-19T17:00
Mumford_Cove 41.32526111 -72.02088 2015 monitoringMC_01 3151818 2015-05-19 17:30 11.82 8.25 45980 10.07 112.3 -62.7 29.74 2015-05-19T17:30
Mumford_Cove 41.32526111 -72.02088 2015 monitoringMC_01 3151818 2015-05-19 18:00 11.65 8.25 46130 10.36 115.2 -62.76 29.85 2015-05-19T18:00
Mumford_Cove 41.32526111 -72.02088 2015 monitoringMC_01 3151818 2015-05-19 18:30 11.63 8.26 46120 10.06 111.8 -63.47 29.84 2015-05-19T18:30
Mumford_Cove 41.32526111 -72.02088 2015 monitoringMC_01 3151818 2015-05-19 19:00 11.74 8.25 46100 10.24 114.0 -62.51 29.83 2015-05-19T19:00
Mumford_Cove 41.32526111 -72.02088 2015 monitoringMC_01 3151818 2015-05-19 19:30 12.8 8.23 45260 10.06 114.2 -62.01 29.27 2015-05-19T19:30
Mumford_Cove 41.32526111 -72.02088 2015 monitoringMC_01 3151818 2015-05-19 20:00 12.09 8.27 45930 10.07 112.9 -63.69 29.72 2015-05-19T20:00
Mumford_Cove 41.32526111 -72.02088 2015 monitoringMC_01 3151818 2015-05-19 20:30 12.32 8.27 45770 10.16 114.4 -63.74 29.61 2015-05-19T20:30
Mumford_Cove 41.32526111 -72.02088 2015 monitoringMC_01 3151818 2015-05-19 21:00 12.16 8.25 45790 10.36 116.2 -62.99 29.62 2015-05-19T21:00
Mumford_Cove 41.32526111 -72.02088 2015 monitoringMC_01 3151818 2015-05-19 21:30 11.86 8.24 45970 10.28 114.8 -62.2 29.74 2015-05-19T21:30
Mumford_Cove 41.32526111 -72.02088 2015 monitoringMC_01 3151818 2015-05-19 22:00 11.69 8.23 45950 10.15 112.8 -61.88 29.72 2015-05-19T22:00
Mumford_Cove 41.32526111 -72.02088 2015 monitoringMC_01 3151818 2015-05-19 22:30 11.3 8.22 45940 9.95 109.7 -61.01 29.69 2015-05-19T22:30
Mumford_Cove 41.32526111 -72.02088 2015 monitoringMC_01 3151818 2015-05-19 23:00 11.23 8.23 46030 9.88 108.8 -61.31 29.75 2015-05-19T23:00
Mumford_Cove 41.32526111 -72.02088 2015 monitoringMC_01 3151818 2015-05-19 23:30 11.2 8.22 46050 9.81 108.0 -61.13 29.77 2015-05-19T23:30
Mumford_Cove 41.32526111 -72.02088 2015 monitoringMC_01 3151818 2015-05-20 0:00 10.75 8.21 46180 9.84 107.3 -60.47 29.84 2015-05-20T00:00
Mumford_Cove 41.32526111 -72.02088 2015 monitoringMC_01 3151818 2015-05-20 0:30 10.95 8.24 46250 9.69 106.2 -62.04 29.9 2015-05-20T00:30
Mumford_Cove 41.32526111 -72.02088 2015 monitoringMC_01 3151818 2015-05-20 1:00 10.89 8.22 46390 9.71 106.3 -61.02 29.99 2015-05-20T01:00
Mumford_Cove 41.32526111 -72.02088 2015 monitoringMC_01 3151818 2015-05-20 1:30 10.78 8.2 46170 9.64 105.1 -59.72 29.83 2015-05-20T01:30
Mumford_Cove 41.32526111 -72.02088 2015 monitoringMC_01 3151818 2015-05-20 2:00 10.84 8.2 46170 9.55 104.3 -59.81 29.83 2015-05-20T02:00
Mumford_Cove 41.32526111 -72.02088 2015 monitoringMC_01 3151818 2015-05-20 2:30 10.8 8.21 46240 9.39 102.6 -60.45 29.88 2015-05-20T02:30
Mumford_Cove 41.32526111 -72.02088 2015 monitoringMC_01 3151818 2015-05-20 3:00 10.85 8.18 46140 9.41 102.8 -58.54 29.81 2015-05-20T03:00
Mumford_Cove 41.32526111 -72.02088 2015 monitoringMC_01 3151818 2015-05-20 3:30 11.06 8.17 46050 9.32 102.3 -58.3 29.76 2015-05-20T03:30
Mumford_Cove 41.32526111 -72.02088 2015 monitoringMC_01 3151818 2015-05-20 4:00 11.6 8.17 46030 8.87 98.5 -58.06 29.77 2015-05-20T04:00
Mumford_Cove 41.32526111 -72.02088 2015 monitoringMC_01 3151818 2015-05-20 4:30 11.75 8.16 45850 8.83 98.2 -57.63 29.65 2015-05-20T04:30
Mumford_Cove 41.32526111 -72.02088 2015 monitoringMC_01 3151818 2015-05-20 5:00 11.56 8.13 45950 8.66 96.0 -56.22 29.71 2015-05-20T05:00
Mumford_Cove 41.32526111 -72.02088 2015 monitoringMC_01 3151818 2015-05-20 5:30 13.57 8.07 44680 8.25 95.0 -53.23 28.87 2015-05-20T05:30
Mumford_Cove 41.32526111 -72.02088 2015 monitoringMC_01 3151818 2015-05-20 6:00 11.84 8.07 46470 8.0 89.5 -52.67 30.1 2015-05-20T06:00
Mumford_Cove 41.32526111 -72.02088 2015 monitoringMC_01 3151818 2015-05-20 6:30 12.68 8.12 45420 8.32 94.3 -55.75 29.38 2015-05-20T06:30
Mumford_Cove 41.32526111 -72.02088 2015 monitoringMC_01 3151818 2015-05-20 7:00 12.69 8.12 45520 8.63 97.8 -55.44 29.45 2015-05-20T07:00
Mumford_Cove 41.32526111 -72.02088 2015 monitoringMC_01 3151818 2015-05-20 7:30 12.25 8.08 45360 8.29 93.0 -53.6 29.32 2015-05-20T07:30
Mumford_Cove 41.32526111 -72.02088 2015 monitoringMC_01 3151818 2015-05-20 8:00 12.5 8.09 44800 8.45 95.1 -53.89 28.93 2015-05-20T08:00
Mumford_Cove 41.32526111 -72.02088 2015 monitoringMC_01 3151818 2015-05-20 8:30 12.61 8.1 44440 8.58 96.6 -54.3 28.67 2015-05-20T08:30
Mumford_Cove 41.32526111 -72.02088 2015 monitoringMC_01 3151818 2015-05-20 9:00 12.18 8.15 44990 9.17 102.6 -57.39 29.05 2015-05-20T09:00
Mumford_Cove 41.32526111 -72.02088 2015 monitoringMC_01 3151818 2015-05-20 9:30 11.58 8.19 45580 9.64 106.7 -59.39 29.45 2015-05-20T09:30
Mumford_Cove 41.32526111 -72.02088 2015 monitoringMC_01 3151818 2015-05-20 10:00 11.35 8.21 45670 9.9 109.1 -60.6 29.5 2015-05-20T10:00
Mumford_Cove 41.32526111 -72.02088 2015 monitoringMC_01 3151818 2015-05-20 10:30 11.32 8.22 45680 10.07 110.9 -61.19 29.51 2015-05-20T10:30
Mumford_Cove 41.32526111 -72.02088 2015 monitoringMC_01 3151818 2015-05-20 11:00 11.56 8.23 45660 10.17 112.6 -61.75 29.5 2015-05-20T11:00
Mumford_Cove 41.32526111 -72.02088 2015 monitoringMC_01 3151818 2015-05-20 11:30 11.59 8.25 45750 10.29 114.0 -62.56 29.57 2015-05-20T11:30
Mumford_Cove 41.32526111 -72.02088 2015 monitoringMC_01 3151818 2015-05-20 12:00 11.72 8.26 45660 10.47 116.3 -63.37 29.51 2015-05-20T12:00
Mumford_Cove 41.32526111 -72.02088 2015 monitoringMC_01 3151818 2015-05-20 12:30 11.91 8.3 45690 10.78 120.3 -65.52 29.54 2015-05-20T12:30
Mumford_Cove 41.32526111 -72.02088 2015 monitoringMC_01 3151818 2015-05-20 13:00 12.56 8.25 45360 10.63 120.2 -62.94 29.33 2015-05-20T13:00
Mumford_Cove 41.32526111 -72.02088 2015 monitoringMC_01 3151818 2015-05-20 13:30 12.36 8.32 45650 10.97 123.6 -66.92 29.53 2015-05-20T13:30
Mumford_Cove 41.32526111 -72.02088 2015 monitoringMC_01 3151818 2015-05-20 14:00 12.74 8.36 45520 11.83 134.2 -69.3 29.45 2015-05-20T14:00
Mumford_Cove 41.32526111 -72.02088 2015 monitoringMC_01 3151818 2015-05-20 14:30 14.07 8.18 44800 9.7 112.8 -59.47 28.97 2015-05-20T14:30
Mumford_Cove 41.32526111 -72.02088 2015 monitoringMC_01 3151818 2015-05-20 15:00 13.74 8.22 45040 10.21 118.1 -61.81 29.14 2015-05-20T15:00
Mumford_Cove 41.32526111 -72.02088 2015 monitoringMC_01 3151818 2015-05-20 15:30 14.13 8.2 44830 9.54 111.1 -60.63 29.0 2015-05-20T15:30
Mumford_Cove 41.32526111 -72.02088 2015 monitoringMC_01 3151818 2015-05-20 16:00 14.53 8.17 44680 9.64 113.2 -59.05 28.9 2015-05-20T16:00
Mumford_Cove 41.32526111 -72.02088 2015 monitoringMC_01 3151818 2015-05-20 16:30 14.57 8.22 44720 10.08 118.4 -61.48 28.93 2015-05-20T16:30
Mumford_Cove 41.32526111 -72.02088 2015 monitoringMC_01 3151818 2015-05-20 17:00 14.76 8.23 44680 10.25 120.9 -62.32 28.9 2015-05-20T17:00
Mumford_Cove 41.32526111 -72.02088 2015 monitoringMC_01 3151818 2015-05-20 17:30 14.85 8.24 44730 10.34 122.2 -62.94 28.94 2015-05-20T17:30
Mumford_Cove 41.32526111 -72.02088 2015 monitoringMC_01 3151818 2015-05-20 18:00 14.77 8.25 44790 10.34 122.0 -63.38 28.98 2015-05-20T18:00
Mumford_Cove 41.32526111 -72.02088 2015 monitoringMC_01 3151818 2015-05-20 18:30 14.64 8.3 44820 10.67 125.6 -66.08 29.0 2015-05-20T18:30
Mumford_Cove 41.32526111 -72.02088 2015 monitoringMC_01 3151818 2015-05-20 19:00 14.63 8.34 44820 11.03 129.8 -68.8 29.0 2015-05-20T19:00
Mumford_Cove 41.32526111 -72.02088 2015 monitoringMC_01 3151818 2015-05-20 19:30 14.43 8.34 44760 10.87 127.4 -68.29 28.95 2015-05-20T19:30
Mumford_Cove 41.32526111 -72.02088 2015 monitoringMC_01 3151818 2015-05-20 20:00 14.32 8.29 44850 10.17 119.0 -65.79 29.02 2015-05-20T20:00
Mumford_Cove 41.32526111 -72.02088 2015 monitoringMC_01 3151818 2015-05-20 20:30 14.3 8.26 45000 9.67 113.1 -63.76 29.12 2015-05-20T20:30
Mumford_Cove 41.32526111 -72.02088 2015 monitoringMC_01 3151818 2015-05-20 21:00 14.22 8.25 45100 9.44 110.2 -63.62 29.19 2015-05-20T21:00
Mumford_Cove 41.32526111 -72.02088 2015 monitoringMC_01 3151818 2015-05-20 21:30 13.23 8.25 45770 9.61 110.4 -63.29 29.65 2015-05-20T21:30
Mumford_Cove 41.32526111 -72.02088 2015 monitoringMC_01 3151818 2015-05-20 22:00 11.68 8.27 46090 10.04 111.7 -63.99 29.82 2015-05-20T22:00
Mumford_Cove 41.32526111 -72.02088 2015 monitoringMC_01 3151818 2015-05-20 22:30 11.41 8.27 46240 10.0 110.6 -63.63 29.91 2015-05-20T22:30
Mumford_Cove 41.32526111 -72.02088 2015 monitoringMC_01 3151818 2015-05-20 23:00 11.04 8.26 46340 10.02 110.0 -63.38 29.97 2015-05-20T23:00
Mumford_Cove 41.32526111 -72.02088 2015 monitoringMC_01 3151818 2015-05-20 23:30 10.89 8.26 46220 9.98 109.2 -63.15 29.87 2015-05-20T23:30
Mumford_Cove 41.32526111 -72.02088 2015 monitoringMC_01 3151818 2015-05-21 0:00 10.8 8.26 46310 9.89 108.1 -62.95 29.93 2015-05-21T00:00
Mumford_Cove 41.32526111 -72.02088 2015 monitoringMC_01 3151818 2015-05-21 0:30 10.7 8.25 46370 9.85 107.4 -62.75 29.97 2015-05-21T00:30
Mumford_Cove 41.32526111 -72.02088 2015 monitoringMC_01 3151818 2015-05-21 1:00 10.62 8.27 46380 9.64 104.9 -63.42 29.97 2015-05-21T01:00
Mumford_Cove 41.32526111 -72.02088 2015 monitoringMC_01 3151818 2015-05-21 1:30 10.6 8.25 46310 9.68 105.3 -62.28 29.92 2015-05-21T01:30
Mumford_Cove 41.32526111 -72.02088 2015 monitoringMC_01 3151818 2015-05-21 2:00 10.68 8.27 46310 9.28 101.1 -63.4 29.93 2015-05-21T02:00
Mumford_Cove 41.32526111 -72.02088 2015 monitoringMC_01 3151818 2015-05-21 2:30 10.65 8.26 46360 9.22 100.4 -63.05 29.96 2015-05-21T02:30
Mumford_Cove 41.32526111 -72.02088 2015 monitoringMC_01 3151818 2015-05-21 3:00 10.72 8.21 46390 9.2 100.3 -60.52 29.99 2015-05-21T03:00
Mumford_Cove 41.32526111 -72.02088 2015 monitoringMC_01 3151818 2015-05-21 3:30 10.66 8.28 46340 8.72 95.0 -64.24 29.95 2015-05-21T03:30
Mumford_Cove 41.32526111 -72.02088 2015 monitoringMC_01 3151818 2015-05-21 4:00 10.64 8.26 46270 8.79 95.6 -62.78 29.9 2015-05-21T04:00
Mumford_Cove 41.32526111 -72.02088 2015 monitoringMC_01 3151818 2015-05-21 4:30 10.7 8.22 46280 9.0 98.1 -60.87 29.91 2015-05-21T04:30
Mumford_Cove 41.32526111 -72.02088 2015 monitoringMC_01 3151818 2015-05-21 5:00 10.75 8.2 46320 8.83 96.4 -59.44 29.94 2015-05-21T05:00
Mumford_Cove 41.32526111 -72.02088 2015 monitoringMC_01 3151818 2015-05-21 5:30 10.86 8.2 46180 8.72 95.3 -59.85 29.84 2015-05-21T05:30
Mumford_Cove 41.32526111 -72.02088 2015 monitoringMC_01 3151818 2015-05-21 6:00 11.2 8.19 46250 8.35 92.0 -59.51 29.91 2015-05-21T06:00
Mumford_Cove 41.32526111 -72.02088 2015 monitoringMC_01 3151818 2015-05-21 6:30 11.3 8.19 46200 8.19 90.4 -59.51 29.88 2015-05-21T06:30
Mumford_Cove 41.32526111 -72.02088 2015 monitoringMC_01 3151818 2015-05-21 7:00 10.86 8.17 46310 7.36 80.5 -58.29 29.94 2015-05-21T07:00
Mumford_Cove 41.32526111 -72.02088 2015 monitoringMC_01 3151818 2015-05-21 7:30 11.12 8.14 46190 8.16 89.7 -56.62 29.86 2015-05-21T07:30
Mumford_Cove 41.32526111 -72.02088 2015 monitoringMC_01 3151818 2015-05-21 8:00 11.48 8.15 46010 8.33 92.2 -57.0 29.75 2015-05-21T08:00
Mumford_Cove 41.32526111 -72.02088 2015 monitoringMC_01 3151818 2015-05-21 8:30 12.16 8.21 45350 9.06 101.5 -60.72 29.31 2015-05-21T08:30
Mumford_Cove 41.32526111 -72.02088 2015 monitoringMC_01 3151818 2015-05-21 9:00 12.5 8.22 45230 9.24 104.2 -61.38 29.23 2015-05-21T09:00
Mumford_Cove 41.32526111 -72.02088 2015 monitoringMC_01 3151818 2015-05-21 9:30 12.3 8.23 45340 9.37 105.3 -61.81 29.31 2015-05-21T09:30
Mumford_Cove 41.32526111 -72.02088 2015 monitoringMC_01 3151818 2015-05-21 10:00 12.29 8.24 45430 9.57 107.6 -62.42 29.37 2015-05-21T10:00
Mumford_Cove 41.32526111 -72.02088 2015 monitoringMC_01 3151818 2015-05-21 10:30 12.22 8.25 45620 9.68 108.7 -63.02 29.5 2015-05-21T10:30
Mumford_Cove 41.32526111 -72.02088 2015 monitoringMC_01 3151818 2015-05-21 11:00 12.21 8.27 45720 9.84 110.5 -63.79 29.57 2015-05-21T11:00
Mumford_Cove 41.32526111 -72.02088 2015 monitoringMC_01 3151818 2015-05-21 11:30 11.92 8.29 45880 10.19 113.9 -64.75 29.68 2015-05-21T11:30
Mumford_Cove 41.32526111 -72.02088 2015 monitoringMC_01 3151818 2015-05-21 12:00 11.85 8.29 45970 10.33 115.3 -64.89 29.74 2015-05-21T12:00
Mumford_Cove 41.32526111 -72.02088 2015 monitoringMC_01 3151818 2015-05-21 12:30 11.88 8.29 45960 10.48 117.0 -65.09 29.73 2015-05-21T12:30
Mumford_Cove 41.32526111 -72.02088 2015 monitoringMC_01 3151818 2015-05-21 13:00 12.15 8.29 45920 10.09 113.3 -64.85 29.72 2015-05-21T13:00
Mumford_Cove 41.32526111 -72.02088 2015 monitoringMC_01 3151818 2015-05-21 13:30 12.36 8.31 46000 10.1 114.0 -66.1 29.78 2015-05-21T13:30
Mumford_Cove 41.32526111 -72.02088 2015 monitoringMC_01 3151818 2015-05-21 14:00 12.4 8.32 45930 10.9 123.1 -67.08 29.73 2015-05-21T14:00
Mumford_Cove 41.32526111 -72.02088 2015 monitoringMC_01 3151818 2015-05-21 14:30 12.6 8.35 45890 10.69 121.2 -68.37 29.71 2015-05-21T14:30
Mumford_Cove 41.32526111 -72.02088 2015 monitoringMC_01 3151818 2015-05-21 15:00 12.64 8.33 45860 10.96 124.3 -67.28 29.69 2015-05-21T15:00
Mumford_Cove 41.32526111 -72.02088 2015 monitoringMC_01 3151818 2015-05-21 15:30 12.75 8.35 45890 11.17 127.0 -68.89 29.72 2015-05-21T15:30
Mumford_Cove 41.32526111 -72.02088 2015 monitoringMC_01 3151818 2015-05-21 16:00 12.91 8.35 45790 11.05 126.0 -68.45 29.65 2015-05-21T16:00
Mumford_Cove 41.32526111 -72.02088 2015 monitoringMC_01 3151818 2015-05-21 16:30 12.99 8.43 45810 11.46 130.9 -73.35 29.67 2015-05-21T16:30
Mumford_Cove 41.32526111 -72.02088 2015 monitoringMC_01 3151818 2015-05-21 17:00 13.01 8.38 45750 11.97 136.8 -70.54 29.63 2015-05-21T17:00
Mumford_Cove 41.32526111 -72.02088 2015 monitoringMC_01 3151818 2015-05-21 17:30 13.27 8.36 45680 11.79 135.4 -69.06 29.58 2015-05-21T17:30
Mumford_Cove 41.32526111 -72.02088 2015 monitoringMC_01 3151818 2015-05-21 18:00 13.52 8.37 45690 12.03 138.9 -69.73 29.6 2015-05-21T18:00
Mumford_Cove 41.32526111 -72.02088 2015 monitoringMC_01 3151818 2015-05-21 18:30 13.68 8.33 45600 11.68 135.2 -67.84 29.54 2015-05-21T18:30
Mumford_Cove 41.32526111 -72.02088 2015 monitoringMC_01 3151818 2015-05-21 19:00 13.67 8.34 45590 11.53 133.5 -68.1 29.53 2015-05-21T19:00
Mumford_Cove 41.32526111 -72.02088 2015 monitoringMC_01 3151818 2015-05-21 19:30 13.81 8.35 45490 11.62 134.8 -68.81 29.46 2015-05-21T19:30
Mumford_Cove 41.32526111 -72.02088 2015 monitoringMC_01 3151818 2015-05-21 20:00 14.15 8.34 45520 11.21 131.0 -68.61 29.49 2015-05-21T20:00
Mumford_Cove 41.32526111 -72.02088 2015 monitoringMC_01 3151818 2015-05-21 20:30 13.74 8.36 45690 11.53 133.7 -69.57 29.6 2015-05-21T20:30
Mumford_Cove 41.32526111 -72.02088 2015 monitoringMC_01 3151818 2015-05-21 21:00 13.68 8.36 45890 11.13 129.1 -69.23 29.75 2015-05-21T21:00
Mumford_Cove 41.32526111 -72.02088 2015 monitoringMC_01 3151818 2015-05-21 21:30 13.71 8.36 45780 10.72 124.3 -69.32 29.67 2015-05-21T21:30
Mumford_Cove 41.32526111 -72.02088 2015 monitoringMC_01 3151818 2015-05-21 22:00 13.88 8.3 45800 10.26 119.4 -65.9 29.69 2015-05-21T22:00
Mumford_Cove 41.32526111 -72.02088 2015 monitoringMC_01 3151818 2015-05-21 22:30 13.79 8.28 45880 9.92 115.3 -64.69 29.74 2015-05-21T22:30
Mumford_Cove 41.32526111 -72.02088 2015 monitoringMC_01 3151818 2015-05-21 23:00 13.75 8.29 45940 9.87 114.6 -65.53 29.78 2015-05-21T23:00
Mumford_Cove 41.32526111 -72.02088 2015 monitoringMC_01 3151818 2015-05-21 23:30 13.39 8.27 45980 9.54 109.9 -64.02 29.8 2015-05-21T23:30
Mumford_Cove 41.32526111 -72.02088 2015 monitoringMC_01 3151818 2015-05-22 0:00 13.05 8.24 45990 9.47 108.5 -62.56 29.8 2015-05-22T00:00
Mumford_Cove 41.32526111 -72.02088 2015 monitoringMC_01 3151818 2015-05-22 0:30 12.88 8.24 46080 9.49 108.3 -62.61 29.86 2015-05-22T00:30
Mumford_Cove 41.32526111 -72.02088 2015 monitoringMC_01 3151818 2015-05-22 1:00 12.73 8.23 46110 9.53 108.4 -61.92 29.87 2015-05-22T01:00
Mumford_Cove 41.32526111 -72.02088 2015 monitoringMC_01 3151818 2015-05-22 1:30 12.75 8.23 45980 9.42 107.2 -61.74 29.78 2015-05-22T01:30
Mumford_Cove 41.32526111 -72.02088 2015 monitoringMC_01 3151818 2015-05-22 2:00 12.78 8.23 46140 9.32 106.2 -61.74 29.9 2015-05-22T02:00
Mumford_Cove 41.32526111 -72.02088 2015 monitoringMC_01 3151818 2015-05-22 2:30 12.82 8.23 46020 9.21 105.0 -62.07 29.81 2015-05-22T02:30
Mumford_Cove 41.32526111 -72.02088 2015 monitoringMC_01 3151818 2015-05-22 3:00 12.89 8.22 45930 9.21 105.1 -61.28 29.75 2015-05-22T03:00
Mumford_Cove 41.32526111 -72.02088 2015 monitoringMC_01 3151818 2015-05-22 3:30 12.85 8.21 46000 9.04 103.1 -60.86 29.8 2015-05-22T03:30
Mumford_Cove 41.32526111 -72.02088 2015 monitoringMC_01 3151818 2015-05-22 4:00 12.94 8.24 46120 9.08 103.8 -62.67 29.89 2015-05-22T04:00
Mumford_Cove 41.32526111 -72.02088 2015 monitoringMC_01 3151818 2015-05-22 4:30 13.16 8.22 45900 8.94 102.6 -61.55 29.74 2015-05-22T04:30
Mumford_Cove 41.32526111 -72.02088 2015 monitoringMC_01 3151818 2015-05-22 5:00 13.03 8.23 45910 8.36 95.6 -61.83 29.74 2015-05-22T05:00
Mumford_Cove 41.32526111 -72.02088 2015 monitoringMC_01 3151818 2015-05-22 5:30 12.96 8.2 45910 8.98 102.6 -60.26 29.74 2015-05-22T05:30
Mumford_Cove 41.32526111 -72.02088 2015 monitoringMC_01 3151818 2015-05-22 6:00 13.25 8.24 45830 8.6 98.8 -62.6 29.69 2015-05-22T06:00
Mumford_Cove 41.32526111 -72.02088 2015 monitoringMC_01 3151818 2015-05-22 6:30 13.05 8.26 45860 7.75 88.7 -63.85 29.71 2015-05-22T06:30
Mumford_Cove 41.32526111 -72.02088 2015 monitoringMC_01 3151818 2015-05-22 7:00 13.13 8.27 45930 8.01 91.8 -63.99 29.76 2015-05-22T07:00
Mumford_Cove 41.32526111 -72.02088 2015 monitoringMC_01 3151818 2015-05-22 7:30 13.32 8.23 45730 8.56 98.4 -61.77 29.62 2015-05-22T07:30
Mumford_Cove 41.32526111 -72.02088 2015 monitoringMC_01 3151818 2015-05-22 8:00 13.21 8.17 46080 8.68 99.7 -58.36 29.87 2015-05-22T08:00
Mumford_Cove 41.32526111 -72.02088 2015 monitoringMC_01 3151818 2015-05-22 8:30 13.42 8.24 45780 8.84 101.9 -62.53 29.66 2015-05-22T08:30
Mumford_Cove 41.32526111 -72.02088 2015 monitoringMC_01 3151818 2015-05-22 9:00 13.63 8.21 45700 9.04 104.7 -61.02 29.61 2015-05-22T09:00
Mumford_Cove 41.32526111 -72.02088 2015 monitoringMC_01 3151818 2015-05-22 9:30 13.94 8.23 45350 9.45 109.9 -62.02 29.37 2015-05-22T09:30
Mumford_Cove 41.32526111 -72.02088 2015 monitoringMC_01 3151818 2015-05-22 10:00 14.25 8.21 45110 9.43 110.3 -61.37 29.2 2015-05-22T10:00
Mumford_Cove 41.32526111 -72.02088 2015 monitoringMC_01 3151818 2015-05-22 10:30 14.51 8.25 45050 9.87 116.0 -63.31 29.16 2015-05-22T10:30
Mumford_Cove 41.32526111 -72.02088 2015 monitoringMC_01 3151818 2015-05-22 11:00 14.49 8.24 45510 9.89 116.4 -63.1 29.49 2015-05-22T11:00
Mumford_Cove 41.32526111 -72.02088 2015 monitoringMC_01 3151818 2015-05-22 11:30 14.13 8.25 45630 10.1 118.1 -63.47 29.57 2015-05-22T11:30
Mumford_Cove 41.32526111 -72.02088 2015 monitoringMC_01 3151818 2015-05-22 12:00 14.41 8.27 45500 10.34 121.5 -64.6 29.49 2015-05-22T12:00
Mumford_Cove 41.32526111 -72.02088 2015 monitoringMC_01 3151818 2015-05-22 12:30 14.45 8.26 45460 10.3 121.1 -64.07 29.46 2015-05-22T12:30
Mumford_Cove 41.32526111 -72.02088 2015 monitoringMC_01 3151818 2015-05-22 13:00 14.04 8.28 45730 10.63 124.1 -64.81 29.64 2015-05-22T13:00
Mumford_Cove 41.32526111 -72.02088 2015 monitoringMC_01 3151818 2015-05-22 13:30 14.29 8.29 45630 10.72 125.7 -65.43 29.58 2015-05-22T13:30
Mumford_Cove 41.32526111 -72.02088 2015 monitoringMC_01 3151818 2015-05-22 14:00 14.6 8.29 45590 10.81 127.6 -65.96 29.55 2015-05-22T14:00
Mumford_Cove 41.32526111 -72.02088 2015 monitoringMC_01 3151818 2015-05-22 14:30 14.73 8.3 45550 10.94 129.5 -66.22 29.53 2015-05-22T14:30
Mumford_Cove 41.32526111 -72.02088 2015 monitoringMC_01 3151818 2015-05-22 15:00 14.78 8.31 45490 11.09 131.2 -66.79 29.49 2015-05-22T15:00
Mumford_Cove 41.32526111 -72.02088 2015 monitoringMC_01 3151818 2015-05-22 15:30 14.98 8.32 45450 11.27 133.9 -67.67 29.46 2015-05-22T15:30
Mumford_Cove 41.32526111 -72.02088 2015 monitoringMC_01 3151818 2015-05-22 16:00 14.93 8.35 45550 11.63 138.1 -68.92 29.53 2015-05-22T16:00
Mumford_Cove 41.32526111 -72.02088 2015 monitoringMC_01 3151818 2015-05-22 16:30 15.13 8.35 45480 11.71 139.6 -69.31 29.49 2015-05-22T16:30
Mumford_Cove 41.32526111 -72.02088 2015 monitoringMC_01 3151818 2015-05-22 17:00 14.88 8.35 45650 11.6 137.7 -69.0 29.6 2015-05-22T17:00
Mumford_Cove 41.32526111 -72.02088 2015 monitoringMC_01 3151818 2015-05-22 17:30 14.92 8.35 45600 11.4 135.4 -68.93 29.57 2015-05-22T17:30
Mumford_Cove 41.32526111 -72.02088 2015 monitoringMC_01 3151818 2015-05-22 18:00 14.99 8.34 45530 11.06 131.5 -68.63 29.52 2015-05-22T18:00
Mumford_Cove 41.32526111 -72.02088 2015 monitoringMC_01 3151818 2015-05-22 18:30 15.2 8.33 45460 11.7 139.6 -68.08 29.47 2015-05-22T18:30
Mumford_Cove 41.32526111 -72.02088 2015 monitoringMC_01 3151818 2015-05-22 19:00 15.33 8.43 45500 12.96 155.1 -74.01 29.5 2015-05-22T19:00
Mumford_Cove 41.32526111 -72.02088 2015 monitoringMC_01 3151818 2015-05-22 19:30 15.88 8.35 45140 12.44 150.4 -69.66 29.25 2015-05-22T19:30
Mumford_Cove 41.32526111 -72.02088 2015 monitoringMC_01 3151818 2015-05-22 20:00 15.92 8.33 45270 11.8 142.8 -68.41 29.35 2015-05-22T20:00
Mumford_Cove 41.32526111 -72.02088 2015 monitoringMC_01 3151818 2015-05-22 20:30 15.54 8.48 45400 13.41 161.1 -76.89 29.44 2015-05-22T20:30
Mumford_Cove 41.32526111 -72.02088 2015 monitoringMC_01 3151818 2015-05-22 21:00 15.99 8.28 44880 10.62 128.5 -65.65 29.07 2015-05-22T21:00
Mumford_Cove 41.32526111 -72.02088 2015 monitoringMC_01 3151818 2015-05-22 21:30 15.57 8.32 45270 10.95 131.6 -67.91 29.34 2015-05-22T21:30
Mumford_Cove 41.32526111 -72.02088 2015 monitoringMC_01 3151818 2015-05-22 22:00 15.54 8.31 45170 10.65 127.9 -67.25 29.27 2015-05-22T22:00
Mumford_Cove 41.32526111 -72.02088 2015 monitoringMC_01 3151818 2015-05-22 22:30 15.26 8.28 45370 10.1 120.7 -65.49 29.41 2015-05-22T22:30
Mumford_Cove 41.32526111 -72.02088 2015 monitoringMC_01 3151818 2015-05-22 23:00 15.13 8.28 45410 9.94 118.4 -65.13 29.44 2015-05-22T23:00
Mumford_Cove 41.32526111 -72.02088 2015 monitoringMC_01 3151818 2015-05-22 23:30 14.91 8.26 45410 9.58 113.7 -64.03 29.43 2015-05-22T23:30
Mumford_Cove 41.32526111 -72.02088 2015 monitoringMC_01 3151818 2015-05-23 0:00 14.72 8.25 45540 9.38 111.0 -63.5 29.52 2015-05-23T00:00
Mumford_Cove 41.32526111 -72.02088 2015 monitoringMC_01 3151818 2015-05-23 0:30 13.68 8.22 45950 9.05 104.9 -61.59 29.79 2015-05-23T00:30
Mumford_Cove 41.32526111 -72.02088 2015 monitoringMC_01 3151818 2015-05-23 1:00 13.3 8.22 46020 9.03 104.0 -61.45 29.83 2015-05-23T01:00
Mumford_Cove 41.32526111 -72.02088 2015 monitoringMC_01 3151818 2015-05-23 1:30 12.96 8.21 45970 9.0 102.8 -60.82 29.78 2015-05-23T01:30
Mumford_Cove 41.32526111 -72.02088 2015 monitoringMC_01 3151818 2015-05-23 2:00 12.69 8.22 46030 8.98 102.1 -61.07 29.82 2015-05-23T02:00
Mumford_Cove 41.32526111 -72.02088 2015 monitoringMC_01 3151818 2015-05-23 2:30 12.41 8.21 46060 8.92 100.8 -60.74 29.83 2015-05-23T02:30
Mumford_Cove 41.32526111 -72.02088 2015 monitoringMC_01 3151818 2015-05-23 3:00 12.27 8.2 46040 8.95 100.8 -59.98 29.81 2015-05-23T03:00
Mumford_Cove 41.32526111 -72.02088 2015 monitoringMC_01 3151818 2015-05-23 3:30 12.3 8.19 46130 8.82 99.5 -59.56 29.87 2015-05-23T03:30
Mumford_Cove 41.32526111 -72.02088 2015 monitoringMC_01 3151818 2015-05-23 4:00 12.37 8.2 46150 8.39 94.7 -60.24 29.89 2015-05-23T04:00
Mumford_Cove 41.32526111 -72.02088 2015 monitoringMC_01 3151818 2015-05-23 4:30 12.51 8.18 46120 8.46 95.8 -59.13 29.87 2015-05-23T04:30
Mumford_Cove 41.32526111 -72.02088 2015 monitoringMC_01 3151818 2015-05-23 5:00 12.54 8.15 46130 7.64 86.5 -57.24 29.88 2015-05-23T05:00
Mumford_Cove 41.32526111 -72.02088 2015 monitoringMC_01 3151818 2015-05-23 5:30 12.72 8.16 46190 6.67 75.9 -57.96 29.93 2015-05-23T05:30
Mumford_Cove 41.32526111 -72.02088 2015 monitoringMC_01 3151818 2015-05-23 6:00 13.36 8.11 45940 6.46 74.4 -55.26 29.77 2015-05-23T06:00
Mumford_Cove 41.32526111 -72.02088 2015 monitoringMC_01 3151818 2015-05-23 6:30 13.81 8.1 45620 7.04 81.8 -54.51 29.56 2015-05-23T06:30
Mumford_Cove 41.32526111 -72.02088 2015 monitoringMC_01 3151818 2015-05-23 7:00 13.97 8.12 45080 7.6 88.4 -56.1 29.17 2015-05-23T07:00
Mumford_Cove 41.32526111 -72.02088 2015 monitoringMC_01 3151818 2015-05-23 7:30 14.15 8.13 44450 7.82 91.0 -56.4 28.72 2015-05-23T07:30
Mumford_Cove 41.32526111 -72.02088 2015 monitoringMC_01 3151818 2015-05-23 8:00 14.23 8.15 44710 8.16 95.2 -57.74 28.91 2015-05-23T08:00
Mumford_Cove 41.32526111 -72.02088 2015 monitoringMC_01 3151818 2015-05-23 8:30 14.33 8.15 44520 8.23 96.1 -57.94 28.78 2015-05-23T08:30
Mumford_Cove 41.32526111 -72.02088 2015 monitoringMC_01 3151818 2015-05-23 9:00 14.34 8.16 44490 8.33 97.3 -58.03 28.76 2015-05-23T09:00
Mumford_Cove 41.32526111 -72.02088 2015 monitoringMC_01 3151818 2015-05-23 9:30 13.99 8.2 44930 8.69 100.9 -60.24 29.07 2015-05-23T09:30
Mumford_Cove 41.32526111 -72.02088 2015 monitoringMC_01 3151818 2015-05-23 10:00 14.33 8.26 44680 9.45 110.4 -63.69 28.89 2015-05-23T10:00
Mumford_Cove 41.32526111 -72.02088 2015 monitoringMC_01 3151818 2015-05-23 10:30 14.37 8.28 44880 9.86 115.4 -65.23 29.04 2015-05-23T10:30
Mumford_Cove 41.32526111 -72.02088 2015 monitoringMC_01 3151818 2015-05-23 11:00 14.37 8.25 45130 9.65 113.1 -63.64 29.22 2015-05-23T11:00
Mumford_Cove 41.32526111 -72.02088 2015 monitoringMC_01 3151818 2015-05-23 11:30 13.9 8.26 45540 9.83 114.3 -63.72 29.5 2015-05-23T11:30
Mumford_Cove 41.32526111 -72.02088 2015 monitoringMC_01 3151818 2015-05-23 12:00 13.15 8.25 45960 10.09 115.8 -63.01 29.78 2015-05-23T12:00
Mumford_Cove 41.32526111 -72.02088 2015 monitoringMC_01 3151818 2015-05-23 12:30 12.62 8.24 46030 10.26 116.4 -62.65 29.81 2015-05-23T12:30
Mumford_Cove 41.32526111 -72.02088 2015 monitoringMC_01 3151818 2015-05-23 13:00 12.81 8.25 46100 10.29 117.2 -63.04 29.87 2015-05-23T13:00
Mumford_Cove 41.32526111 -72.02088 2015 monitoringMC_01 3151818 2015-05-23 13:30 12.81 8.25 46000 10.3 117.3 -63.02 29.8 2015-05-23T13:30
Mumford_Cove 41.32526111 -72.02088 2015 monitoringMC_01 3151818 2015-05-23 14:00 12.92 8.26 46060 10.48 119.6 -63.77 29.84 2015-05-23T14:00
Mumford_Cove 41.32526111 -72.02088 2015 monitoringMC_01 3151818 2015-05-23 14:30 12.97 8.28 46080 10.67 122.0 -64.83 29.86 2015-05-23T14:30
Mumford_Cove 41.32526111 -72.02088 2015 monitoringMC_01 3151818 2015-05-23 15:00 13.22 8.31 46090 11.08 127.4 -66.54 29.88 2015-05-23T15:00
Mumford_Cove 41.32526111 -72.02088 2015 monitoringMC_01 3151818 2015-05-23 15:30 13.69 8.34 45880 11.44 132.6 -68.32 29.74 2015-05-23T15:30
Mumford_Cove 41.32526111 -72.02088 2015 monitoringMC_01 3151818 2015-05-23 16:00 13.71 8.36 45920 11.82 137.1 -69.3 29.77 2015-05-23T16:00
Mumford_Cove 41.32526111 -72.02088 2015 monitoringMC_01 3151818 2015-05-23 16:30 13.73 8.38 45980 12.08 140.3 -70.34 29.81 2015-05-23T16:30
Mumford_Cove 41.32526111 -72.02088 2015 monitoringMC_01 3151818 2015-05-23 17:00 13.81 8.42 46050 12.48 145.2 -72.91 29.87 2015-05-23T17:00
Mumford_Cove 41.32526111 -72.02088 2015 monitoringMC_01 3151818 2015-05-23 17:30 13.91 8.47 45930 13.34 155.4 -75.75 29.78 2015-05-23T17:30
Mumford_Cove 41.32526111 -72.02088 2015 monitoringMC_01 3151818 2015-05-23 18:00 14.2 8.41 45990 12.5 146.5 -72.45 29.83 2015-05-23T18:00
Mumford_Cove 41.32526111 -72.02088 2015 monitoringMC_01 3151818 2015-05-23 18:30 14.09 8.52 45990 13.16 154.0 -78.57 29.83 2015-05-23T18:30
Mumford_Cove 41.32526111 -72.02088 2015 monitoringMC_01 3151818 2015-05-23 19:00 14.19 8.45 45920 12.64 148.1 -74.38 29.78 2015-05-23T19:00
Mumford_Cove 41.32526111 -72.02088 2015 monitoringMC_01 3151818 2015-05-23 19:30 14.29 8.43 45810 12.83 150.6 -73.57 29.71 2015-05-23T19:30
Mumford_Cove 41.32526111 -72.02088 2015 monitoringMC_01 3151818 2015-05-23 20:00 14.26 8.56 45980 14.5 170.2 -80.71 29.83 2015-05-23T20:00
Mumford_Cove 41.32526111 -72.02088 2015 monitoringMC_01 3151818 2015-05-23 20:30 14.45 8.48 45760 13.85 163.0 -76.26 29.67 2015-05-23T20:30
Mumford_Cove 41.32526111 -72.02088 2015 monitoringMC_01 3151818 2015-05-23 21:00 14.66 8.43 45740 12.33 145.8 -73.59 29.66 2015-05-23T21:00
Mumford_Cove 41.32526111 -72.02088 2015 monitoringMC_01 3151818 2015-05-23 21:30 14.69 8.38 45820 12.76 151.0 -70.66 29.72 2015-05-23T21:30
Mumford_Cove 41.32526111 -72.02088 2015 monitoringMC_01 3151818 2015-05-23 22:00 14.52 8.4 45650 12.39 146.0 -71.66 29.6 2015-05-23T22:00
Mumford_Cove 41.32526111 -72.02088 2015 monitoringMC_01 3151818 2015-05-23 22:30 14.26 8.4 45970 12.17 142.8 -71.94 29.82 2015-05-23T22:30
Mumford_Cove 41.32526111 -72.02088 2015 monitoringMC_01 3151818 2015-05-23 23:00 14.33 8.37 45860 11.79 138.5 -70.32 29.74 2015-05-23T23:00
Mumford_Cove 41.32526111 -72.02088 2015 monitoringMC_01 3151818 2015-05-23 23:30 14.55 8.33 45540 10.91 128.6 -68.01 29.52 2015-05-23T23:30
Mumford_Cove 41.32526111 -72.02088 2015 monitoringMC_01 3151818 2015-05-24 0:00 14.57 8.3 45560 10.11 119.2 -66.38 29.53 2015-05-24T00:00
Mumford_Cove 41.32526111 -72.02088 2015 monitoringMC_01 3151818 2015-05-24 0:30 14.48 8.29 45550 9.71 114.3 -65.47 29.52 2015-05-24T00:30
Mumford_Cove 41.32526111 -72.02088 2015 monitoringMC_01 3151818 2015-05-24 1:00 14.21 8.26 45710 9.14 107.1 -63.87 29.63 2015-05-24T01:00
Mumford_Cove 41.32526111 -72.02088 2015 monitoringMC_01 3151818 2015-05-24 1:30 13.83 8.24 45860 8.82 102.6 -62.78 29.73 2015-05-24T01:30
Mumford_Cove 41.32526111 -72.02088 2015 monitoringMC_01 3151818 2015-05-24 2:00 13.66 8.24 45910 8.62 99.9 -62.6 29.76 2015-05-24T02:00
Mumford_Cove 41.32526111 -72.02088 2015 monitoringMC_01 3151818 2015-05-24 2:30 13.34 8.24 45900 8.58 98.8 -62.75 29.74 2015-05-24T02:30
Mumford_Cove 41.32526111 -72.02088 2015 monitoringMC_01 3151818 2015-05-24 3:00 13.28 8.22 46000 8.6 98.9 -61.7 29.81 2015-05-24T03:00
Mumford_Cove 41.32526111 -72.02088 2015 monitoringMC_01 3151818 2015-05-24 3:30 13.16 8.24 45990 8.22 94.3 -62.32 29.8 2015-05-24T03:30
Mumford_Cove 41.32526111 -72.02088 2015 monitoringMC_01 3151818 2015-05-24 4:00 13.24 8.23 45970 8.02 92.1 -61.8 29.79 2015-05-24T04:00
Mumford_Cove 41.32526111 -72.02088 2015 monitoringMC_01 3151818 2015-05-24 4:30 13.42 8.23 46020 8.06 93.0 -61.88 29.83 2015-05-24T04:30
Mumford_Cove 41.32526111 -72.02088 2015 monitoringMC_01 3151818 2015-05-24 5:00 13.47 8.21 45980 7.86 90.7 -60.82 29.81 2015-05-24T05:00
Mumford_Cove 41.32526111 -72.02088 2015 monitoringMC_01 3151818 2015-05-24 5:30 13.67 8.22 45850 8.0 92.7 -61.76 29.72 2015-05-24T05:30
Mumford_Cove 41.32526111 -72.02088 2015 monitoringMC_01 3151818 2015-05-24 6:00 13.81 8.22 45910 7.8 90.7 -61.75 29.76 2015-05-24T06:00
Mumford_Cove 41.32526111 -72.02088 2015 monitoringMC_01 3151818 2015-05-24 6:30 13.88 8.21 45840 7.9 92.0 -61.27 29.72 2015-05-24T06:30
Mumford_Cove 41.32526111 -72.02088 2015 monitoringMC_01 3151818 2015-05-24 7:00 13.94 8.21 45760 7.43 86.5 -61.28 29.66 2015-05-24T07:00
Mumford_Cove 41.32526111 -72.02088 2015 monitoringMC_01 3151818 2015-05-24 7:30 13.93 8.21 45780 8.09 94.3 -60.76 29.67 2015-05-24T07:30
Mumford_Cove 41.32526111 -72.02088 2015 monitoringMC_01 3151818 2015-05-24 8:00 14.02 8.23 45670 8.53 99.5 -61.99 29.6 2015-05-24T08:00
Mumford_Cove 41.32526111 -72.02088 2015 monitoringMC_01 3151818 2015-05-24 8:30 14.37 8.22 45590 8.67 101.8 -61.65 29.55 2015-05-24T08:30
Mumford_Cove 41.32526111 -72.02088 2015 monitoringMC_01 3151818 2015-05-24 9:00 14.45 8.23 45630 8.57 100.9 -62.38 29.58 2015-05-24T09:00
Mumford_Cove 41.32526111 -72.02088 2015 monitoringMC_01 3151818 2015-05-24 9:30 14.32 8.2 45700 8.46 99.3 -60.53 29.63 2015-05-24T09:30
Mumford_Cove 41.32526111 -72.02088 2015 monitoringMC_01 3151818 2015-05-24 10:00 15.39 8.22 45110 8.92 106.8 -61.93 29.22 2015-05-24T10:00
Mumford_Cove 41.32526111 -72.02088 2015 monitoringMC_01 3151818 2015-05-24 10:30 15.04 8.24 45400 9.16 108.9 -62.89 29.43 2015-05-24T10:30
Mumford_Cove 41.32526111 -72.02088 2015 monitoringMC_01 3151818 2015-05-24 11:00 15.28 8.29 45500 9.83 117.6 -65.91 29.5 2015-05-24T11:00
Mumford_Cove 41.32526111 -72.02088 2015 monitoringMC_01 3151818 2015-05-24 11:30 15.52 8.31 45440 10.2 122.5 -66.82 29.46 2015-05-24T11:30
Mumford_Cove 41.32526111 -72.02088 2015 monitoringMC_01 3151818 2015-05-24 12:00 15.67 8.28 45430 9.88 119.1 -65.64 29.46 2015-05-24T12:00
Mumford_Cove 41.32526111 -72.02088 2015 monitoringMC_01 3151818 2015-05-24 12:30 15.88 8.27 45620 9.88 119.6 -64.7 29.6 2015-05-24T12:30
Mumford_Cove 41.32526111 -72.02088 2015 monitoringMC_01 3151818 2015-05-24 13:00 15.92 8.26 45660 10.01 121.3 -64.14 29.63 2015-05-24T13:00
Mumford_Cove 41.32526111 -72.02088 2015 monitoringMC_01 3151818 2015-05-24 13:30 15.8 8.24 45860 10.01 121.2 -63.43 29.77 2015-05-24T13:30
Mumford_Cove 41.32526111 -72.02088 2015 monitoringMC_01 3151818 2015-05-24 14:00 15.84 8.25 45830 10.12 122.6 -63.56 29.75 2015-05-24T14:00
Mumford_Cove 41.32526111 -72.02088 2015 monitoringMC_01 3151818 2015-05-24 14:30 15.83 8.25 45930 10.07 122.0 -63.7 29.82 2015-05-24T14:30
Mumford_Cove 41.32526111 -72.02088 2015 monitoringMC_01 3151818 2015-05-24 15:00 15.91 8.26 45860 10.2 123.7 -64.55 29.77 2015-05-24T15:00
Mumford_Cove 41.32526111 -72.02088 2015 monitoringMC_01 3151818 2015-05-24 15:30 15.92 8.26 45880 10.24 124.2 -64.18 29.79 2015-05-24T15:30
Mumford_Cove 41.32526111 -72.02088 2015 monitoringMC_01 3151818 2015-05-24 16:00 15.99 8.26 45800 10.35 125.8 -64.55 29.73 2015-05-24T16:00
Mumford_Cove 41.32526111 -72.02088 2015 monitoringMC_01 3151818 2015-05-24 16:30 16.15 8.29 45810 10.71 130.6 -66.2 29.74 2015-05-24T16:30
Mumford_Cove 41.32526111 -72.02088 2015 monitoringMC_01 3151818 2015-05-24 17:00 16.14 8.29 45840 10.68 130.1 -65.91 29.76 2015-05-24T17:00
Mumford_Cove 41.32526111 -72.02088 2015 monitoringMC_01 3151818 2015-05-24 17:30 16.36 8.3 45800 10.78 131.9 -66.83 29.74 2015-05-24T17:30
Mumford_Cove 41.32526111 -72.02088 2015 monitoringMC_01 3151818 2015-05-24 18:00 16.39 8.33 45830 10.85 132.8 -68.3 29.76 2015-05-24T18:00
Mumford_Cove 41.32526111 -72.02088 2015 monitoringMC_01 3151818 2015-05-24 18:30 16.6 8.36 45750 11.06 135.9 -70.08 29.7 2015-05-24T18:30
Mumford_Cove 41.32526111 -72.02088 2015 monitoringMC_01 3151818 2015-05-24 19:00 16.55 8.36 45750 11.52 141.5 -70.46 29.7 2015-05-24T19:00
Mumford_Cove 41.32526111 -72.02088 2015 monitoringMC_01 3151818 2015-05-24 19:30 16.85 8.37 45650 11.55 142.6 -70.8 29.63 2015-05-24T19:30
Mumford_Cove 41.32526111 -72.02088 2015 monitoringMC_01 3151818 2015-05-24 20:00 16.78 8.39 45750 11.75 144.9 -71.82 29.7 2015-05-24T20:00
Mumford_Cove 41.32526111 -72.02088 2015 monitoringMC_01 3151818 2015-05-24 20:30 16.83 8.4 45730 11.36 140.2 -72.64 29.69 2015-05-24T20:30
Mumford_Cove 41.32526111 -72.02088 2015 monitoringMC_01 3151818 2015-05-24 21:00 17.23 8.38 45680 11.25 140.0 -71.28 29.66 2015-05-24T21:00
Mumford_Cove 41.32526111 -72.02088 2015 monitoringMC_01 3151818 2015-05-24 21:30 17.44 8.37 45530 10.95 136.7 -70.75 29.55 2015-05-24T21:30
Mumford_Cove 41.32526111 -72.02088 2015 monitoringMC_01 3151818 2015-05-24 22:00 17.45 8.35 45450 10.63 132.7 -69.9 29.49 2015-05-24T22:00
Mumford_Cove 41.32526111 -72.02088 2015 monitoringMC_01 3151818 2015-05-24 22:30 17.48 8.32 45300 10.55 131.6 -68.43 29.38 2015-05-24T22:30
Mumford_Cove 41.32526111 -72.02088 2015 monitoringMC_01 3151818 2015-05-24 23:00 17.39 8.31 45340 10.52 131.0 -67.3 29.41 2015-05-24T23:00
Mumford_Cove 41.32526111 -72.02088 2015 monitoringMC_01 3151818 2015-05-24 23:30 16.99 8.31 45530 10.43 129.0 -67.51 29.55 2015-05-24T23:30
Mumford_Cove 41.32526111 -72.02088 2015 monitoringMC_01 3151818 2015-05-25 0:00 16.87 8.31 45600 10.35 127.8 -67.28 29.6 2015-05-25T00:00
Mumford_Cove 41.32526111 -72.02088 2015 monitoringMC_01 3151818 2015-05-25 0:30 16.83 8.31 45520 10.07 124.3 -67.64 29.54 2015-05-25T00:30
Mumford_Cove 41.32526111 -72.02088 2015 monitoringMC_01 3151818 2015-05-25 1:00 16.62 8.27 45560 9.42 115.8 -65.27 29.57 2015-05-25T01:00
Mumford_Cove 41.32526111 -72.02088 2015 monitoringMC_01 3151818 2015-05-25 1:30 16.43 8.26 45740 9.11 111.6 -64.22 29.69 2015-05-25T01:30
Mumford_Cove 41.32526111 -72.02088 2015 monitoringMC_01 3151818 2015-05-25 2:00 15.82 8.2 45900 8.51 103.1 -61.1 29.8 2015-05-25T02:00
Mumford_Cove 41.32526111 -72.02088 2015 monitoringMC_01 3151818 2015-05-25 2:30 14.79 8.19 45860 8.36 99.1 -60.06 29.75 2015-05-25T02:30
Mumford_Cove 41.32526111 -72.02088 2015 monitoringMC_01 3151818 2015-05-25 3:00 14.4 8.19 45910 8.46 99.6 -60.0 29.78 2015-05-25T03:00
Mumford_Cove 41.32526111 -72.02088 2015 monitoringMC_01 3151818 2015-05-25 3:30 14.21 8.19 45870 8.53 100.0 -59.78 29.75 2015-05-25T03:30
Mumford_Cove 41.32526111 -72.02088 2015 monitoringMC_01 3151818 2015-05-25 4:00 14.07 8.18 46070 8.53 99.8 -59.44 29.89 2015-05-25T04:00
Mumford_Cove 41.32526111 -72.02088 2015 monitoringMC_01 3151818 2015-05-25 4:30 14.0 8.18 45960 8.45 98.7 -59.24 29.81 2015-05-25T04:30
Mumford_Cove 41.32526111 -72.02088 2015 monitoringMC_01 3151818 2015-05-25 5:00 13.94 8.17 45830 8.37 97.5 -58.83 29.71 2015-05-25T05:00
Mumford_Cove 41.32526111 -72.02088 2015 monitoringMC_01 3151818 2015-05-25 5:30 13.95 8.16 45850 8.19 95.5 -58.37 29.73 2015-05-25T05:30
Mumford_Cove 41.32526111 -72.02088 2015 monitoringMC_01 3151818 2015-05-25 6:00 13.92 8.16 45910 7.98 92.9 -58.06 29.77 2015-05-25T06:00
Mumford_Cove 41.32526111 -72.02088 2015 monitoringMC_01 3151818 2015-05-25 6:30 14.02 8.16 45900 7.77 90.8 -57.98 29.76 2015-05-25T06:30
Mumford_Cove 41.32526111 -72.02088 2015 monitoringMC_01 3151818 2015-05-25 7:00 14.54 8.12 46090 7.37 87.0 -56.32 29.91 2015-05-25T07:00
Mumford_Cove 41.32526111 -72.02088 2015 monitoringMC_01 3151818 2015-05-25 7:30 14.24 8.14 45940 7.14 83.8 -56.87 29.8 2015-05-25T07:30
Mumford_Cove 41.32526111 -72.02088 2015 monitoringMC_01 3151818 2015-05-25 8:00 14.55 8.15 45850 6.17 72.8 -57.72 29.74 2015-05-25T08:00
Mumford_Cove 41.32526111 -72.02088 2015 monitoringMC_01 3151818 2015-05-25 8:30 14.65 8.15 45840 7.88 93.2 -57.86 29.74 2015-05-25T08:30
Mumford_Cove 41.32526111 -72.02088 2015 monitoringMC_01 3151818 2015-05-25 9:00 14.47 8.16 45930 7.87 92.8 -58.24 29.8 2015-05-25T09:00
Mumford_Cove 41.32526111 -72.02088 2015 monitoringMC_01 3151818 2015-05-25 9:30 15.0 8.14 45750 7.93 94.4 -57.38 29.68 2015-05-25T09:30
Mumford_Cove 41.32526111 -72.02088 2015 monitoringMC_01 3151818 2015-05-25 10:00 15.45 8.17 45750 8.25 99.1 -59.05 29.69 2015-05-25T10:00
Mumford_Cove 41.32526111 -72.02088 2015 monitoringMC_01 3151818 2015-05-25 10:30 15.36 8.21 45770 8.44 101.2 -61.1 29.7 2015-05-25T10:30
Mumford_Cove 41.32526111 -72.02088 2015 monitoringMC_01 3151818 2015-05-25 11:00 15.88 8.2 45780 8.72 105.7 -61.14 29.71 2015-05-25T11:00
Mumford_Cove 41.32526111 -72.02088 2015 monitoringMC_01 3151818 2015-05-25 11:30 16.0 8.19 45660 8.59 104.3 -60.41 29.63 2015-05-25T11:30
Mumford_Cove 41.32526111 -72.02088 2015 monitoringMC_01 3151818 2015-05-25 12:00 15.42 8.21 45890 9.03 108.4 -61.1 29.79 2015-05-25T12:00
Mumford_Cove 41.32526111 -72.02088 2015 monitoringMC_01 3151818 2015-05-25 12:30 16.08 8.22 45580 9.15 111.2 -62.35 29.57 2015-05-25T12:30
Mumford_Cove 41.32526111 -72.02088 2015 monitoringMC_01 3151818 2015-05-25 13:00 16.16 8.23 45640 9.41 114.7 -62.64 29.62 2015-05-25T13:00
Mumford_Cove 41.32526111 -72.02088 2015 monitoringMC_01 3151818 2015-05-25 13:30 15.95 8.27 45810 9.79 118.8 -65.05 29.74 2015-05-25T13:30
Mumford_Cove 41.32526111 -72.02088 2015 monitoringMC_01 3151818 2015-05-25 14:00 16.47 8.29 45610 10.27 125.8 -66.27 29.6 2015-05-25T14:00
Mumford_Cove 41.32526111 -72.02088 2015 monitoringMC_01 3151818 2015-05-25 14:30 16.35 8.28 45790 9.98 122.1 -65.67 29.73 2015-05-25T14:30
Mumford_Cove 41.32526111 -72.02088 2015 monitoringMC_01 3151818 2015-05-25 15:00 16.57 8.34 45820 10.44 128.3 -69.2 29.75 2015-05-25T15:00
Mumford_Cove 41.32526111 -72.02088 2015 monitoringMC_01 3151818 2015-05-25 15:30 16.8 8.36 45620 10.8 133.2 -69.98 29.61 2015-05-25T15:30
Mumford_Cove 41.32526111 -72.02088 2015 monitoringMC_01 3151818 2015-05-25 16:00 16.43 8.34 45810 11.14 136.5 -68.8 29.74 2015-05-25T16:00
Mumford_Cove 41.32526111 -72.02088 2015 monitoringMC_01 3151818 2015-05-25 16:30 16.37 8.34 45760 11.34 138.8 -68.99 29.71 2015-05-25T16:30
Mumford_Cove 41.32526111 -72.02088 2015 monitoringMC_01 3151818 2015-05-25 17:00 16.71 8.3 45720 11.21 138.1 -66.87 29.68 2015-05-25T17:00
Mumford_Cove 41.32526111 -72.02088 2015 monitoringMC_01 3151818 2015-05-25 17:30 16.73 8.36 45710 11.41 140.5 -70.13 29.67 2015-05-25T17:30
Mumford_Cove 41.32526111 -72.02088 2015 monitoringMC_01 3151818 2015-05-25 18:00 16.61 8.34 45830 11.23 138.1 -69.28 29.76 2015-05-25T18:00
Mumford_Cove 41.32526111 -72.02088 2015 monitoringMC_01 3151818 2015-05-25 18:30 16.82 8.39 45740 11.54 142.5 -72.19 29.7 2015-05-25T18:30
Mumford_Cove 41.32526111 -72.02088 2015 monitoringMC_01 3151818 2015-05-25 19:00 16.86 8.51 45810 13.31 164.5 -78.76 29.75 2015-05-25T19:00
Mumford_Cove 41.32526111 -72.02088 2015 monitoringMC_01 3151818 2015-05-25 19:30 17.06 8.49 45760 12.42 154.0 -77.55 29.71 2015-05-25T19:30
Mumford_Cove 41.32526111 -72.02088 2015 monitoringMC_01 3151818 2015-05-25 20:00 17.03 8.54 45830 14.19 175.9 -80.35 29.76 2015-05-25T20:00
Mumford_Cove 41.32526111 -72.02088 2015 monitoringMC_01 3151818 2015-05-25 20:30 17.5 8.52 45800 13.94 174.4 -79.83 29.75 2015-05-25T20:30
Mumford_Cove 41.32526111 -72.02088 2015 monitoringMC_01 3151818 2015-05-25 21:00 18.56 8.38 45240 12.5 159.2 -72.02 29.34 2015-05-25T21:00
Mumford_Cove 41.32526111 -72.02088 2015 monitoringMC_01 3151818 2015-05-25 21:30 17.71 8.32 45740 11.37 142.8 -68.38 29.7 2015-05-25T21:30
Mumford_Cove 41.32526111 -72.02088 2015 monitoringMC_01 3151818 2015-05-25 22:00 18.6 8.3 45470 10.36 132.2 -67.22 29.51 2015-05-25T22:00
Mumford_Cove 41.32526111 -72.02088 2015 monitoringMC_01 3151818 2015-05-25 22:30 18.71 8.28 45340 10.1 129.1 -66.38 29.42 2015-05-25T22:30
Mumford_Cove 41.32526111 -72.02088 2015 monitoringMC_01 3151818 2015-05-25 23:00 18.69 8.3 45370 10.39 132.8 -67.43 29.44 2015-05-25T23:00
Mumford_Cove 41.32526111 -72.02088 2015 monitoringMC_01 3151818 2015-05-25 23:30 18.84 8.31 45410 10.24 131.2 -68.0 29.47 2015-05-25T23:30
Mumford_Cove 41.32526111 -72.02088 2015 monitoringMC_01 3151818 2015-05-26 0:00 18.53 8.29 45330 10.03 127.7 -66.87 29.41 2015-05-26T00:00
Mumford_Cove 41.32526111 -72.02088 2015 monitoringMC_01 3151818 2015-05-26 0:30 17.58 8.27 45540 9.86 123.4 -65.18 29.56 2015-05-26T00:30
Mumford_Cove 41.32526111 -72.02088 2015 monitoringMC_01 3151818 2015-05-26 1:00 17.33 8.24 45580 9.63 119.9 -63.55 29.59 2015-05-26T01:00
Mumford_Cove 41.32526111 -72.02088 2015 monitoringMC_01 3151818 2015-05-26 1:30 17.26 8.19 45550 8.87 110.3 -60.96 29.56 2015-05-26T01:30
Mumford_Cove 41.32526111 -72.02088 2015 monitoringMC_01 3151818 2015-05-26 2:00 17.36 8.2 45570 8.58 107.0 -61.15 29.58 2015-05-26T02:00
Mumford_Cove 41.32526111 -72.02088 2015 monitoringMC_01 3151818 2015-05-26 2:30 17.25 8.17 45580 8.43 104.8 -59.56 29.59 2015-05-26T02:30
Mumford_Cove 41.32526111 -72.02088 2015 monitoringMC_01 3151818 2015-05-26 3:00 16.72 8.12 45720 7.95 98.0 -56.83 29.68 2015-05-26T03:00
Mumford_Cove 41.32526111 -72.02088 2015 monitoringMC_01 3151818 2015-05-26 3:30 16.59 8.12 45690 7.86 96.5 -56.32 29.66 2015-05-26T03:30
Mumford_Cove 41.32526111 -72.02088 2015 monitoringMC_01 3151818 2015-05-26 4:00 16.27 8.1 45840 7.67 93.7 -55.17 29.76 2015-05-26T04:00
Mumford_Cove 41.32526111 -72.02088 2015 monitoringMC_01 3151818 2015-05-26 4:30 15.75 8.08 45830 7.58 91.7 -54.17 29.75 2015-05-26T04:30
Mumford_Cove 41.32526111 -72.02088 2015 monitoringMC_01 3151818 2015-05-26 5:00 16.05 8.08 45660 7.44 90.4 -54.17 29.63 2015-05-26T05:00
Mumford_Cove 41.32526111 -72.02088 2015 monitoringMC_01 3151818 2015-05-26 5:30 16.0 8.07 45720 7.37 89.5 -53.74 29.67 2015-05-26T05:30
Mumford_Cove 41.32526111 -72.02088 2015 monitoringMC_01 3151818 2015-05-26 6:00 16.14 8.08 45750 7.27 88.6 -54.0 29.7 2015-05-26T06:00
Mumford_Cove 41.32526111 -72.02088 2015 monitoringMC_01 3151818 2015-05-26 6:30 16.18 8.08 45810 7.25 88.4 -54.21 29.74 2015-05-26T06:30
Mumford_Cove 41.32526111 -72.02088 2015 monitoringMC_01 3151818 2015-05-26 7:00 16.45 8.09 45720 7.38 90.5 -54.98 29.68 2015-05-26T07:00
Mumford_Cove 41.32526111 -72.02088 2015 monitoringMC_01 3151818 2015-05-26 7:30 16.77 8.11 45580 7.51 92.6 -55.97 29.58 2015-05-26T07:30
Mumford_Cove 41.32526111 -72.02088 2015 monitoringMC_01 3151818 2015-05-26 8:00 16.94 8.14 45680 7.74 95.7 -57.47 29.65 2015-05-26T08:00
Mumford_Cove 41.32526111 -72.02088 2015 monitoringMC_01 3151818 2015-05-26 8:30 17.27 8.14 45540 7.85 97.6 -58.08 29.56 2015-05-26T08:30
Mumford_Cove 41.32526111 -72.02088 2015 monitoringMC_01 3151818 2015-05-26 9:00 17.48 8.15 45690 7.71 96.4 -58.17 29.67 2015-05-26T09:00
Mumford_Cove 41.32526111 -72.02088 2015 monitoringMC_01 3151818 2015-05-26 9:30 18.16 8.13 45320 7.44 94.1 -57.21 29.4 2015-05-26T09:30
Mumford_Cove 41.32526111 -72.02088 2015 monitoringMC_01 3151818 2015-05-26 10:00 18.27 8.14 45190 7.72 97.7 -58.11 29.31 2015-05-26T10:00
Mumford_Cove 41.32526111 -72.02088 2015 monitoringMC_01 3151818 2015-05-26 10:30 18.22 8.15 45350 8.0 101.3 -58.63 29.42 2015-05-26T10:30
Mumford_Cove 41.32526111 -72.02088 2015 monitoringMC_01 3151818 2015-05-26 11:00 18.25 8.15 45390 8.14 103.2 -58.73 29.45 2015-05-26T11:00
Mumford_Cove 41.32526111 -72.02088 2015 monitoringMC_01 3151818 2015-05-26 11:30 18.59 8.16 45340 8.22 104.9 -59.22 29.42 2015-05-26T11:30
Mumford_Cove 41.32526111 -72.02088 2015 monitoringMC_01 3151818 2015-05-26 12:00 19.3 8.2 45290 8.48 109.6 -61.72 29.38 2015-05-26T12:00
Mumford_Cove 41.32526111 -72.02088 2015 monitoringMC_01 3151818 2015-05-26 12:30 18.85 8.18 45540 8.64 110.8 -60.25 29.56 2015-05-26T12:30
Mumford_Cove 41.32526111 -72.02088 2015 monitoringMC_01 3151818 2015-05-26 13:00 19.11 8.2 45610 9.12 117.6 -61.81 29.61 2015-05-26T13:00
Mumford_Cove 41.32526111 -72.02088 2015 monitoringMC_01 3151818 2015-05-26 13:30 19.43 8.22 45550 9.63 124.9 -62.99 29.57 2015-05-26T13:30
Mumford_Cove 41.32526111 -72.02088 2015 monitoringMC_01 3151818 2015-05-26 14:00 19.16 8.24 45710 10.1 130.3 -64.19 29.68 2015-05-26T14:00
Mumford_Cove 41.32526111 -72.02088 2015 monitoringMC_01 3151818 2015-05-26 14:30 19.25 8.2 45700 9.69 125.3 -61.91 29.68 2015-05-26T14:30
Mumford_Cove 41.32526111 -72.02088 2015 monitoringMC_01 3151818 2015-05-26 15:00 19.07 8.19 45780 9.68 124.7 -61.05 29.73 2015-05-26T15:00
Mumford_Cove 41.32526111 -72.02088 2015 monitoringMC_01 3151818 2015-05-26 15:30 18.88 8.2 45770 9.98 128.2 -61.77 29.73 2015-05-26T15:30
Mumford_Cove 41.32526111 -72.02088 2015 monitoringMC_01 3151818 2015-05-26 16:00 18.55 8.18 45760 9.96 127.2 -60.59 29.72 2015-05-26T16:00
Mumford_Cove 41.32526111 -72.02088 2015 monitoringMC_01 3151818 2015-05-26 16:30 18.73 8.21 45810 9.84 126.0 -62.02 29.76 2015-05-26T16:30
Mumford_Cove 41.32526111 -72.02088 2015 monitoringMC_01 3151818 2015-05-26 17:00 18.59 8.19 45670 9.93 126.8 -61.02 29.66 2015-05-26T17:00
Mumford_Cove 41.32526111 -72.02088 2015 monitoringMC_01 3151818 2015-05-26 17:30 18.88 8.21 45790 10.08 129.5 -61.97 29.74 2015-05-26T17:30
Mumford_Cove 41.32526111 -72.02088 2015 monitoringMC_01 3151818 2015-05-26 18:00 19.14 8.19 45810 9.84 127.0 -61.19 29.76 2015-05-26T18:00
Mumford_Cove 41.32526111 -72.02088 2015 monitoringMC_01 3151818 2015-05-26 18:30 19.47 8.24 45830 10.26 133.3 -63.81 29.77 2015-05-26T18:30
Mumford_Cove 41.32526111 -72.02088 2015 monitoringMC_01 3151818 2015-05-26 19:00 19.28 8.26 45860 10.59 137.1 -65.26 29.79 2015-05-26T19:00
Mumford_Cove 41.32526111 -72.02088 2015 monitoringMC_01 3151818 2015-05-26 19:30 19.12 8.26 45840 10.6 136.8 -64.94 29.78 2015-05-26T19:30
Mumford_Cove 41.32526111 -72.02088 2015 monitoringMC_01 3151818 2015-05-26 20:00 19.19 8.27 45850 10.74 138.8 -65.72 29.78 2015-05-26T20:00
Mumford_Cove 41.32526111 -72.02088 2015 monitoringMC_01 3151818 2015-05-26 20:30 19.33 8.28 45890 10.49 135.9 -66.1 29.81 2015-05-26T20:30
Mumford_Cove 41.32526111 -72.02088 2015 monitoringMC_01 3151818 2015-05-26 21:00 19.76 8.24 45760 9.95 129.8 -64.01 29.72 2015-05-26T21:00
Mumford_Cove 41.32526111 -72.02088 2015 monitoringMC_01 3151818 2015-05-26 21:30 20.12 8.22 45640 9.46 124.2 -62.98 29.63 2015-05-26T21:30
Mumford_Cove 41.32526111 -72.02088 2015 monitoringMC_01 3151818 2015-05-26 22:00 20.22 8.21 45580 9.33 122.8 -62.81 29.59 2015-05-26T22:00
Mumford_Cove 41.32526111 -72.02088 2015 monitoringMC_01 3151818 2015-05-26 22:30 20.54 8.2 45450 9.03 119.4 -62.01 29.49 2015-05-26T22:30
Mumford_Cove 41.32526111 -72.02088 2015 monitoringMC_01 3151818 2015-05-26 23:00 20.52 8.19 45490 8.52 112.8 -61.3 29.52 2015-05-26T23:00
Mumford_Cove 41.32526111 -72.02088 2015 monitoringMC_01 3151818 2015-05-26 23:30 20.63 8.17 45430 8.48 112.3 -60.34 29.47 2015-05-26T23:30
Mumford_Cove 41.32526111 -72.02088 2015 monitoringMC_01 3151818 2015-05-27 0:00 20.62 8.15 45310 8.17 108.2 -59.01 29.39 2015-05-27T00:00
Mumford_Cove 41.32526111 -72.02088 2015 monitoringMC_01 3151818 2015-05-27 0:30 20.47 8.15 45390 8.15 107.6 -58.99 29.45 2015-05-27T00:30
Mumford_Cove 41.32526111 -72.02088 2015 monitoringMC_01 3151818 2015-05-27 1:00 20.29 8.16 45470 8.24 108.5 -59.75 29.51 2015-05-27T01:00
Mumford_Cove 41.32526111 -72.02088 2015 monitoringMC_01 3151818 2015-05-27 1:30 20.26 8.18 45330 8.37 110.1 -60.95 29.4 2015-05-27T01:30
Mumford_Cove 41.32526111 -72.02088 2015 monitoringMC_01 3151818 2015-05-27 2:00 19.99 8.15 45430 8.03 105.1 -59.05 29.48 2015-05-27T02:00
Mumford_Cove 41.32526111 -72.02088 2015 monitoringMC_01 3151818 2015-05-27 2:30 19.82 8.14 45510 7.86 102.7 -58.17 29.54 2015-05-27T02:30
Mumford_Cove 41.32526111 -72.02088 2015 monitoringMC_01 3151818 2015-05-27 3:00 19.57 8.12 45630 7.57 98.5 -56.91 29.62 2015-05-27T03:00
Mumford_Cove 41.32526111 -72.02088 2015 monitoringMC_01 3151818 2015-05-27 3:30 19.32 8.09 45560 7.27 94.1 -55.35 29.57 2015-05-27T03:30
Mumford_Cove 41.32526111 -72.02088 2015 monitoringMC_01 3151818 2015-05-27 4:00 19.0 8.09 45730 6.97 89.7 -55.07 29.7 2015-05-27T04:00
Mumford_Cove 41.32526111 -72.02088 2015 monitoringMC_01 3151818 2015-05-27 4:30 18.66 8.1 45660 7.25 92.7 -55.58 29.65 2015-05-27T04:30
Mumford_Cove 41.32526111 -72.02088 2015 monitoringMC_01 3151818 2015-05-27 5:00 18.43 8.09 45670 7.19 91.5 -55.39 29.66 2015-05-27T05:00
Mumford_Cove 41.32526111 -72.02088 2015 monitoringMC_01 3151818 2015-05-27 5:30 17.98 8.09 45810 7.12 89.9 -55.14 29.76 2015-05-27T05:30
Mumford_Cove 41.32526111 -72.02088 2015 monitoringMC_01 3151818 2015-05-27 6:00 18.0 8.09 45740 7.08 89.4 -54.93 29.7 2015-05-27T06:00
Mumford_Cove 41.32526111 -72.02088 2015 monitoringMC_01 3151818 2015-05-27 6:30 18.12 8.09 45790 6.82 86.3 -55.11 29.74 2015-05-27T06:30
Mumford_Cove 41.32526111 -72.02088 2015 monitoringMC_01 3151818 2015-05-27 7:00 17.97 8.09 45850 7.06 89.2 -55.24 29.78 2015-05-27T07:00
Mumford_Cove 41.32526111 -72.02088 2015 monitoringMC_01 3151818 2015-05-27 7:30 17.85 8.1 45890 6.97 87.8 -55.51 29.81 2015-05-27T07:30
Mumford_Cove 41.32526111 -72.02088 2015 monitoringMC_01 3151818 2015-05-27 8:00 17.8 8.1 45690 7.15 90.0 -55.67 29.67 2015-05-27T08:00
Mumford_Cove 41.32526111 -72.02088 2015 monitoringMC_01 3151818 2015-05-27 8:30 18.22 8.11 45870 7.06 89.6 -56.46 29.8 2015-05-27T08:30
Mumford_Cove 41.32526111 -72.02088 2015 monitoringMC_01 3151818 2015-05-27 9:00 17.96 8.12 45940 6.3 79.6 -56.58 29.85 2015-05-27T09:00
Mumford_Cove 41.32526111 -72.02088 2015 monitoringMC_01 3151818 2015-05-27 9:30 18.73 8.14 45680 7.46 95.5 -58.35 29.66 2015-05-27T09:30
Mumford_Cove 41.32526111 -72.02088 2015 monitoringMC_01 3151818 2015-05-27 10:00 18.7 8.19 45850 7.11 91.0 -60.98 29.79 2015-05-27T10:00
Mumford_Cove 41.32526111 -72.02088 2015 monitoringMC_01 3151818 2015-05-27 10:30 19.3 8.15 45620 7.64 98.9 -59.02 29.62 2015-05-27T10:30
Mumford_Cove 41.32526111 -72.02088 2015 monitoringMC_01 3151818 2015-05-27 11:00 19.13 8.34 45600 9.87 127.3 -69.55 29.6 2015-05-27T11:00
Mumford_Cove 41.32526111 -72.02088 2015 monitoringMC_01 3151818 2015-05-27 11:30 19.6 8.17 45520 8.28 107.7 -59.95 29.55 2015-05-27T11:30
Mumford_Cove 41.32526111 -72.02088 2015 monitoringMC_01 3151818 2015-05-27 12:00 19.5 8.25 45630 9.63 125.0 -64.53 29.63 2015-05-27T12:00
Mumford_Cove 41.32526111 -72.02088 2015 monitoringMC_01 3151818 2015-05-27 12:30 19.41 8.2 45730 8.71 113.0 -61.64 29.7 2015-05-27T12:30
Mumford_Cove 41.32526111 -72.02088 2015 monitoringMC_01 3151818 2015-05-27 13:00 19.33 8.29 45730 9.85 127.5 -66.64 29.7 2015-05-27T13:00
Mumford_Cove 41.32526111 -72.02088 2015 monitoringMC_01 3151818 2015-05-27 13:30 19.43 8.26 45790 9.28 120.4 -65.12 29.74 2015-05-27T13:30
Mumford_Cove 41.32526111 -72.02088 2015 monitoringMC_01 3151818 2015-05-27 14:00 19.01 8.23 45650 9.01 116.0 -63.63 29.64 2015-05-27T14:00
Mumford_Cove 41.32526111 -72.02088 2015 monitoringMC_01 3151818 2015-05-27 14:30 19.13 8.25 45670 9.5 122.5 -64.76 29.65 2015-05-27T14:30
Mumford_Cove 41.32526111 -72.02088 2015 monitoringMC_01 3151818 2015-05-27 15:00 20.01 8.22 45640 9.5 124.6 -63.32 29.63 2015-05-27T15:00
Mumford_Cove 41.32526111 -72.02088 2015 monitoringMC_01 3151818 2015-05-27 15:30 19.74 8.22 45780 9.48 123.8 -63.0 29.73 2015-05-27T15:30
Mumford_Cove 41.32526111 -72.02088 2015 monitoringMC_01 3151818 2015-05-27 16:00 19.26 8.2 45710 9.55 123.5 -61.86 29.68 2015-05-27T16:00
Mumford_Cove 41.32526111 -72.02088 2015 monitoringMC_01 3151818 2015-05-27 16:30 19.35 8.22 45810 9.44 122.3 -62.72 29.76 2015-05-27T16:30
Mumford_Cove 41.32526111 -72.02088 2015 monitoringMC_01 3151818 2015-05-27 17:00 19.0 8.24 45850 9.84 126.7 -63.81 29.79 2015-05-27T17:00
Mumford_Cove 41.32526111 -72.02088 2015 monitoringMC_01 3151818 2015-05-27 17:30 19.29 8.22 45730 9.8 126.8 -63.03 29.7 2015-05-27T17:30
Mumford_Cove 41.32526111 -72.02088 2015 monitoringMC_01 3151818 2015-05-27 18:00 18.9 8.21 45720 9.72 124.9 -62.49 29.69 2015-05-27T18:00
Mumford_Cove 41.32526111 -72.02088 2015 monitoringMC_01 3151818 2015-05-27 18:30 19.27 8.24 45790 9.91 128.2 -63.9 29.74 2015-05-27T18:30
Mumford_Cove 41.32526111 -72.02088 2015 monitoringMC_01 3151818 2015-05-27 19:00 19.13 8.23 45780 9.84 127.0 -63.66 29.73 2015-05-27T19:00
Mumford_Cove 41.32526111 -72.02088 2015 monitoringMC_01 3151818 2015-05-27 19:30 18.91 8.22 45850 9.75 125.3 -63.02 29.79 2015-05-27T19:30
Mumford_Cove 41.32526111 -72.02088 2015 monitoringMC_01 3151818 2015-05-27 20:00 19.18 8.24 45900 9.72 125.6 -63.94 29.82 2015-05-27T20:00
Mumford_Cove 41.32526111 -72.02088 2015 monitoringMC_01 3151818 2015-05-27 20:30 19.06 8.21 45840 9.37 120.8 -62.24 29.78 2015-05-27T20:30
Mumford_Cove 41.32526111 -72.02088 2015 monitoringMC_01 3151818 2015-05-27 21:00 19.26 8.21 45740 9.04 117.0 -62.17 29.71 2015-05-27T21:00
Mumford_Cove 41.32526111 -72.02088 2015 monitoringMC_01 3151818 2015-05-27 21:30 19.77 8.21 45540 8.84 115.3 -62.27 29.56 2015-05-27T21:30
Mumford_Cove 41.32526111 -72.02088 2015 monitoringMC_01 3151818 2015-05-27 22:00 19.97 8.21 45710 8.86 116.1 -62.21 29.68 2015-05-27T22:00
Mumford_Cove 41.32526111 -72.02088 2015 monitoringMC_01 3151818 2015-05-27 22:30 20.28 8.18 45630 8.42 111.0 -60.53 29.62 2015-05-27T22:30
Mumford_Cove 41.32526111 -72.02088 2015 monitoringMC_01 3151818 2015-05-27 23:00 20.4 8.15 45400 8.13 107.2 -59.1 29.45 2015-05-27T23:00
Mumford_Cove 41.32526111 -72.02088 2015 monitoringMC_01 3151818 2015-05-27 23:30 20.56 8.15 45290 7.87 104.1 -58.92 29.37 2015-05-27T23:30
Mumford_Cove 41.32526111 -72.02088 2015 monitoringMC_01 3151818 2015-05-28 0:00 20.55 8.12 45360 7.53 99.6 -57.56 29.42 2015-05-28T00:00
Mumford_Cove 41.32526111 -72.02088 2015 monitoringMC_01 3151818 2015-05-28 0:30 20.8 8.1 45190 7.24 96.1 -56.17 29.3 2015-05-28T00:30
Mumford_Cove 41.32526111 -72.02088 2015 monitoringMC_01 3151818 2015-05-28 1:00 20.64 8.07 45250 6.95 92.1 -54.67 29.34 2015-05-28T01:00
Mumford_Cove 41.32526111 -72.02088 2015 monitoringMC_01 3151818 2015-05-28 1:30 20.54 8.09 45190 7.11 94.0 -55.49 29.3 2015-05-28T01:30
Mumford_Cove 41.32526111 -72.02088 2015 monitoringMC_01 3151818 2015-05-28 2:00 20.22 8.08 45270 7.1 93.3 -55.27 29.36 2015-05-28T02:00
Mumford_Cove 41.32526111 -72.02088 2015 monitoringMC_01 3151818 2015-05-28 2:30 19.88 8.09 45270 7.22 94.3 -55.65 29.36 2015-05-28T02:30
Mumford_Cove 41.32526111 -72.02088 2015 monitoringMC_01 3151818 2015-05-28 3:00 19.87 8.09 45220 7.06 92.2 -55.56 29.33 2015-05-28T03:00
Mumford_Cove 41.32526111 -72.02088 2015 monitoringMC_01 3151818 2015-05-28 3:30 19.56 8.04 45410 6.59 85.6 -52.65 29.47 2015-05-28T03:30
Mumford_Cove 41.32526111 -72.02088 2015 monitoringMC_01 3151818 2015-05-28 4:00 19.28 8.03 45500 6.41 82.8 -51.73 29.53 2015-05-28T04:00
Mumford_Cove 41.32526111 -72.02088 2015 monitoringMC_01 3151818 2015-05-28 4:30 18.95 8.02 45530 6.28 80.7 -51.14 29.55 2015-05-28T04:30
Mumford_Cove 41.32526111 -72.02088 2015 monitoringMC_01 3151818 2015-05-28 5:00 18.48 8.03 45630 6.32 80.5 -51.53 29.63 2015-05-28T05:00
Mumford_Cove 41.32526111 -72.02088 2015 monitoringMC_01 3151818 2015-05-28 5:30 18.12 8.02 45820 6.38 80.7 -50.98 29.76 2015-05-28T05:30
Mumford_Cove 41.32526111 -72.02088 2015 monitoringMC_01 3151818 2015-05-28 6:00 17.58 8.03 45620 6.56 82.2 -51.83 29.62 2015-05-28T06:00
Mumford_Cove 41.32526111 -72.02088 2015 monitoringMC_01 3151818 2015-05-28 6:30 17.04 8.03 45620 6.61 81.9 -51.76 29.61 2015-05-28T06:30
Mumford_Cove 41.32526111 -72.02088 2015 monitoringMC_01 3151818 2015-05-28 7:00 16.64 8.06 45640 6.77 83.2 -53.26 29.62 2015-05-28T07:00
Mumford_Cove 41.32526111 -72.02088 2015 monitoringMC_01 3151818 2015-05-28 7:30 17.18 8.03 45690 6.69 83.1 -51.65 29.66 2015-05-28T07:30
Mumford_Cove 41.32526111 -72.02088 2015 monitoringMC_01 3151818 2015-05-28 8:00 16.81 8.05 45800 6.7 82.8 -52.87 29.74 2015-05-28T08:00
Mumford_Cove 41.32526111 -72.02088 2015 monitoringMC_01 3151818 2015-05-28 8:30 17.08 8.08 45730 6.16 76.4 -54.56 29.69 2015-05-28T08:30
Mumford_Cove 41.32526111 -72.02088 2015 monitoringMC_01 3151818 2015-05-28 9:00 17.05 8.06 45720 6.6 81.9 -53.11 29.68 2015-05-28T09:00
Mumford_Cove 41.32526111 -72.02088 2015 monitoringMC_01 3151818 2015-05-28 9:30 17.3 8.06 45680 6.69 83.3 -53.17 29.66 2015-05-28T09:30
Mumford_Cove 41.32526111 -72.02088 2015 monitoringMC_01 3151818 2015-05-28 10:00 17.36 8.07 45750 6.72 83.8 -53.88 29.71 2015-05-28T10:00
Mumford_Cove 41.32526111 -72.02088 2015 monitoringMC_01 3151818 2015-05-28 10:30 17.99 8.07 45690 7.16 90.5 -54.12 29.67 2015-05-28T10:30
Mumford_Cove 41.32526111 -72.02088 2015 monitoringMC_01 3151818 2015-05-28 11:00 17.51 8.17 45940 7.28 91.1 -59.7 29.85 2015-05-28T11:00
Mumford_Cove 41.32526111 -72.02088 2015 monitoringMC_01 3151818 2015-05-28 11:30 18.53 8.11 45820 6.85 87.5 -56.31 29.76 2015-05-28T11:30
Mumford_Cove 41.32526111 -72.02088 2015 monitoringMC_01 3151818 2015-05-28 12:00 18.47 8.16 45570 7.89 100.5 -58.99 29.58 2015-05-28T12:00
Mumford_Cove 41.32526111 -72.02088 2015 monitoringMC_01 3151818 2015-05-28 12:30 18.57 8.19 45770 7.32 93.5 -60.91 29.73 2015-05-28T12:30
Mumford_Cove 41.32526111 -72.02088 2015 monitoringMC_01 3151818 2015-05-28 13:00 18.94 8.34 45710 10.08 129.6 -69.83 29.68 2015-05-28T13:00
Mumford_Cove 41.32526111 -72.02088 2015 monitoringMC_01 3151818 2015-05-28 13:30 18.39 8.2 45790 9.2 117.1 -61.75 29.74 2015-05-28T13:30
Mumford_Cove 41.32526111 -72.02088 2015 monitoringMC_01 3151818 2015-05-28 14:00 17.73 8.17 45650 8.56 107.5 -59.52 29.64 2015-05-28T14:00
Mumford_Cove 41.32526111 -72.02088 2015 monitoringMC_01 3151818 2015-05-28 14:30 17.67 8.2 45650 8.93 112.1 -61.49 29.64 2015-05-28T14:30
Mumford_Cove 41.32526111 -72.02088 2015 monitoringMC_01 3151818 2015-05-28 15:00 18.8 8.22 45580 9.31 119.3 -62.55 29.59 2015-05-28T15:00
Mumford_Cove 41.32526111 -72.02088 2015 monitoringMC_01 3151818 2015-05-28 15:30 19.15 8.19 45680 9.15 118.1 -61.31 29.66 2015-05-28T15:30
Mumford_Cove 41.32526111 -72.02088 2015 monitoringMC_01 3151818 2015-05-28 16:00 19.38 8.19 45670 9.17 118.8 -60.94 29.65 2015-05-28T16:00
Mumford_Cove 41.32526111 -72.02088 2015 monitoringMC_01 3151818 2015-05-28 16:30 19.33 8.21 45640 8.93 115.6 -62.09 29.63 2015-05-28T16:30
Mumford_Cove 41.32526111 -72.02088 2015 monitoringMC_01 3151818 2015-05-28 17:00 19.06 8.2 45750 9.74 125.5 -61.68 29.71 2015-05-28T17:00
Mumford_Cove 41.32526111 -72.02088 2015 monitoringMC_01 3151818 2015-05-28 17:30 18.99 8.21 45680 9.66 124.3 -62.25 29.66 2015-05-28T17:30
Mumford_Cove 41.32526111 -72.02088 2015 monitoringMC_01 3151818 2015-05-28 18:00 18.77 8.22 45830 9.69 124.2 -62.78 29.77 2015-05-28T18:00
Mumford_Cove 41.32526111 -72.02088 2015 monitoringMC_01 3151818 2015-05-28 18:30 18.56 8.23 45750 9.89 126.2 -63.5 29.71 2015-05-28T18:30
Mumford_Cove 41.32526111 -72.02088 2015 monitoringMC_01 3151818 2015-05-28 19:00 18.07 8.23 45760 9.99 126.4 -63.37 29.72 2015-05-28T19:00
Mumford_Cove 41.32526111 -72.02088 2015 monitoringMC_01 3151818 2015-05-28 19:30 18.29 8.25 45800 10.27 130.5 -64.55 29.75 2015-05-28T19:30
Mumford_Cove 41.32526111 -72.02088 2015 monitoringMC_01 3151818 2015-05-28 20:00 18.39 8.27 45590 10.16 129.2 -65.43 29.6 2015-05-28T20:00
Mumford_Cove 41.32526111 -72.02088 2015 monitoringMC_01 3151818 2015-05-28 20:30 18.43 8.24 45720 9.98 127.1 -63.84 29.69 2015-05-28T20:30
Mumford_Cove 41.32526111 -72.02088 2015 monitoringMC_01 3151818 2015-05-28 21:00 18.41 8.23 45820 9.73 123.9 -63.38 29.76 2015-05-28T21:00
Mumford_Cove 41.32526111 -72.02088 2015 monitoringMC_01 3151818 2015-05-28 21:30 18.5 8.23 45670 9.7 123.6 -63.12 29.66 2015-05-28T21:30
Mumford_Cove 41.32526111 -72.02088 2015 monitoringMC_01 3151818 2015-05-28 22:00 18.57 8.2 45770 9.25 118.2 -61.59 29.73 2015-05-28T22:00
Mumford_Cove 41.32526111 -72.02088 2015 monitoringMC_01 3151818 2015-05-28 22:30 18.8 8.19 45860 9.14 117.2 -61.3 29.79 2015-05-28T22:30
Mumford_Cove 41.32526111 -72.02088 2015 monitoringMC_01 3151818 2015-05-28 23:00 19.2 8.19 45570 8.5 109.7 -61.02 29.58 2015-05-28T23:00
Mumford_Cove 41.32526111 -72.02088 2015 monitoringMC_01 3151818 2015-05-28 23:30 19.42 8.16 45640 8.63 111.9 -59.18 29.63 2015-05-28T23:30
Mumford_Cove 41.32526111 -72.02088 2015 monitoringMC_01 3151818 2015-05-29 0:00 19.33 8.11 45590 8.24 106.6 -56.74 29.6 2015-05-29T00:00
Mumford_Cove 41.32526111 -72.02088 2015 monitoringMC_01 3151818 2015-05-29 0:30 19.65 8.14 45520 8.1 105.4 -58.41 29.54 2015-05-29T00:30
Mumford_Cove 41.32526111 -72.02088 2015 monitoringMC_01 3151818 2015-05-29 1:00 19.8 8.1 45420 7.16 93.4 -55.99 29.47 2015-05-29T01:00
Mumford_Cove 41.32526111 -72.02088 2015 monitoringMC_01 3151818 2015-05-29 1:30 19.86 8.11 45330 6.81 88.9 -56.57 29.41 2015-05-29T01:30
Mumford_Cove 41.32526111 -72.02088 2015 monitoringMC_01 3151818 2015-05-29 2:00 19.79 8.08 45540 7.67 100.1 -55.0 29.56 2015-05-29T02:00
Mumford_Cove 41.32526111 -72.02088 2015 monitoringMC_01 3151818 2015-05-29 2:30 19.85 8.07 45400 7.69 100.4 -54.48 29.46 2015-05-29T02:30
Mumford_Cove 41.32526111 -72.02088 2015 monitoringMC_01 3151818 2015-05-29 3:00 19.17 7.95 45380 6.48 83.5 -47.51 29.45 2015-05-29T03:00
Mumford_Cove 41.32526111 -72.02088 2015 monitoringMC_01 3151818 2015-05-29 3:30 19.31 7.99 45040 6.88 88.8 -49.72 29.2 2015-05-29T03:30
Mumford_Cove 41.32526111 -72.02088 2015 monitoringMC_01 3151818 2015-05-29 4:00 19.28 7.99 44740 6.64 85.5 -49.38 28.98 2015-05-29T04:00
Mumford_Cove 41.32526111 -72.02088 2015 monitoringMC_01 3151818 2015-05-29 4:30 18.64 8.03 44820 7.01 89.3 -51.81 29.04 2015-05-29T04:30
Mumford_Cove 41.32526111 -72.02088 2015 monitoringMC_01 3151818 2015-05-29 5:00 17.67 8.03 45040 7.11 88.9 -51.78 29.2 2015-05-29T05:00
Mumford_Cove 41.32526111 -72.02088 2015 monitoringMC_01 3151818 2015-05-29 5:30 16.32 8.02 45300 7.08 86.4 -50.8 29.37 2015-05-29T05:30
Mumford_Cove 41.32526111 -72.02088 2015 monitoringMC_01 3151818 2015-05-29 6:00 15.61 8.05 45460 7.36 88.6 -52.51 29.48 2015-05-29T06:00
Mumford_Cove 41.32526111 -72.02088 2015 monitoringMC_01 3151818 2015-05-29 6:30 15.2 8.07 45570 7.46 89.1 -53.32 29.55 2015-05-29T06:30
Mumford_Cove 41.32526111 -72.02088 2015 monitoringMC_01 3151818 2015-05-29 7:00 14.77 8.08 45590 7.65 90.6 -54.02 29.56 2015-05-29T07:00
Mumford_Cove 41.32526111 -72.02088 2015 monitoringMC_01 3151818 2015-05-29 7:30 14.34 8.11 45600 7.94 93.2 -55.26 29.56 2015-05-29T07:30
Mumford_Cove 41.32526111 -72.02088 2015 monitoringMC_01 3151818 2015-05-29 8:00 14.33 8.11 45690 8.02 94.1 -55.5 29.62 2015-05-29T08:00
Mumford_Cove 41.32526111 -72.02088 2015 monitoringMC_01 3151818 2015-05-29 8:30 14.38 8.12 45660 8.1 95.2 -56.05 29.6 2015-05-29T08:30
Mumford_Cove 41.32526111 -72.02088 2015 monitoringMC_01 3151818 2015-05-29 9:00 14.42 8.14 45630 8.19 96.3 -57.31 29.58 2015-05-29T09:00
Mumford_Cove 41.32526111 -72.02088 2015 monitoringMC_01 3151818 2015-05-29 9:30 14.38 8.16 45610 8.46 99.4 -58.12 29.56 2015-05-29T09:30
Mumford_Cove 41.32526111 -72.02088 2015 monitoringMC_01 3151818 2015-05-29 10:00 14.61 8.18 45530 8.21 96.9 -59.54 29.51 2015-05-29T10:00
Mumford_Cove 41.32526111 -72.02088 2015 monitoringMC_01 3151818 2015-05-29 10:30 14.81 8.22 45570 8.32 98.6 -61.71 29.54 2015-05-29T10:30
Mumford_Cove 41.32526111 -72.02088 2015 monitoringMC_01 3151818 2015-05-29 11:00 14.89 8.19 45600 8.05 95.5 -60.24 29.57 2015-05-29T11:00
Mumford_Cove 41.32526111 -72.02088 2015 monitoringMC_01 3151818 2015-05-29 11:30 15.32 8.19 45500 8.6 103.0 -60.12 29.5 2015-05-29T11:30
Mumford_Cove 41.32526111 -72.02088 2015 monitoringMC_01 3151818 2015-05-29 12:00 15.69 8.17 45550 8.91 107.4 -59.42 29.55 2015-05-29T12:00
Mumford_Cove 41.32526111 -72.02088 2015 monitoringMC_01 3151818 2015-05-29 12:30 15.75 8.25 45710 9.85 119.0 -63.57 29.66 2015-05-29T12:30
Mumford_Cove 41.32526111 -72.02088 2015 monitoringMC_01 3151818 2015-05-29 13:00 15.96 8.32 45640 10.82 131.3 -67.53 29.61 2015-05-29T13:00
Mumford_Cove 41.32526111 -72.02088 2015 monitoringMC_01 3151818 2015-05-29 13:30 16.32 8.36 45500 11.69 142.8 -70.39 29.52 2015-05-29T13:30
Mumford_Cove 41.32526111 -72.02088 2015 monitoringMC_01 3151818 2015-05-29 14:00 16.27 8.38 45600 11.28 137.6 -71.07 29.59 2015-05-29T14:00
Mumford_Cove 41.32526111 -72.02088 2015 monitoringMC_01 3151818 2015-05-29 14:30 16.5 8.39 45580 11.99 146.9 -71.8 29.58 2015-05-29T14:30
Mumford_Cove 41.32526111 -72.02088 2015 monitoringMC_01 3151818 2015-05-29 15:00 16.32 8.39 45650 11.94 145.8 -71.8 29.63 2015-05-29T15:00
Mumford_Cove 41.32526111 -72.02088 2015 monitoringMC_01 3151818 2015-05-29 15:30 16.74 8.44 45560 12.58 155.0 -75.0 29.57 2015-05-29T15:30
Mumford_Cove 41.32526111 -72.02088 2015 monitoringMC_01 3151818 2015-05-29 16:00 17.12 8.35 45460 11.78 146.0 -69.92 29.5 2015-05-29T16:00
Mumford_Cove 41.32526111 -72.02088 2015 monitoringMC_01 3151818 2015-05-29 16:30 17.28 8.41 45550 12.55 156.2 -73.22 29.56 2015-05-29T16:30
Mumford_Cove 41.32526111 -72.02088 2015 monitoringMC_01 3151818 2015-05-29 17:00 17.8 8.37 45480 12.39 155.7 -71.22 29.52 2015-05-29T17:00
Mumford_Cove 41.32526111 -72.02088 2015 monitoringMC_01 3151818 2015-05-29 17:30 17.82 8.5 45560 13.62 171.2 -78.48 29.57 2015-05-29T17:30
Mumford_Cove 41.32526111 -72.02088 2015 monitoringMC_01 3151818 2015-05-29 18:00 17.55 8.5 45500 13.77 172.2 -78.51 29.53 2015-05-29T18:00
Mumford_Cove 41.32526111 -72.02088 2015 monitoringMC_01 3151818 2015-05-29 18:30 17.2 8.49 45640 13.62 169.2 -77.67 29.63 2015-05-29T18:30
Mumford_Cove 41.32526111 -72.02088 2015 monitoringMC_01 3151818 2015-05-29 19:00 17.31 8.37 45700 12.52 156.0 -70.7 29.67 2015-05-29T19:00
Mumford_Cove 41.32526111 -72.02088 2015 monitoringMC_01 3151818 2015-05-29 19:30 16.91 8.35 45700 11.62 143.6 -69.46 29.67 2015-05-29T19:30
Mumford_Cove 41.32526111 -72.02088 2015 monitoringMC_01 3151818 2015-05-29 20:00 16.5 8.27 45820 10.7 131.2 -65.13 29.75 2015-05-29T20:00
Mumford_Cove 41.32526111 -72.02088 2015 monitoringMC_01 3151818 2015-05-29 20:30 16.36 8.23 45840 10.24 125.3 -62.9 29.76 2015-05-29T20:30
Mumford_Cove 41.32526111 -72.02088 2015 monitoringMC_01 3151818 2015-05-29 21:00 16.73 8.31 45830 10.62 130.9 -67.16 29.76 2015-05-29T21:00
Mumford_Cove 41.32526111 -72.02088 2015 monitoringMC_01 3151818 2015-05-29 21:30 16.85 8.24 45720 10.48 129.4 -63.54 29.68 2015-05-29T21:30
Mumford_Cove 41.32526111 -72.02088 2015 monitoringMC_01 3151818 2015-05-29 22:00 17.1 8.31 45730 10.62 131.9 -67.66 29.69 2015-05-29T22:00
Mumford_Cove 41.32526111 -72.02088 2015 monitoringMC_01 3151818 2015-05-29 22:30 16.79 8.24 45550 10.18 125.5 -63.6 29.56 2015-05-29T22:30
Mumford_Cove 41.32526111 -72.02088 2015 monitoringMC_01 3151818 2015-05-29 23:00 16.85 8.25 45900 10.17 125.6 -64.28 29.81 2015-05-29T23:00
Mumford_Cove 41.32526111 -72.02088 2015 monitoringMC_01 3151818 2015-05-29 23:30 16.7 8.25 45780 9.92 122.2 -63.75 29.72 2015-05-29T23:30
Mumford_Cove 41.32526111 -72.02088 2015 monitoringMC_01 3151818 2015-05-30 0:00 16.95 8.26 45760 9.74 120.5 -64.51 29.71 2015-05-30T00:00
Mumford_Cove 41.32526111 -72.02088 2015 monitoringMC_01 3151818 2015-05-30 0:30 17.08 8.25 45680 8.54 106.0 -63.86 29.66 2015-05-30T00:30
Mumford_Cove 41.32526111 -72.02088 2015 monitoringMC_01 3151818 2015-05-30 1:00 17.19 8.23 45820 7.79 96.9 -62.9 29.76 2015-05-30T01:00
Mumford_Cove 41.32526111 -72.02088 2015 monitoringMC_01 3151818 2015-05-30 1:30 17.82 8.23 45680 9.65 121.5 -63.34 29.66 2015-05-30T01:30
Mumford_Cove 41.32526111 -72.02088 2015 monitoringMC_01 3151818 2015-05-30 2:00 17.44 8.19 45650 9.1 113.6 -60.46 29.64 2015-05-30T02:00
Mumford_Cove 41.32526111 -72.02088 2015 monitoringMC_01 3151818 2015-05-30 2:30 17.95 8.2 45530 9.67 121.9 -61.48 29.55 2015-05-30T02:30
Mumford_Cove 41.32526111 -72.02088 2015 monitoringMC_01 3151818 2015-05-30 3:00 17.72 8.34 45840 10.97 137.9 -69.54 29.78 2015-05-30T03:00
Mumford_Cove 41.32526111 -72.02088 2015 monitoringMC_01 3151818 2015-05-30 3:30 16.75 8.03 45830 7.61 93.9 -51.55 29.76 2015-05-30T03:30
Mumford_Cove 41.32526111 -72.02088 2015 monitoringMC_01 3151818 2015-05-30 4:00 17.04 8.03 45650 7.53 93.3 -51.25 29.63 2015-05-30T04:00
Mumford_Cove 41.32526111 -72.02088 2015 monitoringMC_01 3151818 2015-05-30 4:30 17.92 8.03 45350 7.56 95.2 -51.92 29.42 2015-05-30T04:30
Mumford_Cove 41.32526111 -72.02088 2015 monitoringMC_01 3151818 2015-05-30 5:00 18.18 8.05 45270 7.5 94.8 -53.11 29.37 2015-05-30T05:00
Mumford_Cove 41.32526111 -72.02088 2015 monitoringMC_01 3151818 2015-05-30 5:30 17.74 8.08 45330 7.51 94.2 -54.56 29.41 2015-05-30T05:30
Mumford_Cove 41.32526111 -72.02088 2015 monitoringMC_01 3151818 2015-05-30 6:00 17.29 8.1 45330 7.91 98.4 -55.75 29.4 2015-05-30T06:00
Mumford_Cove 41.32526111 -72.02088 2015 monitoringMC_01 3151818 2015-05-30 6:30 16.88 8.09 45420 7.83 96.6 -54.93 29.47 2015-05-30T06:30
Mumford_Cove 41.32526111 -72.02088 2015 monitoringMC_01 3151818 2015-05-30 7:00 16.29 8.09 45520 7.8 95.2 -54.53 29.53 2015-05-30T07:00
Mumford_Cove 41.32526111 -72.02088 2015 monitoringMC_01 3151818 2015-05-30 7:30 15.69 8.09 45690 7.9 95.3 -54.74 29.65 2015-05-30T07:30
Mumford_Cove 41.32526111 -72.02088 2015 monitoringMC_01 3151818 2015-05-30 8:00 15.24 8.11 45740 8.05 96.3 -55.8 29.68 2015-05-30T08:00
Mumford_Cove 41.32526111 -72.02088 2015 monitoringMC_01 3151818 2015-05-30 8:30 15.07 8.11 45750 8.02 95.6 -55.45 29.68 2015-05-30T08:30
Mumford_Cove 41.32526111 -72.02088 2015 monitoringMC_01 3151818 2015-05-30 9:00 15.1 8.15 45740 8.35 99.6 -57.81 29.67 2015-05-30T09:00
Mumford_Cove 41.32526111 -72.02088 2015 monitoringMC_01 3151818 2015-05-30 9:30 14.98 8.15 45640 8.42 100.1 -57.83 29.6 2015-05-30T09:30
Mumford_Cove 41.32526111 -72.02088 2015 monitoringMC_01 3151818 2015-05-30 10:00 14.93 8.18 45760 8.63 102.5 -59.62 29.68 2015-05-30T10:00
Mumford_Cove 41.32526111 -72.02088 2015 monitoringMC_01 3151818 2015-05-30 10:30 15.47 8.19 45560 8.76 105.2 -59.99 29.55 2015-05-30T10:30
Mumford_Cove 41.32526111 -72.02088 2015 monitoringMC_01 3151818 2015-05-30 11:00 15.59 8.17 45600 8.68 104.4 -58.91 29.58 2015-05-30T11:00
Mumford_Cove 41.32526111 -72.02088 2015 monitoringMC_01 3151818 2015-05-30 11:30 15.69 8.19 45690 8.7 105.0 -60.05 29.65 2015-05-30T11:30
Mumford_Cove 41.32526111 -72.02088 2015 monitoringMC_01 3151818 2015-05-30 12:00 15.54 8.2 45710 8.29 99.8 -60.93 29.66 2015-05-30T12:00
Mumford_Cove 41.32526111 -72.02088 2015 monitoringMC_01 3151818 2015-05-30 12:30 16.17 8.14 45600 8.72 106.1 -57.4 29.59 2015-05-30T12:30
Mumford_Cove 41.32526111 -72.02088 2015 monitoringMC_01 3151818 2015-05-30 13:00 15.88 8.22 45710 10.0 121.2 -62.31 29.66 2015-05-30T13:00
Mumford_Cove 41.32526111 -72.02088 2015 monitoringMC_01 3151818 2015-05-30 13:30 16.58 8.23 45550 9.95 122.1 -62.85 29.56 2015-05-30T13:30
Mumford_Cove 41.32526111 -72.02088 2015 monitoringMC_01 3151818 2015-05-30 14:00 16.89 8.26 45670 10.11 124.9 -64.45 29.65 2015-05-30T14:00
Mumford_Cove 41.32526111 -72.02088 2015 monitoringMC_01 3151818 2015-05-30 14:30 17.04 8.25 45670 10.05 124.6 -63.8 29.65 2015-05-30T14:30
Mumford_Cove 41.32526111 -72.02088 2015 monitoringMC_01 3151818 2015-05-30 15:00 17.51 8.25 45540 10.35 129.4 -64.14 29.56 2015-05-30T15:00
Mumford_Cove 41.32526111 -72.02088 2015 monitoringMC_01 3151818 2015-05-30 15:30 16.88 8.3 45740 11.33 140.1 -67.14 29.7 2015-05-30T15:30
Mumford_Cove 41.32526111 -72.02088 2015 monitoringMC_01 3151818 2015-05-30 16:00 16.47 8.38 45760 11.88 145.7 -71.54 29.71 2015-05-30T16:00
Mumford_Cove 41.32526111 -72.02088 2015 monitoringMC_01 3151818 2015-05-30 16:30 17.86 8.32 45820 12.07 152.0 -68.37 29.76 2015-05-30T16:30
Mumford_Cove 41.32526111 -72.02088 2015 monitoringMC_01 3151818 2015-05-30 17:00 18.57 8.39 45690 12.62 161.1 -72.46 29.67 2015-05-30T17:00
Mumford_Cove 41.32526111 -72.02088 2015 monitoringMC_01 3151818 2015-05-30 17:30 18.31 8.43 46090 12.96 164.8 -74.69 29.96 2015-05-30T17:30
Mumford_Cove 41.32526111 -72.02088 2015 monitoringMC_01 3151818 2015-05-30 18:00 18.71 8.42 45770 13.45 172.3 -74.26 29.73 2015-05-30T18:00
Mumford_Cove 41.32526111 -72.02088 2015 monitoringMC_01 3151818 2015-05-30 18:30 18.96 8.39 45960 12.61 162.3 -72.56 29.86 2015-05-30T18:30
Mumford_Cove 41.32526111 -72.02088 2015 monitoringMC_01 3151818 2015-05-30 19:00 18.92 8.39 45640 13.12 168.5 -72.61 29.63 2015-05-30T19:00
Mumford_Cove 41.32526111 -72.02088 2015 monitoringMC_01 3151818 2015-05-30 19:30 17.23 8.46 45880 12.97 161.5 -76.28 29.8 2015-05-30T19:30
Mumford_Cove 41.32526111 -72.02088 2015 monitoringMC_01 3151818 2015-05-30 20:00 17.5 8.37 45830 12.01 150.3 -71.22 29.77 2015-05-30T20:00
Mumford_Cove 41.32526111 -72.02088 2015 monitoringMC_01 3151818 2015-05-30 20:30 17.34 8.31 45930 11.21 139.9 -67.4 29.84 2015-05-30T20:30
Mumford_Cove 41.32526111 -72.02088 2015 monitoringMC_01 3151818 2015-05-30 21:00 17.25 8.35 45940 10.62 132.2 -70.03 29.85 2015-05-30T21:00
Mumford_Cove 41.32526111 -72.02088 2015 monitoringMC_01 3151818 2015-05-30 21:30 16.82 8.25 45930 9.93 122.6 -63.92 29.83 2015-05-30T21:30
Mumford_Cove 41.32526111 -72.02088 2015 monitoringMC_01 3151818 2015-05-30 22:00 17.03 8.28 45940 10.26 127.2 -65.83 29.84 2015-05-30T22:00
Mumford_Cove 41.32526111 -72.02088 2015 monitoringMC_01 3151818 2015-05-30 22:30 17.13 8.28 45920 9.92 123.3 -65.57 29.83 2015-05-30T22:30
Mumford_Cove 41.32526111 -72.02088 2015 monitoringMC_01 3151818 2015-05-30 23:00 17.04 8.23 46000 9.76 121.2 -63.0 29.89 2015-05-30T23:00
Mumford_Cove 41.32526111 -72.02088 2015 monitoringMC_01 3151818 2015-05-30 23:30 17.32 8.26 45860 9.48 118.3 -64.87 29.79 2015-05-30T23:30
Mumford_Cove 41.32526111 -72.02088 2015 monitoringMC_01 3151818 2015-05-31 0:00 17.13 8.25 45990 8.57 106.6 -64.0 29.88 2015-05-31T00:00
Mumford_Cove 41.32526111 -72.02088 2015 monitoringMC_01 3151818 2015-05-31 0:30 17.88 8.25 45710 7.78 98.0 -64.41 29.68 2015-05-31T00:30
Mumford_Cove 41.32526111 -72.02088 2015 monitoringMC_01 3151818 2015-05-31 1:00 17.54 8.25 45890 8.6 107.8 -64.25 29.81 2015-05-31T01:00
Mumford_Cove 41.32526111 -72.02088 2015 monitoringMC_01 3151818 2015-05-31 1:30 18.37 8.26 45920 10.1 128.5 -65.17 29.84 2015-05-31T01:30
Mumford_Cove 41.32526111 -72.02088 2015 monitoringMC_01 3151818 2015-05-31 2:00 17.73 8.23 46270 9.7 122.1 -62.89 30.09 2015-05-31T02:00
Mumford_Cove 41.32526111 -72.02088 2015 monitoringMC_01 3151818 2015-05-31 2:30 18.77 8.26 45810 9.93 127.4 -64.96 29.76 2015-05-31T02:30
Mumford_Cove 41.32526111 -72.02088 2015 monitoringMC_01 3151818 2015-05-31 3:00 18.5 8.23 45760 9.03 115.1 -63.38 29.72 2015-05-31T03:00
Mumford_Cove 41.32526111 -72.02088 2015 monitoringMC_01 3151818 2015-05-31 3:30 19.85 8.19 45520 9.23 120.6 -61.21 29.54 2015-05-31T03:30
Mumford_Cove 41.32526111 -72.02088 2015 monitoringMC_01 3151818 2015-05-31 4:00 17.83 8.14 45930 8.96 112.9 -58.2 29.84 2015-05-31T04:00
Mumford_Cove 41.32526111 -72.02088 2015 monitoringMC_01 3151818 2015-05-31 4:30 18.15 8.04 45700 7.23 91.6 -52.3 29.68 2015-05-31T04:30
Mumford_Cove 41.32526111 -72.02088 2015 monitoringMC_01 3151818 2015-05-31 5:00 19.02 8.05 45530 7.36 94.7 -53.16 29.55 2015-05-31T05:00
Mumford_Cove 41.32526111 -72.02088 2015 monitoringMC_01 3151818 2015-05-31 5:30 19.58 8.08 45430 7.54 98.0 -54.92 29.48 2015-05-31T05:30
Mumford_Cove 41.32526111 -72.02088 2015 monitoringMC_01 3151818 2015-05-31 6:00 18.95 8.09 45450 7.53 96.7 -55.07 29.5 2015-05-31T06:00
Mumford_Cove 41.32526111 -72.02088 2015 monitoringMC_01 3151818 2015-05-31 6:30 18.39 8.08 45620 7.47 94.9 -54.87 29.62 2015-05-31T06:30
Mumford_Cove 41.32526111 -72.02088 2015 monitoringMC_01 3151818 2015-05-31 7:00 17.85 8.09 45700 7.5 94.5 -54.89 29.68 2015-05-31T07:00
Mumford_Cove 41.32526111 -72.02088 2015 monitoringMC_01 3151818 2015-05-31 7:30 17.19 8.1 45780 7.59 94.3 -55.33 29.73 2015-05-31T07:30
Mumford_Cove 41.32526111 -72.02088 2015 monitoringMC_01 3151818 2015-05-31 8:00 16.57 8.11 45880 7.83 96.2 -55.79 29.8 2015-05-31T08:00
Mumford_Cove 41.32526111 -72.02088 2015 monitoringMC_01 3151818 2015-05-31 8:30 16.27 8.13 45770 8.09 98.8 -56.94 29.71 2015-05-31T08:30
Mumford_Cove 41.32526111 -72.02088 2015 monitoringMC_01 3151818 2015-05-31 9:00 15.76 8.14 45970 8.34 100.9 -57.7 29.85 2015-05-31T09:00
Mumford_Cove 41.32526111 -72.02088 2015 monitoringMC_01 3151818 2015-05-31 9:30 16.39 8.13 45950 8.15 99.8 -57.22 29.84 2015-05-31T09:30
Mumford_Cove 41.32526111 -72.02088 2015 monitoringMC_01 3151818 2015-05-31 10:00 16.23 8.19 46030 8.49 103.7 -60.3 29.9 2015-05-31T10:00
Mumford_Cove 41.32526111 -72.02088 2015 monitoringMC_01 3151818 2015-05-31 10:30 16.15 8.21 45920 9.18 111.9 -61.41 29.82 2015-05-31T10:30
Mumford_Cove 41.32526111 -72.02088 2015 monitoringMC_01 3151818 2015-05-31 11:00 16.13 8.18 46150 8.88 108.3 -59.92 29.99 2015-05-31T11:00
Mumford_Cove 41.32526111 -72.02088 2015 monitoringMC_01 3151818 2015-05-31 11:30 16.53 8.22 45980 9.08 111.6 -61.99 29.87 2015-05-31T11:30
Mumford_Cove 41.32526111 -72.02088 2015 monitoringMC_01 3151818 2015-05-31 12:00 16.69 8.27 46000 9.86 121.6 -65.17 29.88 2015-05-31T12:00
Mumford_Cove 41.32526111 -72.02088 2015 monitoringMC_01 3151818 2015-05-31 12:30 17.44 8.17 45890 8.84 110.5 -59.47 29.81 2015-05-31T12:30
Mumford_Cove 41.32526111 -72.02088 2015 monitoringMC_01 3151818 2015-05-31 13:00 17.28 8.5 46060 12.61 157.3 -78.13 29.93 2015-05-31T13:00
Mumford_Cove 41.32526111 -72.02088 2015 monitoringMC_01 3151818 2015-05-31 13:30 18.16 8.26 45700 9.68 122.6 -64.94 29.68 2015-05-31T13:30
Mumford_Cove 41.32526111 -72.02088 2015 monitoringMC_01 3151818 2015-05-31 14:00 17.87 8.55 45800 14.08 177.4 -81.63 29.75 2015-05-31T14:00
Mumford_Cove 41.32526111 -72.02088 2015 monitoringMC_01 3151818 2015-05-31 14:30 18.75 8.4 45680 11.47 146.9 -73.33 29.66 2015-05-31T14:30
Mumford_Cove 41.32526111 -72.02088 2015 monitoringMC_01 3151818 2015-05-31 15:00 19.01 8.53 45730 13.75 177.0 -80.39 29.7 2015-05-31T15:00
Mumford_Cove 41.32526111 -72.02088 2015 monitoringMC_01 3151818 2015-05-31 15:30 19.09 8.66 45940 15.29 197.3 -87.93 29.85 2015-05-31T15:30
Mumford_Cove 41.32526111 -72.02088 2015 monitoringMC_01 3151818 2015-05-31 16:00 17.54 8.5 46030 13.87 173.8 -78.27 29.91 2015-05-31T16:00
Mumford_Cove 41.32526111 -72.02088 2015 monitoringMC_01 3151818 2015-05-31 16:30 17.7 8.43 46070 12.57 158.0 -74.4 29.94 2015-05-31T16:30
Mumford_Cove 41.32526111 -72.02088 2015 monitoringMC_01 3151818 2015-05-31 17:00 19.25 8.41 45950 12.2 158.0 -73.91 29.86 2015-05-31T17:00
Mumford_Cove 41.32526111 -72.02088 2015 monitoringMC_01 3151818 2015-05-31 17:30 19.56 8.4 45820 12.4 161.4 -73.43 29.76 2015-05-31T17:30
Mumford_Cove 41.32526111 -72.02088 2015 monitoringMC_01 3151818 2015-05-31 18:00 19.64 8.36 45840 12.02 156.7 -70.92 29.78 2015-05-31T18:00
Mumford_Cove 41.32526111 -72.02088 2015 monitoringMC_01 3151818 2015-05-31 18:30 20.6 8.34 45850 11.38 150.9 -70.22 29.78 2015-05-31T18:30
Mumford_Cove 41.32526111 -72.02088 2015 monitoringMC_01 3151818 2015-05-31 19:00 19.85 8.29 45910 10.94 143.2 -67.22 29.83 2015-05-31T19:00
Mumford_Cove 41.32526111 -72.02088 2015 monitoringMC_01 3151818 2015-05-31 19:30 18.73 8.24 45970 10.29 131.9 -63.83 29.87 2015-05-31T19:30
Mumford_Cove 41.32526111 -72.02088 2015 monitoringMC_01 3151818 2015-05-31 20:00 16.93 8.2 46290 9.85 122.2 -61.19 30.1 2015-05-31T20:00
Mumford_Cove 41.32526111 -72.02088 2015 monitoringMC_01 3151818 2015-05-31 20:30 17.03 8.19 46150 9.33 115.8 -60.5 30.0 2015-05-31T20:30
Mumford_Cove 41.32526111 -72.02088 2015 monitoringMC_01 3151818 2015-05-31 21:00 16.73 8.18 46050 9.16 113.0 -59.98 29.92 2015-05-31T21:00
Mumford_Cove 41.32526111 -72.02088 2015 monitoringMC_01 3151818 2015-05-31 21:30 16.15 8.17 45920 8.96 109.3 -59.47 29.82 2015-05-31T21:30
Mumford_Cove 41.32526111 -72.02088 2015 monitoringMC_01 3151818 2015-05-31 22:00 15.94 8.16 45890 8.73 106.0 -58.92 29.79 2015-05-31T22:00
Mumford_Cove 41.32526111 -72.02088 2015 monitoringMC_01 3151818 2015-05-31 22:30 15.69 8.16 45910 8.67 104.8 -58.72 29.81 2015-05-31T22:30
Mumford_Cove 41.32526111 -72.02088 2015 monitoringMC_01 3151818 2015-05-31 23:00 15.7 8.16 45860 8.66 104.6 -58.38 29.77 2015-05-31T23:00
Mumford_Cove 41.32526111 -72.02088 2015 monitoringMC_01 3151818 2015-05-31 23:30 16.61 8.18 45810 8.65 106.3 -60.01 29.75 2015-05-31T23:30
Mumford_Cove 41.32526111 -72.02088 2015 monitoringMC_01 3151818 2015-06-01 0:00 16.83 8.15 46100 8.28 102.4 -58.27 29.96 2015-06-01T00:00
Mumford_Cove 41.32526111 -72.02088 2015 monitoringMC_01 3151818 2015-06-01 0:30 16.77 8.12 46170 8.07 99.7 -56.72 30.01 2015-06-01T00:30
Mumford_Cove 41.32526111 -72.02088 2015 monitoringMC_01 3151818 2015-06-01 1:00 17.24 8.1 45930 7.65 95.3 -55.62 29.84 2015-06-01T01:00
Mumford_Cove 41.32526111 -72.02088 2015 monitoringMC_01 3151818 2015-06-01 1:30 17.34 8.1 46000 7.61 95.0 -55.53 29.89 2015-06-01T01:30
Mumford_Cove 41.32526111 -72.02088 2015 monitoringMC_01 3151818 2015-06-01 2:00 17.21 8.1 46040 7.58 94.4 -55.27 29.92 2015-06-01T02:00
Mumford_Cove 41.32526111 -72.02088 2015 monitoringMC_01 3151818 2015-06-01 2:30 17.08 8.0 46160 6.82 84.8 -49.51 30.0 2015-06-01T02:30
Mumford_Cove 41.32526111 -72.02088 2015 monitoringMC_01 3151818 2015-06-01 3:00 17.36 8.0 45850 6.67 83.3 -49.65 29.78 2015-06-01T03:00
Mumford_Cove 41.32526111 -72.02088 2015 monitoringMC_01 3151818 2015-06-01 3:30 17.68 7.92 46080 6.33 79.6 -45.24 29.95 2015-06-01T03:30
Mumford_Cove 41.32526111 -72.02088 2015 monitoringMC_01 3151818 2015-06-01 4:00 17.31 7.83 46030 4.98 62.2 -39.93 29.91 2015-06-01T04:00
Mumford_Cove 41.32526111 -72.02088 2015 monitoringMC_01 3151818 2015-06-01 4:30 16.71 7.8 45960 5.04 62.2 -38.56 29.85 2015-06-01T04:30
Mumford_Cove 41.32526111 -72.02088 2015 monitoringMC_01 3151818 2015-06-01 5:00 17.15 7.94 45630 5.65 70.2 -46.44 29.62 2015-06-01T05:00
Mumford_Cove 41.32526111 -72.02088 2015 monitoringMC_01 3151818 2015-06-01 5:30 18.22 8.09 44890 6.94 87.7 -54.98 29.09 2015-06-01T05:30
Mumford_Cove 41.32526111 -72.02088 2015 monitoringMC_01 3151818 2015-06-01 6:00 16.67 8.13 45260 7.39 90.7 -57.18 29.35 2015-06-01T06:00
Mumford_Cove 41.32526111 -72.02088 2015 monitoringMC_01 3151818 2015-06-01 6:30 16.38 8.11 45320 7.25 88.6 -56.01 29.39 2015-06-01T06:30
Mumford_Cove 41.32526111 -72.02088 2015 monitoringMC_01 3151818 2015-06-01 7:00 15.3 8.13 45590 7.5 89.7 -56.6 29.57 2015-06-01T07:00
Mumford_Cove 41.32526111 -72.02088 2015 monitoringMC_01 3151818 2015-06-01 7:30 14.46 8.12 45960 7.73 91.1 -56.02 29.82 2015-06-01T07:30
Mumford_Cove 41.32526111 -72.02088 2015 monitoringMC_01 3151818 2015-06-01 8:00 13.99 8.14 46010 7.99 93.3 -57.21 29.84 2015-06-01T08:00
Mumford_Cove 41.32526111 -72.02088 2015 monitoringMC_01 3151818 2015-06-01 8:30 13.9 8.14 46000 7.96 92.7 -56.84 29.83 2015-06-01T08:30
Mumford_Cove 41.32526111 -72.02088 2015 monitoringMC_01 3151818 2015-06-01 9:00 13.96 8.13 45960 7.97 93.0 -56.75 29.8 2015-06-01T09:00
Mumford_Cove 41.32526111 -72.02088 2015 monitoringMC_01 3151818 2015-06-01 9:30 13.74 8.14 45940 7.98 92.7 -57.05 29.78 2015-06-01T09:30
Mumford_Cove 41.32526111 -72.02088 2015 monitoringMC_01 3151818 2015-06-01 10:00 13.31 8.16 46050 8.3 95.5 -57.86 29.85 2015-06-01T10:00
Mumford_Cove 41.32526111 -72.02088 2015 monitoringMC_01 3151818 2015-06-01 10:30 13.25 8.16 46150 8.33 95.8 -58.04 29.92 2015-06-01T10:30
Mumford_Cove 41.32526111 -72.02088 2015 monitoringMC_01 3151818 2015-06-01 11:00 13.07 8.17 46160 8.43 96.7 -58.51 29.92 2015-06-01T11:00
Mumford_Cove 41.32526111 -72.02088 2015 monitoringMC_01 3151818 2015-06-01 11:30 13.17 8.17 46190 8.35 95.9 -58.87 29.95 2015-06-01T11:30
Mumford_Cove 41.32526111 -72.02088 2015 monitoringMC_01 3151818 2015-06-01 12:00 13.31 8.18 46100 8.53 98.2 -59.42 29.89 2015-06-01T12:00
Mumford_Cove 41.32526111 -72.02088 2015 monitoringMC_01 3151818 2015-06-01 12:30 13.4 8.2 46190 8.59 99.2 -60.14 29.95 2015-06-01T12:30
Mumford_Cove 41.32526111 -72.02088 2015 monitoringMC_01 3151818 2015-06-01 13:00 13.35 8.2 46170 8.79 101.3 -60.43 29.94 2015-06-01T13:00
Mumford_Cove 41.32526111 -72.02088 2015 monitoringMC_01 3151818 2015-06-01 13:30 13.44 8.23 46150 9.07 104.8 -62.02 29.93 2015-06-01T13:30
Mumford_Cove 41.32526111 -72.02088 2015 monitoringMC_01 3151818 2015-06-01 14:00 13.65 8.25 46130 9.24 107.2 -63.47 29.92 2015-06-01T14:00
Mumford_Cove 41.32526111 -72.02088 2015 monitoringMC_01 3151818 2015-06-01 14:30 13.77 8.26 46030 9.3 108.1 -63.8 29.85 2015-06-01T14:30
Mumford_Cove 41.32526111 -72.02088 2015 monitoringMC_01 3151818 2015-06-01 15:00 13.81 8.27 46180 9.37 109.1 -64.42 29.96 2015-06-01T15:00
Mumford_Cove 41.32526111 -72.02088 2015 monitoringMC_01 3151818 2015-06-01 15:30 13.79 8.3 46150 9.71 113.0 -66.09 29.94 2015-06-01T15:30
Mumford_Cove 41.32526111 -72.02088 2015 monitoringMC_01 3151818 2015-06-01 16:00 13.84 8.3 46250 10.04 116.9 -66.27 30.01 2015-06-01T16:00
Mumford_Cove 41.32526111 -72.02088 2015 monitoringMC_01 3151818 2015-06-01 16:30 13.71 8.26 46170 9.48 110.1 -63.55 29.95 2015-06-01T16:30
Mumford_Cove 41.32526111 -72.02088 2015 monitoringMC_01 3151818 2015-06-01 17:00 14.38 8.29 45910 9.71 114.2 -65.57 29.78 2015-06-01T17:00
Mumford_Cove 41.32526111 -72.02088 2015 monitoringMC_01 3151818 2015-06-01 17:30 15.27 8.23 45510 8.9 106.5 -62.67 29.51 2015-06-01T17:30
Mumford_Cove 41.32526111 -72.02088 2015 monitoringMC_01 3151818 2015-06-01 18:00 15.36 8.24 45400 8.89 106.4 -63.32 29.43 2015-06-01T18:00
Mumford_Cove 41.32526111 -72.02088 2015 monitoringMC_01 3151818 2015-06-01 18:30 14.96 8.24 45580 8.95 106.3 -63.0 29.55 2015-06-01T18:30
Mumford_Cove 41.32526111 -72.02088 2015 monitoringMC_01 3151818 2015-06-01 19:00 14.45 8.24 45800 8.97 105.6 -62.93 29.7 2015-06-01T19:00
Mumford_Cove 41.32526111 -72.02088 2015 monitoringMC_01 3151818 2015-06-01 19:30 13.55 8.21 45970 8.81 101.9 -61.09 29.8 2015-06-01T19:30
Mumford_Cove 41.32526111 -72.02088 2015 monitoringMC_01 3151818 2015-06-01 20:00 13.38 8.22 45980 8.8 101.5 -61.68 29.8 2015-06-01T20:00
Mumford_Cove 41.32526111 -72.02088 2015 monitoringMC_01 3151818 2015-06-01 20:30 13.24 8.21 46060 8.71 100.2 -60.78 29.86 2015-06-01T20:30
Mumford_Cove 41.32526111 -72.02088 2015 monitoringMC_01 3151818 2015-06-01 21:00 12.74 8.2 46110 8.62 98.2 -60.08 29.87 2015-06-01T21:00
Mumford_Cove 41.32526111 -72.02088 2015 monitoringMC_01 3151818 2015-06-01 21:30 12.37 8.2 46200 8.58 96.9 -59.97 29.93 2015-06-01T21:30
Mumford_Cove 41.32526111 -72.02088 2015 monitoringMC_01 3151818 2015-06-01 22:00 12.23 8.2 46300 8.57 96.5 -59.81 29.99 2015-06-01T22:00
Mumford_Cove 41.32526111 -72.02088 2015 monitoringMC_01 3151818 2015-06-01 22:30 12.18 8.19 46250 8.54 96.1 -59.33 29.95 2015-06-01T22:30
Mumford_Cove 41.32526111 -72.02088 2015 monitoringMC_01 3151818 2015-06-01 23:00 12.51 8.19 46090 8.45 95.7 -59.49 29.85 2015-06-01T23:00
Mumford_Cove 41.32526111 -72.02088 2015 monitoringMC_01 3151818 2015-06-01 23:30 12.5 8.19 45970 8.4 95.1 -59.46 29.77 2015-06-01T23:30
Mumford_Cove 41.32526111 -72.02088 2015 monitoringMC_01 3151818 2015-06-02 0:00 12.21 8.19 46100 8.43 94.8 -59.53 29.85 2015-06-02T00:00
Mumford_Cove 41.32526111 -72.02088 2015 monitoringMC_01 3151818 2015-06-02 0:30 12.3 8.19 45980 8.48 95.5 -59.49 29.76 2015-06-02T00:30
Mumford_Cove 41.32526111 -72.02088 2015 monitoringMC_01 3151818 2015-06-02 1:00 12.45 8.19 46040 8.38 94.7 -59.41 29.81 2015-06-02T01:00
Mumford_Cove 41.32526111 -72.02088 2015 monitoringMC_01 3151818 2015-06-02 1:30 12.51 8.18 45980 8.37 94.7 -59.2 29.77 2015-06-02T01:30
Mumford_Cove 41.32526111 -72.02088 2015 monitoringMC_01 3151818 2015-06-02 2:00 12.46 8.17 46000 8.32 94.1 -58.68 29.79 2015-06-02T02:00
Mumford_Cove 41.32526111 -72.02088 2015 monitoringMC_01 3151818 2015-06-02 2:30 12.49 8.17 46020 8.01 90.7 -58.44 29.8 2015-06-02T02:30
Mumford_Cove 41.32526111 -72.02088 2015 monitoringMC_01 3151818 2015-06-02 3:00 12.49 8.15 46090 7.9 89.4 -57.58 29.85 2015-06-02T03:00
Mumford_Cove 41.32526111 -72.02088 2015 monitoringMC_01 3151818 2015-06-02 3:30 12.49 8.15 45930 7.99 90.4 -57.2 29.74 2015-06-02T03:30
Mumford_Cove 41.32526111 -72.02088 2015 monitoringMC_01 3151818 2015-06-02 4:00 12.57 8.15 45880 7.88 89.2 -57.44 29.7 2015-06-02T04:00
Mumford_Cove 41.32526111 -72.02088 2015 monitoringMC_01 3151818 2015-06-02 4:30 12.56 8.1 45920 7.66 86.8 -54.69 29.73 2015-06-02T04:30
Mumford_Cove 41.32526111 -72.02088 2015 monitoringMC_01 3151818 2015-06-02 5:00 12.66 8.01 45990 6.8 77.3 -49.74 29.79 2015-06-02T05:00
Mumford_Cove 41.32526111 -72.02088 2015 monitoringMC_01 3151818 2015-06-02 5:30 12.82 8.03 45870 6.66 75.9 -50.42 29.7 2015-06-02T05:30
Mumford_Cove 41.32526111 -72.02088 2015 monitoringMC_01 3151818 2015-06-02 6:00 13.27 8.03 45480 6.81 78.2 -50.72 29.44 2015-06-02T06:00
Mumford_Cove 41.32526111 -72.02088 2015 monitoringMC_01 3151818 2015-06-02 6:30 13.34 8.03 45260 6.72 77.1 -50.74 29.28 2015-06-02T06:30
Mumford_Cove 41.32526111 -72.02088 2015 monitoringMC_01 3151818 2015-06-02 7:00 13.57 8.02 44840 6.6 76.0 -50.44 28.99 2015-06-02T07:00
Mumford_Cove 41.32526111 -72.02088 2015 monitoringMC_01 3151818 2015-06-02 7:30 12.96 8.08 45300 7.27 82.8 -53.47 29.3 2015-06-02T07:30
Mumford_Cove 41.32526111 -72.02088 2015 monitoringMC_01 3151818 2015-06-02 8:00 12.79 8.09 45530 7.43 84.5 -54.19 29.46 2015-06-02T08:00
Mumford_Cove 41.32526111 -72.02088 2015 monitoringMC_01 3151818 2015-06-02 8:30 12.53 8.11 45600 7.65 86.5 -54.83 29.5 2015-06-02T08:30
Mumford_Cove 41.32526111 -72.02088 2015 monitoringMC_01 3151818 2015-06-02 9:00 12.25 8.12 45820 7.82 87.9 -55.68 29.65 2015-06-02T09:00
Mumford_Cove 41.32526111 -72.02088 2015 monitoringMC_01 3151818 2015-06-02 9:30 12.06 8.14 45980 8.01 89.8 -56.54 29.75 2015-06-02T09:30
Mumford_Cove 41.32526111 -72.02088 2015 monitoringMC_01 3151818 2015-06-02 10:00 12.01 8.14 45870 8.07 90.4 -56.54 29.67 2015-06-02T10:00
Mumford_Cove 41.32526111 -72.02088 2015 monitoringMC_01 3151818 2015-06-02 10:30 11.92 8.15 46090 8.17 91.3 -57.32 29.83 2015-06-02T10:30
Mumford_Cove 41.32526111 -72.02088 2015 monitoringMC_01 3151818 2015-06-02 11:00 11.87 8.16 46160 8.13 90.8 -57.79 29.88 2015-06-02T11:00
Mumford_Cove 41.32526111 -72.02088 2015 monitoringMC_01 3151818 2015-06-02 11:30 11.93 8.16 46050 8.27 92.5 -57.96 29.8 2015-06-02T11:30
Mumford_Cove 41.32526111 -72.02088 2015 monitoringMC_01 3151818 2015-06-02 12:00 11.99 8.17 46100 8.3 93.0 -58.45 29.84 2015-06-02T12:00
Mumford_Cove 41.32526111 -72.02088 2015 monitoringMC_01 3151818 2015-06-02 12:30 12.01 8.18 46060 8.44 94.5 -58.82 29.81 2015-06-02T12:30
Mumford_Cove 41.32526111 -72.02088 2015 monitoringMC_01 3151818 2015-06-02 13:00 12.07 8.19 46110 8.58 96.3 -59.69 29.85 2015-06-02T13:00
Mumford_Cove 41.32526111 -72.02088 2015 monitoringMC_01 3151818 2015-06-02 13:30 12.13 8.2 46030 8.57 96.2 -60.23 29.79 2015-06-02T13:30
Mumford_Cove 41.32526111 -72.02088 2015 monitoringMC_01 3151818 2015-06-02 14:00 12.22 8.23 46060 9.04 101.7 -61.85 29.82 2015-06-02T14:00
Mumford_Cove 41.32526111 -72.02088 2015 monitoringMC_01 3151818 2015-06-02 14:30 12.32 8.23 46000 8.99 101.4 -61.99 29.78 2015-06-02T14:30
Mumford_Cove 41.32526111 -72.02088 2015 monitoringMC_01 3151818 2015-06-02 15:00 12.29 8.23 46000 9.04 101.8 -61.92 29.78 2015-06-02T15:00
Mumford_Cove 41.32526111 -72.02088 2015 monitoringMC_01 3151818 2015-06-02 15:30 12.42 8.25 45940 9.08 102.5 -62.79 29.74 2015-06-02T15:30
Mumford_Cove 41.32526111 -72.02088 2015 monitoringMC_01 3151818 2015-06-02 16:00 12.51 8.4 45880 10.43 118.0 -71.1 29.7 2015-06-02T16:00
Mumford_Cove 41.32526111 -72.02088 2015 monitoringMC_01 3151818 2015-06-02 16:30 12.68 8.43 46020 11.36 129.0 -73.04 29.81 2015-06-02T16:30
Mumford_Cove 41.32526111 -72.02088 2015 monitoringMC_01 3151818 2015-06-02 17:00 12.59 8.38 46050 10.86 123.1 -70.34 29.83 2015-06-02T17:00
Mumford_Cove 41.32526111 -72.02088 2015 monitoringMC_01 3151818 2015-06-02 17:30 12.62 8.36 45920 10.79 122.3 -69.27 29.73 2015-06-02T17:30
Mumford_Cove 41.32526111 -72.02088 2015 monitoringMC_01 3151818 2015-06-02 18:00 13.3 8.28 45180 9.67 110.9 -64.77 29.23 2015-06-02T18:00
Mumford_Cove 41.32526111 -72.02088 2015 monitoringMC_01 3151818 2015-06-02 18:30 13.14 8.24 45340 9.18 104.9 -62.31 29.33 2015-06-02T18:30
Mumford_Cove 41.32526111 -72.02088 2015 monitoringMC_01 3151818 2015-06-02 19:00 13.26 8.26 45120 9.41 107.8 -63.77 29.18 2015-06-02T19:00
Mumford_Cove 41.32526111 -72.02088 2015 monitoringMC_01 3151818 2015-06-02 19:30 12.94 8.23 45440 9.12 104.0 -62.14 29.4 2015-06-02T19:30
Mumford_Cove 41.32526111 -72.02088 2015 monitoringMC_01 3151818 2015-06-02 20:00 12.49 8.24 45800 9.13 103.2 -62.22 29.64 2015-06-02T20:00
Mumford_Cove 41.32526111 -72.02088 2015 monitoringMC_01 3151818 2015-06-02 20:30 11.99 8.24 46170 9.05 101.4 -62.25 29.89 2015-06-02T20:30
Mumford_Cove 41.32526111 -72.02088 2015 monitoringMC_01 3151818 2015-06-02 21:00 11.73 8.24 46350 9.05 100.9 -62.3 30.01 2015-06-02T21:00
Mumford_Cove 41.32526111 -72.02088 2015 monitoringMC_01 3151818 2015-06-02 21:30 11.69 8.24 46290 8.93 99.5 -61.91 29.96 2015-06-02T21:30
Mumford_Cove 41.32526111 -72.02088 2015 monitoringMC_01 3151818 2015-06-02 22:00 11.63 8.23 46390 8.85 98.5 -61.55 30.03 2015-06-02T22:00
Mumford_Cove 41.32526111 -72.02088 2015 monitoringMC_01 3151818 2015-06-02 22:30 11.57 8.23 46430 8.82 98.0 -61.34 30.06 2015-06-02T22:30
Mumford_Cove 41.32526111 -72.02088 2015 monitoringMC_01 3151818 2015-06-02 23:00 11.47 8.22 46500 8.78 97.4 -60.77 30.1 2015-06-02T23:00
Mumford_Cove 41.32526111 -72.02088 2015 monitoringMC_01 3151818 2015-06-02 23:30 11.51 8.21 46550 8.69 96.5 -60.57 30.14 2015-06-02T23:30
Mumford_Cove 41.32526111 -72.02088 2015 monitoringMC_01 3151818 2015-06-03 0:00 11.51 8.21 46430 8.48 94.1 -60.7 30.05 2015-06-03T00:00
Mumford_Cove 41.32526111 -72.02088 2015 monitoringMC_01 3151818 2015-06-03 0:30 11.51 8.2 46500 8.57 95.2 -60.05 30.1 2015-06-03T00:30
Mumford_Cove 41.32526111 -72.02088 2015 monitoringMC_01 3151818 2015-06-03 1:00 11.58 8.2 46360 8.48 94.2 -59.91 30.01 2015-06-03T01:00
Mumford_Cove 41.32526111 -72.02088 2015 monitoringMC_01 3151818 2015-06-03 1:30 11.75 8.2 46280 8.54 95.2 -59.89 29.96 2015-06-03T01:30
Mumford_Cove 41.32526111 -72.02088 2015 monitoringMC_01 3151818 2015-06-03 2:00 11.64 8.2 46400 8.27 92.0 -59.66 30.04 2015-06-03T02:00
Mumford_Cove 41.32526111 -72.02088 2015 monitoringMC_01 3151818 2015-06-03 2:30 11.8 8.2 46310 8.25 92.1 -59.74 29.98 2015-06-03T02:30
Mumford_Cove 41.32526111 -72.02088 2015 monitoringMC_01 3151818 2015-06-03 3:00 11.65 8.18 46330 8.23 91.5 -58.55 29.99 2015-06-03T03:00
Mumford_Cove 41.32526111 -72.02088 2015 monitoringMC_01 3151818 2015-06-03 3:30 11.68 8.15 46320 7.89 87.9 -56.88 29.98 2015-06-03T03:30
Mumford_Cove 41.32526111 -72.02088 2015 monitoringMC_01 3151818 2015-06-03 4:00 11.7 8.15 46330 7.79 86.8 -57.12 29.99 2015-06-03T04:00
Mumford_Cove 41.32526111 -72.02088 2015 monitoringMC_01 3151818 2015-06-03 4:30 11.84 8.13 46190 7.72 86.2 -56.24 29.9 2015-06-03T04:30
Mumford_Cove 41.32526111 -72.02088 2015 monitoringMC_01 3151818 2015-06-03 5:00 11.74 8.12 46300 7.5 83.6 -55.58 29.97 2015-06-03T05:00
Mumford_Cove 41.32526111 -72.02088 2015 monitoringMC_01 3151818 2015-06-03 5:30 11.93 8.13 46270 7.77 86.9 -55.91 29.96 2015-06-03T05:30
Mumford_Cove 41.32526111 -72.02088 2015 monitoringMC_01 3151818 2015-06-03 6:00 12.05 8.03 46120 6.79 76.1 -50.35 29.86 2015-06-03T06:00
Mumford_Cove 41.32526111 -72.02088 2015 monitoringMC_01 3151818 2015-06-03 6:30 12.56 8.07 45290 7.26 82.0 -52.91 29.28 2015-06-03T06:30
Mumford_Cove 41.32526111 -72.02088 2015 monitoringMC_01 3151818 2015-06-03 7:00 12.56 8.09 45140 7.55 85.2 -54.18 29.17 2015-06-03T07:00
Mumford_Cove 41.32526111 -72.02088 2015 monitoringMC_01 3151818 2015-06-03 7:30 12.35 8.11 45240 7.66 86.1 -55.01 29.24 2015-06-03T07:30
Mumford_Cove 41.32526111 -72.02088 2015 monitoringMC_01 3151818 2015-06-03 8:00 12.22 8.13 45440 7.86 88.2 -56.02 29.37 2015-06-03T08:00
Mumford_Cove 41.32526111 -72.02088 2015 monitoringMC_01 3151818 2015-06-03 8:30 11.89 8.15 45850 8.04 89.7 -56.96 29.65 2015-06-03T08:30
Mumford_Cove 41.32526111 -72.02088 2015 monitoringMC_01 3151818 2015-06-03 9:00 11.75 8.17 46190 8.32 92.7 -58.2 29.89 2015-06-03T09:00
Mumford_Cove 41.32526111 -72.02088 2015 monitoringMC_01 3151818 2015-06-03 9:30 11.78 8.17 46280 8.44 94.2 -58.42 29.96 2015-06-03T09:30
Mumford_Cove 41.32526111 -72.02088 2015 monitoringMC_01 3151818 2015-06-03 10:00 11.84 8.18 46380 8.67 96.9 -59.01 30.03 2015-06-03T10:00
Mumford_Cove 41.32526111 -72.02088 2015 monitoringMC_01 3151818 2015-06-03 10:30 12.01 8.2 46420 8.83 99.1 -59.99 30.07 2015-06-03T10:30
Mumford_Cove 41.32526111 -72.02088 2015 monitoringMC_01 3151818 2015-06-03 11:00 12.13 8.24 46260 9.24 103.9 -62.33 29.96 2015-06-03T11:00
Mumford_Cove 41.32526111 -72.02088 2015 monitoringMC_01 3151818 2015-06-03 11:30 12.28 8.25 46360 9.35 105.4 -62.68 30.04 2015-06-03T11:30
Mumford_Cove 41.32526111 -72.02088 2015 monitoringMC_01 3151818 2015-06-03 12:00 12.4 8.27 46390 9.71 109.9 -63.98 30.06 2015-06-03T12:00
Mumford_Cove 41.32526111 -72.02088 2015 monitoringMC_01 3151818 2015-06-03 12:30 12.56 8.36 46320 10.87 123.3 -69.12 30.02 2015-06-03T12:30
Mumford_Cove 41.32526111 -72.02088 2015 monitoringMC_01 3151818 2015-06-03 13:00 12.81 8.41 46310 11.67 133.1 -71.87 30.02 2015-06-03T13:00
Mumford_Cove 41.32526111 -72.02088 2015 monitoringMC_01 3151818 2015-06-03 13:30 13.04 8.47 46230 12.6 144.4 -75.21 29.97 2015-06-03T13:30
Mumford_Cove 41.32526111 -72.02088 2015 monitoringMC_01 3151818 2015-06-03 14:00 13.43 8.39 45890 11.59 133.7 -70.84 29.74 2015-06-03T14:00
Mumford_Cove 41.32526111 -72.02088 2015 monitoringMC_01 3151818 2015-06-03 14:30 13.98 8.36 45490 11.25 131.0 -69.55 29.47 2015-06-03T14:30
Mumford_Cove 41.32526111 -72.02088 2015 monitoringMC_01 3151818 2015-06-03 15:00 14.37 8.34 45340 11.24 131.8 -68.33 29.37 2015-06-03T15:00
Mumford_Cove 41.32526111 -72.02088 2015 monitoringMC_01 3151818 2015-06-03 15:30 14.51 8.37 45490 11.55 136.0 -70.13 29.48 2015-06-03T15:30
Mumford_Cove 41.32526111 -72.02088 2015 monitoringMC_01 3151818 2015-06-03 16:00 14.93 8.37 45350 11.56 137.2 -70.59 29.39 2015-06-03T16:00
Mumford_Cove 41.32526111 -72.02088 2015 monitoringMC_01 3151818 2015-06-03 16:30 15.36 8.38 45290 11.87 142.1 -70.86 29.35 2015-06-03T16:30
Mumford_Cove 41.32526111 -72.02088 2015 monitoringMC_01 3151818 2015-06-03 17:00 15.21 8.4 45310 11.98 143.0 -71.99 29.36 2015-06-03T17:00
Mumford_Cove 41.32526111 -72.02088 2015 monitoringMC_01 3151818 2015-06-03 17:30 14.98 8.49 45470 13.57 161.3 -77.2 29.48 2015-06-03T17:30
Mumford_Cove 41.32526111 -72.02088 2015 monitoringMC_01 3151818 2015-06-03 18:00 15.04 8.48 45500 13.19 157.0 -76.51 29.5 2015-06-03T18:00
Mumford_Cove 41.32526111 -72.02088 2015 monitoringMC_01 3151818 2015-06-03 18:30 15.08 8.48 45640 13.32 158.7 -76.88 29.6 2015-06-03T18:30
Mumford_Cove 41.32526111 -72.02088 2015 monitoringMC_01 3151818 2015-06-03 19:00 15.25 8.44 45560 12.43 148.6 -74.5 29.55 2015-06-03T19:00
Mumford_Cove 41.32526111 -72.02088 2015 monitoringMC_01 3151818 2015-06-03 19:30 15.34 8.36 45730 11.45 137.3 -70.16 29.67 2015-06-03T19:30
Mumford_Cove 41.32526111 -72.02088 2015 monitoringMC_01 3151818 2015-06-03 20:00 15.3 8.38 45670 11.41 136.6 -71.04 29.63 2015-06-03T20:00
Mumford_Cove 41.32526111 -72.02088 2015 monitoringMC_01 3151818 2015-06-03 20:30 15.28 8.39 45630 11.54 138.0 -71.46 29.6 2015-06-03T20:30
Mumford_Cove 41.32526111 -72.02088 2015 monitoringMC_01 3151818 2015-06-03 21:00 15.19 8.39 45550 11.67 139.3 -71.47 29.54 2015-06-03T21:00
Mumford_Cove 41.32526111 -72.02088 2015 monitoringMC_01 3151818 2015-06-03 21:30 15.19 8.38 45480 11.49 137.1 -71.0 29.49 2015-06-03T21:30
Mumford_Cove 41.32526111 -72.02088 2015 monitoringMC_01 3151818 2015-06-03 22:00 15.2 8.38 45630 11.6 138.5 -71.07 29.6 2015-06-03T22:00
Mumford_Cove 41.32526111 -72.02088 2015 monitoringMC_01 3151818 2015-06-03 22:30 15.17 8.38 45700 11.41 136.3 -70.79 29.65 2015-06-03T22:30
Mumford_Cove 41.32526111 -72.02088 2015 monitoringMC_01 3151818 2015-06-03 23:00 15.15 8.37 45570 11.3 134.9 -70.43 29.55 2015-06-03T23:00
Mumford_Cove 41.32526111 -72.02088 2015 monitoringMC_01 3151818 2015-06-03 23:30 15.15 8.37 45660 11.27 134.5 -70.53 29.62 2015-06-03T23:30
Mumford_Cove 41.32526111 -72.02088 2015 monitoringMC_01 3151818 2015-06-04 0:00 15.13 8.36 45690 11.02 131.6 -69.65 29.64 2015-06-04T00:00
Mumford_Cove 41.32526111 -72.02088 2015 monitoringMC_01 3151818 2015-06-04 0:30 15.12 8.36 45500 10.95 130.5 -69.84 29.5 2015-06-04T00:30
Mumford_Cove 41.32526111 -72.02088 2015 monitoringMC_01 3151818 2015-06-04 1:00 15.12 8.35 45600 10.8 128.8 -69.06 29.57 2015-06-04T01:00
Mumford_Cove 41.32526111 -72.02088 2015 monitoringMC_01 3151818 2015-06-04 1:30 15.11 8.34 45580 10.57 126.1 -68.51 29.56 2015-06-04T01:30
Mumford_Cove 41.32526111 -72.02088 2015 monitoringMC_01 3151818 2015-06-04 2:00 15.07 8.34 45380 10.79 128.5 -68.61 29.41 2015-06-04T02:00
Mumford_Cove 41.32526111 -72.02088 2015 monitoringMC_01 3151818 2015-06-04 2:30 15.06 8.29 45610 10.17 121.2 -66.05 29.58 2015-06-04T02:30
Mumford_Cove 41.32526111 -72.02088 2015 monitoringMC_01 3151818 2015-06-04 3:00 15.1 8.32 45520 10.09 120.2 -67.51 29.51 2015-06-04T03:00
Mumford_Cove 41.32526111 -72.02088 2015 monitoringMC_01 3151818 2015-06-04 3:30 15.1 8.29 45630 9.92 118.2 -66.04 29.59 2015-06-04T03:30
Mumford_Cove 41.32526111 -72.02088 2015 monitoringMC_01 3151818 2015-06-04 4:00 15.07 8.29 45310 9.94 118.2 -65.73 29.36 2015-06-04T04:00
Mumford_Cove 41.32526111 -72.02088 2015 monitoringMC_01 3151818 2015-06-04 4:30 15.48 8.25 45020 9.46 113.4 -63.92 29.16 2015-06-04T04:30
Mumford_Cove 41.32526111 -72.02088 2015 monitoringMC_01 3151818 2015-06-04 5:00 15.63 8.24 45030 9.29 111.6 -63.08 29.17 2015-06-04T05:00
Mumford_Cove 41.32526111 -72.02088 2015 monitoringMC_01 3151818 2015-06-04 5:30 15.67 8.23 44930 9.26 111.3 -62.75 29.1 2015-06-04T05:30
Mumford_Cove 41.32526111 -72.02088 2015 monitoringMC_01 3151818 2015-06-04 6:00 15.43 8.21 45120 9.01 107.9 -61.44 29.23 2015-06-04T06:00
Mumford_Cove 41.32526111 -72.02088 2015 monitoringMC_01 3151818 2015-06-04 6:30 15.39 8.21 44920 8.86 106.0 -61.14 29.09 2015-06-04T06:30
Mumford_Cove 41.32526111 -72.02088 2015 monitoringMC_01 3151818 2015-06-04 7:00 15.24 8.24 44910 9.26 110.4 -62.94 29.08 2015-06-04T07:00
Mumford_Cove 41.32526111 -72.02088 2015 monitoringMC_01 3151818 2015-06-04 7:30 14.95 8.23 44830 9.11 107.9 -62.34 29.01 2015-06-04T07:30
Mumford_Cove 41.32526111 -72.02088 2015 monitoringMC_01 3151818 2015-06-04 8:00 14.37 8.24 44900 9.23 108.0 -62.82 29.05 2015-06-04T08:00
Mumford_Cove 41.32526111 -72.02088 2015 monitoringMC_01 3151818 2015-06-04 8:30 14.36 8.25 45080 9.26 108.5 -63.24 29.18 2015-06-04T08:30
Mumford_Cove 41.32526111 -72.02088 2015 monitoringMC_01 3151818 2015-06-04 9:00 13.63 8.23 45390 9.26 107.0 -62.31 29.39 2015-06-04T09:00
Mumford_Cove 41.32526111 -72.02088 2015 monitoringMC_01 3151818 2015-06-04 9:30 13.15 8.23 45980 9.31 106.8 -61.81 29.8 2015-06-04T09:30
Mumford_Cove 41.32526111 -72.02088 2015 monitoringMC_01 3151818 2015-06-04 10:00 13.09 8.23 46060 9.44 108.2 -61.88 29.85 2015-06-04T10:00
Mumford_Cove 41.32526111 -72.02088 2015 monitoringMC_01 3151818 2015-06-04 10:30 13.04 8.24 46110 9.58 109.7 -62.23 29.88 2015-06-04T10:30
Mumford_Cove 41.32526111 -72.02088 2015 monitoringMC_01 3151818 2015-06-04 11:00 13.16 8.26 46170 9.75 112.0 -63.47 29.93 2015-06-04T11:00
Mumford_Cove 41.32526111 -72.02088 2015 monitoringMC_01 3151818 2015-06-04 11:30 13.06 8.25 46290 9.72 111.5 -62.89 30.02 2015-06-04T11:30
Mumford_Cove 41.32526111 -72.02088 2015 monitoringMC_01 3151818 2015-06-04 12:00 13.2 8.26 46270 9.81 112.8 -63.76 30.01 2015-06-04T12:00
Mumford_Cove 41.32526111 -72.02088 2015 monitoringMC_01 3151818 2015-06-04 12:30 13.35 8.27 46300 9.94 114.7 -64.06 30.03 2015-06-04T12:30
Mumford_Cove 41.32526111 -72.02088 2015 monitoringMC_01 3151818 2015-06-04 13:00 13.47 8.32 46240 10.6 122.5 -67.09 29.99 2015-06-04T13:00
Mumford_Cove 41.32526111 -72.02088 2015 monitoringMC_01 3151818 2015-06-04 13:30 13.65 8.33 46230 11.08 128.6 -67.99 29.99 2015-06-04T13:30
Mumford_Cove 41.32526111 -72.02088 2015 monitoringMC_01 3151818 2015-06-04 14:00 13.84 8.4 46160 12.09 140.8 -71.86 29.95 2015-06-04T14:00
Mumford_Cove 41.32526111 -72.02088 2015 monitoringMC_01 3151818 2015-06-04 14:30 14.19 8.52 46180 13.55 158.9 -78.6 29.97 2015-06-04T14:30
Mumford_Cove 41.32526111 -72.02088 2015 monitoringMC_01 3151818 2015-06-04 15:00 14.72 8.59 46140 14.7 174.4 -82.59 29.95 2015-06-04T15:00
Mumford_Cove 41.32526111 -72.02088 2015 monitoringMC_01 3151818 2015-06-04 15:30 15.27 8.59 45990 14.78 177.1 -82.91 29.86 2015-06-04T15:30
Mumford_Cove 41.32526111 -72.02088 2015 monitoringMC_01 3151818 2015-06-04 16:00 16.81 8.44 45130 12.48 153.6 -74.7 29.26 2015-06-04T16:00
Mumford_Cove 41.32526111 -72.02088 2015 monitoringMC_01 3151818 2015-06-04 16:30 17.05 8.45 45120 12.69 156.9 -75.36 29.25 2015-06-04T16:30
Mumford_Cove 41.32526111 -72.02088 2015 monitoringMC_01 3151818 2015-06-04 17:00 17.4 8.44 45100 12.48 155.3 -74.95 29.24 2015-06-04T17:00
Mumford_Cove 41.32526111 -72.02088 2015 monitoringMC_01 3151818 2015-06-04 17:30 17.44 8.48 44990 13.18 164.1 -77.05 29.16 2015-06-04T17:30
Mumford_Cove 41.32526111 -72.02088 2015 monitoringMC_01 3151818 2015-06-04 18:00 17.54 8.47 45080 13.0 162.3 -76.81 29.23 2015-06-04T18:00
Mumford_Cove 41.32526111 -72.02088 2015 monitoringMC_01 3151818 2015-06-04 18:30 16.9 8.49 45190 13.48 166.3 -77.79 29.3 2015-06-04T18:30
Mumford_Cove 41.32526111 -72.02088 2015 monitoringMC_01 3151818 2015-06-04 19:00 16.27 8.51 45590 13.59 165.8 -78.68 29.58 2015-06-04T19:00
Mumford_Cove 41.32526111 -72.02088 2015 monitoringMC_01 3151818 2015-06-04 19:30 16.37 8.46 45570 12.67 154.9 -75.73 29.57 2015-06-04T19:30
Mumford_Cove 41.32526111 -72.02088 2015 monitoringMC_01 3151818 2015-06-04 20:00 16.16 8.41 45670 11.81 143.9 -73.15 29.64 2015-06-04T20:00
Mumford_Cove 41.32526111 -72.02088 2015 monitoringMC_01 3151818 2015-06-04 20:30 16.06 8.39 45620 11.25 136.7 -71.68 29.6 2015-06-04T20:30
Mumford_Cove 41.32526111 -72.02088 2015 monitoringMC_01 3151818 2015-06-04 21:00 15.74 8.34 45770 10.53 127.2 -68.8 29.71 2015-06-04T21:00
Mumford_Cove 41.32526111 -72.02088 2015 monitoringMC_01 3151818 2015-06-04 21:30 15.57 8.33 45900 10.42 125.6 -68.31 29.8 2015-06-04T21:30
Mumford_Cove 41.32526111 -72.02088 2015 monitoringMC_01 3151818 2015-06-04 22:00 15.1 8.28 46080 10.07 120.3 -65.45 29.92 2015-06-04T22:00
Mumford_Cove 41.32526111 -72.02088 2015 monitoringMC_01 3151818 2015-06-04 22:30 14.53 8.26 46250 9.67 114.2 -64.12 30.03 2015-06-04T22:30
Mumford_Cove 41.32526111 -72.02088 2015 monitoringMC_01 3151818 2015-06-04 23:00 13.99 8.24 46230 9.44 110.3 -62.7 30.0 2015-06-04T23:00
Mumford_Cove 41.32526111 -72.02088 2015 monitoringMC_01 3151818 2015-06-04 23:30 14.11 8.24 46270 9.33 109.3 -62.58 30.03 2015-06-04T23:30
Mumford_Cove 41.32526111 -72.02088 2015 monitoringMC_01 3151818 2015-06-05 0:00 13.54 8.22 46310 9.14 105.8 -61.43 30.04 2015-06-05T00:00
Mumford_Cove 41.32526111 -72.02088 2015 monitoringMC_01 3151818 2015-06-05 0:30 13.46 8.21 46270 9.04 104.5 -60.79 30.01 2015-06-05T00:30
Mumford_Cove 41.32526111 -72.02088 2015 monitoringMC_01 3151818 2015-06-05 1:00 13.44 8.2 46270 8.88 102.6 -60.58 30.01 2015-06-05T01:00
Mumford_Cove 41.32526111 -72.02088 2015 monitoringMC_01 3151818 2015-06-05 1:30 13.39 8.2 46250 8.89 102.6 -60.51 30.0 2015-06-05T01:30
Mumford_Cove 41.32526111 -72.02088 2015 monitoringMC_01 3151818 2015-06-05 2:00 13.47 8.2 46240 8.92 103.2 -60.6 29.99 2015-06-05T02:00
Mumford_Cove 41.32526111 -72.02088 2015 monitoringMC_01 3151818 2015-06-05 2:30 13.49 8.19 46330 8.8 101.9 -59.91 30.06 2015-06-05T02:30
Mumford_Cove 41.32526111 -72.02088 2015 monitoringMC_01 3151818 2015-06-05 3:00 13.66 8.18 46330 8.63 100.2 -59.16 30.06 2015-06-05T03:00
Mumford_Cove 41.32526111 -72.02088 2015 monitoringMC_01 3151818 2015-06-05 3:30 13.85 8.17 46340 8.42 98.2 -58.71 30.08 2015-06-05T03:30
Mumford_Cove 41.32526111 -72.02088 2015 monitoringMC_01 3151818 2015-06-05 4:00 13.64 8.16 46290 8.32 96.6 -57.87 30.03 2015-06-05T04:00
Mumford_Cove 41.32526111 -72.02088 2015 monitoringMC_01 3151818 2015-06-05 4:30 13.71 8.14 46230 7.79 90.5 -56.97 29.99 2015-06-05T04:30
Mumford_Cove 41.32526111 -72.02088 2015 monitoringMC_01 3151818 2015-06-05 5:00 13.96 8.14 46230 8.1 94.5 -57.14 30.0 2015-06-05T05:00
Mumford_Cove 41.32526111 -72.02088 2015 monitoringMC_01 3151818 2015-06-05 5:30 15.2 8.17 45780 8.26 98.8 -59.21 29.7 2015-06-05T05:30
Mumford_Cove 41.32526111 -72.02088 2015 monitoringMC_01 3151818 2015-06-05 6:00 14.48 8.08 46410 6.98 82.5 -53.56 30.14 2015-06-05T06:00
Mumford_Cove 41.32526111 -72.02088 2015 monitoringMC_01 3151818 2015-06-05 6:30 14.21 8.09 46100 7.55 88.6 -54.58 29.91 2015-06-05T06:30
Mumford_Cove 41.32526111 -72.02088 2015 monitoringMC_01 3151818 2015-06-05 7:00 14.82 8.16 45960 7.84 93.1 -58.36 29.83 2015-06-05T07:00
Mumford_Cove 41.32526111 -72.02088 2015 monitoringMC_01 3151818 2015-06-05 7:30 14.71 8.13 45740 7.63 90.3 -56.84 29.66 2015-06-05T07:30
Mumford_Cove 41.32526111 -72.02088 2015 monitoringMC_01 3151818 2015-06-05 8:00 15.23 8.23 45120 8.9 106.1 -62.69 29.23 2015-06-05T08:00
Mumford_Cove 41.32526111 -72.02088 2015 monitoringMC_01 3151818 2015-06-05 8:30 15.19 8.25 45150 9.07 108.1 -63.65 29.25 2015-06-05T08:30
Mumford_Cove 41.32526111 -72.02088 2015 monitoringMC_01 3151818 2015-06-05 9:00 14.87 8.25 45200 9.22 109.2 -63.54 29.28 2015-06-05T09:00
Mumford_Cove 41.32526111 -72.02088 2015 monitoringMC_01 3151818 2015-06-05 9:30 14.52 8.24 45760 9.35 110.3 -62.81 29.67 2015-06-05T09:30
Mumford_Cove 41.32526111 -72.02088 2015 monitoringMC_01 3151818 2015-06-05 10:00 14.23 8.23 45870 9.32 109.3 -62.33 29.75 2015-06-05T10:00
Mumford_Cove 41.32526111 -72.02088 2015 monitoringMC_01 3151818 2015-06-05 10:30 14.11 8.23 46150 9.45 110.6 -61.95 29.95 2015-06-05T10:30
Mumford_Cove 41.32526111 -72.02088 2015 monitoringMC_01 3151818 2015-06-05 11:00 13.91 8.23 46260 9.52 111.0 -62.32 30.02 2015-06-05T11:00
Mumford_Cove 41.32526111 -72.02088 2015 monitoringMC_01 3151818 2015-06-05 11:30 13.7 8.24 46390 9.63 112.0 -62.6 30.11 2015-06-05T11:30
Mumford_Cove 41.32526111 -72.02088 2015 monitoringMC_01 3151818 2015-06-05 12:00 13.75 8.24 46380 9.71 113.0 -62.92 30.1 2015-06-05T12:00
Mumford_Cove 41.32526111 -72.02088 2015 monitoringMC_01 3151818 2015-06-05 12:30 13.89 8.28 46450 10.22 119.3 -64.95 30.16 2015-06-05T12:30
Mumford_Cove 41.32526111 -72.02088 2015 monitoringMC_01 3151818 2015-06-05 13:00 13.98 8.28 46390 10.27 120.1 -65.16 30.12 2015-06-05T13:00
Mumford_Cove 41.32526111 -72.02088 2015 monitoringMC_01 3151818 2015-06-05 13:30 14.05 8.33 46430 10.8 126.5 -67.82 30.15 2015-06-05T13:30
Mumford_Cove 41.32526111 -72.02088 2015 monitoringMC_01 3151818 2015-06-05 14:00 14.23 8.35 46330 11.07 130.1 -69.02 30.08 2015-06-05T14:00
Mumford_Cove 41.32526111 -72.02088 2015 monitoringMC_01 3151818 2015-06-05 14:30 14.28 8.41 46330 11.85 139.3 -72.28 30.08 2015-06-05T14:30
Mumford_Cove 41.32526111 -72.02088 2015 monitoringMC_01 3151818 2015-06-05 15:00 14.45 8.48 46260 12.66 149.4 -76.18 30.03 2015-06-05T15:00
Mumford_Cove 41.32526111 -72.02088 2015 monitoringMC_01 3151818 2015-06-05 15:30 14.74 8.49 46250 13.18 156.4 -76.85 30.03 2015-06-05T15:30
Mumford_Cove 41.32526111 -72.02088 2015 monitoringMC_01 3151818 2015-06-05 16:00 14.69 8.58 46320 14.32 169.9 -81.95 30.08 2015-06-05T16:00
Mumford_Cove 41.32526111 -72.02088 2015 monitoringMC_01 3151818 2015-06-05 16:30 14.83 8.61 46350 14.98 178.2 -84.05 30.11 2015-06-05T16:30
Mumford_Cove 41.32526111 -72.02088 2015 monitoringMC_01 3151818 2015-06-05 17:00 15.03 8.65 46330 15.2 181.6 -86.21 30.1 2015-06-05T17:00
Mumford_Cove 41.32526111 -72.02088 2015 monitoringMC_01 3151818 2015-06-05 17:30 15.37 8.62 46070 15.07 181.0 -84.58 29.92 2015-06-05T17:30
Mumford_Cove 41.32526111 -72.02088 2015 monitoringMC_01 3151818 2015-06-05 18:00 15.48 8.66 46210 15.82 190.5 -87.15 30.02 2015-06-05T18:00
Mumford_Cove 41.32526111 -72.02088 2015 monitoringMC_01 3151818 2015-06-05 18:30 16.4 8.53 45660 13.98 171.1 -79.87 29.63 2015-06-05T18:30
Mumford_Cove 41.32526111 -72.02088 2015 monitoringMC_01 3151818 2015-06-05 19:00 15.5 8.71 46340 15.53 187.3 -89.56 30.11 2015-06-05T19:00
Mumford_Cove 41.32526111 -72.02088 2015 monitoringMC_01 3151818 2015-06-05 19:30 15.42 8.53 46060 14.13 169.9 -79.61 29.91 2015-06-05T19:30
Mumford_Cove 41.32526111 -72.02088 2015 monitoringMC_01 3151818 2015-06-05 20:00 15.38 8.51 46200 13.48 162.0 -78.18 30.01 2015-06-05T20:00
Mumford_Cove 41.32526111 -72.02088 2015 monitoringMC_01 3151818 2015-06-05 20:30 16.16 8.44 45700 12.15 148.1 -74.4 29.66 2015-06-05T20:30
Mumford_Cove 41.32526111 -72.02088 2015 monitoringMC_01 3151818 2015-06-05 21:00 16.04 8.35 45830 10.82 131.6 -69.74 29.75 2015-06-05T21:00
Mumford_Cove 41.32526111 -72.02088 2015 monitoringMC_01 3151818 2015-06-05 21:30 15.97 8.36 45850 10.72 130.2 -69.97 29.77 2015-06-05T21:30
Mumford_Cove 41.32526111 -72.02088 2015 monitoringMC_01 3151818 2015-06-05 22:00 15.51 8.31 46050 10.28 123.8 -67.33 29.9 2015-06-05T22:00
Mumford_Cove 41.32526111 -72.02088 2015 monitoringMC_01 3151818 2015-06-05 22:30 15.16 8.29 46110 9.87 118.0 -65.72 29.94 2015-06-05T22:30
Mumford_Cove 41.32526111 -72.02088 2015 monitoringMC_01 3151818 2015-06-05 23:00 14.64 8.26 46300 9.7 114.9 -64.28 30.07 2015-06-05T23:00
Mumford_Cove 41.32526111 -72.02088 2015 monitoringMC_01 3151818 2015-06-05 23:30 14.32 8.25 46310 9.55 112.4 -63.45 30.07 2015-06-05T23:30
Mumford_Cove 41.32526111 -72.02088 2015 monitoringMC_01 3151818 2015-06-06 0:00 14.2 8.25 46400 9.49 111.5 -63.07 30.13 2015-06-06T00:00
Mumford_Cove 41.32526111 -72.02088 2015 monitoringMC_01 3151818 2015-06-06 0:30 14.03 8.23 46440 9.4 110.1 -62.19 30.15 2015-06-06T00:30
Mumford_Cove 41.32526111 -72.02088 2015 monitoringMC_01 3151818 2015-06-06 1:00 13.92 8.23 46410 9.3 108.6 -62.26 30.13 2015-06-06T01:00
Mumford_Cove 41.32526111 -72.02088 2015 monitoringMC_01 3151818 2015-06-06 1:30 13.7 8.22 46500 9.21 107.2 -61.73 30.19 2015-06-06T01:30
Mumford_Cove 41.32526111 -72.02088 2015 monitoringMC_01 3151818 2015-06-06 2:00 13.51 8.21 46490 9.04 104.7 -61.14 30.17 2015-06-06T02:00
Mumford_Cove 41.32526111 -72.02088 2015 monitoringMC_01 3151818 2015-06-06 2:30 13.55 8.23 46560 9.23 107.0 -62.0 30.23 2015-06-06T02:30
Mumford_Cove 41.32526111 -72.02088 2015 monitoringMC_01 3151818 2015-06-06 3:00 13.77 8.22 46360 9.11 106.0 -61.5 30.09 2015-06-06T03:00
Mumford_Cove 41.32526111 -72.02088 2015 monitoringMC_01 3151818 2015-06-06 3:30 13.75 8.2 46410 8.7 101.3 -60.39 30.12 2015-06-06T03:30
Mumford_Cove 41.32526111 -72.02088 2015 monitoringMC_01 3151818 2015-06-06 4:00 13.96 8.21 46380 8.94 104.5 -60.85 30.11 2015-06-06T04:00
Mumford_Cove 41.32526111 -72.02088 2015 monitoringMC_01 3151818 2015-06-06 4:30 13.96 8.2 46310 8.76 102.4 -60.58 30.06 2015-06-06T04:30
Mumford_Cove 41.32526111 -72.02088 2015 monitoringMC_01 3151818 2015-06-06 5:00 13.89 8.19 46460 8.59 100.2 -60.15 30.16 2015-06-06T05:00
Mumford_Cove 41.32526111 -72.02088 2015 monitoringMC_01 3151818 2015-06-06 5:30 13.85 8.18 46330 8.14 94.9 -59.36 30.07 2015-06-06T05:30
Mumford_Cove 41.32526111 -72.02088 2015 monitoringMC_01 3151818 2015-06-06 6:00 13.99 8.18 46390 8.5 99.4 -59.44 30.12 2015-06-06T06:00
Mumford_Cove 41.32526111 -72.02088 2015 monitoringMC_01 3151818 2015-06-06 6:30 14.34 8.19 46270 8.69 102.3 -59.73 30.04 2015-06-06T06:30
Mumford_Cove 41.32526111 -72.02088 2015 monitoringMC_01 3151818 2015-06-06 7:00 14.26 8.15 46400 8.28 97.4 -57.84 30.13 2015-06-06T07:00
Mumford_Cove 41.32526111 -72.02088 2015 monitoringMC_01 3151818 2015-06-06 7:30 14.31 8.17 46260 8.51 100.1 -58.79 30.03 2015-06-06T07:30
Mumford_Cove 41.32526111 -72.02088 2015 monitoringMC_01 3151818 2015-06-06 8:00 14.19 8.16 46420 8.49 99.7 -58.05 30.14 2015-06-06T08:00
Mumford_Cove 41.32526111 -72.02088 2015 monitoringMC_01 3151818 2015-06-06 8:30 14.74 8.17 46040 8.39 99.5 -58.76 29.88 2015-06-06T08:30
Mumford_Cove 41.32526111 -72.02088 2015 monitoringMC_01 3151818 2015-06-06 9:00 15.4 8.22 45640 8.87 106.4 -62.1 29.61 2015-06-06T09:00
Mumford_Cove 41.32526111 -72.02088 2015 monitoringMC_01 3151818 2015-06-06 9:30 15.4 8.23 45520 8.94 107.2 -62.35 29.52 2015-06-06T09:30
Mumford_Cove 41.32526111 -72.02088 2015 monitoringMC_01 3151818 2015-06-06 10:00 15.24 8.23 45570 9.09 108.7 -62.45 29.55 2015-06-06T10:00
Mumford_Cove 41.32526111 -72.02088 2015 monitoringMC_01 3151818 2015-06-06 10:30 15.33 8.25 45690 9.21 110.4 -63.53 29.64 2015-06-06T10:30
Mumford_Cove 41.32526111 -72.02088 2015 monitoringMC_01 3151818 2015-06-06 11:00 15.22 8.25 45780 9.4 112.4 -63.86 29.7 2015-06-06T11:00
Mumford_Cove 41.32526111 -72.02088 2015 monitoringMC_01 3151818 2015-06-06 11:30 14.95 8.25 45900 9.45 112.5 -63.29 29.78 2015-06-06T11:30
Mumford_Cove 41.32526111 -72.02088 2015 monitoringMC_01 3151818 2015-06-06 12:00 14.81 8.24 46070 9.51 113.0 -63.03 29.9 2015-06-06T12:00
Mumford_Cove 41.32526111 -72.02088 2015 monitoringMC_01 3151818 2015-06-06 12:30 15.19 8.26 46040 9.57 114.6 -63.89 29.89 2015-06-06T12:30
Mumford_Cove 41.32526111 -72.02088 2015 monitoringMC_01 3151818 2015-06-06 13:00 14.73 8.25 46240 9.73 115.5 -63.43 30.03 2015-06-06T13:00
Mumford_Cove 41.32526111 -72.02088 2015 monitoringMC_01 3151818 2015-06-06 13:30 14.44 8.24 46330 9.57 112.9 -62.89 30.08 2015-06-06T13:30
Mumford_Cove 41.32526111 -72.02088 2015 monitoringMC_01 3151818 2015-06-06 14:00 14.29 8.24 46410 9.66 113.7 -62.61 30.14 2015-06-06T14:00
Mumford_Cove 41.32526111 -72.02088 2015 monitoringMC_01 3151818 2015-06-06 14:30 14.3 8.24 46340 9.73 114.5 -62.75 30.09 2015-06-06T14:30
Mumford_Cove 41.32526111 -72.02088 2015 monitoringMC_01 3151818 2015-06-06 15:00 14.4 8.25 46310 9.58 113.0 -63.19 30.07 2015-06-06T15:00
Mumford_Cove 41.32526111 -72.02088 2015 monitoringMC_01 3151818 2015-06-06 15:30 14.41 8.26 46320 9.95 117.4 -64.05 30.08 2015-06-06T15:30
Mumford_Cove 41.32526111 -72.02088 2015 monitoringMC_01 3151818 2015-06-06 16:00 14.61 8.29 46340 10.34 122.5 -65.74 30.1 2015-06-06T16:00
Mumford_Cove 41.32526111 -72.02088 2015 monitoringMC_01 3151818 2015-06-06 16:30 14.82 8.31 46220 10.67 126.8 -67.07 30.01 2015-06-06T16:30
Mumford_Cove 41.32526111 -72.02088 2015 monitoringMC_01 3151818 2015-06-06 17:00 15.47 8.32 46020 10.7 128.7 -67.58 29.88 2015-06-06T17:00
Mumford_Cove 41.32526111 -72.02088 2015 monitoringMC_01 3151818 2015-06-06 17:30 15.9 8.39 45970 11.94 144.9 -71.98 29.85 2015-06-06T17:30
Mumford_Cove 41.32526111 -72.02088 2015 monitoringMC_01 3151818 2015-06-06 18:00 15.94 8.41 45950 12.53 152.2 -72.71 29.84 2015-06-06T18:00
Mumford_Cove 41.32526111 -72.02088 2015 monitoringMC_01 3151818 2015-06-06 18:30 16.07 8.41 45980 11.93 145.2 -72.69 29.86 2015-06-06T18:30
Mumford_Cove 41.32526111 -72.02088 2015 monitoringMC_01 3151818 2015-06-06 19:00 15.98 8.43 46100 12.34 150.1 -73.98 29.95 2015-06-06T19:00
Mumford_Cove 41.32526111 -72.02088 2015 monitoringMC_01 3151818 2015-06-06 19:30 16.0 8.42 46030 12.16 147.9 -73.75 29.9 2015-06-06T19:30
Mumford_Cove 41.32526111 -72.02088 2015 monitoringMC_01 3151818 2015-06-06 20:00 15.99 8.37 45860 11.44 139.0 -70.83 29.77 2015-06-06T20:00
Mumford_Cove 41.32526111 -72.02088 2015 monitoringMC_01 3151818 2015-06-06 20:30 15.3 8.37 46190 11.47 137.7 -70.61 30.0 2015-06-06T20:30
Mumford_Cove 41.32526111 -72.02088 2015 monitoringMC_01 3151818 2015-06-06 21:00 15.39 8.35 46060 10.97 131.9 -69.05 29.91 2015-06-06T21:00
Mumford_Cove 41.32526111 -72.02088 2015 monitoringMC_01 3151818 2015-06-06 21:30 15.97 8.31 45880 10.3 125.1 -67.19 29.79 2015-06-06T21:30
Mumford_Cove 41.32526111 -72.02088 2015 monitoringMC_01 3151818 2015-06-06 22:00 15.93 8.29 45820 9.96 120.8 -65.84 29.74 2015-06-06T22:00
Mumford_Cove 41.32526111 -72.02088 2015 monitoringMC_01 3151818 2015-06-06 22:30 15.84 8.28 45780 9.65 116.9 -65.22 29.71 2015-06-06T22:30
Mumford_Cove 41.32526111 -72.02088 2015 monitoringMC_01 3151818 2015-06-06 23:00 15.52 8.24 45930 9.27 111.7 -63.15 29.82 2015-06-06T23:00
Mumford_Cove 41.32526111 -72.02088 2015 monitoringMC_01 3151818 2015-06-06 23:30 15.04 8.22 46050 9.04 107.9 -61.86 29.89 2015-06-06T23:30
Mumford_Cove 41.32526111 -72.02088 2015 monitoringMC_01 3151818 2015-06-07 0:00 14.52 8.2 46220 8.86 104.7 -60.45 30.01 2015-06-07T00:00
Mumford_Cove 41.32526111 -72.02088 2015 monitoringMC_01 3151818 2015-06-07 0:30 14.02 8.18 46330 8.83 103.3 -59.45 30.07 2015-06-07T00:30
Mumford_Cove 41.32526111 -72.02088 2015 monitoringMC_01 3151818 2015-06-07 1:00 13.86 8.18 46420 8.77 102.3 -59.35 30.13 2015-06-07T01:00
Mumford_Cove 41.32526111 -72.02088 2015 monitoringMC_01 3151818 2015-06-07 1:30 13.67 8.17 46350 8.66 100.6 -58.59 30.08 2015-06-07T01:30
Mumford_Cove 41.32526111 -72.02088 2015 monitoringMC_01 3151818 2015-06-07 2:00 13.49 8.16 46470 8.6 99.5 -58.33 30.16 2015-06-07T02:00
Mumford_Cove 41.32526111 -72.02088 2015 monitoringMC_01 3151818 2015-06-07 2:30 13.47 8.16 46410 8.6 99.6 -58.12 30.11 2015-06-07T02:30
Mumford_Cove 41.32526111 -72.02088 2015 monitoringMC_01 3151818 2015-06-07 3:00 13.44 8.16 46480 8.53 98.7 -57.99 30.16 2015-06-07T03:00
Mumford_Cove 41.32526111 -72.02088 2015 monitoringMC_01 3151818 2015-06-07 3:30 13.49 8.15 46420 8.4 97.3 -57.76 30.12 2015-06-07T03:30
Mumford_Cove 41.32526111 -72.02088 2015 monitoringMC_01 3151818 2015-06-07 4:00 13.45 8.13 46410 8.19 94.8 -56.6 30.11 2015-06-07T04:00
Mumford_Cove 41.32526111 -72.02088 2015 monitoringMC_01 3151818 2015-06-07 4:30 13.54 8.13 46410 8.21 95.2 -56.53 30.12 2015-06-07T04:30
Mumford_Cove 41.32526111 -72.02088 2015 monitoringMC_01 3151818 2015-06-07 5:00 13.77 8.13 46300 8.03 93.4 -56.41 30.04 2015-06-07T05:00
Mumford_Cove 41.32526111 -72.02088 2015 monitoringMC_01 3151818 2015-06-07 5:30 14.28 8.12 46250 8.0 94.1 -56.13 30.02 2015-06-07T05:30
Mumford_Cove 41.32526111 -72.02088 2015 monitoringMC_01 3151818 2015-06-07 6:00 14.35 8.14 46390 7.89 92.9 -56.93 30.12 2015-06-07T06:00
Mumford_Cove 41.32526111 -72.02088 2015 monitoringMC_01 3151818 2015-06-07 6:30 15.32 8.16 45230 8.04 96.1 -58.72 29.31 2015-06-07T06:30
Mumford_Cove 41.32526111 -72.02088 2015 monitoringMC_01 3151818 2015-06-07 7:00 15.72 8.17 45240 8.02 96.7 -59.23 29.32 2015-06-07T07:00
Mumford_Cove 41.32526111 -72.02088 2015 monitoringMC_01 3151818 2015-06-07 7:30 15.88 8.17 45140 8.1 97.9 -59.46 29.25 2015-06-07T07:30
Mumford_Cove 41.32526111 -72.02088 2015 monitoringMC_01 3151818 2015-06-07 8:00 16.03 8.23 45040 8.63 104.5 -62.64 29.18 2015-06-07T08:00
Mumford_Cove 41.32526111 -72.02088 2015 monitoringMC_01 3151818 2015-06-07 8:30 15.54 8.19 45430 8.51 102.3 -60.35 29.46 2015-06-07T08:30
Mumford_Cove 41.32526111 -72.02088 2015 monitoringMC_01 3151818 2015-06-07 9:00 15.79 8.23 45350 8.71 105.2 -62.54 29.4 2015-06-07T09:00
Mumford_Cove 41.32526111 -72.02088 2015 monitoringMC_01 3151818 2015-06-07 9:30 15.88 8.26 45430 9.33 112.9 -64.47 29.46 2015-06-07T09:30
Mumford_Cove 41.32526111 -72.02088 2015 monitoringMC_01 3151818 2015-06-07 10:00 15.89 8.28 45500 9.65 116.9 -65.6 29.51 2015-06-07T10:00
Mumford_Cove 41.32526111 -72.02088 2015 monitoringMC_01 3151818 2015-06-07 10:30 15.86 8.26 45670 9.5 115.0 -64.34 29.64 2015-06-07T10:30
Mumford_Cove 41.32526111 -72.02088 2015 monitoringMC_01 3151818 2015-06-07 11:00 15.48 8.24 45890 9.5 114.3 -63.31 29.79 2015-06-07T11:00
Mumford_Cove 41.32526111 -72.02088 2015 monitoringMC_01 3151818 2015-06-07 11:30 15.23 8.23 46050 9.53 114.2 -62.65 29.9 2015-06-07T11:30
Mumford_Cove 41.32526111 -72.02088 2015 monitoringMC_01 3151818 2015-06-07 12:00 14.95 8.23 46160 9.61 114.5 -62.33 29.97 2015-06-07T12:00
Mumford_Cove 41.32526111 -72.02088 2015 monitoringMC_01 3151818 2015-06-07 12:30 14.8 8.23 46450 9.71 115.5 -62.36 30.18 2015-06-07T12:30
Mumford_Cove 41.32526111 -72.02088 2015 monitoringMC_01 3151818 2015-06-07 13:00 14.46 8.21 46360 9.58 113.1 -60.93 30.11 2015-06-07T13:00
Mumford_Cove 41.32526111 -72.02088 2015 monitoringMC_01 3151818 2015-06-07 13:30 14.65 8.23 46320 9.81 116.2 -62.46 30.08 2015-06-07T13:30
Mumford_Cove 41.32526111 -72.02088 2015 monitoringMC_01 3151818 2015-06-07 14:00 14.79 8.25 46490 9.99 118.8 -63.32 30.21 2015-06-07T14:00
Mumford_Cove 41.32526111 -72.02088 2015 monitoringMC_01 3151818 2015-06-07 14:30 14.94 8.25 46500 10.15 121.1 -63.64 30.22 2015-06-07T14:30
Mumford_Cove 41.32526111 -72.02088 2015 monitoringMC_01 3151818 2015-06-07 15:00 14.98 8.28 46330 10.51 125.4 -65.2 30.1 2015-06-07T15:00
Mumford_Cove 41.32526111 -72.02088 2015 monitoringMC_01 3151818 2015-06-07 15:30 15.14 8.28 46410 10.64 127.3 -65.47 30.16 2015-06-07T15:30
Mumford_Cove 41.32526111 -72.02088 2015 monitoringMC_01 3151818 2015-06-07 16:00 15.29 8.3 46440 10.89 130.9 -66.26 30.18 2015-06-07T16:00
Mumford_Cove 41.32526111 -72.02088 2015 monitoringMC_01 3151818 2015-06-07 16:30 15.35 8.32 46410 11.49 138.1 -67.88 30.16 2015-06-07T16:30
Mumford_Cove 41.32526111 -72.02088 2015 monitoringMC_01 3151818 2015-06-07 17:00 15.69 8.43 46420 12.49 151.3 -73.83 30.17 2015-06-07T17:00
Mumford_Cove 41.32526111 -72.02088 2015 monitoringMC_01 3151818 2015-06-07 17:30 15.65 8.44 46440 12.63 152.9 -74.42 30.19 2015-06-07T17:30
Mumford_Cove 41.32526111 -72.02088 2015 monitoringMC_01 3151818 2015-06-07 18:00 15.7 8.43 46420 12.79 154.9 -73.99 30.17 2015-06-07T18:00
Mumford_Cove 41.32526111 -72.02088 2015 monitoringMC_01 3151818 2015-06-07 18:30 15.94 8.56 46360 14.42 175.4 -81.16 30.13 2015-06-07T18:30
Mumford_Cove 41.32526111 -72.02088 2015 monitoringMC_01 3151818 2015-06-07 19:00 16.43 8.54 46440 14.25 175.1 -80.25 30.2 2015-06-07T19:00
Mumford_Cove 41.32526111 -72.02088 2015 monitoringMC_01 3151818 2015-06-07 19:30 17.14 8.52 46290 14.18 176.6 -79.58 30.1 2015-06-07T19:30
Mumford_Cove 41.32526111 -72.02088 2015 monitoringMC_01 3151818 2015-06-07 20:00 16.53 8.58 46320 15.2 187.1 -83.01 30.11 2015-06-07T20:00
Mumford_Cove 41.32526111 -72.02088 2015 monitoringMC_01 3151818 2015-06-07 20:30 16.49 8.57 46410 14.61 179.7 -82.03 30.18 2015-06-07T20:30
Mumford_Cove 41.32526111 -72.02088 2015 monitoringMC_01 3151818 2015-06-07 21:00 16.82 8.45 46130 12.9 159.5 -75.54 29.98 2015-06-07T21:00
Mumford_Cove 41.32526111 -72.02088 2015 monitoringMC_01 3151818 2015-06-07 21:30 17.06 8.45 46060 12.83 159.3 -75.57 29.93 2015-06-07T21:30
Mumford_Cove 41.32526111 -72.02088 2015 monitoringMC_01 3151818 2015-06-07 22:00 17.14 8.39 45750 11.53 143.2 -71.89 29.71 2015-06-07T22:00
Mumford_Cove 41.32526111 -72.02088 2015 monitoringMC_01 3151818 2015-06-07 22:30 16.98 8.34 45990 10.69 132.6 -69.25 29.88 2015-06-07T22:30
Mumford_Cove 41.32526111 -72.02088 2015 monitoringMC_01 3151818 2015-06-07 23:00 16.96 8.3 45990 10.02 124.2 -66.86 29.88 2015-06-07T23:00
Mumford_Cove 41.32526111 -72.02088 2015 monitoringMC_01 3151818 2015-06-07 23:30 16.73 8.27 46100 9.64 118.9 -65.38 29.96 2015-06-07T23:30
Mumford_Cove 41.32526111 -72.02088 2015 monitoringMC_01 3151818 2015-06-08 0:00 16.46 8.27 46090 9.63 118.3 -65.05 29.95 2015-06-08T00:00
Mumford_Cove 41.32526111 -72.02088 2015 monitoringMC_01 3151818 2015-06-08 0:30 16.31 8.26 46100 9.54 116.7 -64.7 29.95 2015-06-08T00:30
Mumford_Cove 41.32526111 -72.02088 2015 monitoringMC_01 3151818 2015-06-08 1:00 15.99 8.24 46220 9.43 114.8 -63.43 30.03 2015-06-08T01:00
Mumford_Cove 41.32526111 -72.02088 2015 monitoringMC_01 3151818 2015-06-08 1:30 15.71 8.23 46220 9.32 112.8 -62.58 30.03 2015-06-08T01:30
Mumford_Cove 41.32526111 -72.02088 2015 monitoringMC_01 3151818 2015-06-08 2:00 15.68 8.22 46200 9.12 110.2 -61.85 30.01 2015-06-08T02:00
Mumford_Cove 41.32526111 -72.02088 2015 monitoringMC_01 3151818 2015-06-08 2:30 15.44 8.21 46360 9.0 108.4 -61.43 30.13 2015-06-08T02:30
Mumford_Cove 41.32526111 -72.02088 2015 monitoringMC_01 3151818 2015-06-08 3:00 15.37 8.2 46260 8.98 108.0 -61.0 30.05 2015-06-08T03:00
Mumford_Cove 41.32526111 -72.02088 2015 monitoringMC_01 3151818 2015-06-08 3:30 15.35 8.2 46310 8.95 107.6 -60.86 30.09 2015-06-08T03:30
Mumford_Cove 41.32526111 -72.02088 2015 monitoringMC_01 3151818 2015-06-08 4:00 15.26 8.19 46240 8.97 107.6 -60.31 30.04 2015-06-08T04:00
Mumford_Cove 41.32526111 -72.02088 2015 monitoringMC_01 3151818 2015-06-08 4:30 15.5 8.19 46300 8.86 106.8 -60.29 30.08 2015-06-08T04:30
Mumford_Cove 41.32526111 -72.02088 2015 monitoringMC_01 3151818 2015-06-08 5:00 15.56 8.18 46270 8.49 102.5 -59.71 30.06 2015-06-08T05:00
Mumford_Cove 41.32526111 -72.02088 2015 monitoringMC_01 3151818 2015-06-08 5:30 15.58 8.17 46230 8.52 102.8 -59.29 30.03 2015-06-08T05:30
Mumford_Cove 41.32526111 -72.02088 2015 monitoringMC_01 3151818 2015-06-08 6:00 15.55 8.18 46360 8.71 105.1 -59.82 30.13 2015-06-08T06:00
Mumford_Cove 41.32526111 -72.02088 2015 monitoringMC_01 3151818 2015-06-08 6:30 15.63 8.17 46250 8.38 101.3 -58.91 30.05 2015-06-08T06:30
Mumford_Cove 41.32526111 -72.02088 2015 monitoringMC_01 3151818 2015-06-08 7:00 16.23 8.23 46100 9.05 110.6 -62.44 29.95 2015-06-08T07:00
Mumford_Cove 41.32526111 -72.02088 2015 monitoringMC_01 3151818 2015-06-08 7:30 16.63 8.23 46040 8.98 110.5 -62.57 29.91 2015-06-08T07:30
Mumford_Cove 41.32526111 -72.02088 2015 monitoringMC_01 3151818 2015-06-08 8:00 16.88 8.22 45860 8.83 109.2 -62.51 29.78 2015-06-08T08:00
Mumford_Cove 41.32526111 -72.02088 2015 monitoringMC_01 3151818 2015-06-08 8:30 17.31 8.25 45580 8.97 111.7 -63.94 29.59 2015-06-08T08:30
Mumford_Cove 41.32526111 -72.02088 2015 monitoringMC_01 3151818 2015-06-08 9:00 16.93 8.23 45810 9.03 111.7 -62.8 29.75 2015-06-08T09:00
Mumford_Cove 41.32526111 -72.02088 2015 monitoringMC_01 3151818 2015-06-08 9:30 16.89 8.23 45890 9.03 111.7 -62.81 29.81 2015-06-08T09:30
Mumford_Cove 41.32526111 -72.02088 2015 monitoringMC_01 3151818 2015-06-08 10:00 16.67 8.21 45950 9.05 111.4 -61.84 29.85 2015-06-08T10:00
Mumford_Cove 41.32526111 -72.02088 2015 monitoringMC_01 3151818 2015-06-08 10:30 16.98 8.27 45880 9.59 118.8 -65.46 29.8 2015-06-08T10:30
Mumford_Cove 41.32526111 -72.02088 2015 monitoringMC_01 3151818 2015-06-08 11:00 16.88 8.27 45760 9.67 119.5 -65.2 29.71 2015-06-08T11:00
Mumford_Cove 41.32526111 -72.02088 2015 monitoringMC_01 3151818 2015-06-08 11:30 16.69 8.23 45990 9.18 113.1 -62.74 29.88 2015-06-08T11:30
Mumford_Cove 41.32526111 -72.02088 2015 monitoringMC_01 3151818 2015-06-08 12:00 16.29 8.21 45920 8.96 109.6 -61.5 29.82 2015-06-08T12:00
Mumford_Cove 41.32526111 -72.02088 2015 monitoringMC_01 3151818 2015-06-08 12:30 15.99 8.21 46140 9.04 110.0 -61.64 29.98 2015-06-08T12:30
Mumford_Cove 41.32526111 -72.02088 2015 monitoringMC_01 3151818 2015-06-08 13:00 15.48 8.2 46040 9.0 108.3 -61.06 29.9 2015-06-08T13:00
Mumford_Cove 41.32526111 -72.02088 2015 monitoringMC_01 3151818 2015-06-08 13:30 15.37 8.21 46160 9.07 109.0 -61.22 29.98 2015-06-08T13:30
Mumford_Cove 41.32526111 -72.02088 2015 monitoringMC_01 3151818 2015-06-08 14:00 15.31 8.21 46250 9.19 110.4 -61.46 30.04 2015-06-08T14:00
Mumford_Cove 41.32526111 -72.02088 2015 monitoringMC_01 3151818 2015-06-08 14:30 15.23 8.21 46200 9.23 110.6 -61.38 30.01 2015-06-08T14:30
Mumford_Cove 41.32526111 -72.02088 2015 monitoringMC_01 3151818 2015-06-08 15:00 15.26 8.21 46220 9.27 111.2 -61.47 30.02 2015-06-08T15:00
Mumford_Cove 41.32526111 -72.02088 2015 monitoringMC_01 3151818 2015-06-08 15:30 15.23 8.22 46270 9.36 112.2 -61.68 30.06 2015-06-08T15:30
Mumford_Cove 41.32526111 -72.02088 2015 monitoringMC_01 3151818 2015-06-08 16:00 15.3 8.22 46240 9.41 112.9 -62.05 30.04 2015-06-08T16:00
Mumford_Cove 41.32526111 -72.02088 2015 monitoringMC_01 3151818 2015-06-08 16:30 15.32 8.23 46240 9.38 112.7 -62.5 30.04 2015-06-08T16:30
Mumford_Cove 41.32526111 -72.02088 2015 monitoringMC_01 3151818 2015-06-08 17:00 15.4 8.23 46270 9.47 114.0 -62.44 30.06 2015-06-08T17:00
Mumford_Cove 41.32526111 -72.02088 2015 monitoringMC_01 3151818 2015-06-08 17:30 15.45 8.23 46180 9.51 114.4 -62.78 30.0 2015-06-08T17:30
Mumford_Cove 41.32526111 -72.02088 2015 monitoringMC_01 3151818 2015-06-08 18:00 15.47 8.23 46200 9.47 114.1 -62.54 30.01 2015-06-08T18:00
Mumford_Cove 41.32526111 -72.02088 2015 monitoringMC_01 3151818 2015-06-08 18:30 15.56 8.23 46130 9.48 114.3 -62.58 29.96 2015-06-08T18:30
Mumford_Cove 41.32526111 -72.02088 2015 monitoringMC_01 3151818 2015-06-08 19:00 15.74 8.27 46220 10.01 121.2 -64.85 30.03 2015-06-08T19:00
Mumford_Cove 41.32526111 -72.02088 2015 monitoringMC_01 3151818 2015-06-08 19:30 16.11 8.3 46050 10.1 123.1 -66.43 29.91 2015-06-08T19:30
Mumford_Cove 41.32526111 -72.02088 2015 monitoringMC_01 3151818 2015-06-08 20:00 16.14 8.28 46080 10.05 122.6 -65.76 29.93 2015-06-08T20:00
Mumford_Cove 41.32526111 -72.02088 2015 monitoringMC_01 3151818 2015-06-08 20:30 16.43 8.28 46320 9.97 122.4 -65.74 30.11 2015-06-08T20:30
Mumford_Cove 41.32526111 -72.02088 2015 monitoringMC_01 3151818 2015-06-08 21:00 16.16 8.25 46100 9.52 116.2 -63.79 29.95 2015-06-08T21:00
Mumford_Cove 41.32526111 -72.02088 2015 monitoringMC_01 3151818 2015-06-08 21:30 16.2 8.24 46130 9.28 113.4 -63.4 29.97 2015-06-08T21:30
Mumford_Cove 41.32526111 -72.02088 2015 monitoringMC_01 3151818 2015-06-08 22:00 16.68 8.26 45890 9.2 113.3 -64.3 29.8 2015-06-08T22:00
Mumford_Cove 41.32526111 -72.02088 2015 monitoringMC_01 3151818 2015-06-08 22:30 16.26 8.21 46090 8.99 109.9 -61.86 29.94 2015-06-08T22:30
Mumford_Cove 41.32526111 -72.02088 2015 monitoringMC_01 3151818 2015-06-08 23:00 16.65 8.22 45970 8.87 109.2 -62.1 29.86 2015-06-08T23:00
Mumford_Cove 41.32526111 -72.02088 2015 monitoringMC_01 3151818 2015-06-08 23:30 16.5 8.2 45980 8.54 104.9 -60.88 29.87 2015-06-08T23:30
Mumford_Cove 41.32526111 -72.02088 2015 monitoringMC_01 3151818 2015-06-09 0:00 16.15 8.18 46140 8.38 102.3 -60.02 29.98 2015-06-09T00:00
Mumford_Cove 41.32526111 -72.02088 2015 monitoringMC_01 3151818 2015-06-09 0:30 15.97 8.18 46120 8.31 101.1 -59.86 29.96 2015-06-09T00:30
Mumford_Cove 41.32526111 -72.02088 2015 monitoringMC_01 3151818 2015-06-09 1:00 15.86 8.17 46130 8.22 99.7 -59.31 29.97 2015-06-09T01:00
Mumford_Cove 41.32526111 -72.02088 2015 monitoringMC_01 3151818 2015-06-09 1:30 15.57 8.16 46090 8.16 98.4 -58.62 29.93 2015-06-09T01:30
Mumford_Cove 41.32526111 -72.02088 2015 monitoringMC_01 3151818 2015-06-09 2:00 15.33 8.15 46260 8.1 97.2 -57.68 30.05 2015-06-09T02:00
Mumford_Cove 41.32526111 -72.02088 2015 monitoringMC_01 3151818 2015-06-09 2:30 15.09 8.14 46180 8.03 96.0 -57.08 29.99 2015-06-09T02:30
Mumford_Cove 41.32526111 -72.02088 2015 monitoringMC_01 3151818 2015-06-09 3:00 14.83 8.13 46220 8.05 95.7 -56.72 30.01 2015-06-09T03:00
Mumford_Cove 41.32526111 -72.02088 2015 monitoringMC_01 3151818 2015-06-09 3:30 14.84 8.13 46180 7.94 94.4 -56.64 29.98 2015-06-09T03:30
Mumford_Cove 41.32526111 -72.02088 2015 monitoringMC_01 3151818 2015-06-09 4:00 15.02 8.12 46120 7.83 93.4 -56.22 29.95 2015-06-09T04:00
Mumford_Cove 41.32526111 -72.02088 2015 monitoringMC_01 3151818 2015-06-09 4:30 14.85 8.11 46230 7.63 90.7 -55.33 30.02 2015-06-09T04:30
Mumford_Cove 41.32526111 -72.02088 2015 monitoringMC_01 3151818 2015-06-09 5:00 14.96 8.09 46210 7.52 89.7 -54.54 30.01 2015-06-09T05:00
Mumford_Cove 41.32526111 -72.02088 2015 monitoringMC_01 3151818 2015-06-09 5:30 14.86 8.1 46240 7.49 89.1 -54.78 30.03 2015-06-09T05:30
Mumford_Cove 41.32526111 -72.02088 2015 monitoringMC_01 3151818 2015-06-09 6:00 15.14 8.08 46210 7.25 86.8 -53.92 30.01 2015-06-09T06:00
Mumford_Cove 41.32526111 -72.02088 2015 monitoringMC_01 3151818 2015-06-09 6:30 15.06 8.06 46240 7.04 84.1 -53.02 30.03 2015-06-09T06:30
Mumford_Cove 41.32526111 -72.02088 2015 monitoringMC_01 3151818 2015-06-09 7:00 15.08 8.06 46190 6.89 82.4 -52.67 30.0 2015-06-09T07:00
Mumford_Cove 41.32526111 -72.02088 2015 monitoringMC_01 3151818 2015-06-09 7:30 15.1 8.04 46310 6.74 80.6 -51.84 30.08 2015-06-09T07:30
Mumford_Cove 41.32526111 -72.02088 2015 monitoringMC_01 3151818 2015-06-09 8:00 15.56 8.06 46140 6.83 82.4 -53.02 29.97 2015-06-09T08:00
Mumford_Cove 41.32526111 -72.02088 2015 monitoringMC_01 3151818 2015-06-09 8:30 15.92 8.07 46100 6.98 84.8 -53.72 29.95 2015-06-09T08:30
Mumford_Cove 41.32526111 -72.02088 2015 monitoringMC_01 3151818 2015-06-09 9:00 16.09 8.08 46040 7.03 85.6 -54.38 29.91 2015-06-09T09:00
Mumford_Cove 41.32526111 -72.02088 2015 monitoringMC_01 3151818 2015-06-09 9:30 15.79 8.1 46220 7.29 88.4 -55.29 30.03 2015-06-09T09:30
Mumford_Cove 41.32526111 -72.02088 2015 monitoringMC_01 3151818 2015-06-09 10:00 15.76 8.06 46360 6.79 82.3 -53.08 30.13 2015-06-09T10:00
Mumford_Cove 41.32526111 -72.02088 2015 monitoringMC_01 3151818 2015-06-09 10:30 16.2 8.11 46000 7.42 90.6 -55.99 29.88 2015-06-09T10:30
Mumford_Cove 41.32526111 -72.02088 2015 monitoringMC_01 3151818 2015-06-09 11:00 16.21 8.1 45930 7.39 90.3 -55.16 29.83 2015-06-09T11:00
Mumford_Cove 41.32526111 -72.02088 2015 monitoringMC_01 3151818 2015-06-09 11:30 16.75 8.16 45760 8.03 99.0 -58.61 29.71 2015-06-09T11:30
Mumford_Cove 41.32526111 -72.02088 2015 monitoringMC_01 3151818 2015-06-09 12:00 16.63 8.14 45930 8.05 99.0 -57.65 29.83 2015-06-09T12:00
Mumford_Cove 41.32526111 -72.02088 2015 monitoringMC_01 3151818 2015-06-09 12:30 16.58 8.12 45980 7.87 96.8 -56.49 29.87 2015-06-09T12:30
Mumford_Cove 41.32526111 -72.02088 2015 monitoringMC_01 3151818 2015-06-09 13:00 16.46 8.12 46040 7.96 97.7 -56.6 29.91 2015-06-09T13:00
Mumford_Cove 41.32526111 -72.02088 2015 monitoringMC_01 3151818 2015-06-09 13:30 16.41 8.12 46100 8.01 98.2 -56.73 29.95 2015-06-09T13:30
Mumford_Cove 41.32526111 -72.02088 2015 monitoringMC_01 3151818 2015-06-09 14:00 15.95 8.12 46130 8.08 98.2 -56.24 29.97 2015-06-09T14:00
Mumford_Cove 41.32526111 -72.02088 2015 monitoringMC_01 3151818 2015-06-09 14:30 16.0 8.13 46200 8.2 99.8 -56.83 30.02 2015-06-09T14:30
Mumford_Cove 41.32526111 -72.02088 2015 monitoringMC_01 3151818 2015-06-09 15:00 15.92 8.14 46210 8.33 101.2 -57.29 30.03 2015-06-09T15:00
Mumford_Cove 41.32526111 -72.02088 2015 monitoringMC_01 3151818 2015-06-09 15:30 15.78 8.15 46110 8.55 103.5 -57.94 29.95 2015-06-09T15:30
Mumford_Cove 41.32526111 -72.02088 2015 monitoringMC_01 3151818 2015-06-09 16:00 16.04 8.16 46130 8.65 105.3 -58.54 29.97 2015-06-09T16:00
Mumford_Cove 41.32526111 -72.02088 2015 monitoringMC_01 3151818 2015-06-09 16:30 15.99 8.17 46150 8.87 107.9 -59.23 29.98 2015-06-09T16:30
Mumford_Cove 41.32526111 -72.02088 2015 monitoringMC_01 3151818 2015-06-09 17:00 16.02 8.2 46030 9.27 112.8 -60.98 29.9 2015-06-09T17:00
Mumford_Cove 41.32526111 -72.02088 2015 monitoringMC_01 3151818 2015-06-09 17:30 16.05 8.19 46100 9.07 110.4 -60.35 29.95 2015-06-09T17:30
Mumford_Cove 41.32526111 -72.02088 2015 monitoringMC_01 3151818 2015-06-09 18:00 16.1 8.21 46080 9.32 113.6 -61.78 29.93 2015-06-09T18:00
Mumford_Cove 41.32526111 -72.02088 2015 monitoringMC_01 3151818 2015-06-09 18:30 16.21 8.2 46170 9.25 113.1 -61.1 30.0 2015-06-09T18:30
Mumford_Cove 41.32526111 -72.02088 2015 monitoringMC_01 3151818 2015-06-09 19:00 16.32 8.2 46240 9.23 113.0 -61.25 30.05 2015-06-09T19:00
Mumford_Cove 41.32526111 -72.02088 2015 monitoringMC_01 3151818 2015-06-09 19:30 16.45 8.2 46240 9.18 112.7 -61.16 30.05 2015-06-09T19:30
Mumford_Cove 41.32526111 -72.02088 2015 monitoringMC_01 3151818 2015-06-09 20:00 16.28 8.2 46140 9.1 111.4 -60.95 29.98 2015-06-09T20:00
Mumford_Cove 41.32526111 -72.02088 2015 monitoringMC_01 3151818 2015-06-09 20:30 16.31 8.2 46220 9.09 111.3 -61.0 30.04 2015-06-09T20:30
Mumford_Cove 41.32526111 -72.02088 2015 monitoringMC_01 3151818 2015-06-09 21:00 16.53 8.21 46150 9.33 114.7 -61.92 29.99 2015-06-09T21:00
Mumford_Cove 41.32526111 -72.02088 2015 monitoringMC_01 3151818 2015-06-09 21:30 17.03 8.22 46040 9.22 114.4 -62.34 29.92 2015-06-09T21:30
Mumford_Cove 41.32526111 -72.02088 2015 monitoringMC_01 3151818 2015-06-09 22:00 16.84 8.22 46120 9.29 115.0 -62.32 29.97 2015-06-09T22:00
Mumford_Cove 41.32526111 -72.02088 2015 monitoringMC_01 3151818 2015-06-09 22:30 16.67 8.24 46220 9.59 118.3 -63.3 30.04 2015-06-09T22:30
Mumford_Cove 41.32526111 -72.02088 2015 monitoringMC_01 3151818 2015-06-09 23:00 16.83 8.19 46110 8.91 110.2 -60.85 29.96 2015-06-09T23:00
Mumford_Cove 41.32526111 -72.02088 2015 monitoringMC_01 3151818 2015-06-09 23:30 16.71 8.17 46040 8.72 107.5 -59.47 29.91 2015-06-09T23:30
Mumford_Cove 41.32526111 -72.02088 2015 monitoringMC_01 3151818 2015-06-10 0:00 16.96 8.14 46010 8.25 102.2 -57.63 29.89 2015-06-10T00:00
Mumford_Cove 41.32526111 -72.02088 2015 monitoringMC_01 3151818 2015-06-10 0:30 17.16 8.16 45890 8.47 105.3 -59.21 29.81 2015-06-10T00:30
Mumford_Cove 41.32526111 -72.02088 2015 monitoringMC_01 3151818 2015-06-10 1:00 16.93 8.13 45930 8.07 99.9 -57.22 29.84 2015-06-10T01:00
Mumford_Cove 41.32526111 -72.02088 2015 monitoringMC_01 3151818 2015-06-10 1:30 16.78 8.14 46010 8.03 99.2 -57.92 29.89 2015-06-10T01:30
Mumford_Cove 41.32526111 -72.02088 2015 monitoringMC_01 3151818 2015-06-10 2:00 16.67 8.11 46000 7.93 97.8 -56.23 29.88 2015-06-10T02:00
Mumford_Cove 41.32526111 -72.02088 2015 monitoringMC_01 3151818 2015-06-10 2:30 16.57 8.1 46150 7.78 95.7 -55.42 29.99 2015-06-10T02:30
Mumford_Cove 41.32526111 -72.02088 2015 monitoringMC_01 3151818 2015-06-10 3:00 16.07 8.09 46220 7.8 95.1 -54.95 30.04 2015-06-10T03:00
Mumford_Cove 41.32526111 -72.02088 2015 monitoringMC_01 3151818 2015-06-10 3:30 15.42 8.09 46220 7.83 94.2 -54.43 30.02 2015-06-10T03:30
Mumford_Cove 41.32526111 -72.02088 2015 monitoringMC_01 3151818 2015-06-10 4:00 15.08 8.08 46310 7.73 92.4 -53.67 30.08 2015-06-10T04:00
Mumford_Cove 41.32526111 -72.02088 2015 monitoringMC_01 3151818 2015-06-10 4:30 14.87 8.07 46230 7.75 92.2 -53.37 30.02 2015-06-10T04:30
Mumford_Cove 41.32526111 -72.02088 2015 monitoringMC_01 3151818 2015-06-10 5:00 14.86 8.07 46290 7.67 91.2 -53.22 30.06 2015-06-10T05:00
Mumford_Cove 41.32526111 -72.02088 2015 monitoringMC_01 3151818 2015-06-10 5:30 14.77 8.06 46330 7.52 89.3 -52.89 30.09 2015-06-10T05:30
Mumford_Cove 41.32526111 -72.02088 2015 monitoringMC_01 3151818 2015-06-10 6:00 14.68 8.06 46220 7.54 89.4 -52.45 30.01 2015-06-10T06:00
Mumford_Cove 41.32526111 -72.02088 2015 monitoringMC_01 3151818 2015-06-10 6:30 14.93 8.05 46290 7.54 89.9 -52.4 30.07 2015-06-10T06:30
Mumford_Cove 41.32526111 -72.02088 2015 monitoringMC_01 3151818 2015-06-10 7:00 14.97 8.05 46230 7.39 88.1 -52.4 30.02 2015-06-10T07:00
Mumford_Cove 41.32526111 -72.02088 2015 monitoringMC_01 3151818 2015-06-10 7:30 15.05 8.06 46280 7.45 89.0 -52.78 30.06 2015-06-10T07:30
Mumford_Cove 41.32526111 -72.02088 2015 monitoringMC_01 3151818 2015-06-10 8:00 15.08 8.06 46200 7.53 90.0 -52.91 30.0 2015-06-10T08:00
Mumford_Cove 41.32526111 -72.02088 2015 monitoringMC_01 3151818 2015-06-10 8:30 15.22 8.06 46290 7.6 91.0 -52.96 30.07 2015-06-10T08:30
Mumford_Cove 41.32526111 -72.02088 2015 monitoringMC_01 3151818 2015-06-10 9:00 15.74 8.07 46250 7.65 92.7 -53.38 30.05 2015-06-10T09:00
Mumford_Cove 41.32526111 -72.02088 2015 monitoringMC_01 3151818 2015-06-10 9:30 16.55 8.1 46120 7.97 98.0 -55.66 29.97 2015-06-10T09:30
Mumford_Cove 41.32526111 -72.02088 2015 monitoringMC_01 3151818 2015-06-10 10:00 16.87 8.13 46090 8.17 101.1 -57.2 29.95 2015-06-10T10:00
Mumford_Cove 41.32526111 -72.02088 2015 monitoringMC_01 3151818 2015-06-10 10:30 16.18 8.13 46240 8.53 104.2 -57.26 30.05 2015-06-10T10:30
Mumford_Cove 41.32526111 -72.02088 2015 monitoringMC_01 3151818 2015-06-10 11:00 16.86 8.13 46030 8.33 103.0 -57.32 29.91 2015-06-10T11:00
Mumford_Cove 41.32526111 -72.02088 2015 monitoringMC_01 3151818 2015-06-10 11:30 16.82 8.18 46190 8.81 109.0 -60.19 30.02 2015-06-10T11:30
Mumford_Cove 41.32526111 -72.02088 2015 monitoringMC_01 3151818 2015-06-10 12:00 17.39 8.19 45900 9.19 114.8 -60.66 29.82 2015-06-10T12:00
Mumford_Cove 41.32526111 -72.02088 2015 monitoringMC_01 3151818 2015-06-10 12:30 18.14 8.23 45800 9.79 124.0 -62.93 29.75 2015-06-10T12:30
Mumford_Cove 41.32526111 -72.02088 2015 monitoringMC_01 3151818 2015-06-10 13:00 18.62 8.21 45940 9.89 126.4 -62.11 29.85 2015-06-10T13:00
Mumford_Cove 41.32526111 -72.02088 2015 monitoringMC_01 3151818 2015-06-10 13:30 18.62 8.17 45980 9.6 122.8 -59.79 29.88 2015-06-10T13:30
Mumford_Cove 41.32526111 -72.02088 2015 monitoringMC_01 3151818 2015-06-10 14:00 18.64 8.18 45970 9.68 123.9 -60.43 29.87 2015-06-10T14:00
Mumford_Cove 41.32526111 -72.02088 2015 monitoringMC_01 3151818 2015-06-10 14:30 18.5 8.16 45960 9.41 120.2 -59.19 29.86 2015-06-10T14:30
Mumford_Cove 41.32526111 -72.02088 2015 monitoringMC_01 3151818 2015-06-10 15:00 18.47 8.17 46150 9.51 121.4 -59.57 30.0 2015-06-10T15:00
Mumford_Cove 41.32526111 -72.02088 2015 monitoringMC_01 3151818 2015-06-10 15:30 18.38 8.17 46180 9.7 123.6 -60.02 30.02 2015-06-10T15:30
Mumford_Cove 41.32526111 -72.02088 2015 monitoringMC_01 3151818 2015-06-10 16:00 18.34 8.18 46200 9.79 124.6 -60.61 30.04 2015-06-10T16:00
Mumford_Cove 41.32526111 -72.02088 2015 monitoringMC_01 3151818 2015-06-10 16:30 18.17 8.19 46330 9.86 125.3 -61.04 30.13 2015-06-10T16:30
Mumford_Cove 41.32526111 -72.02088 2015 monitoringMC_01 3151818 2015-06-10 17:00 18.17 8.2 46300 10.05 127.7 -61.63 30.11 2015-06-10T17:00
Mumford_Cove 41.32526111 -72.02088 2015 monitoringMC_01 3151818 2015-06-10 17:30 18.0 8.21 46260 10.21 129.2 -62.19 30.08 2015-06-10T17:30
Mumford_Cove 41.32526111 -72.02088 2015 monitoringMC_01 3151818 2015-06-10 18:00 18.25 8.23 46160 10.4 132.3 -63.03 30.01 2015-06-10T18:00
Mumford_Cove 41.32526111 -72.02088 2015 monitoringMC_01 3151818 2015-06-10 18:30 18.25 8.23 46260 10.37 131.9 -63.09 30.08 2015-06-10T18:30
Mumford_Cove 41.32526111 -72.02088 2015 monitoringMC_01 3151818 2015-06-10 19:00 18.24 8.22 46180 10.39 132.1 -62.91 30.02 2015-06-10T19:00
Mumford_Cove 41.32526111 -72.02088 2015 monitoringMC_01 3151818 2015-06-10 19:30 18.27 8.22 46310 10.39 132.2 -62.89 30.12 2015-06-10T19:30
Mumford_Cove 41.32526111 -72.02088 2015 monitoringMC_01 3151818 2015-06-10 20:00 18.25 8.22 46260 10.32 131.3 -62.75 30.08 2015-06-10T20:00
Mumford_Cove 41.32526111 -72.02088 2015 monitoringMC_01 3151818 2015-06-10 20:30 18.43 8.23 46210 10.35 132.1 -63.2 30.05 2015-06-10T20:30
Mumford_Cove 41.32526111 -72.02088 2015 monitoringMC_01 3151818 2015-06-10 21:00 18.52 8.22 46060 10.25 130.9 -62.52 29.94 2015-06-10T21:00
Mumford_Cove 41.32526111 -72.02088 2015 monitoringMC_01 3151818 2015-06-10 21:30 18.55 8.23 46250 10.52 134.5 -63.56 30.07 2015-06-10T21:30
Mumford_Cove 41.32526111 -72.02088 2015 monitoringMC_01 3151818 2015-06-10 22:00 19.06 8.24 46170 10.49 135.5 -63.73 30.02 2015-06-10T22:00
Mumford_Cove 41.32526111 -72.02088 2015 monitoringMC_01 3151818 2015-06-10 22:30 18.83 8.25 46220 10.37 133.3 -64.6 30.05 2015-06-10T22:30
Mumford_Cove 41.32526111 -72.02088 2015 monitoringMC_01 3151818 2015-06-10 23:00 18.86 8.26 46280 10.63 136.7 -65.06 30.1 2015-06-10T23:00
Mumford_Cove 41.32526111 -72.02088 2015 monitoringMC_01 3151818 2015-06-10 23:30 19.0 8.23 46240 10.36 133.6 -63.65 30.07 2015-06-10T23:30
Mumford_Cove 41.32526111 -72.02088 2015 monitoringMC_01 3151818 2015-06-11 0:00 18.99 8.22 46190 9.65 124.4 -62.82 30.03 2015-06-11T00:00
Mumford_Cove 41.32526111 -72.02088 2015 monitoringMC_01 3151818 2015-06-11 0:30 18.86 8.16 46140 9.14 117.5 -59.09 30.0 2015-06-11T00:30
Mumford_Cove 41.32526111 -72.02088 2015 monitoringMC_01 3151818 2015-06-11 1:00 19.34 8.17 45970 9.07 117.6 -60.03 29.87 2015-06-11T01:00
Mumford_Cove 41.32526111 -72.02088 2015 monitoringMC_01 3151818 2015-06-11 1:30 19.34 8.17 45930 8.94 115.9 -60.22 29.84 2015-06-11T01:30
Mumford_Cove 41.32526111 -72.02088 2015 monitoringMC_01 3151818 2015-06-11 2:00 19.12 8.17 45960 8.71 112.5 -59.71 29.86 2015-06-11T02:00
Mumford_Cove 41.32526111 -72.02088 2015 monitoringMC_01 3151818 2015-06-11 2:30 18.79 8.17 45950 8.68 111.3 -59.68 29.86 2015-06-11T02:30
Mumford_Cove 41.32526111 -72.02088 2015 monitoringMC_01 3151818 2015-06-11 3:00 18.63 8.16 46050 8.57 109.6 -59.43 29.93 2015-06-11T03:00
Mumford_Cove 41.32526111 -72.02088 2015 monitoringMC_01 3151818 2015-06-11 3:30 18.04 8.15 46170 8.55 108.3 -58.82 30.02 2015-06-11T03:30
Mumford_Cove 41.32526111 -72.02088 2015 monitoringMC_01 3151818 2015-06-11 4:00 17.81 8.15 46080 8.53 107.5 -58.55 29.95 2015-06-11T04:00
Mumford_Cove 41.32526111 -72.02088 2015 monitoringMC_01 3151818 2015-06-11 4:30 17.41 8.14 46140 8.41 105.2 -57.72 29.99 2015-06-11T04:30
Mumford_Cove 41.32526111 -72.02088 2015 monitoringMC_01 3151818 2015-06-11 5:00 17.11 8.13 46160 8.29 103.1 -56.96 30.0 2015-06-11T05:00
Mumford_Cove 41.32526111 -72.02088 2015 monitoringMC_01 3151818 2015-06-11 5:30 16.99 8.12 46100 8.24 102.2 -56.65 29.96 2015-06-11T05:30
Mumford_Cove 41.32526111 -72.02088 2015 monitoringMC_01 3151818 2015-06-11 6:00 16.93 8.11 46140 8.07 100.0 -55.8 29.99 2015-06-11T06:00
Mumford_Cove 41.32526111 -72.02088 2015 monitoringMC_01 3151818 2015-06-11 6:30 16.91 8.1 46060 7.95 98.4 -55.51 29.93 2015-06-11T06:30
Mumford_Cove 41.32526111 -72.02088 2015 monitoringMC_01 3151818 2015-06-11 7:00 16.91 8.11 46140 8.02 99.3 -55.83 29.99 2015-06-11T07:00
Mumford_Cove 41.32526111 -72.02088 2015 monitoringMC_01 3151818 2015-06-11 7:30 17.0 8.11 46180 8.05 100.0 -56.06 30.02 2015-06-11T07:30
Mumford_Cove 41.32526111 -72.02088 2015 monitoringMC_01 3151818 2015-06-11 8:00 17.1 8.11 46120 8.06 100.2 -56.17 29.97 2015-06-11T08:00
Mumford_Cove 41.32526111 -72.02088 2015 monitoringMC_01 3151818 2015-06-11 8:30 17.13 8.11 46080 8.05 100.1 -56.17 29.95 2015-06-11T08:30
Mumford_Cove 41.32526111 -72.02088 2015 monitoringMC_01 3151818 2015-06-11 9:00 17.17 8.12 46200 8.1 100.9 -56.42 30.03 2015-06-11T09:00
Mumford_Cove 41.32526111 -72.02088 2015 monitoringMC_01 3151818 2015-06-11 9:30 17.25 8.15 46110 8.46 105.4 -58.33 29.97 2015-06-11T09:30
Mumford_Cove 41.32526111 -72.02088 2015 monitoringMC_01 3151818 2015-06-11 10:00 17.6 8.23 46260 9.21 115.6 -63.08 30.08 2015-06-11T10:00
Mumford_Cove 41.32526111 -72.02088 2015 monitoringMC_01 3151818 2015-06-11 10:30 17.89 8.25 46210 9.64 121.8 -64.17 30.04 2015-06-11T10:30
Mumford_Cove 41.32526111 -72.02088 2015 monitoringMC_01 3151818 2015-06-11 11:00 17.82 8.34 46250 10.88 137.2 -69.35 30.07 2015-06-11T11:00
Mumford_Cove 41.32526111 -72.02088 2015 monitoringMC_01 3151818 2015-06-11 11:30 18.2 8.29 46350 10.33 131.3 -66.63 30.15 2015-06-11T11:30
Mumford_Cove 41.32526111 -72.02088 2015 monitoringMC_01 3151818 2015-06-11 12:00 18.52 8.23 46470 9.7 124.1 -63.51 30.23 2015-06-11T12:00
Mumford_Cove 41.32526111 -72.02088 2015 monitoringMC_01 3151818 2015-06-11 12:30 19.17 8.18 45980 9.27 119.8 -60.44 29.88 2015-06-11T12:30
Mumford_Cove 41.32526111 -72.02088 2015 monitoringMC_01 3151818 2015-06-11 13:00 18.96 8.23 45950 9.8 126.2 -63.16 29.86 2015-06-11T13:00
Mumford_Cove 41.32526111 -72.02088 2015 monitoringMC_01 3151818 2015-06-11 13:30 19.82 8.27 45800 10.23 133.7 -66.17 29.75 2015-06-11T13:30
Mumford_Cove 41.32526111 -72.02088 2015 monitoringMC_01 3151818 2015-06-11 14:00 19.85 8.23 46040 9.95 130.2 -63.36 29.92 2015-06-11T14:00
Mumford_Cove 41.32526111 -72.02088 2015 monitoringMC_01 3151818 2015-06-11 14:30 19.87 8.21 46100 9.79 128.2 -62.39 29.96 2015-06-11T14:30
Mumford_Cove 41.32526111 -72.02088 2015 monitoringMC_01 3151818 2015-06-11 15:00 19.07 8.19 46140 9.67 124.9 -61.18 30.0 2015-06-11T15:00
Mumford_Cove 41.32526111 -72.02088 2015 monitoringMC_01 3151818 2015-06-11 15:30 18.71 8.19 46120 9.73 124.7 -61.07 29.98 2015-06-11T15:30
Mumford_Cove 41.32526111 -72.02088 2015 monitoringMC_01 3151818 2015-06-11 16:00 18.54 8.19 46200 9.79 125.2 -61.08 30.04 2015-06-11T16:00
Mumford_Cove 41.32526111 -72.02088 2015 monitoringMC_01 3151818 2015-06-11 16:30 18.32 8.18 46250 9.8 124.7 -60.47 30.07 2015-06-11T16:30
Mumford_Cove 41.32526111 -72.02088 2015 monitoringMC_01 3151818 2015-06-11 17:00 18.21 8.19 46210 9.86 125.3 -60.86 30.05 2015-06-11T17:00
Mumford_Cove 41.32526111 -72.02088 2015 monitoringMC_01 3151818 2015-06-11 17:30 18.06 8.2 46160 10.03 127.0 -61.47 30.01 2015-06-11T17:30
Mumford_Cove 41.32526111 -72.02088 2015 monitoringMC_01 3151818 2015-06-11 18:00 17.85 8.21 46250 10.07 127.1 -61.72 30.07 2015-06-11T18:00
Mumford_Cove 41.32526111 -72.02088 2015 monitoringMC_01 3151818 2015-06-11 18:30 17.87 8.21 46220 10.11 127.6 -61.95 30.05 2015-06-11T18:30
Mumford_Cove 41.32526111 -72.02088 2015 monitoringMC_01 3151818 2015-06-11 19:00 17.76 8.21 46290 10.16 128.0 -61.9 30.1 2015-06-11T19:00
Mumford_Cove 41.32526111 -72.02088 2015 monitoringMC_01 3151818 2015-06-11 19:30 17.64 8.21 46150 9.98 125.4 -61.7 30.0 2015-06-11T19:30
Mumford_Cove 41.32526111 -72.02088 2015 monitoringMC_01 3151818 2015-06-11 20:00 17.55 8.2 46190 9.93 124.6 -61.6 30.03 2015-06-11T20:00
Mumford_Cove 41.32526111 -72.02088 2015 monitoringMC_01 3151818 2015-06-11 20:30 17.65 8.21 46330 10.19 128.1 -62.18 30.13 2015-06-11T20:30
Mumford_Cove 41.32526111 -72.02088 2015 monitoringMC_01 3151818 2015-06-11 21:00 17.76 8.2 46270 9.76 123.0 -61.26 30.09 2015-06-11T21:00
Mumford_Cove 41.32526111 -72.02088 2015 monitoringMC_01 3151818 2015-06-11 21:30 17.92 8.2 46210 9.9 125.1 -61.48 30.04 2015-06-11T21:30
Mumford_Cove 41.32526111 -72.02088 2015 monitoringMC_01 3151818 2015-06-11 22:00 17.92 8.19 46170 9.68 122.3 -60.93 30.02 2015-06-11T22:00
Mumford_Cove 41.32526111 -72.02088 2015 monitoringMC_01 3151818 2015-06-11 22:30 18.07 8.18 46150 9.59 121.5 -60.25 30.0 2015-06-11T22:30
Mumford_Cove 41.32526111 -72.02088 2015 monitoringMC_01 3151818 2015-06-11 23:00 18.15 8.16 46230 9.39 119.1 -59.31 30.06 2015-06-11T23:00
Mumford_Cove 41.32526111 -72.02088 2015 monitoringMC_01 3151818 2015-06-11 23:30 18.41 8.16 46190 8.96 114.2 -59.01 30.03 2015-06-11T23:30
Mumford_Cove 41.32526111 -72.02088 2015 monitoringMC_01 3151818 2015-06-12 0:00 18.47 8.12 46370 8.82 112.7 -57.2 30.16 2015-06-12T00:00
Mumford_Cove 41.32526111 -72.02088 2015 monitoringMC_01 3151818 2015-06-12 0:30 18.69 8.1 46260 8.31 106.6 -55.91 30.08 2015-06-12T00:30
Mumford_Cove 41.32526111 -72.02088 2015 monitoringMC_01 3151818 2015-06-12 1:00 18.89 8.11 45900 8.48 109.0 -56.37 29.82 2015-06-12T01:00
Mumford_Cove 41.32526111 -72.02088 2015 monitoringMC_01 3151818 2015-06-12 1:30 18.64 8.05 46120 8.02 102.8 -53.19 29.98 2015-06-12T01:30
Mumford_Cove 41.32526111 -72.02088 2015 monitoringMC_01 3151818 2015-06-12 2:00 19.12 8.06 46020 7.94 102.5 -53.43 29.91 2015-06-12T02:00
Mumford_Cove 41.32526111 -72.02088 2015 monitoringMC_01 3151818 2015-06-12 2:30 19.88 8.1 45710 8.34 109.2 -56.38 29.68 2015-06-12T02:30
Mumford_Cove 41.32526111 -72.02088 2015 monitoringMC_01 3151818 2015-06-12 3:00 19.83 8.11 45750 8.18 106.9 -56.42 29.71 2015-06-12T03:00
Mumford_Cove 41.32526111 -72.02088 2015 monitoringMC_01 3151818 2015-06-12 3:30 19.39 8.1 45850 7.98 103.5 -55.92 29.78 2015-06-12T03:30
Mumford_Cove 41.32526111 -72.02088 2015 monitoringMC_01 3151818 2015-06-12 4:00 18.64 8.11 45990 8.13 104.0 -56.69 29.89 2015-06-12T04:00
Mumford_Cove 41.32526111 -72.02088 2015 monitoringMC_01 3151818 2015-06-12 4:30 17.89 8.1 46020 7.98 100.6 -55.67 29.91 2015-06-12T04:30
Mumford_Cove 41.32526111 -72.02088 2015 monitoringMC_01 3151818 2015-06-12 5:00 17.08 8.09 46210 7.91 98.3 -54.88 30.04 2015-06-12T05:00
Mumford_Cove 41.32526111 -72.02088 2015 monitoringMC_01 3151818 2015-06-12 5:30 16.7 8.08 46120 7.89 97.3 -54.3 29.97 2015-06-12T05:30
Mumford_Cove 41.32526111 -72.02088 2015 monitoringMC_01 3151818 2015-06-12 6:00 15.85 8.09 46310 8.02 97.3 -54.52 30.1 2015-06-12T06:00
Mumford_Cove 41.32526111 -72.02088 2015 monitoringMC_01 3151818 2015-06-12 6:30 15.86 8.09 46180 7.97 96.8 -54.58 30.0 2015-06-12T06:30
Mumford_Cove 41.32526111 -72.02088 2015 monitoringMC_01 3151818 2015-06-12 7:00 15.54 8.09 46320 8.05 97.1 -54.36 30.1 2015-06-12T07:00
Mumford_Cove 41.32526111 -72.02088 2015 monitoringMC_01 3151818 2015-06-12 7:30 15.41 8.08 46330 8.03 96.6 -54.26 30.1 2015-06-12T07:30
Mumford_Cove 41.32526111 -72.02088 2015 monitoringMC_01 3151818 2015-06-12 8:00 15.45 8.08 46330 8.01 96.5 -54.17 30.1 2015-06-12T08:00
Mumford_Cove 41.32526111 -72.02088 2015 monitoringMC_01 3151818 2015-06-12 8:30 15.54 8.09 46350 8.06 97.3 -54.61 30.12 2015-06-12T08:30
Mumford_Cove 41.32526111 -72.02088 2015 monitoringMC_01 3151818 2015-06-12 9:00 15.71 8.11 46200 8.24 99.7 -55.9 30.02 2015-06-12T09:00
Mumford_Cove 41.32526111 -72.02088 2015 monitoringMC_01 3151818 2015-06-12 9:30 15.93 8.14 46310 8.2 99.7 -57.66 30.1 2015-06-12T09:30
Mumford_Cove 41.32526111 -72.02088 2015 monitoringMC_01 3151818 2015-06-12 10:00 16.19 8.18 46250 8.53 104.2 -59.8 30.06 2015-06-12T10:00
Mumford_Cove 41.32526111 -72.02088 2015 monitoringMC_01 3151818 2015-06-12 10:30 16.18 8.16 46400 8.77 107.2 -58.99 30.17 2015-06-12T10:30
Mumford_Cove 41.32526111 -72.02088 2015 monitoringMC_01 3151818 2015-06-12 11:00 16.21 8.15 46290 8.69 106.2 -57.91 30.09 2015-06-12T11:00
Mumford_Cove 41.32526111 -72.02088 2015 monitoringMC_01 3151818 2015-06-12 11:30 16.95 8.18 46360 9.34 115.9 -59.86 30.15 2015-06-12T11:30
Mumford_Cove 41.32526111 -72.02088 2015 monitoringMC_01 3151818 2015-06-12 12:00 17.89 8.38 46400 11.65 147.2 -71.68 30.18 2015-06-12T12:00
Mumford_Cove 41.32526111 -72.02088 2015 monitoringMC_01 3151818 2015-06-12 12:30 17.86 8.43 46470 12.11 153.0 -74.49 30.23 2015-06-12T12:30
Mumford_Cove 41.32526111 -72.02088 2015 monitoringMC_01 3151818 2015-06-12 13:00 18.18 8.45 46140 12.8 162.5 -76.08 29.99 2015-06-12T13:00
Mumford_Cove 41.32526111 -72.02088 2015 monitoringMC_01 3151818 2015-06-12 13:30 18.16 8.31 46200 10.94 138.9 -67.9 30.04 2015-06-12T13:30
Mumford_Cove 41.32526111 -72.02088 2015 monitoringMC_01 3151818 2015-06-12 14:00 18.56 8.29 46220 10.96 140.2 -66.95 30.05 2015-06-12T14:00
Mumford_Cove 41.32526111 -72.02088 2015 monitoringMC_01 3151818 2015-06-12 14:30 19.69 8.29 46020 11.05 144.3 -66.81 29.91 2015-06-12T14:30
Mumford_Cove 41.32526111 -72.02088 2015 monitoringMC_01 3151818 2015-06-12 15:00 20.39 8.24 45930 10.65 140.8 -64.23 29.84 2015-06-12T15:00
Mumford_Cove 41.32526111 -72.02088 2015 monitoringMC_01 3151818 2015-06-12 15:30 20.18 8.23 46110 10.53 138.7 -63.92 29.97 2015-06-12T15:30
Mumford_Cove 41.32526111 -72.02088 2015 monitoringMC_01 3151818 2015-06-12 16:00 20.1 8.21 46130 10.31 135.7 -62.64 29.98 2015-06-12T16:00
Mumford_Cove 41.32526111 -72.02088 2015 monitoringMC_01 3151818 2015-06-12 16:30 19.88 8.2 46050 10.39 136.2 -62.01 29.93 2015-06-12T16:30
Mumford_Cove 41.32526111 -72.02088 2015 monitoringMC_01 3151818 2015-06-12 17:00 19.35 8.22 46230 10.53 136.8 -63.03 30.06 2015-06-12T17:00
Mumford_Cove 41.32526111 -72.02088 2015 monitoringMC_01 3151818 2015-06-12 17:30 18.73 8.25 46290 10.85 139.3 -64.46 30.1 2015-06-12T17:30
Mumford_Cove 41.32526111 -72.02088 2015 monitoringMC_01 3151818 2015-06-12 18:00 18.14 8.19 46270 10.04 127.4 -60.78 30.09 2015-06-12T18:00
Mumford_Cove 41.32526111 -72.02088 2015 monitoringMC_01 3151818 2015-06-12 18:30 18.66 8.18 46190 9.99 128.0 -60.34 30.03 2015-06-12T18:30
Mumford_Cove 41.32526111 -72.02088 2015 monitoringMC_01 3151818 2015-06-12 19:00 18.03 8.19 46270 10.07 127.5 -60.88 30.09 2015-06-12T19:00
Mumford_Cove 41.32526111 -72.02088 2015 monitoringMC_01 3151818 2015-06-12 19:30 17.89 8.19 46260 10.06 127.1 -60.98 30.08 2015-06-12T19:30
Mumford_Cove 41.32526111 -72.02088 2015 monitoringMC_01 3151818 2015-06-12 20:00 17.91 8.19 46310 9.97 126.0 -60.74 30.12 2015-06-12T20:00
Mumford_Cove 41.32526111 -72.02088 2015 monitoringMC_01 3151818 2015-06-12 20:30 17.78 8.18 46350 9.81 123.7 -60.24 30.15 2015-06-12T20:30
Mumford_Cove 41.32526111 -72.02088 2015 monitoringMC_01 3151818 2015-06-12 21:00 17.85 8.18 46290 9.83 124.1 -60.52 30.1 2015-06-12T21:00
Mumford_Cove 41.32526111 -72.02088 2015 monitoringMC_01 3151818 2015-06-12 21:30 17.76 8.17 46370 9.74 122.8 -59.81 30.16 2015-06-12T21:30
Mumford_Cove 41.32526111 -72.02088 2015 monitoringMC_01 3151818 2015-06-12 22:00 17.88 8.17 46340 9.75 123.2 -59.5 30.14 2015-06-12T22:00
Mumford_Cove 41.32526111 -72.02088 2015 monitoringMC_01 3151818 2015-06-12 22:30 17.86 8.14 46360 9.13 115.2 -58.03 30.15 2015-06-12T22:30
Mumford_Cove 41.32526111 -72.02088 2015 monitoringMC_01 3151818 2015-06-12 23:00 17.88 8.14 46350 8.94 112.9 -57.69 30.15 2015-06-12T23:00
Mumford_Cove 41.32526111 -72.02088 2015 monitoringMC_01 3151818 2015-06-12 23:30 17.98 8.13 46150 9.19 116.2 -57.67 30.0 2015-06-12T23:30
Mumford_Cove 41.32526111 -72.02088 2015 monitoringMC_01 3151818 2015-06-13 0:00 18.33 8.14 46200 9.08 115.6 -57.87 30.04 2015-06-13T00:00
Mumford_Cove 41.32526111 -72.02088 2015 monitoringMC_01 3151818 2015-06-13 0:30 18.28 8.14 46410 8.9 113.3 -57.79 30.19 2015-06-13T00:30
Mumford_Cove 41.32526111 -72.02088 2015 monitoringMC_01 3151818 2015-06-13 1:00 19.2 8.13 46240 9.08 117.6 -57.9 30.07 2015-06-13T01:00
Mumford_Cove 41.32526111 -72.02088 2015 monitoringMC_01 3151818 2015-06-13 1:30 18.79 8.09 46330 8.48 109.0 -55.36 30.13 2015-06-13T01:30
Mumford_Cove 41.32526111 -72.02088 2015 monitoringMC_01 3151818 2015-06-13 2:00 18.53 8.09 46310 8.3 106.1 -54.98 30.12 2015-06-13T02:00
Mumford_Cove 41.32526111 -72.02088 2015 monitoringMC_01 3151818 2015-06-13 2:30 18.62 8.06 46300 8.12 104.0 -53.54 30.11 2015-06-13T02:30
Mumford_Cove 41.32526111 -72.02088 2015 monitoringMC_01 3151818 2015-06-13 3:00 20.27 8.07 46020 8.02 105.9 -54.38 29.9 2015-06-13T03:00
Mumford_Cove 41.32526111 -72.02088 2015 monitoringMC_01 3151818 2015-06-13 3:30 19.95 8.07 46030 7.98 104.7 -54.37 29.91 2015-06-13T03:30
Mumford_Cove 41.32526111 -72.02088 2015 monitoringMC_01 3151818 2015-06-13 4:00 19.68 8.08 46090 8.01 104.6 -55.06 29.96 2015-06-13T04:00
Mumford_Cove 41.32526111 -72.02088 2015 monitoringMC_01 3151818 2015-06-13 4:30 19.39 8.06 46080 7.69 99.8 -53.68 29.95 2015-06-13T04:30
Mumford_Cove 41.32526111 -72.02088 2015 monitoringMC_01 3151818 2015-06-13 5:00 18.21 8.07 46200 7.8 99.1 -54.04 30.04 2015-06-13T05:00
Mumford_Cove 41.32526111 -72.02088 2015 monitoringMC_01 3151818 2015-06-13 5:30 17.8 8.07 46090 7.89 99.5 -54.07 29.96 2015-06-13T05:30
Mumford_Cove 41.32526111 -72.02088 2015 monitoringMC_01 3151818 2015-06-13 6:00 17.24 8.07 46210 7.84 97.7 -53.54 30.04 2015-06-13T06:00
Mumford_Cove 41.32526111 -72.02088 2015 monitoringMC_01 3151818 2015-06-13 6:30 16.55 8.07 46230 7.91 97.3 -53.63 30.05 2015-06-13T06:30
Mumford_Cove 41.32526111 -72.02088 2015 monitoringMC_01 3151818 2015-06-13 7:00 16.47 8.07 46170 7.86 96.5 -53.59 30.0 2015-06-13T07:00
Mumford_Cove 41.32526111 -72.02088 2015 monitoringMC_01 3151818 2015-06-13 7:30 16.45 8.06 46170 7.86 96.5 -53.19 30.0 2015-06-13T07:30
Mumford_Cove 41.32526111 -72.02088 2015 monitoringMC_01 3151818 2015-06-13 8:00 16.42 8.07 46220 7.92 97.2 -53.42 30.04 2015-06-13T08:00
Mumford_Cove 41.32526111 -72.02088 2015 monitoringMC_01 3151818 2015-06-13 8:30 16.34 8.07 46340 8.02 98.4 -53.54 30.13 2015-06-13T08:30
Mumford_Cove 41.32526111 -72.02088 2015 monitoringMC_01 3151818 2015-06-13 9:00 16.37 8.09 46260 8.28 101.6 -54.84 30.07 2015-06-13T09:00
Mumford_Cove 41.32526111 -72.02088 2015 monitoringMC_01 3151818 2015-06-13 9:30 16.37 8.11 46230 8.51 104.3 -56.06 30.05 2015-06-13T09:30
Mumford_Cove 41.32526111 -72.02088 2015 monitoringMC_01 3151818 2015-06-13 10:00 16.36 8.12 46270 8.65 106.1 -56.4 30.08 2015-06-13T10:00
Mumford_Cove 41.32526111 -72.02088 2015 monitoringMC_01 3151818 2015-06-13 10:30 16.45 8.14 46310 8.93 109.7 -57.62 30.11 2015-06-13T10:30
Mumford_Cove 41.32526111 -72.02088 2015 monitoringMC_01 3151818 2015-06-13 11:00 16.64 8.16 46410 9.3 114.8 -58.93 30.18 2015-06-13T11:00
Mumford_Cove 41.32526111 -72.02088 2015 monitoringMC_01 3151818 2015-06-13 11:30 16.87 8.2 46260 9.73 120.5 -61.13 30.07 2015-06-13T11:30
Mumford_Cove 41.32526111 -72.02088 2015 monitoringMC_01 3151818 2015-06-13 12:00 17.46 8.29 46350 10.92 136.9 -66.5 30.14 2015-06-13T12:00
Mumford_Cove 41.32526111 -72.02088 2015 monitoringMC_01 3151818 2015-06-13 12:30 17.36 8.25 46410 10.49 131.3 -64.1 30.19 2015-06-13T12:30
Mumford_Cove 41.32526111 -72.02088 2015 monitoringMC_01 3151818 2015-06-13 13:00 17.56 8.31 46420 11.36 142.7 -67.52 30.19 2015-06-13T13:00
Mumford_Cove 41.32526111 -72.02088 2015 monitoringMC_01 3151818 2015-06-13 13:30 18.2 8.33 46650 11.62 147.9 -69.07 30.36 2015-06-13T13:30
Mumford_Cove 41.32526111 -72.02088 2015 monitoringMC_01 3151818 2015-06-13 14:00 17.89 8.29 46400 11.28 142.5 -66.37 30.18 2015-06-13T14:00
Mumford_Cove 41.32526111 -72.02088 2015 monitoringMC_01 3151818 2015-06-13 14:30 18.89 8.32 46280 11.73 151.0 -68.5 30.1 2015-06-13T14:30
Mumford_Cove 41.32526111 -72.02088 2015 monitoringMC_01 3151818 2015-06-13 15:00 20.03 8.32 46030 11.74 154.2 -68.81 29.91 2015-06-13T15:00
Mumford_Cove 41.32526111 -72.02088 2015 monitoringMC_01 3151818 2015-06-13 15:30 21.66 8.29 45790 11.42 154.4 -67.4 29.72 2015-06-13T15:30
Mumford_Cove 41.32526111 -72.02088 2015 monitoringMC_01 3151818 2015-06-13 16:00 22.32 8.22 46090 10.79 147.8 -63.85 29.93 2015-06-13T16:00
Mumford_Cove 41.32526111 -72.02088 2015 monitoringMC_01 3151818 2015-06-13 16:30 21.83 8.2 46140 10.39 141.1 -62.37 29.98 2015-06-13T16:30
Mumford_Cove 41.32526111 -72.02088 2015 monitoringMC_01 3151818 2015-06-13 17:00 20.81 8.19 46260 10.25 136.8 -61.61 30.07 2015-06-13T17:00
Mumford_Cove 41.32526111 -72.02088 2015 monitoringMC_01 3151818 2015-06-13 17:30 20.24 8.18 46350 10.01 132.3 -60.67 30.14 2015-06-13T17:30
Mumford_Cove 41.32526111 -72.02088 2015 monitoringMC_01 3151818 2015-06-13 18:00 19.89 8.18 46310 10.09 132.3 -60.8 30.12 2015-06-13T18:00
Mumford_Cove 41.32526111 -72.02088 2015 monitoringMC_01 3151818 2015-06-13 18:30 19.07 8.18 46430 10.08 130.3 -60.76 30.21 2015-06-13T18:30
Mumford_Cove 41.32526111 -72.02088 2015 monitoringMC_01 3151818 2015-06-13 19:00 19.01 8.18 46470 9.95 128.4 -60.4 30.23 2015-06-13T19:00
Mumford_Cove 41.32526111 -72.02088 2015 monitoringMC_01 3151818 2015-06-13 19:30 18.46 8.18 46340 9.94 126.9 -60.31 30.14 2015-06-13T19:30
Mumford_Cove 41.32526111 -72.02088 2015 monitoringMC_01 3151818 2015-06-13 20:00 18.14 8.19 46380 10.0 127.0 -60.7 30.17 2015-06-13T20:00
Mumford_Cove 41.32526111 -72.02088 2015 monitoringMC_01 3151818 2015-06-13 20:30 18.15 8.18 46370 9.92 126.0 -60.2 30.16 2015-06-13T20:30
Mumford_Cove 41.32526111 -72.02088 2015 monitoringMC_01 3151818 2015-06-13 21:00 17.5 8.14 46370 9.27 116.2 -57.96 30.16 2015-06-13T21:00
Mumford_Cove 41.32526111 -72.02088 2015 monitoringMC_01 3151818 2015-06-13 21:30 17.36 8.14 46480 9.26 115.8 -57.69 30.24 2015-06-13T21:30
Mumford_Cove 41.32526111 -72.02088 2015 monitoringMC_01 3151818 2015-06-13 22:00 17.54 8.15 46400 9.4 118.0 -58.22 30.18 2015-06-13T22:00
Mumford_Cove 41.32526111 -72.02088 2015 monitoringMC_01 3151818 2015-06-13 22:30 17.77 8.14 46370 9.34 117.7 -57.67 30.16 2015-06-13T22:30
Mumford_Cove 41.32526111 -72.02088 2015 monitoringMC_01 3151818 2015-06-13 23:00 17.81 8.12 46490 9.11 115.1 -57.05 30.25 2015-06-13T23:00
Mumford_Cove 41.32526111 -72.02088 2015 monitoringMC_01 3151818 2015-06-13 23:30 17.76 8.07 46520 8.25 104.0 -54.14 30.27 2015-06-13T23:30
Mumford_Cove 41.32526111 -72.02088 2015 monitoringMC_01 3151818 2015-06-14 0:00 17.93 8.08 46480 8.64 109.3 -54.36 30.24 2015-06-14T00:00
Mumford_Cove 41.32526111 -72.02088 2015 monitoringMC_01 3151818 2015-06-14 0:30 18.04 8.08 46490 8.5 107.8 -54.6 30.25 2015-06-14T00:30
Mumford_Cove 41.32526111 -72.02088 2015 monitoringMC_01 3151818 2015-06-14 1:00 17.98 8.08 46480 8.54 108.2 -54.67 30.24 2015-06-14T01:00
Mumford_Cove 41.32526111 -72.02088 2015 monitoringMC_01 3151818 2015-06-14 1:30 19.02 8.07 46360 8.42 108.7 -54.27 30.15 2015-06-14T01:30
Mumford_Cove 41.32526111 -72.02088 2015 monitoringMC_01 3151818 2015-06-14 2:00 19.71 8.04 46170 7.87 102.8 -52.57 30.02 2015-06-14T02:00
Mumford_Cove 41.32526111 -72.02088 2015 monitoringMC_01 3151818 2015-06-14 2:30 18.53 7.9 46450 6.2 79.4 -44.56 30.22 2015-06-14T02:30
Mumford_Cove 41.32526111 -72.02088 2015 monitoringMC_01 3151818 2015-06-14 3:00 19.4 8.0 46340 7.6 98.9 -50.39 30.14 2015-06-14T03:00
Mumford_Cove 41.32526111 -72.02088 2015 monitoringMC_01 3151818 2015-06-14 3:30 19.01 7.92 46210 6.53 84.3 -45.76 30.05 2015-06-14T03:30
Mumford_Cove 41.32526111 -72.02088 2015 monitoringMC_01 3151818 2015-06-14 4:00 20.32 8.03 45970 7.44 98.2 -52.01 29.87 2015-06-14T04:00
Mumford_Cove 41.32526111 -72.02088 2015 monitoringMC_01 3151818 2015-06-14 4:30 20.09 8.02 46040 7.3 96.0 -51.56 29.92 2015-06-14T04:30
Mumford_Cove 41.32526111 -72.02088 2015 monitoringMC_01 3151818 2015-06-14 5:00 19.6 8.04 46130 7.4 96.5 -52.74 29.99 2015-06-14T05:00
Mumford_Cove 41.32526111 -72.02088 2015 monitoringMC_01 3151818 2015-06-14 5:30 18.34 8.05 46240 7.43 94.7 -52.73 30.07 2015-06-14T05:30
Mumford_Cove 41.32526111 -72.02088 2015 monitoringMC_01 3151818 2015-06-14 6:00 16.29 8.06 46540 7.73 94.8 -53.02 30.27 2015-06-14T06:00
Mumford_Cove 41.32526111 -72.02088 2015 monitoringMC_01 3151818 2015-06-14 6:30 15.76 8.06 46550 7.8 94.6 -52.92 30.27 2015-06-14T06:30
Mumford_Cove 41.32526111 -72.02088 2015 monitoringMC_01 3151818 2015-06-14 7:00 15.5 8.06 46480 7.88 95.0 -52.88 30.21 2015-06-14T07:00
Mumford_Cove 41.32526111 -72.02088 2015 monitoringMC_01 3151818 2015-06-14 7:30 15.36 8.06 46500 7.84 94.3 -52.65 30.23 2015-06-14T07:30
Mumford_Cove 41.32526111 -72.02088 2015 monitoringMC_01 3151818 2015-06-14 8:00 15.3 8.06 46530 7.94 95.4 -53.09 30.25 2015-06-14T08:00
Mumford_Cove 41.32526111 -72.02088 2015 monitoringMC_01 3151818 2015-06-14 8:30 15.28 8.07 46530 8.08 97.1 -53.61 30.25 2015-06-14T08:30
Mumford_Cove 41.32526111 -72.02088 2015 monitoringMC_01 3151818 2015-06-14 9:00 15.24 8.08 46520 8.2 98.4 -54.14 30.24 2015-06-14T09:00
Mumford_Cove 41.32526111 -72.02088 2015 monitoringMC_01 3151818 2015-06-14 9:30 15.35 8.09 46420 8.33 100.1 -54.34 30.17 2015-06-14T09:30
Mumford_Cove 41.32526111 -72.02088 2015 monitoringMC_01 3151818 2015-06-14 10:00 15.53 8.1 46460 8.34 100.7 -55.03 30.2 2015-06-14T10:00
Mumford_Cove 41.32526111 -72.02088 2015 monitoringMC_01 3151818 2015-06-14 10:30 15.59 8.12 46490 8.67 104.8 -56.42 30.22 2015-06-14T10:30
Mumford_Cove 41.32526111 -72.02088 2015 monitoringMC_01 3151818 2015-06-14 11:00 15.74 8.14 46420 9.04 109.6 -57.68 30.17 2015-06-14T11:00
Mumford_Cove 41.32526111 -72.02088 2015 monitoringMC_01 3151818 2015-06-14 11:30 15.9 8.16 46550 9.29 113.0 -58.91 30.27 2015-06-14T11:30
Mumford_Cove 41.32526111 -72.02088 2015 monitoringMC_01 3151818 2015-06-14 12:00 16.1 8.18 46430 9.56 116.7 -60.12 30.19 2015-06-14T12:00
Mumford_Cove 41.32526111 -72.02088 2015 monitoringMC_01 3151818 2015-06-14 12:30 16.27 8.21 46400 10.01 122.5 -61.82 30.17 2015-06-14T12:30
Mumford_Cove 41.32526111 -72.02088 2015 monitoringMC_01 3151818 2015-06-14 13:00 16.91 8.21 46510 10.17 126.2 -62.01 30.25 2015-06-14T13:00
Mumford_Cove 41.32526111 -72.02088 2015 monitoringMC_01 3151818 2015-06-14 13:30 17.09 8.3 46600 10.96 136.5 -66.64 30.32 2015-06-14T13:30
Mumford_Cove 41.32526111 -72.02088 2015 monitoringMC_01 3151818 2015-06-14 14:00 17.81 8.31 46580 11.44 144.4 -67.4 30.31 2015-06-14T14:00
Mumford_Cove 41.32526111 -72.02088 2015 monitoringMC_01 3151818 2015-06-14 14:30 17.77 8.43 46440 12.66 159.6 -74.44 30.21 2015-06-14T14:30
Mumford_Cove 41.32526111 -72.02088 2015 monitoringMC_01 3151818 2015-06-14 15:00 18.49 8.3 46330 11.52 147.3 -67.12 30.13 2015-06-14T15:00
Mumford_Cove 41.32526111 -72.02088 2015 monitoringMC_01 3151818 2015-06-14 15:30 18.31 8.4 46380 12.48 158.9 -73.05 30.17 2015-06-14T15:30
Mumford_Cove 41.32526111 -72.02088 2015 monitoringMC_01 3151818 2015-06-14 16:00 19.11 8.38 46310 12.63 163.3 -72.28 30.12 2015-06-14T16:00
Mumford_Cove 41.32526111 -72.02088 2015 monitoringMC_01 3151818 2015-06-14 16:30 21.01 8.35 46190 12.11 162.1 -70.75 30.02 2015-06-14T16:30
Mumford_Cove 41.32526111 -72.02088 2015 monitoringMC_01 3151818 2015-06-14 17:00 21.46 8.28 46190 11.19 151.0 -66.65 30.02 2015-06-14T17:00
Mumford_Cove 41.32526111 -72.02088 2015 monitoringMC_01 3151818 2015-06-14 17:30 21.52 8.23 46260 10.67 144.2 -64.07 30.07 2015-06-14T17:30
Mumford_Cove 41.32526111 -72.02088 2015 monitoringMC_01 3151818 2015-06-14 18:00 20.69 8.23 46400 10.59 141.1 -63.73 30.18 2015-06-14T18:00
Mumford_Cove 41.32526111 -72.02088 2015 monitoringMC_01 3151818 2015-06-14 18:30 19.43 8.21 46510 10.31 134.2 -62.13 30.26 2015-06-14T18:30
Mumford_Cove 41.32526111 -72.02088 2015 monitoringMC_01 3151818 2015-06-14 19:00 18.64 8.22 46560 10.27 131.7 -62.45 30.3 2015-06-14T19:00
Mumford_Cove 41.32526111 -72.02088 2015 monitoringMC_01 3151818 2015-06-14 19:30 18.18 8.21 46490 10.04 127.7 -62.02 30.25 2015-06-14T19:30
Mumford_Cove 41.32526111 -72.02088 2015 monitoringMC_01 3151818 2015-06-14 20:00 17.7 8.19 46610 9.79 123.3 -60.66 30.33 2015-06-14T20:00
Mumford_Cove 41.32526111 -72.02088 2015 monitoringMC_01 3151818 2015-06-14 20:30 17.47 8.17 46450 9.48 118.9 -59.4 30.22 2015-06-14T20:30
Mumford_Cove 41.32526111 -72.02088 2015 monitoringMC_01 3151818 2015-06-14 21:00 17.13 8.16 46560 9.35 116.5 -59.07 30.29 2015-06-14T21:00
Mumford_Cove 41.32526111 -72.02088 2015 monitoringMC_01 3151818 2015-06-14 21:30 17.09 8.14 46500 9.07 112.9 -57.95 30.25 2015-06-14T21:30
Mumford_Cove 41.32526111 -72.02088 2015 monitoringMC_01 3151818 2015-06-14 22:00 17.01 8.14 46480 9.01 112.0 -57.68 30.23 2015-06-14T22:00
Mumford_Cove 41.32526111 -72.02088 2015 monitoringMC_01 3151818 2015-06-14 22:30 17.11 8.13 46450 8.99 111.9 -57.27 30.21 2015-06-14T22:30
Mumford_Cove 41.32526111 -72.02088 2015 monitoringMC_01 3151818 2015-06-14 23:00 17.22 8.13 46560 8.9 111.1 -57.27 30.29 2015-06-14T23:00
Mumford_Cove 41.32526111 -72.02088 2015 monitoringMC_01 3151818 2015-06-14 23:30 17.23 8.12 46520 8.78 109.6 -56.67 30.26 2015-06-14T23:30
Mumford_Cove 41.32526111 -72.02088 2015 monitoringMC_01 3151818 2015-06-15 0:00 17.29 8.1 46480 8.41 105.1 -55.78 30.24 2015-06-15T00:00
Mumford_Cove 41.32526111 -72.02088 2015 monitoringMC_01 3151818 2015-06-15 0:30 17.27 8.1 46500 8.42 105.2 -55.38 30.25 2015-06-15T00:30
Mumford_Cove 41.32526111 -72.02088 2015 monitoringMC_01 3151818 2015-06-15 1:00 17.44 8.07 46520 8.18 102.5 -53.99 30.27 2015-06-15T01:00
Mumford_Cove 41.32526111 -72.02088 2015 monitoringMC_01 3151818 2015-06-15 1:30 17.91 8.07 46490 7.88 99.7 -53.96 30.25 2015-06-15T01:30
Mumford_Cove 41.32526111 -72.02088 2015 monitoringMC_01 3151818 2015-06-15 2:00 19.58 8.08 46500 7.94 103.7 -54.94 30.25 2015-06-15T02:00
Mumford_Cove 41.32526111 -72.02088 2015 monitoringMC_01 3151818 2015-06-15 2:30 20.78 8.07 46220 7.7 102.7 -54.69 30.04 2015-06-15T02:30
Mumford_Cove 41.32526111 -72.02088 2015 monitoringMC_01 3151818 2015-06-15 3:00 21.47 8.09 46220 7.79 105.2 -56.05 30.04 2015-06-15T03:00
Mumford_Cove 41.32526111 -72.02088 2015 monitoringMC_01 3151818 2015-06-15 3:30 20.36 8.06 46320 7.2 95.3 -53.68 30.12 2015-06-15T03:30
Mumford_Cove 41.32526111 -72.02088 2015 monitoringMC_01 3151818 2015-06-15 4:00 20.4 8.07 46320 7.61 100.8 -54.66 30.12 2015-06-15T04:00
Mumford_Cove 41.32526111 -72.02088 2015 monitoringMC_01 3151818 2015-06-15 4:30 19.88 7.96 46150 6.39 83.8 -48.03 30.0 2015-06-15T04:30
Mumford_Cove 41.32526111 -72.02088 2015 monitoringMC_01 3151818 2015-06-15 5:00 20.4 8.03 46140 6.96 92.1 -52.36 29.99 2015-06-15T05:00
Mumford_Cove 41.32526111 -72.02088 2015 monitoringMC_01 3151818 2015-06-15 5:30 19.91 8.04 46170 6.97 91.4 -52.82 30.01 2015-06-15T05:30
Mumford_Cove 41.32526111 -72.02088 2015 monitoringMC_01 3151818 2015-06-15 6:00 19.47 8.05 46210 6.95 90.5 -53.06 30.04 2015-06-15T06:00
Mumford_Cove 41.32526111 -72.02088 2015 monitoringMC_01 3151818 2015-06-15 6:30 17.7 8.09 46370 7.41 93.3 -54.93 30.16 2015-06-15T06:30
Mumford_Cove 41.32526111 -72.02088 2015 monitoringMC_01 3151818 2015-06-15 7:00 17.37 8.07 46260 7.28 91.0 -53.7 30.08 2015-06-15T07:00
Mumford_Cove 41.32526111 -72.02088 2015 monitoringMC_01 3151818 2015-06-15 7:30 16.93 8.07 46310 7.53 93.4 -53.86 30.11 2015-06-15T07:30
Mumford_Cove 41.32526111 -72.02088 2015 monitoringMC_01 3151818 2015-06-15 8:00 16.57 8.06 46130 7.54 92.8 -53.36 29.98 2015-06-15T08:00
Mumford_Cove 41.32526111 -72.02088 2015 monitoringMC_01 3151818 2015-06-15 8:30 15.91 8.07 46110 7.72 93.7 -53.57 29.95 2015-06-15T08:30
Mumford_Cove 41.32526111 -72.02088 2015 monitoringMC_01 3151818 2015-06-15 9:00 16.14 8.06 46060 7.58 92.5 -53.01 29.92 2015-06-15T09:00
Mumford_Cove 41.32526111 -72.02088 2015 monitoringMC_01 3151818 2015-06-15 9:30 16.08 8.06 46070 7.53 91.8 -52.74 29.93 2015-06-15T09:30
Mumford_Cove 41.32526111 -72.02088 2015 monitoringMC_01 3151818 2015-06-15 10:00 16.6 8.03 46080 7.32 90.1 -51.49 29.94 2015-06-15T10:00
Mumford_Cove 41.32526111 -72.02088 2015 monitoringMC_01 3151818 2015-06-15 10:30 16.66 8.02 46070 7.23 89.1 -51.12 29.93 2015-06-15T10:30
Mumford_Cove 41.32526111 -72.02088 2015 monitoringMC_01 3151818 2015-06-15 11:00 16.99 8.02 46070 7.07 87.7 -50.97 29.94 2015-06-15T11:00
Mumford_Cove 41.32526111 -72.02088 2015 monitoringMC_01 3151818 2015-06-15 11:30 17.33 8.03 46140 7.21 90.0 -51.42 29.99 2015-06-15T11:30
Mumford_Cove 41.32526111 -72.02088 2015 monitoringMC_01 3151818 2015-06-15 12:00 17.12 8.05 46150 7.31 90.9 -52.42 30.0 2015-06-15T12:00
Mumford_Cove 41.32526111 -72.02088 2015 monitoringMC_01 3151818 2015-06-15 12:30 17.35 8.04 46150 7.15 89.4 -52.08 30.0 2015-06-15T12:30
Mumford_Cove 41.32526111 -72.02088 2015 monitoringMC_01 3151818 2015-06-15 13:00 17.62 8.04 46300 7.08 89.0 -51.95 30.11 2015-06-15T13:00
Mumford_Cove 41.32526111 -72.02088 2015 monitoringMC_01 3151818 2015-06-15 13:30 17.65 8.0 46200 6.65 83.6 -49.63 30.04 2015-06-15T13:30
Mumford_Cove 41.32526111 -72.02088 2015 monitoringMC_01 3151818 2015-06-15 14:00 18.31 8.02 46040 6.79 86.4 -51.31 29.92 2015-06-15T14:00
Mumford_Cove 41.32526111 -72.02088 2015 monitoringMC_01 3151818 2015-06-15 14:30 19.05 8.04 45940 7.02 90.5 -52.49 29.85 2015-06-15T14:30
Mumford_Cove 41.32526111 -72.02088 2015 monitoringMC_01 3151818 2015-06-15 15:00 18.56 8.05 45840 7.18 91.6 -52.88 29.78 2015-06-15T15:00
Mumford_Cove 41.32526111 -72.02088 2015 monitoringMC_01 3151818 2015-06-15 15:30 18.65 8.06 45830 7.24 92.6 -53.52 29.77 2015-06-15T15:30
Mumford_Cove 41.32526111 -72.02088 2015 monitoringMC_01 3151818 2015-06-15 16:00 18.48 8.1 45840 7.76 99.0 -56.08 29.78 2015-06-15T16:00
Mumford_Cove 41.32526111 -72.02088 2015 monitoringMC_01 3151818 2015-06-15 16:30 17.25 7.99 45830 6.88 85.7 -49.23 29.77 2015-06-15T16:30
Mumford_Cove 41.32526111 -72.02088 2015 monitoringMC_01 3151818 2015-06-15 17:00 18.54 8.04 45620 7.17 91.4 -52.55 29.62 2015-06-15T17:00
Mumford_Cove 41.32526111 -72.02088 2015 monitoringMC_01 3151818 2015-06-15 17:30 18.23 8.07 45640 7.49 94.9 -53.87 29.63 2015-06-15T17:30
Mumford_Cove 41.32526111 -72.02088 2015 monitoringMC_01 3151818 2015-06-15 18:00 17.71 8.07 45680 7.6 95.4 -54.01 29.66 2015-06-15T18:00
Mumford_Cove 41.32526111 -72.02088 2015 monitoringMC_01 3151818 2015-06-15 18:30 17.19 8.07 45660 7.65 95.1 -54.02 29.64 2015-06-15T18:30
Mumford_Cove 41.32526111 -72.02088 2015 monitoringMC_01 3151818 2015-06-15 19:00 16.26 8.07 45810 7.78 95.0 -53.56 29.74 2015-06-15T19:00
Mumford_Cove 41.32526111 -72.02088 2015 monitoringMC_01 3151818 2015-06-15 19:30 15.89 8.07 46150 7.81 94.8 -53.42 29.98 2015-06-15T19:30
Mumford_Cove 41.32526111 -72.02088 2015 monitoringMC_01 3151818 2015-06-15 20:00 15.58 8.07 46080 7.83 94.5 -53.32 29.93 2015-06-15T20:00
Mumford_Cove 41.32526111 -72.02088 2015 monitoringMC_01 3151818 2015-06-15 20:30 15.4 8.06 46140 7.8 93.8 -53.12 29.97 2015-06-15T20:30
Mumford_Cove 41.32526111 -72.02088 2015 monitoringMC_01 3151818 2015-06-15 21:00 15.36 8.07 46170 7.76 93.3 -53.25 29.99 2015-06-15T21:00
Mumford_Cove 41.32526111 -72.02088 2015 monitoringMC_01 3151818 2015-06-15 21:30 15.11 8.07 46360 7.71 92.3 -53.11 30.12 2015-06-15T21:30
Mumford_Cove 41.32526111 -72.02088 2015 monitoringMC_01 3151818 2015-06-15 22:00 15.02 8.06 46340 7.66 91.5 -52.85 30.1 2015-06-15T22:00
Mumford_Cove 41.32526111 -72.02088 2015 monitoringMC_01 3151818 2015-06-15 22:30 14.95 8.06 46320 7.66 91.3 -52.86 30.09 2015-06-15T22:30
Mumford_Cove 41.32526111 -72.02088 2015 monitoringMC_01 3151818 2015-06-15 23:00 14.93 8.06 46450 7.61 90.7 -52.63 30.18 2015-06-15T23:00
Mumford_Cove 41.32526111 -72.02088 2015 monitoringMC_01 3151818 2015-06-15 23:30 15.01 8.05 46420 7.51 89.7 -52.2 30.16 2015-06-15T23:30
Mumford_Cove 41.32526111 -72.02088 2015 monitoringMC_01 3151818 2015-06-16 0:00 14.95 8.05 46410 7.43 88.6 -52.1 30.15 2015-06-16T00:00
Mumford_Cove 41.32526111 -72.02088 2015 monitoringMC_01 3151818 2015-06-16 0:30 14.97 8.04 46350 7.35 87.7 -51.8 30.11 2015-06-16T00:30
Mumford_Cove 41.32526111 -72.02088 2015 monitoringMC_01 3151818 2015-06-16 1:00 15.0 8.04 46400 7.26 86.7 -51.56 30.15 2015-06-16T01:00
Mumford_Cove 41.32526111 -72.02088 2015 monitoringMC_01 3151818 2015-06-16 1:30 15.04 8.02 46340 6.89 82.3 -50.6 30.1 2015-06-16T01:30
Mumford_Cove 41.32526111 -72.02088 2015 monitoringMC_01 3151818 2015-06-16 2:00 15.01 8.0 46370 6.76 80.8 -49.52 30.13 2015-06-16T02:00
Mumford_Cove 41.32526111 -72.02088 2015 monitoringMC_01 3151818 2015-06-16 2:30 15.09 8.01 46370 6.89 82.5 -50.01 30.13 2015-06-16T02:30
Mumford_Cove 41.32526111 -72.02088 2015 monitoringMC_01 3151818 2015-06-16 3:00 15.27 7.99 46230 6.67 80.0 -49.13 30.03 2015-06-16T03:00
Mumford_Cove 41.32526111 -72.02088 2015 monitoringMC_01 3151818 2015-06-16 3:30 15.3 7.98 46240 6.62 79.4 -48.55 30.04 2015-06-16T03:30
Mumford_Cove 41.32526111 -72.02088 2015 monitoringMC_01 3151818 2015-06-16 4:00 15.21 7.95 46290 6.2 74.3 -46.63 30.07 2015-06-16T04:00
Mumford_Cove 41.32526111 -72.02088 2015 monitoringMC_01 3151818 2015-06-16 4:30 15.52 7.97 46090 6.52 78.6 -47.51 29.93 2015-06-16T04:30
Mumford_Cove 41.32526111 -72.02088 2015 monitoringMC_01 3151818 2015-06-16 5:00 15.53 7.83 46220 5.19 62.6 -40.11 30.03 2015-06-16T05:00
Mumford_Cove 41.32526111 -72.02088 2015 monitoringMC_01 3151818 2015-06-16 5:30 15.93 7.82 45950 5.03 61.1 -39.07 29.84 2015-06-16T05:30
Mumford_Cove 41.32526111 -72.02088 2015 monitoringMC_01 3151818 2015-06-16 6:00 17.0 7.84 45130 5.23 64.6 -40.38 29.26 2015-06-16T06:00
Mumford_Cove 41.32526111 -72.02088 2015 monitoringMC_01 3151818 2015-06-16 6:30 16.91 7.85 44870 5.52 68.0 -41.27 29.07 2015-06-16T06:30
Mumford_Cove 41.32526111 -72.02088 2015 monitoringMC_01 3151818 2015-06-16 7:00 16.43 7.87 45250 5.66 69.2 -42.12 29.34 2015-06-16T07:00
Mumford_Cove 41.32526111 -72.02088 2015 monitoringMC_01 3151818 2015-06-16 7:30 15.59 7.94 45820 6.4 77.2 -45.94 29.74 2015-06-16T07:30
Mumford_Cove 41.32526111 -72.02088 2015 monitoringMC_01 3151818 2015-06-16 8:00 15.16 7.98 46210 6.79 81.3 -48.23 30.01 2015-06-16T08:00
Mumford_Cove 41.32526111 -72.02088 2015 monitoringMC_01 3151818 2015-06-16 8:30 15.02 8.0 46380 7.04 84.0 -49.63 30.13 2015-06-16T08:30
Mumford_Cove 41.32526111 -72.02088 2015 monitoringMC_01 3151818 2015-06-16 9:00 15.0 8.02 46370 7.22 86.2 -50.54 30.13 2015-06-16T09:00
Mumford_Cove 41.32526111 -72.02088 2015 monitoringMC_01 3151818 2015-06-16 9:30 14.99 8.04 46410 7.39 88.2 -51.5 30.15 2015-06-16T09:30
Mumford_Cove 41.32526111 -72.02088 2015 monitoringMC_01 3151818 2015-06-16 10:00 15.06 8.04 46440 7.41 88.6 -51.62 30.18 2015-06-16T10:00
Mumford_Cove 41.32526111 -72.02088 2015 monitoringMC_01 3151818 2015-06-16 10:30 15.13 8.06 46450 7.54 90.3 -52.67 30.19 2015-06-16T10:30
Mumford_Cove 41.32526111 -72.02088 2015 monitoringMC_01 3151818 2015-06-16 11:00 15.24 8.07 46420 7.78 93.4 -53.5 30.17 2015-06-16T11:00
Mumford_Cove 41.32526111 -72.02088 2015 monitoringMC_01 3151818 2015-06-16 11:30 15.28 8.08 46410 7.83 94.1 -53.77 30.16 2015-06-16T11:30
Mumford_Cove 41.32526111 -72.02088 2015 monitoringMC_01 3151818 2015-06-16 12:00 15.4 8.09 46310 8.03 96.6 -54.83 30.09 2015-06-16T12:00
Mumford_Cove 41.32526111 -72.02088 2015 monitoringMC_01 3151818 2015-06-16 12:30 15.5 8.1 46430 8.06 97.2 -55.35 30.18 2015-06-16T12:30
Mumford_Cove 41.32526111 -72.02088 2015 monitoringMC_01 3151818 2015-06-16 13:00 15.48 8.13 46420 8.27 99.8 -56.73 30.17 2015-06-16T13:00
Mumford_Cove 41.32526111 -72.02088 2015 monitoringMC_01 3151818 2015-06-16 13:30 15.54 8.15 46310 8.58 103.5 -58.09 30.09 2015-06-16T13:30
Mumford_Cove 41.32526111 -72.02088 2015 monitoringMC_01 3151818 2015-06-16 14:00 15.59 8.15 46410 8.73 105.4 -57.74 30.17 2015-06-16T14:00
Mumford_Cove 41.32526111 -72.02088 2015 monitoringMC_01 3151818 2015-06-16 14:30 15.65 8.16 46360 8.83 106.8 -58.42 30.13 2015-06-16T14:30
Mumford_Cove 41.32526111 -72.02088 2015 monitoringMC_01 3151818 2015-06-16 15:00 15.7 8.16 46310 9.04 109.4 -58.61 30.09 2015-06-16T15:00
Mumford_Cove 41.32526111 -72.02088 2015 monitoringMC_01 3151818 2015-06-16 15:30 15.73 8.2 46300 9.62 116.5 -60.8 30.09 2015-06-16T15:30
Mumford_Cove 41.32526111 -72.02088 2015 monitoringMC_01 3151818 2015-06-16 16:00 15.8 8.3 46300 10.45 126.7 -66.4 30.09 2015-06-16T16:00
Mumford_Cove 41.32526111 -72.02088 2015 monitoringMC_01 3151818 2015-06-16 16:30 16.19 8.18 46010 9.28 113.3 -59.69 29.88 2015-06-16T16:30
Mumford_Cove 41.32526111 -72.02088 2015 monitoringMC_01 3151818 2015-06-16 17:00 16.11 8.25 46220 10.08 123.0 -63.69 30.04 2015-06-16T17:00
Mumford_Cove 41.32526111 -72.02088 2015 monitoringMC_01 3151818 2015-06-16 17:30 16.21 8.24 46220 9.99 122.1 -63.46 30.04 2015-06-16T17:30
Mumford_Cove 41.32526111 -72.02088 2015 monitoringMC_01 3151818 2015-06-16 18:00 17.51 8.21 45710 9.59 119.9 -61.7 29.68 2015-06-16T18:00
Mumford_Cove 41.32526111 -72.02088 2015 monitoringMC_01 3151818 2015-06-16 18:30 17.76 8.19 45540 9.52 119.5 -60.7 29.56 2015-06-16T18:30
Mumford_Cove 41.32526111 -72.02088 2015 monitoringMC_01 3151818 2015-06-16 19:00 17.61 8.16 45810 9.14 114.6 -59.11 29.75 2015-06-16T19:00
Mumford_Cove 41.32526111 -72.02088 2015 monitoringMC_01 3151818 2015-06-16 19:30 17.49 8.16 46110 9.11 114.1 -58.74 29.97 2015-06-16T19:30
Mumford_Cove 41.32526111 -72.02088 2015 monitoringMC_01 3151818 2015-06-16 20:00 17.35 8.16 46140 9.19 114.9 -58.91 29.99 2015-06-16T20:00
Mumford_Cove 41.32526111 -72.02088 2015 monitoringMC_01 3151818 2015-06-16 20:30 16.77 8.15 46290 8.98 111.0 -58.03 30.09 2015-06-16T20:30
Mumford_Cove 41.32526111 -72.02088 2015 monitoringMC_01 3151818 2015-06-16 21:00 16.5 8.14 46380 8.88 109.3 -57.76 30.16 2015-06-16T21:00
Mumford_Cove 41.32526111 -72.02088 2015 monitoringMC_01 3151818 2015-06-16 21:30 16.4 8.13 46400 8.79 108.0 -57.25 30.17 2015-06-16T21:30
Mumford_Cove 41.32526111 -72.02088 2015 monitoringMC_01 3151818 2015-06-16 22:00 16.23 8.13 46450 8.73 106.9 -57.2 30.2 2015-06-16T22:00
Mumford_Cove 41.32526111 -72.02088 2015 monitoringMC_01 3151818 2015-06-16 22:30 16.1 8.12 46470 8.51 103.9 -56.38 30.22 2015-06-16T22:30
Mumford_Cove 41.32526111 -72.02088 2015 monitoringMC_01 3151818 2015-06-16 23:00 16.08 8.11 46430 8.39 102.4 -55.84 30.19 2015-06-16T23:00
Mumford_Cove 41.32526111 -72.02088 2015 monitoringMC_01 3151818 2015-06-16 23:30 16.1 8.11 46330 8.34 101.7 -55.73 30.12 2015-06-16T23:30
Mumford_Cove 41.32526111 -72.02088 2015 monitoringMC_01 3151818 2015-06-17 0:00 16.09 8.1 46460 8.22 100.3 -55.22 30.21 2015-06-17T00:00
Mumford_Cove 41.32526111 -72.02088 2015 monitoringMC_01 3151818 2015-06-17 0:30 16.04 8.08 46410 7.95 96.9 -54.3 30.17 2015-06-17T00:30
Mumford_Cove 41.32526111 -72.02088 2015 monitoringMC_01 3151818 2015-06-17 1:00 16.1 8.08 46410 7.97 97.3 -54.26 30.17 2015-06-17T01:00
Mumford_Cove 41.32526111 -72.02088 2015 monitoringMC_01 3151818 2015-06-17 1:30 16.2 8.08 46370 7.84 95.8 -54.05 30.15 2015-06-17T01:30
Mumford_Cove 41.32526111 -72.02088 2015 monitoringMC_01 3151818 2015-06-17 2:00 16.22 8.05 46410 7.59 92.9 -52.47 30.17 2015-06-17T02:00
Mumford_Cove 41.32526111 -72.02088 2015 monitoringMC_01 3151818 2015-06-17 2:30 16.25 8.04 46510 7.41 90.7 -51.98 30.25 2015-06-17T02:30
Mumford_Cove 41.32526111 -72.02088 2015 monitoringMC_01 3151818 2015-06-17 3:00 16.31 8.04 46430 7.5 91.9 -52.12 30.19 2015-06-17T03:00
Mumford_Cove 41.32526111 -72.02088 2015 monitoringMC_01 3151818 2015-06-17 3:30 17.0 8.02 46160 7.34 91.1 -51.02 30.0 2015-06-17T03:30
Mumford_Cove 41.32526111 -72.02088 2015 monitoringMC_01 3151818 2015-06-17 4:00 17.38 8.01 45630 7.31 91.2 -50.17 29.62 2015-06-17T04:00
Mumford_Cove 41.32526111 -72.02088 2015 monitoringMC_01 3151818 2015-06-17 4:30 17.45 7.94 45900 6.51 81.4 -46.6 29.82 2015-06-17T04:30
Mumford_Cove 41.32526111 -72.02088 2015 monitoringMC_01 3151818 2015-06-17 5:00 17.25 7.88 46020 5.52 68.8 -42.93 29.9 2015-06-17T05:00
Mumford_Cove 41.32526111 -72.02088 2015 monitoringMC_01 3151818 2015-06-17 5:30 17.28 7.9 45880 5.87 73.1 -44.05 29.8 2015-06-17T05:30
Mumford_Cove 41.32526111 -72.02088 2015 monitoringMC_01 3151818 2015-06-17 6:00 17.49 7.9 45620 6.06 75.8 -44.09 29.62 2015-06-17T06:00
Mumford_Cove 41.32526111 -72.02088 2015 monitoringMC_01 3151818 2015-06-17 6:30 17.73 7.97 45280 6.83 85.7 -48.39 29.37 2015-06-17T06:30
Mumford_Cove 41.32526111 -72.02088 2015 monitoringMC_01 3151818 2015-06-17 7:00 17.48 7.98 45510 6.91 86.4 -48.83 29.54 2015-06-17T07:00
Mumford_Cove 41.32526111 -72.02088 2015 monitoringMC_01 3151818 2015-06-17 7:30 16.96 8.02 45380 7.32 90.4 -51.12 29.44 2015-06-17T07:30
Mumford_Cove 41.32526111 -72.02088 2015 monitoringMC_01 3151818 2015-06-17 8:00 16.61 8.03 45770 7.39 90.8 -51.31 29.72 2015-06-17T08:00
Mumford_Cove 41.32526111 -72.02088 2015 monitoringMC_01 3151818 2015-06-17 8:30 15.57 8.05 46410 7.65 92.4 -52.49 30.16 2015-06-17T08:30
Mumford_Cove 41.32526111 -72.02088 2015 monitoringMC_01 3151818 2015-06-17 9:00 15.31 8.07 46540 7.85 94.4 -53.57 30.25 2015-06-17T09:00
Mumford_Cove 41.32526111 -72.02088 2015 monitoringMC_01 3151818 2015-06-17 9:30 15.46 8.09 46500 8.01 96.5 -54.36 30.23 2015-06-17T09:30
Mumford_Cove 41.32526111 -72.02088 2015 monitoringMC_01 3151818 2015-06-17 10:00 15.53 8.1 46460 8.23 99.4 -55.13 30.2 2015-06-17T10:00
Mumford_Cove 41.32526111 -72.02088 2015 monitoringMC_01 3151818 2015-06-17 10:30 15.7 8.12 46600 8.52 103.2 -56.48 30.3 2015-06-17T10:30
Mumford_Cove 41.32526111 -72.02088 2015 monitoringMC_01 3151818 2015-06-17 11:00 15.85 8.13 46520 8.72 105.9 -57.2 30.25 2015-06-17T11:00
Mumford_Cove 41.32526111 -72.02088 2015 monitoringMC_01 3151818 2015-06-17 11:30 15.88 8.14 46610 8.85 107.6 -57.6 30.31 2015-06-17T11:30
Mumford_Cove 41.32526111 -72.02088 2015 monitoringMC_01 3151818 2015-06-17 12:00 15.99 8.15 46600 8.85 107.8 -58.18 30.31 2015-06-17T12:00
Mumford_Cove 41.32526111 -72.02088 2015 monitoringMC_01 3151818 2015-06-17 12:30 16.07 8.15 46570 9.0 109.9 -58.32 30.29 2015-06-17T12:30
Mumford_Cove 41.32526111 -72.02088 2015 monitoringMC_01 3151818 2015-06-17 13:00 16.22 8.22 46540 9.82 120.2 -62.13 30.27 2015-06-17T13:00
Mumford_Cove 41.32526111 -72.02088 2015 monitoringMC_01 3151818 2015-06-17 13:30 16.34 8.23 46510 9.95 122.0 -62.78 30.25 2015-06-17T13:30
Mumford_Cove 41.32526111 -72.02088 2015 monitoringMC_01 3151818 2015-06-17 14:00 16.46 8.24 46560 10.24 126.0 -63.19 30.29 2015-06-17T14:00
Mumford_Cove 41.32526111 -72.02088 2015 monitoringMC_01 3151818 2015-06-17 14:30 16.68 8.46 46690 13.12 162.2 -76.11 30.38 2015-06-17T14:30
Mumford_Cove 41.32526111 -72.02088 2015 monitoringMC_01 3151818 2015-06-17 15:00 16.74 8.56 46570 14.3 176.9 -81.43 30.3 2015-06-17T15:00
Mumford_Cove 41.32526111 -72.02088 2015 monitoringMC_01 3151818 2015-06-17 15:30 17.55 8.54 46370 14.88 186.8 -80.82 30.16 2015-06-17T15:30
Mumford_Cove 41.32526111 -72.02088 2015 monitoringMC_01 3151818 2015-06-17 16:00 18.64 8.43 45830 14.04 179.6 -74.61 29.77 2015-06-17T16:00
Mumford_Cove 41.32526111 -72.02088 2015 monitoringMC_01 3151818 2015-06-17 16:30 18.45 8.42 46070 13.12 167.3 -74.01 29.94 2015-06-17T16:30
Mumford_Cove 41.32526111 -72.02088 2015 monitoringMC_01 3151818 2015-06-17 17:00 18.14 8.56 46390 15.28 194.0 -81.97 30.18 2015-06-17T17:00
Mumford_Cove 41.32526111 -72.02088 2015 monitoringMC_01 3151818 2015-06-17 17:30 18.21 8.57 46360 15.18 192.9 -82.48 30.15 2015-06-17T17:30
Mumford_Cove 41.32526111 -72.02088 2015 monitoringMC_01 3151818 2015-06-17 18:00 17.89 8.49 46330 14.07 177.8 -78.0 30.13 2015-06-17T18:00
Mumford_Cove 41.32526111 -72.02088 2015 monitoringMC_01 3151818 2015-06-17 18:30 18.43 8.4 46040 12.6 160.6 -73.1 29.92 2015-06-17T18:30
Mumford_Cove 41.32526111 -72.02088 2015 monitoringMC_01 3151818 2015-06-17 19:00 18.74 8.36 45940 11.94 153.0 -70.77 29.85 2015-06-17T19:00
Mumford_Cove 41.32526111 -72.02088 2015 monitoringMC_01 3151818 2015-06-17 19:30 19.03 8.29 45920 10.94 141.0 -66.62 29.84 2015-06-17T19:30
Mumford_Cove 41.32526111 -72.02088 2015 monitoringMC_01 3151818 2015-06-17 20:00 18.85 8.24 46120 10.13 130.3 -63.77 29.98 2015-06-17T20:00
Mumford_Cove 41.32526111 -72.02088 2015 monitoringMC_01 3151818 2015-06-17 20:30 18.72 8.22 46170 9.83 126.1 -62.63 30.02 2015-06-17T20:30
Mumford_Cove 41.32526111 -72.02088 2015 monitoringMC_01 3151818 2015-06-17 21:00 18.62 8.2 46280 9.65 123.6 -61.77 30.1 2015-06-17T21:00
Mumford_Cove 41.32526111 -72.02088 2015 monitoringMC_01 3151818 2015-06-17 21:30 18.44 8.19 46250 9.49 121.1 -60.94 30.07 2015-06-17T21:30
Mumford_Cove 41.32526111 -72.02088 2015 monitoringMC_01 3151818 2015-06-17 22:00 17.9 8.16 46300 9.06 114.4 -58.97 30.11 2015-06-17T22:00
Mumford_Cove 41.32526111 -72.02088 2015 monitoringMC_01 3151818 2015-06-17 22:30 17.74 8.14 46290 8.75 110.2 -57.94 30.1 2015-06-17T22:30
Mumford_Cove 41.32526111 -72.02088 2015 monitoringMC_01 3151818 2015-06-17 23:00 17.69 8.14 46320 8.66 109.0 -57.66 30.12 2015-06-17T23:00
Mumford_Cove 41.32526111 -72.02088 2015 monitoringMC_01 3151818 2015-06-17 23:30 17.58 8.13 46250 8.58 107.7 -57.09 30.07 2015-06-17T23:30
Mumford_Cove 41.32526111 -72.02088 2015 monitoringMC_01 3151818 2015-06-18 0:00 17.5 8.11 46200 8.34 104.5 -56.16 30.03 2015-06-18T00:00
Mumford_Cove 41.32526111 -72.02088 2015 monitoringMC_01 3151818 2015-06-18 0:30 17.53 8.1 46200 8.2 102.8 -55.64 30.04 2015-06-18T00:30
Mumford_Cove 41.32526111 -72.02088 2015 monitoringMC_01 3151818 2015-06-18 1:00 17.48 8.09 46270 8.03 100.7 -54.94 30.09 2015-06-18T01:00
Mumford_Cove 41.32526111 -72.02088 2015 monitoringMC_01 3151818 2015-06-18 1:30 17.52 8.09 46360 8.04 100.9 -54.8 30.15 2015-06-18T01:30
Mumford_Cove 41.32526111 -72.02088 2015 monitoringMC_01 3151818 2015-06-18 2:00 17.63 8.09 46250 8.01 100.7 -54.95 30.07 2015-06-18T02:00
Mumford_Cove 41.32526111 -72.02088 2015 monitoringMC_01 3151818 2015-06-18 2:30 17.54 8.05 46170 7.2 90.3 -52.72 30.01 2015-06-18T02:30
Mumford_Cove 41.32526111 -72.02088 2015 monitoringMC_01 3151818 2015-06-18 3:00 17.56 8.03 46250 7.49 94.0 -51.85 30.07 2015-06-18T03:00
Mumford_Cove 41.32526111 -72.02088 2015 monitoringMC_01 3151818 2015-06-18 3:30 17.58 8.03 46200 7.22 90.7 -51.63 30.04 2015-06-18T03:30
Mumford_Cove 41.32526111 -72.02088 2015 monitoringMC_01 3151818 2015-06-18 4:00 17.86 8.04 46230 7.1 89.5 -52.25 30.06 2015-06-18T04:00
Mumford_Cove 41.32526111 -72.02088 2015 monitoringMC_01 3151818 2015-06-18 4:30 18.4 8.13 46240 8.25 105.2 -57.22 30.07 2015-06-18T04:30
Mumford_Cove 41.32526111 -72.02088 2015 monitoringMC_01 3151818 2015-06-18 5:00 18.63 8.09 45980 7.76 99.2 -55.48 29.88 2015-06-18T05:00
Mumford_Cove 41.32526111 -72.02088 2015 monitoringMC_01 3151818 2015-06-18 5:30 18.81 8.08 45810 7.52 96.5 -54.63 29.76 2015-06-18T05:30
Mumford_Cove 41.32526111 -72.02088 2015 monitoringMC_01 3151818 2015-06-18 6:00 18.33 8.04 46110 6.86 87.3 -52.38 29.97 2015-06-18T06:00
Mumford_Cove 41.32526111 -72.02088 2015 monitoringMC_01 3151818 2015-06-18 6:30 18.61 8.06 45860 7.35 94.0 -53.47 29.79 2015-06-18T06:30
Mumford_Cove 41.32526111 -72.02088 2015 monitoringMC_01 3151818 2015-06-18 7:00 18.48 8.06 45710 7.31 93.2 -53.32 29.68 2015-06-18T07:00
Mumford_Cove 41.32526111 -72.02088 2015 monitoringMC_01 3151818 2015-06-18 7:30 18.35 8.08 45710 7.61 96.8 -54.78 29.68 2015-06-18T07:30
Mumford_Cove 41.32526111 -72.02088 2015 monitoringMC_01 3151818 2015-06-18 8:00 18.02 8.11 45880 7.85 99.2 -56.13 29.81 2015-06-18T08:00
Mumford_Cove 41.32526111 -72.02088 2015 monitoringMC_01 3151818 2015-06-18 8:30 17.54 8.12 45850 8.07 101.1 -56.73 29.78 2015-06-18T08:30
Mumford_Cove 41.32526111 -72.02088 2015 monitoringMC_01 3151818 2015-06-18 9:00 17.14 8.11 46040 8.0 99.5 -55.84 29.92 2015-06-18T09:00
Mumford_Cove 41.32526111 -72.02088 2015 monitoringMC_01 3151818 2015-06-18 9:30 16.6 8.09 46270 7.93 97.7 -54.93 30.08 2015-06-18T09:30
Mumford_Cove 41.32526111 -72.02088 2015 monitoringMC_01 3151818 2015-06-18 10:00 16.25 8.09 46390 8.06 98.6 -54.94 30.16 2015-06-18T10:00
Mumford_Cove 41.32526111 -72.02088 2015 monitoringMC_01 3151818 2015-06-18 10:30 16.12 8.1 46420 8.1 99.0 -55.1 30.18 2015-06-18T10:30
Mumford_Cove 41.32526111 -72.02088 2015 monitoringMC_01 3151818 2015-06-18 11:00 16.09 8.11 46500 8.27 101.0 -55.65 30.24 2015-06-18T11:00
Mumford_Cove 41.32526111 -72.02088 2015 monitoringMC_01 3151818 2015-06-18 11:30 16.23 8.12 46430 8.45 103.3 -56.36 30.19 2015-06-18T11:30
Mumford_Cove 41.32526111 -72.02088 2015 monitoringMC_01 3151818 2015-07-22 15:00 22.72 7.98 46140 8.76 120.8 -57.55 29.96 2015-07-22T15:00
Mumford_Cove 41.32526111 -72.02088 2015 monitoringMC_01 3151818 2015-07-22 15:30 22.77 8.05 46020 9.65 133.2 -61.42 29.88 2015-07-22T15:30
Mumford_Cove 41.32526111 -72.02088 2015 monitoringMC_01 3151818 2015-07-22 16:00 22.79 8.07 46110 9.76 134.8 -62.85 29.94 2015-07-22T16:00
Mumford_Cove 41.32526111 -72.02088 2015 monitoringMC_01 3151818 2015-07-22 16:30 22.79 8.07 46090 9.83 135.8 -62.93 29.93 2015-07-22T16:30
Mumford_Cove 41.32526111 -72.02088 2015 monitoringMC_01 3151818 2015-07-22 17:00 22.89 8.08 46010 10.0 138.3 -63.49 29.87 2015-07-22T17:00
Mumford_Cove 41.32526111 -72.02088 2015 monitoringMC_01 3151818 2015-07-22 17:30 22.94 8.11 46050 10.33 143.1 -65.04 29.89 2015-07-22T17:30
Mumford_Cove 41.32526111 -72.02088 2015 monitoringMC_01 3151818 2015-07-22 18:00 23.06 8.13 46100 10.78 149.6 -66.39 29.93 2015-07-22T18:00
Mumford_Cove 41.32526111 -72.02088 2015 monitoringMC_01 3151818 2015-07-22 18:30 23.12 8.15 46010 10.73 149.0 -67.69 29.86 2015-07-22T18:30
Mumford_Cove 41.32526111 -72.02088 2015 monitoringMC_01 3151818 2015-07-22 19:00 23.29 8.14 46030 10.84 151.0 -66.78 29.87 2015-07-22T19:00
Mumford_Cove 41.32526111 -72.02088 2015 monitoringMC_01 3151818 2015-07-22 19:30 23.13 8.11 45930 10.37 144.0 -65.34 29.8 2015-07-22T19:30
Mumford_Cove 41.32526111 -72.02088 2015 monitoringMC_01 3151818 2015-07-22 20:00 23.26 8.14 46040 10.74 149.5 -66.78 29.88 2015-07-22T20:00
Mumford_Cove 41.32526111 -72.02088 2015 monitoringMC_01 3151818 2015-07-22 20:30 23.34 8.13 45920 10.59 147.6 -66.57 29.79 2015-07-22T20:30
Mumford_Cove 41.32526111 -72.02088 2015 monitoringMC_01 3151818 2015-07-22 21:00 23.42 8.13 46110 10.39 145.1 -66.23 29.93 2015-07-22T21:00
Mumford_Cove 41.32526111 -72.02088 2015 monitoringMC_01 3151818 2015-07-22 21:30 23.52 8.12 46010 10.33 144.4 -65.86 29.85 2015-07-22T21:30
Mumford_Cove 41.32526111 -72.02088 2015 monitoringMC_01 3151818 2015-07-22 22:00 23.68 8.18 46070 11.68 163.8 -69.25 29.89 2015-07-22T22:00
Mumford_Cove 41.32526111 -72.02088 2015 monitoringMC_01 3151818 2015-07-22 22:30 23.75 8.12 46120 10.42 146.4 -65.74 29.93 2015-07-22T22:30
Mumford_Cove 41.32526111 -72.02088 2015 monitoringMC_01 3151818 2015-07-22 23:00 23.44 8.03 46150 9.41 131.4 -60.62 29.95 2015-07-22T23:00
Mumford_Cove 41.32526111 -72.02088 2015 monitoringMC_01 3151818 2015-07-22 23:30 23.52 8.0 46020 8.88 124.2 -59.04 29.86 2015-07-22T23:30
Mumford_Cove 41.32526111 -72.02088 2015 monitoringMC_01 3151818 2015-07-23 0:00 24.05 8.03 45940 8.52 120.2 -60.55 29.79 2015-07-23T00:00
Mumford_Cove 41.32526111 -72.02088 2015 monitoringMC_01 3151818 2015-07-23 0:30 24.18 8.04 45970 8.34 118.0 -61.37 29.82 2015-07-23T00:30
Mumford_Cove 41.32526111 -72.02088 2015 monitoringMC_01 3151818 2015-07-23 1:00 24.11 8.04 46040 8.39 118.5 -61.65 29.87 2015-07-23T01:00
Mumford_Cove 41.32526111 -72.02088 2015 monitoringMC_01 3151818 2015-07-23 1:30 24.01 8.05 45980 8.28 116.8 -62.03 29.82 2015-07-23T01:30
Mumford_Cove 41.32526111 -72.02088 2015 monitoringMC_01 3151818 2015-07-23 2:00 23.86 8.05 46130 8.16 114.9 -61.97 29.93 2015-07-23T02:00
Mumford_Cove 41.32526111 -72.02088 2015 monitoringMC_01 3151818 2015-07-23 2:30 23.4 8.04 46030 7.93 110.8 -60.93 29.87 2015-07-23T02:30
Mumford_Cove 41.32526111 -72.02088 2015 monitoringMC_01 3151818 2015-07-23 3:00 22.69 7.99 46040 7.56 104.2 -58.3 29.89 2015-07-23T03:00
Mumford_Cove 41.32526111 -72.02088 2015 monitoringMC_01 3151818 2015-07-23 3:30 22.5 7.98 46070 7.41 101.8 -57.66 29.91 2015-07-23T03:30
Mumford_Cove 41.32526111 -72.02088 2015 monitoringMC_01 3151818 2015-07-23 4:00 22.43 7.97 46070 7.29 100.1 -57.23 29.92 2015-07-23T04:00
Mumford_Cove 41.32526111 -72.02088 2015 monitoringMC_01 3151818 2015-07-23 4:30 22.56 7.98 46080 7.44 102.3 -57.73 29.92 2015-07-23T04:30
Mumford_Cove 41.32526111 -72.02088 2015 monitoringMC_01 3151818 2015-07-23 5:00 22.69 7.98 46060 7.23 99.7 -57.37 29.91 2015-07-23T05:00
Mumford_Cove 41.32526111 -72.02088 2015 monitoringMC_01 3151818 2015-07-23 5:30 22.83 7.97 45990 7.12 98.3 -57.26 29.85 2015-07-23T05:30
Mumford_Cove 41.32526111 -72.02088 2015 monitoringMC_01 3151818 2015-07-23 6:00 22.73 7.96 45950 6.9 95.1 -56.34 29.82 2015-07-23T06:00
Mumford_Cove 41.32526111 -72.02088 2015 monitoringMC_01 3151818 2015-07-23 6:30 22.96 7.95 46060 6.68 92.5 -55.94 29.9 2015-07-23T06:30
Mumford_Cove 41.32526111 -72.02088 2015 monitoringMC_01 3151818 2015-07-23 7:00 22.95 7.97 45940 6.96 96.4 -57.27 29.81 2015-07-23T07:00
Mumford_Cove 41.32526111 -72.02088 2015 monitoringMC_01 3151818 2015-07-23 7:30 22.8 7.95 46120 6.87 95.0 -55.78 29.95 2015-07-23T07:30
Mumford_Cove 41.32526111 -72.02088 2015 monitoringMC_01 3151818 2015-07-23 8:00 23.36 7.99 45970 6.86 95.7 -58.06 29.83 2015-07-23T08:00
Mumford_Cove 41.32526111 -72.02088 2015 monitoringMC_01 3151818 2015-07-23 8:30 23.07 7.97 46080 6.69 92.8 -56.8 29.92 2015-07-23T08:30
Mumford_Cove 41.32526111 -72.02088 2015 monitoringMC_01 3151818 2015-07-23 9:00 23.39 7.98 46040 6.83 95.3 -57.53 29.88 2015-07-23T09:00
Mumford_Cove 41.32526111 -72.02088 2015 monitoringMC_01 3151818 2015-07-23 9:30 23.65 8.0 46110 7.21 101.1 -58.81 29.92 2015-07-23T09:30
Mumford_Cove 41.32526111 -72.02088 2015 monitoringMC_01 3151818 2015-07-23 10:00 24.09 8.06 46020 8.03 113.4 -62.67 29.85 2015-07-23T10:00
Mumford_Cove 41.32526111 -72.02088 2015 monitoringMC_01 3151818 2015-07-23 10:30 23.36 7.91 46090 7.17 100.0 -53.48 29.92 2015-07-23T10:30
Mumford_Cove 41.32526111 -72.02088 2015 monitoringMC_01 3151818 2015-07-23 11:00 23.56 7.98 45990 7.42 103.8 -57.45 29.84 2015-07-23T11:00
Mumford_Cove 41.32526111 -72.02088 2015 monitoringMC_01 3151818 2015-07-23 11:30 23.9 8.03 45990 8.21 115.6 -60.5 29.83 2015-07-23T11:30
Mumford_Cove 41.32526111 -72.02088 2015 monitoringMC_01 3151818 2015-07-23 12:00 24.36 8.07 45990 8.86 125.8 -63.28 29.82 2015-07-23T12:00
Mumford_Cove 41.32526111 -72.02088 2015 monitoringMC_01 3151818 2015-07-23 12:30 24.18 8.08 46170 9.1 128.9 -63.43 29.96 2015-07-23T12:30
Mumford_Cove 41.32526111 -72.02088 2015 monitoringMC_01 3151818 2015-07-23 13:00 24.06 8.08 46180 9.07 128.1 -63.71 29.97 2015-07-23T13:00
Mumford_Cove 41.32526111 -72.02088 2015 monitoringMC_01 3151818 2015-07-23 13:30 23.71 8.05 46130 8.98 126.0 -61.83 29.94 2015-07-23T13:30
Mumford_Cove 41.32526111 -72.02088 2015 monitoringMC_01 3151818 2015-07-23 14:00 23.46 8.05 46090 9.07 126.8 -61.64 29.91 2015-07-23T14:00
Mumford_Cove 41.32526111 -72.02088 2015 monitoringMC_01 3151818 2015-07-23 14:30 23.32 8.04 46160 8.92 124.4 -61.29 29.96 2015-07-23T14:30
Mumford_Cove 41.32526111 -72.02088 2015 monitoringMC_01 3151818 2015-07-23 15:00 23.35 8.05 46070 9.09 126.7 -62.06 29.9 2015-07-23T15:00
Mumford_Cove 41.32526111 -72.02088 2015 monitoringMC_01 3151818 2015-07-23 15:30 23.41 8.05 46140 9.11 127.2 -61.98 29.95 2015-07-23T15:30
Mumford_Cove 41.32526111 -72.02088 2015 monitoringMC_01 3151818 2015-07-23 16:00 23.55 8.06 46190 9.3 130.2 -62.65 29.99 2015-07-23T16:00
Mumford_Cove 41.32526111 -72.02088 2015 monitoringMC_01 3151818 2015-07-23 16:30 23.71 8.1 46110 9.61 135.0 -64.62 29.92 2015-07-23T16:30
Mumford_Cove 41.32526111 -72.02088 2015 monitoringMC_01 3151818 2015-07-23 17:00 23.69 8.15 46130 10.02 140.6 -67.66 29.94 2015-07-23T17:00
Mumford_Cove 41.32526111 -72.02088 2015 monitoringMC_01 3151818 2015-07-23 17:30 23.71 8.14 46110 10.36 145.4 -67.05 29.92 2015-07-23T17:30
Mumford_Cove 41.32526111 -72.02088 2015 monitoringMC_01 3151818 2015-07-23 18:00 23.79 8.14 46160 10.11 142.1 -66.89 29.96 2015-07-23T18:00
Mumford_Cove 41.32526111 -72.02088 2015 monitoringMC_01 3151818 2015-07-23 18:30 23.82 8.16 46130 10.64 149.6 -68.32 29.94 2015-07-23T18:30
Mumford_Cove 41.32526111 -72.02088 2015 monitoringMC_01 3151818 2015-07-23 19:00 23.83 8.17 46110 10.72 150.9 -69.01 29.92 2015-07-23T19:00
Mumford_Cove 41.32526111 -72.02088 2015 monitoringMC_01 3151818 2015-07-23 19:30 23.85 8.15 46150 10.81 152.1 -67.8 29.95 2015-07-23T19:30
Mumford_Cove 41.32526111 -72.02088 2015 monitoringMC_01 3151818 2015-07-23 20:00 23.81 8.13 46140 10.18 143.1 -66.78 29.95 2015-07-23T20:00
Mumford_Cove 41.32526111 -72.02088 2015 monitoringMC_01 3151818 2015-07-23 20:30 23.8 8.12 46060 10.1 142.0 -65.7 29.89 2015-07-23T20:30
Mumford_Cove 41.32526111 -72.02088 2015 monitoringMC_01 3151818 2015-07-23 21:00 23.85 8.14 46200 10.49 147.7 -67.12 29.98 2015-07-23T21:00
Mumford_Cove 41.32526111 -72.02088 2015 monitoringMC_01 3151818 2015-07-23 21:30 23.89 8.13 46020 10.39 146.3 -66.75 29.85 2015-07-23T21:30
Mumford_Cove 41.32526111 -72.02088 2015 monitoringMC_01 3151818 2015-07-23 22:00 23.98 8.16 46110 10.21 144.0 -68.26 29.92 2015-07-23T22:00
Mumford_Cove 41.32526111 -72.02088 2015 monitoringMC_01 3151818 2015-07-23 22:30 24.09 8.19 46050 11.13 157.3 -70.24 29.88 2015-07-23T22:30
Mumford_Cove 41.32526111 -72.02088 2015 monitoringMC_01 3151818 2015-07-23 23:00 24.56 8.17 46050 11.16 158.9 -69.28 29.87 2015-07-23T23:00
Mumford_Cove 41.32526111 -72.02088 2015 monitoringMC_01 3151818 2015-07-23 23:30 24.24 8.03 46030 9.0 127.5 -61.01 29.85 2015-07-23T23:30
Mumford_Cove 41.32526111 -72.02088 2015 monitoringMC_01 3151818 2015-07-24 0:00 24.27 8.03 46040 8.5 120.5 -60.77 29.86 2015-07-24T00:00
Mumford_Cove 41.32526111 -72.02088 2015 monitoringMC_01 3151818 2015-07-24 0:30 24.49 8.04 46000 8.5 120.9 -61.63 29.83 2015-07-24T00:30
Mumford_Cove 41.32526111 -72.02088 2015 monitoringMC_01 3151818 2015-07-24 1:00 24.46 8.06 46050 8.37 119.0 -62.36 29.87 2015-07-24T01:00
Mumford_Cove 41.32526111 -72.02088 2015 monitoringMC_01 3151818 2015-07-24 1:30 24.37 8.05 46130 8.31 118.1 -62.06 29.93 2015-07-24T01:30
Mumford_Cove 41.32526111 -72.02088 2015 monitoringMC_01 3151818 2015-07-24 2:00 24.18 8.06 46140 8.14 115.3 -62.45 29.94 2015-07-24T02:00
Mumford_Cove 41.32526111 -72.02088 2015 monitoringMC_01 3151818 2015-07-24 2:30 24.06 8.05 46080 7.99 112.8 -61.78 29.9 2015-07-24T02:30
Mumford_Cove 41.32526111 -72.02088 2015 monitoringMC_01 3151818 2015-07-24 3:00 23.78 8.03 46060 7.84 110.1 -60.73 29.88 2015-07-24T03:00
Mumford_Cove 41.32526111 -72.02088 2015 monitoringMC_01 3151818 2015-07-24 3:30 23.16 8.01 46020 7.71 107.1 -59.46 29.87 2015-07-24T03:30
Mumford_Cove 41.32526111 -72.02088 2015 monitoringMC_01 3151818 2015-07-24 4:00 23.55 8.03 46170 7.48 104.8 -60.48 29.97 2015-07-24T04:00
Mumford_Cove 41.32526111 -72.02088 2015 monitoringMC_01 3151818 2015-07-24 4:30 22.79 7.99 46080 7.37 101.8 -58.27 29.92 2015-07-24T04:30
Mumford_Cove 41.32526111 -72.02088 2015 monitoringMC_01 3151818 2015-07-24 5:00 22.8 7.99 46190 7.25 100.1 -58.32 30.0 2015-07-24T05:00
Mumford_Cove 41.32526111 -72.02088 2015 monitoringMC_01 3151818 2015-07-24 5:30 23.04 7.99 46080 6.99 97.0 -58.41 29.92 2015-07-24T05:30
Mumford_Cove 41.32526111 -72.02088 2015 monitoringMC_01 3151818 2015-07-24 6:00 23.83 8.04 45870 7.59 106.7 -61.45 29.75 2015-07-24T06:00
Mumford_Cove 41.32526111 -72.02088 2015 monitoringMC_01 3151818 2015-07-24 6:30 23.87 8.03 45970 7.43 104.5 -60.64 29.82 2015-07-24T06:30
Mumford_Cove 41.32526111 -72.02088 2015 monitoringMC_01 3151818 2015-07-24 7:00 23.89 8.0 45960 6.85 96.4 -59.24 29.82 2015-07-24T07:00
Mumford_Cove 41.32526111 -72.02088 2015 monitoringMC_01 3151818 2015-07-24 7:30 23.9 8.01 45930 6.75 95.0 -59.52 29.79 2015-07-24T07:30
Mumford_Cove 41.32526111 -72.02088 2015 monitoringMC_01 3151818 2015-07-24 8:00 24.0 8.01 46020 7.28 102.6 -59.85 29.85 2015-07-24T08:00
Mumford_Cove 41.32526111 -72.02088 2015 monitoringMC_01 3151818 2015-07-24 8:30 23.72 7.97 46110 6.62 93.0 -57.11 29.92 2015-07-24T08:30
Mumford_Cove 41.32526111 -72.02088 2015 monitoringMC_01 3151818 2015-07-24 9:00 23.93 8.06 46080 7.34 103.5 -62.66 29.9 2015-07-24T09:00
Mumford_Cove 41.32526111 -72.02088 2015 monitoringMC_01 3151818 2015-07-24 9:30 23.93 8.07 46010 7.86 110.7 -63.3 29.85 2015-07-24T09:30
Mumford_Cove 41.32526111 -72.02088 2015 monitoringMC_01 3151818 2015-07-24 10:00 23.92 8.12 46090 8.87 124.9 -65.97 29.91 2015-07-24T10:00
Mumford_Cove 41.32526111 -72.02088 2015 monitoringMC_01 3151818 2015-07-24 10:30 23.97 8.12 45960 9.14 128.7 -66.18 29.81 2015-07-24T10:30
Mumford_Cove 41.32526111 -72.02088 2015 monitoringMC_01 3151818 2015-07-24 11:00 23.48 7.95 45990 7.2 100.6 -55.85 29.84 2015-07-24T11:00
Mumford_Cove 41.32526111 -72.02088 2015 monitoringMC_01 3151818 2015-07-24 11:30 23.64 7.98 46070 7.57 106.1 -57.87 29.9 2015-07-24T11:30
Mumford_Cove 41.32526111 -72.02088 2015 monitoringMC_01 3151818 2015-07-24 12:00 24.19 8.04 46140 8.04 113.8 -61.32 29.94 2015-07-24T12:00
Mumford_Cove 41.32526111 -72.02088 2015 monitoringMC_01 3151818 2015-07-24 12:30 24.28 8.08 46090 9.01 127.7 -63.85 29.9 2015-07-24T12:30
Mumford_Cove 41.32526111 -72.02088 2015 monitoringMC_01 3151818 2015-07-24 13:00 24.31 8.09 46180 9.12 129.4 -64.42 29.96 2015-07-24T13:00
Mumford_Cove 41.32526111 -72.02088 2015 monitoringMC_01 3151818 2015-07-24 13:30 24.1 8.08 46140 9.26 130.8 -63.85 29.94 2015-07-24T13:30
Mumford_Cove 41.32526111 -72.02088 2015 monitoringMC_01 3151818 2015-07-24 14:00 24.09 8.09 46100 9.39 132.8 -64.54 29.91 2015-07-24T14:00
Mumford_Cove 41.32526111 -72.02088 2015 monitoringMC_01 3151818 2015-07-24 14:30 23.93 8.09 46070 9.71 136.8 -64.01 29.89 2015-07-24T14:30
Mumford_Cove 41.32526111 -72.02088 2015 monitoringMC_01 3151818 2015-07-24 15:00 23.81 8.09 46190 9.79 137.7 -64.49 29.98 2015-07-24T15:00
Mumford_Cove 41.32526111 -72.02088 2015 monitoringMC_01 3151818 2015-07-24 15:30 23.61 8.08 46290 9.78 137.2 -63.47 30.05 2015-07-24T15:30
Mumford_Cove 41.32526111 -72.02088 2015 monitoringMC_01 3151818 2015-07-24 16:00 23.72 8.09 46020 9.9 139.0 -64.19 29.86 2015-07-24T16:00
Mumford_Cove 41.32526111 -72.02088 2015 monitoringMC_01 3151818 2015-07-24 16:30 23.7 8.09 46080 9.97 139.9 -64.47 29.9 2015-07-24T16:30
Mumford_Cove 41.32526111 -72.02088 2015 monitoringMC_01 3151818 2015-07-24 17:00 23.87 8.1 46080 10.04 141.4 -65.08 29.9 2015-07-24T17:00
Mumford_Cove 41.32526111 -72.02088 2015 monitoringMC_01 3151818 2015-07-24 17:30 23.8 8.11 45930 10.35 145.5 -65.49 29.8 2015-07-24T17:30
Mumford_Cove 41.32526111 -72.02088 2015 monitoringMC_01 3151818 2015-07-24 18:00 24.03 8.12 46230 10.39 146.7 -65.94 30.0 2015-07-24T18:00
Mumford_Cove 41.32526111 -72.02088 2015 monitoringMC_01 3151818 2015-07-24 18:30 23.98 8.11 46240 10.01 141.3 -65.35 30.02 2015-07-24T18:30
Mumford_Cove 41.32526111 -72.02088 2015 monitoringMC_01 3151818 2015-07-24 19:00 24.12 8.13 46230 10.35 146.4 -66.58 30.0 2015-07-24T19:00
Mumford_Cove 41.32526111 -72.02088 2015 monitoringMC_01 3151818 2015-07-24 19:30 25.31 8.19 46290 10.67 154.1 -70.24 30.02 2015-07-24T19:30
Mumford_Cove 41.32526111 -72.02088 2015 monitoringMC_01 3151818 2015-07-24 20:00 24.18 8.1 46100 9.51 134.6 -64.64 29.91 2015-07-24T20:00
Mumford_Cove 41.32526111 -72.02088 2015 monitoringMC_01 3151818 2015-07-24 20:30 24.18 8.09 46130 9.8 138.7 -64.49 29.93 2015-07-24T20:30
Mumford_Cove 41.32526111 -72.02088 2015 monitoringMC_01 3151818 2015-07-24 21:00 24.45 8.09 46220 9.75 138.6 -64.16 29.99 2015-07-24T21:00
Mumford_Cove 41.32526111 -72.02088 2015 monitoringMC_01 3151818 2015-07-24 21:30 24.4 8.08 46310 9.05 128.7 -63.55 30.06 2015-07-24T21:30
Mumford_Cove 41.32526111 -72.02088 2015 monitoringMC_01 3151818 2015-07-24 22:00 24.52 8.07 46040 8.92 126.9 -63.43 29.86 2015-07-24T22:00
Mumford_Cove 41.32526111 -72.02088 2015 monitoringMC_01 3151818 2015-07-24 22:30 24.57 8.05 46070 9.11 129.8 -62.31 29.88 2015-07-24T22:30
Mumford_Cove 41.32526111 -72.02088 2015 monitoringMC_01 3151818 2015-07-24 23:00 24.76 8.07 46190 9.08 129.8 -63.34 29.96 2015-07-24T23:00
Mumford_Cove 41.32526111 -72.02088 2015 monitoringMC_01 3151818 2015-07-24 23:30 25.0 8.1 46210 9.39 134.8 -64.82 29.97 2015-07-24T23:30
Mumford_Cove 41.32526111 -72.02088 2015 monitoringMC_01 3151818 2015-07-25 0:00 24.65 8.01 46080 7.99 114.0 -59.82 29.88 2015-07-25T00:00
Mumford_Cove 41.32526111 -72.02088 2015 monitoringMC_01 3151818 2015-07-25 0:30 24.88 8.06 46100 8.52 122.1 -62.68 29.89 2015-07-25T00:30
Mumford_Cove 41.32526111 -72.02088 2015 monitoringMC_01 3151818 2015-07-25 1:00 24.73 8.07 46120 8.45 120.8 -63.44 29.91 2015-07-25T01:00
Mumford_Cove 41.32526111 -72.02088 2015 monitoringMC_01 3151818 2015-07-25 1:30 24.47 8.07 46190 8.37 119.1 -63.33 29.97 2015-07-25T01:30
Mumford_Cove 41.32526111 -72.02088 2015 monitoringMC_01 3151818 2015-07-25 2:00 24.22 8.07 46140 8.3 117.6 -63.38 29.94 2015-07-25T02:00
Mumford_Cove 41.32526111 -72.02088 2015 monitoringMC_01 3151818 2015-07-25 2:30 23.91 8.06 46140 8.11 114.3 -62.58 29.94 2015-07-25T02:30
Mumford_Cove 41.32526111 -72.02088 2015 monitoringMC_01 3151818 2015-07-25 3:00 23.7 8.05 46110 7.9 110.9 -61.77 29.93 2015-07-25T03:00
Mumford_Cove 41.32526111 -72.02088 2015 monitoringMC_01 3151818 2015-07-25 3:30 23.31 8.04 46150 7.74 108.0 -61.31 29.96 2015-07-25T03:30
Mumford_Cove 41.32526111 -72.02088 2015 monitoringMC_01 3151818 2015-07-25 4:00 22.79 8.03 46060 7.66 105.8 -60.34 29.9 2015-07-25T04:00
Mumford_Cove 41.32526111 -72.02088 2015 monitoringMC_01 3151818 2015-07-25 4:30 22.46 8.01 46120 7.53 103.4 -59.31 29.95 2015-07-25T04:30
Mumford_Cove 41.32526111 -72.02088 2015 monitoringMC_01 3151818 2015-07-25 5:00 22.39 8.0 46060 7.42 101.8 -58.82 29.91 2015-07-25T05:00
Mumford_Cove 41.32526111 -72.02088 2015 monitoringMC_01 3151818 2015-07-25 5:30 22.54 8.01 46080 7.26 99.8 -59.05 29.92 2015-07-25T05:30
Mumford_Cove 41.32526111 -72.02088 2015 monitoringMC_01 3151818 2015-07-25 6:00 22.2 7.98 46010 7.14 97.5 -57.56 29.88 2015-07-25T06:00
Mumford_Cove 41.32526111 -72.02088 2015 monitoringMC_01 3151818 2015-07-25 6:30 22.24 7.96 45990 7.01 95.8 -56.51 29.86 2015-07-25T06:30
Mumford_Cove 41.32526111 -72.02088 2015 monitoringMC_01 3151818 2015-07-25 7:00 22.48 7.97 46060 6.95 95.5 -56.86 29.91 2015-07-25T07:00
Mumford_Cove 41.32526111 -72.02088 2015 monitoringMC_01 3151818 2015-07-25 7:30 22.61 7.97 46000 6.72 92.5 -56.91 29.86 2015-07-25T07:30
Mumford_Cove 41.32526111 -72.02088 2015 monitoringMC_01 3151818 2015-07-25 8:00 22.67 7.94 46110 6.3 86.9 -55.41 29.94 2015-07-25T08:00
Mumford_Cove 41.32526111 -72.02088 2015 monitoringMC_01 3151818 2015-07-25 8:30 22.71 7.91 46270 6.32 87.3 -53.76 30.06 2015-07-25T08:30
Mumford_Cove 41.32526111 -72.02088 2015 monitoringMC_01 3151818 2015-07-25 9:00 22.89 7.95 46040 6.49 89.8 -56.02 29.89 2015-07-25T09:00
Mumford_Cove 41.32526111 -72.02088 2015 monitoringMC_01 3151818 2015-07-25 9:30 22.88 7.94 46150 6.29 87.0 -55.0 29.97 2015-07-25T09:30
Mumford_Cove 41.32526111 -72.02088 2015 monitoringMC_01 3151818 2015-07-25 10:00 22.93 7.96 46120 6.58 91.2 -56.24 29.95 2015-07-25T10:00
Mumford_Cove 41.32526111 -72.02088 2015 monitoringMC_01 3151818 2015-07-25 10:30 23.14 7.98 46160 7.23 100.5 -57.91 29.97 2015-07-25T10:30
Mumford_Cove 41.32526111 -72.02088 2015 monitoringMC_01 3151818 2015-07-25 11:00 23.61 8.03 45970 7.8 109.2 -60.94 29.82 2015-07-25T11:00
Mumford_Cove 41.32526111 -72.02088 2015 monitoringMC_01 3151818 2015-07-25 11:30 23.23 8.06 46180 8.57 119.3 -62.33 29.98 2015-07-25T11:30
Mumford_Cove 41.32526111 -72.02088 2015 monitoringMC_01 3151818 2015-07-25 12:00 23.69 8.06 46210 8.37 117.5 -62.19 30.0 2015-07-25T12:00
Mumford_Cove 41.32526111 -72.02088 2015 monitoringMC_01 3151818 2015-07-25 12:30 24.39 8.04 46060 8.15 115.8 -61.65 29.88 2015-07-25T12:30
Mumford_Cove 41.32526111 -72.02088 2015 monitoringMC_01 3151818 2015-07-25 13:00 23.99 8.03 46150 8.51 120.0 -60.75 29.95 2015-07-25T13:00
Mumford_Cove 41.32526111 -72.02088 2015 monitoringMC_01 3151818 2015-07-25 13:30 24.33 8.07 46160 8.92 126.6 -63.2 29.95 2015-07-25T13:30
Mumford_Cove 41.32526111 -72.02088 2015 monitoringMC_01 3151818 2015-07-25 14:00 24.63 8.1 46170 9.35 133.5 -64.7 29.95 2015-07-25T14:00
Mumford_Cove 41.32526111 -72.02088 2015 monitoringMC_01 3151818 2015-07-25 14:30 24.89 8.11 46280 9.54 136.8 -65.43 30.02 2015-07-25T14:30
Mumford_Cove 41.32526111 -72.02088 2015 monitoringMC_01 3151818 2015-07-25 15:00 25.0 8.13 46190 9.85 141.5 -66.91 29.95 2015-07-25T15:00
Mumford_Cove 41.32526111 -72.02088 2015 monitoringMC_01 3151818 2015-07-25 15:30 25.05 8.12 46170 9.92 142.6 -66.54 29.94 2015-07-25T15:30
Mumford_Cove 41.32526111 -72.02088 2015 monitoringMC_01 3151818 2015-07-25 16:00 24.94 8.11 46250 9.85 141.4 -65.59 30.0 2015-07-25T16:00
Mumford_Cove 41.32526111 -72.02088 2015 monitoringMC_01 3151818 2015-07-25 16:30 24.94 8.13 46320 10.02 143.8 -66.68 30.06 2015-07-25T16:30
Mumford_Cove 41.32526111 -72.02088 2015 monitoringMC_01 3151818 2015-07-25 17:00 24.95 8.16 46350 10.29 147.8 -68.49 30.07 2015-07-25T17:00
Mumford_Cove 41.32526111 -72.02088 2015 monitoringMC_01 3151818 2015-07-25 17:30 24.95 8.16 46300 10.3 147.8 -68.55 30.04 2015-07-25T17:30
Mumford_Cove 41.32526111 -72.02088 2015 monitoringMC_01 3151818 2015-07-25 18:00 25.04 8.17 46260 10.52 151.2 -69.43 30.0 2015-07-25T18:00
Mumford_Cove 41.32526111 -72.02088 2015 monitoringMC_01 3151818 2015-07-25 18:30 25.24 8.22 46320 10.99 158.5 -72.18 30.04 2015-07-25T18:30
Mumford_Cove 41.32526111 -72.02088 2015 monitoringMC_01 3151818 2015-07-25 19:00 25.22 8.19 46240 10.76 155.2 -70.53 29.99 2015-07-25T19:00
Mumford_Cove 41.32526111 -72.02088 2015 monitoringMC_01 3151818 2015-07-25 19:30 25.45 8.22 46280 10.94 158.3 -72.4 30.01 2015-07-25T19:30
Mumford_Cove 41.32526111 -72.02088 2015 monitoringMC_01 3151818 2015-07-25 20:00 25.44 8.22 46370 10.87 157.3 -71.95 30.07 2015-07-25T20:00
Mumford_Cove 41.32526111 -72.02088 2015 monitoringMC_01 3151818 2015-07-25 20:30 25.48 8.21 46400 10.46 151.6 -71.55 30.1 2015-07-25T20:30
Mumford_Cove 41.32526111 -72.02088 2015 monitoringMC_01 3151818 2015-07-25 21:00 25.55 8.19 46290 10.47 151.8 -70.47 30.01 2015-07-25T21:00
Mumford_Cove 41.32526111 -72.02088 2015 monitoringMC_01 3151818 2015-07-25 21:30 25.6 8.19 46330 10.35 150.3 -70.68 30.04 2015-07-25T21:30
Mumford_Cove 41.32526111 -72.02088 2015 monitoringMC_01 3151818 2015-07-25 22:00 25.79 8.18 46310 10.21 148.7 -69.76 30.03 2015-07-25T22:00
Mumford_Cove 41.32526111 -72.02088 2015 monitoringMC_01 3151818 2015-07-25 22:30 25.77 8.15 46200 9.59 139.6 -68.16 29.95 2015-07-25T22:30
Mumford_Cove 41.32526111 -72.02088 2015 monitoringMC_01 3151818 2015-07-25 23:00 25.78 8.15 46250 9.52 138.5 -68.45 29.98 2015-07-25T23:00
Mumford_Cove 41.32526111 -72.02088 2015 monitoringMC_01 3151818 2015-07-25 23:30 25.72 8.14 46310 9.26 134.7 -67.41 30.03 2015-07-25T23:30
Mumford_Cove 41.32526111 -72.02088 2015 monitoringMC_01 3151818 2015-07-26 0:00 25.64 8.13 46270 8.92 129.6 -66.76 30.0 2015-07-26T00:00
Mumford_Cove 41.32526111 -72.02088 2015 monitoringMC_01 3151818 2015-07-26 0:30 25.65 8.11 46240 8.74 126.9 -65.91 29.98 2015-07-26T00:30
Mumford_Cove 41.32526111 -72.02088 2015 monitoringMC_01 3151818 2015-07-26 1:00 25.6 8.09 46270 8.56 124.2 -64.88 30.0 2015-07-26T01:00
Mumford_Cove 41.32526111 -72.02088 2015 monitoringMC_01 3151818 2015-07-26 1:30 25.28 8.09 46180 8.48 122.4 -64.47 29.94 2015-07-26T01:30
Mumford_Cove 41.32526111 -72.02088 2015 monitoringMC_01 3151818 2015-07-26 2:00 25.08 8.09 46140 8.52 122.5 -64.39 29.92 2015-07-26T02:00
Mumford_Cove 41.32526111 -72.02088 2015 monitoringMC_01 3151818 2015-07-26 2:30 24.85 8.08 46220 8.18 117.2 -63.61 29.98 2015-07-26T02:30
Mumford_Cove 41.32526111 -72.02088 2015 monitoringMC_01 3151818 2015-07-26 3:00 24.69 8.08 46270 8.13 116.1 -63.7 30.02 2015-07-26T03:00
Mumford_Cove 41.32526111 -72.02088 2015 monitoringMC_01 3151818 2015-07-26 3:30 24.4 8.07 46200 7.96 113.1 -62.98 29.98 2015-07-26T03:30
Mumford_Cove 41.32526111 -72.02088 2015 monitoringMC_01 3151818 2015-07-26 4:00 24.34 8.06 46180 7.76 110.1 -62.33 29.96 2015-07-26T04:00
Mumford_Cove 41.32526111 -72.02088 2015 monitoringMC_01 3151818 2015-07-26 4:30 24.03 8.05 46270 7.64 107.9 -61.85 30.03 2015-07-26T04:30
Mumford_Cove 41.32526111 -72.02088 2015 monitoringMC_01 3151818 2015-07-26 5:00 23.71 8.04 46260 7.58 106.5 -61.1 30.03 2015-07-26T05:00
Mumford_Cove 41.32526111 -72.02088 2015 monitoringMC_01 3151818 2015-07-26 5:30 23.69 8.04 46270 7.44 104.5 -61.18 30.04 2015-07-26T05:30
Mumford_Cove 41.32526111 -72.02088 2015 monitoringMC_01 3151818 2015-07-26 6:00 23.41 8.02 46220 7.35 102.7 -59.89 30.01 2015-07-26T06:00
Mumford_Cove 41.32526111 -72.02088 2015 monitoringMC_01 3151818 2015-07-26 6:30 23.48 8.01 46200 7.17 100.3 -59.46 29.99 2015-07-26T06:30
Mumford_Cove 41.32526111 -72.02088 2015 monitoringMC_01 3151818 2015-07-26 7:00 23.52 8.01 46200 6.99 97.9 -59.39 29.99 2015-07-26T07:00
Mumford_Cove 41.32526111 -72.02088 2015 monitoringMC_01 3151818 2015-07-26 7:30 23.53 8.0 46200 6.79 95.1 -58.95 29.99 2015-07-26T07:30
Mumford_Cove 41.32526111 -72.02088 2015 monitoringMC_01 3151818 2015-07-26 8:00 23.61 8.0 46190 7.05 98.9 -59.09 29.99 2015-07-26T08:00
Mumford_Cove 41.32526111 -72.02088 2015 monitoringMC_01 3151818 2015-07-26 8:30 23.65 7.99 46230 6.85 96.1 -58.62 30.01 2015-07-26T08:30
Mumford_Cove 41.32526111 -72.02088 2015 monitoringMC_01 3151818 2015-07-26 9:00 23.73 8.01 46240 6.9 96.9 -59.54 30.02 2015-07-26T09:00
Mumford_Cove 41.32526111 -72.02088 2015 monitoringMC_01 3151818 2015-07-26 9:30 23.65 8.0 46200 6.72 94.2 -58.82 29.99 2015-07-26T09:30
Mumford_Cove 41.32526111 -72.02088 2015 monitoringMC_01 3151818 2015-07-26 10:00 23.76 8.03 46160 6.9 97.0 -60.46 29.96 2015-07-26T10:00
Mumford_Cove 41.32526111 -72.02088 2015 monitoringMC_01 3151818 2015-07-26 10:30 23.98 8.0 46220 6.9 97.4 -58.73 30.0 2015-07-26T10:30
Mumford_Cove 41.32526111 -72.02088 2015 monitoringMC_01 3151818 2015-07-26 11:00 24.0 8.0 46310 6.81 96.2 -58.81 30.06 2015-07-26T11:00
Mumford_Cove 41.32526111 -72.02088 2015 monitoringMC_01 3151818 2015-07-26 11:30 24.06 7.99 46210 6.76 95.6 -58.29 29.99 2015-07-26T11:30
Mumford_Cove 41.32526111 -72.02088 2015 monitoringMC_01 3151818 2015-07-26 12:00 24.24 7.99 46210 6.83 96.8 -58.58 29.99 2015-07-26T12:00
Mumford_Cove 41.32526111 -72.02088 2015 monitoringMC_01 3151818 2015-07-26 12:30 24.33 8.0 46240 6.94 98.5 -59.01 30.01 2015-07-26T12:30
Mumford_Cove 41.32526111 -72.02088 2015 monitoringMC_01 3151818 2015-07-26 13:00 24.62 8.01 46150 7.07 100.9 -59.57 29.93 2015-07-26T13:00
Mumford_Cove 41.32526111 -72.02088 2015 monitoringMC_01 3151818 2015-07-26 13:30 23.99 8.0 46200 7.4 104.4 -59.28 29.99 2015-07-26T13:30
Mumford_Cove 41.32526111 -72.02088 2015 monitoringMC_01 3151818 2015-07-26 14:00 24.09 8.03 46230 7.82 110.6 -60.75 30.01 2015-07-26T14:00
Mumford_Cove 41.32526111 -72.02088 2015 monitoringMC_01 3151818 2015-07-26 14:30 24.12 8.04 46180 8.02 113.4 -61.41 29.96 2015-07-26T14:30
Mumford_Cove 41.32526111 -72.02088 2015 monitoringMC_01 3151818 2015-07-26 15:00 24.02 8.06 46160 8.43 118.9 -62.48 29.96 2015-07-26T15:00
Mumford_Cove 41.32526111 -72.02088 2015 monitoringMC_01 3151818 2015-07-26 15:30 24.0 8.06 46310 8.39 118.5 -62.28 30.06 2015-07-26T15:30
Mumford_Cove 41.32526111 -72.02088 2015 monitoringMC_01 3151818 2015-07-26 16:00 23.86 8.07 46150 8.66 121.9 -62.88 29.95 2015-07-26T16:00
Mumford_Cove 41.32526111 -72.02088 2015 monitoringMC_01 3151818 2015-07-26 16:30 23.73 8.08 46150 8.91 125.2 -63.46 29.95 2015-07-26T16:30
Mumford_Cove 41.32526111 -72.02088 2015 monitoringMC_01 3151818 2015-07-26 17:00 23.7 8.08 46180 9.0 126.3 -63.8 29.97 2015-07-26T17:00
Mumford_Cove 41.32526111 -72.02088 2015 monitoringMC_01 3151818 2015-07-26 17:30 23.66 8.09 46170 9.05 127.0 -64.06 29.97 2015-07-26T17:30
Mumford_Cove 41.32526111 -72.02088 2015 monitoringMC_01 3151818 2015-07-26 18:00 23.6 8.08 46260 9.01 126.3 -63.62 30.03 2015-07-26T18:00
Mumford_Cove 41.32526111 -72.02088 2015 monitoringMC_01 3151818 2015-07-26 18:30 23.66 8.09 46110 9.15 128.3 -63.93 29.92 2015-07-26T18:30
Mumford_Cove 41.32526111 -72.02088 2015 monitoringMC_01 3151818 2015-07-26 19:00 23.73 8.08 46210 9.05 127.1 -63.87 30.0 2015-07-26T19:00
Mumford_Cove 41.32526111 -72.02088 2015 monitoringMC_01 3151818 2015-07-26 19:30 23.74 8.07 46200 8.93 125.4 -63.27 29.99 2015-07-26T19:30
Mumford_Cove 41.32526111 -72.02088 2015 monitoringMC_01 3151818 2015-07-26 20:00 23.88 8.08 46040 8.86 124.7 -63.82 29.87 2015-07-26T20:00
Mumford_Cove 41.32526111 -72.02088 2015 monitoringMC_01 3151818 2015-07-26 20:30 23.79 8.07 46210 8.83 124.2 -63.15 30.0 2015-07-26T20:30
Mumford_Cove 41.32526111 -72.02088 2015 monitoringMC_01 3151818 2015-07-26 21:00 23.82 8.06 46230 8.59 120.9 -62.21 30.01 2015-07-26T21:00
Mumford_Cove 41.32526111 -72.02088 2015 monitoringMC_01 3151818 2015-07-26 21:30 23.94 8.06 46210 8.44 119.0 -62.65 29.99 2015-07-26T21:30
Mumford_Cove 41.32526111 -72.02088 2015 monitoringMC_01 3151818 2015-07-26 22:00 23.9 8.04 46160 7.94 111.9 -61.06 29.96 2015-07-26T22:00
Mumford_Cove 41.32526111 -72.02088 2015 monitoringMC_01 3151818 2015-07-26 22:30 23.95 8.04 46120 7.85 110.7 -61.04 29.93 2015-07-26T22:30
Mumford_Cove 41.32526111 -72.02088 2015 monitoringMC_01 3151818 2015-07-26 23:00 24.09 8.02 46310 7.75 109.6 -60.26 30.06 2015-07-26T23:00
Mumford_Cove 41.32526111 -72.02088 2015 monitoringMC_01 3151818 2015-07-26 23:30 24.4 8.02 46260 7.62 108.3 -60.02 30.02 2015-07-26T23:30
Mumford_Cove 41.32526111 -72.02088 2015 monitoringMC_01 3151818 2015-07-27 0:00 24.72 8.02 46250 7.6 108.7 -60.17 30.0 2015-07-27T00:00
Mumford_Cove 41.32526111 -72.02088 2015 monitoringMC_01 3151818 2015-07-27 0:30 25.02 7.99 46230 7.28 104.7 -58.8 29.98 2015-07-27T00:30
Mumford_Cove 41.32526111 -72.02088 2015 monitoringMC_01 3151818 2015-07-27 1:00 24.62 7.99 46240 7.26 103.5 -58.52 30.0 2015-07-27T01:00
Mumford_Cove 41.32526111 -72.02088 2015 monitoringMC_01 3151818 2015-07-27 1:30 24.73 7.99 46250 7.2 102.9 -58.45 30.01 2015-07-27T01:30
Mumford_Cove 41.32526111 -72.02088 2015 monitoringMC_01 3151818 2015-07-27 2:00 24.53 7.92 46180 6.52 92.9 -54.32 29.96 2015-07-27T02:00
Mumford_Cove 41.32526111 -72.02088 2015 monitoringMC_01 3151818 2015-07-27 2:30 24.53 7.98 46170 6.91 98.5 -57.93 29.95 2015-07-27T02:30
Mumford_Cove 41.32526111 -72.02088 2015 monitoringMC_01 3151818 2015-07-27 3:00 24.19 7.95 46200 6.54 92.7 -56.0 29.98 2015-07-27T03:00
Mumford_Cove 41.32526111 -72.02088 2015 monitoringMC_01 3151818 2015-07-27 3:30 23.98 7.93 46110 6.38 90.0 -55.15 29.92 2015-07-27T03:30
Mumford_Cove 41.32526111 -72.02088 2015 monitoringMC_01 3151818 2015-07-27 4:00 23.76 7.94 46250 6.43 90.4 -55.69 30.02 2015-07-27T04:00
Mumford_Cove 41.32526111 -72.02088 2015 monitoringMC_01 3151818 2015-07-27 4:30 23.51 7.92 46060 6.21 86.9 -54.18 29.89 2015-07-27T04:30
Mumford_Cove 41.32526111 -72.02088 2015 monitoringMC_01 3151818 2015-07-27 5:00 23.34 7.89 46290 5.98 83.5 -52.7 30.06 2015-07-27T05:00
Mumford_Cove 41.32526111 -72.02088 2015 monitoringMC_01 3151818 2015-07-27 5:30 22.85 7.88 46210 6.02 83.2 -51.81 30.01 2015-07-27T05:30
Mumford_Cove 41.32526111 -72.02088 2015 monitoringMC_01 3151818 2015-07-27 6:00 22.4 7.86 45980 5.92 81.2 -50.54 29.85 2015-07-27T06:00
Mumford_Cove 41.32526111 -72.02088 2015 monitoringMC_01 3151818 2015-07-27 6:30 22.31 7.88 46010 6.14 84.0 -51.65 29.87 2015-07-27T06:30
Mumford_Cove 41.32526111 -72.02088 2015 monitoringMC_01 3151818 2015-07-27 7:00 22.34 7.89 45990 6.17 84.5 -52.01 29.86 2015-07-27T07:00
Mumford_Cove 41.32526111 -72.02088 2015 monitoringMC_01 3151818 2015-07-27 7:30 22.32 7.88 45970 6.11 83.7 -51.83 29.85 2015-07-27T07:30
Mumford_Cove 41.32526111 -72.02088 2015 monitoringMC_01 3151818 2015-07-27 8:00 22.35 7.87 46010 5.99 82.1 -51.17 29.88 2015-07-27T08:00
Mumford_Cove 41.32526111 -72.02088 2015 monitoringMC_01 3151818 2015-07-27 8:30 22.38 7.86 45970 5.91 81.0 -50.81 29.84 2015-07-27T08:30
Mumford_Cove 41.32526111 -72.02088 2015 monitoringMC_01 3151818 2015-07-27 9:00 22.48 7.85 46110 5.78 79.4 -50.21 29.94 2015-07-27T09:00
Mumford_Cove 41.32526111 -72.02088 2015 monitoringMC_01 3151818 2015-07-27 9:30 22.51 7.86 46150 5.71 78.5 -50.45 29.97 2015-07-27T09:30
Mumford_Cove 41.32526111 -72.02088 2015 monitoringMC_01 3151818 2015-07-27 10:00 22.51 7.83 46090 5.61 77.1 -48.97 29.93 2015-07-27T10:00
Mumford_Cove 41.32526111 -72.02088 2015 monitoringMC_01 3151818 2015-07-27 10:30 22.66 7.84 46100 5.52 76.1 -49.6 29.93 2015-07-27T10:30
Mumford_Cove 41.32526111 -72.02088 2015 monitoringMC_01 3151818 2015-07-27 11:00 22.62 7.85 46170 5.43 74.8 -49.87 29.98 2015-07-27T11:00
Mumford_Cove 41.32526111 -72.02088 2015 monitoringMC_01 3151818 2015-07-27 11:30 22.79 7.83 46060 5.33 73.6 -48.56 29.9 2015-07-27T11:30
Mumford_Cove 41.32526111 -72.02088 2015 monitoringMC_01 3151818 2015-07-27 12:00 22.73 7.83 46060 5.24 72.3 -48.58 29.9 2015-07-27T12:00
Mumford_Cove 41.32526111 -72.02088 2015 monitoringMC_01 3151818 2015-07-27 12:30 22.89 7.83 46130 4.92 68.0 -48.75 29.95 2015-07-27T12:30
Mumford_Cove 41.32526111 -72.02088 2015 monitoringMC_01 3151818 2015-07-27 13:00 23.16 7.86 45980 5.16 71.7 -50.4 29.84 2015-07-27T13:00
Mumford_Cove 41.32526111 -72.02088 2015 monitoringMC_01 3151818 2015-07-27 13:30 23.2 7.83 46150 5.33 74.2 -48.75 29.96 2015-07-27T13:30
Mumford_Cove 41.32526111 -72.02088 2015 monitoringMC_01 3151818 2015-07-27 14:00 23.38 7.83 46130 5.57 77.7 -48.83 29.94 2015-07-27T14:00
Mumford_Cove 41.32526111 -72.02088 2015 monitoringMC_01 3151818 2015-07-27 14:30 23.52 7.81 46140 5.54 77.5 -47.89 29.95 2015-07-27T14:30
Mumford_Cove 41.32526111 -72.02088 2015 monitoringMC_01 3151818 2015-07-27 15:00 23.76 7.87 46090 6.1 85.7 -51.22 29.91 2015-07-27T15:00
Mumford_Cove 41.32526111 -72.02088 2015 monitoringMC_01 3151818 2015-07-27 15:30 24.06 7.91 45980 6.79 95.8 -53.86 29.82 2015-07-27T15:30
Mumford_Cove 41.32526111 -72.02088 2015 monitoringMC_01 3151818 2015-07-27 16:00 24.28 7.95 45900 7.32 103.7 -56.25 29.76 2015-07-27T16:00
Mumford_Cove 41.32526111 -72.02088 2015 monitoringMC_01 3151818 2015-07-27 16:30 24.39 7.96 46020 7.43 105.6 -56.48 29.84 2015-07-27T16:30
Mumford_Cove 41.32526111 -72.02088 2015 monitoringMC_01 3151818 2015-07-27 17:00 24.21 7.97 45980 7.87 111.3 -57.22 29.82 2015-07-27T17:00
Mumford_Cove 41.32526111 -72.02088 2015 monitoringMC_01 3151818 2015-07-27 17:30 24.07 7.98 45920 8.08 114.0 -57.58 29.78 2015-07-27T17:30
Mumford_Cove 41.32526111 -72.02088 2015 monitoringMC_01 3151818 2015-07-27 18:00 24.14 7.99 46060 8.04 113.7 -58.34 29.88 2015-07-27T18:00
Mumford_Cove 41.32526111 -72.02088 2015 monitoringMC_01 3151818 2015-07-27 18:30 23.89 8.0 45950 8.36 117.7 -58.91 29.8 2015-07-27T18:30
Mumford_Cove 41.32526111 -72.02088 2015 monitoringMC_01 3151818 2015-07-27 19:00 23.74 8.0 45780 8.41 118.0 -58.94 29.69 2015-07-27T19:00
Mumford_Cove 41.32526111 -72.02088 2015 monitoringMC_01 3151818 2015-07-27 19:30 23.81 8.0 45840 8.31 116.7 -59.19 29.73 2015-07-27T19:30
Mumford_Cove 41.32526111 -72.02088 2015 monitoringMC_01 3151818 2015-07-27 20:00 23.84 8.0 45920 8.39 117.9 -58.73 29.79 2015-07-27T20:00
Mumford_Cove 41.32526111 -72.02088 2015 monitoringMC_01 3151818 2015-07-27 20:30 23.84 8.0 45810 8.1 113.8 -58.75 29.71 2015-07-27T20:30
Mumford_Cove 41.32526111 -72.02088 2015 monitoringMC_01 3151818 2015-07-27 21:00 23.86 8.0 45860 8.12 114.1 -58.88 29.74 2015-07-27T21:00
Mumford_Cove 41.32526111 -72.02088 2015 monitoringMC_01 3151818 2015-07-27 21:30 23.88 7.98 45900 8.05 113.2 -57.99 29.77 2015-07-27T21:30
Mumford_Cove 41.32526111 -72.02088 2015 monitoringMC_01 3151818 2015-07-27 22:00 23.88 7.98 45990 7.99 112.5 -57.96 29.83 2015-07-27T22:00
Mumford_Cove 41.32526111 -72.02088 2015 monitoringMC_01 3151818 2015-07-27 22:30 23.89 7.98 46000 7.59 106.9 -57.7 29.84 2015-07-27T22:30
Mumford_Cove 41.32526111 -72.02088 2015 monitoringMC_01 3151818 2015-07-27 23:00 23.93 7.97 45970 7.61 107.2 -57.2 29.82 2015-07-27T23:00
Mumford_Cove 41.32526111 -72.02088 2015 monitoringMC_01 3151818 2015-07-27 23:30 24.01 7.94 45960 7.5 105.8 -55.29 29.81 2015-07-27T23:30
Mumford_Cove 41.32526111 -72.02088 2015 monitoringMC_01 3151818 2015-07-28 0:00 24.45 7.93 45890 7.2 102.4 -55.05 29.75 2015-07-28T00:00
Mumford_Cove 41.32526111 -72.02088 2015 monitoringMC_01 3151818 2015-07-28 0:30 24.96 7.92 45950 6.88 98.7 -54.68 29.78 2015-07-28T00:30
Mumford_Cove 41.32526111 -72.02088 2015 monitoringMC_01 3151818 2015-07-28 1:00 24.87 7.89 46130 6.66 95.4 -52.63 29.92 2015-07-28T01:00
Mumford_Cove 41.32526111 -72.02088 2015 monitoringMC_01 3151818 2015-07-28 1:30 24.96 7.91 45980 6.3 90.4 -54.16 29.81 2015-07-28T01:30
Mumford_Cove 41.32526111 -72.02088 2015 monitoringMC_01 3151818 2015-07-28 2:00 24.73 7.84 45870 5.89 84.1 -49.85 29.73 2015-07-28T02:00
Mumford_Cove 41.32526111 -72.02088 2015 monitoringMC_01 3151818 2015-07-28 2:30 24.66 7.84 45940 6.06 86.5 -49.61 29.78 2015-07-28T02:30
Mumford_Cove 41.32526111 -72.02088 2015 monitoringMC_01 3151818 2015-07-28 3:00 24.59 7.86 45850 6.22 88.6 -51.18 29.72 2015-07-28T03:00
Mumford_Cove 41.32526111 -72.02088 2015 monitoringMC_01 3151818 2015-07-28 3:30 24.49 7.86 45900 6.14 87.3 -51.05 29.76 2015-07-28T03:30
Mumford_Cove 41.32526111 -72.02088 2015 monitoringMC_01 3151818 2015-07-28 4:00 24.31 7.86 45760 6.09 86.3 -50.77 29.66 2015-07-28T04:00
Mumford_Cove 41.32526111 -72.02088 2015 monitoringMC_01 3151818 2015-07-28 4:30 24.1 7.87 45900 6.23 87.9 -51.64 29.76 2015-07-28T04:30
Mumford_Cove 41.32526111 -72.02088 2015 monitoringMC_01 3151818 2015-07-28 5:00 24.01 7.87 46010 6.18 87.2 -51.12 29.84 2015-07-28T05:00
Mumford_Cove 41.32526111 -72.02088 2015 monitoringMC_01 3151818 2015-07-28 5:30 23.89 7.86 45940 6.08 85.6 -50.72 29.8 2015-07-28T05:30
Mumford_Cove 41.32526111 -72.02088 2015 monitoringMC_01 3151818 2015-07-28 6:00 23.37 7.86 45890 6.16 86.0 -50.76 29.77 2015-07-28T06:00
Mumford_Cove 41.32526111 -72.02088 2015 monitoringMC_01 3151818 2015-07-28 6:30 22.73 7.85 45870 6.16 84.9 -50.06 29.77 2015-07-28T06:30
Mumford_Cove 41.32526111 -72.02088 2015 monitoringMC_01 3151818 2015-07-28 7:00 22.35 7.85 45850 6.22 85.2 -50.03 29.76 2015-07-28T07:00
Mumford_Cove 41.32526111 -72.02088 2015 monitoringMC_01 3151818 2015-07-28 7:30 22.1 7.85 45840 6.24 85.1 -49.96 29.76 2015-07-28T07:30
Mumford_Cove 41.32526111 -72.02088 2015 monitoringMC_01 3151818 2015-07-28 8:00 22.02 7.85 45740 6.31 85.8 -50.14 29.68 2015-07-28T08:00
Mumford_Cove 41.32526111 -72.02088 2015 monitoringMC_01 3151818 2015-07-28 8:30 22.01 7.85 45770 6.27 85.3 -50.03 29.7 2015-07-28T08:30
Mumford_Cove 41.32526111 -72.02088 2015 monitoringMC_01 3151818 2015-07-28 9:00 22.09 7.86 45890 6.36 86.7 -50.58 29.79 2015-07-28T09:00
Mumford_Cove 41.32526111 -72.02088 2015 monitoringMC_01 3151818 2015-07-28 9:30 22.31 7.87 45870 6.34 86.8 -50.97 29.77 2015-07-28T09:30
Mumford_Cove 41.32526111 -72.02088 2015 monitoringMC_01 3151818 2015-07-28 10:00 22.34 7.89 45780 6.72 92.0 -52.19 29.71 2015-07-28T10:00
Mumford_Cove 41.32526111 -72.02088 2015 monitoringMC_01 3151818 2015-07-28 10:30 22.46 7.91 45860 6.86 94.2 -53.63 29.76 2015-07-28T10:30
Mumford_Cove 41.32526111 -72.02088 2015 monitoringMC_01 3151818 2015-07-28 11:00 22.56 7.91 45910 7.06 97.1 -53.74 29.8 2015-07-28T11:00
Mumford_Cove 41.32526111 -72.02088 2015 monitoringMC_01 3151818 2015-07-28 11:30 22.64 7.94 45900 7.21 99.2 -55.26 29.79 2015-07-28T11:30
Mumford_Cove 41.32526111 -72.02088 2015 monitoringMC_01 3151818 2015-07-28 12:00 22.82 7.96 45890 7.48 103.2 -56.59 29.78 2015-07-28T12:00
Mumford_Cove 41.32526111 -72.02088 2015 monitoringMC_01 3151818 2015-07-28 12:30 23.05 8.0 45830 8.22 113.9 -58.8 29.73 2015-07-28T12:30
Mumford_Cove 41.32526111 -72.02088 2015 monitoringMC_01 3151818 2015-07-28 13:00 23.37 7.98 45860 8.33 116.1 -57.61 29.75 2015-07-28T13:00
Mumford_Cove 41.32526111 -72.02088 2015 monitoringMC_01 3151818 2015-07-28 13:30 23.74 7.95 46130 7.68 107.9 -56.15 29.94 2015-07-28T13:30
Mumford_Cove 41.32526111 -72.02088 2015 monitoringMC_01 3151818 2015-07-28 14:00 23.91 7.98 46060 8.34 117.4 -58.06 29.88 2015-07-28T14:00
Mumford_Cove 41.32526111 -72.02088 2015 monitoringMC_01 3151818 2015-07-28 14:30 24.83 7.99 45910 8.3 118.7 -58.51 29.76 2015-07-28T14:30
Mumford_Cove 41.32526111 -72.02088 2015 monitoringMC_01 3151818 2015-07-28 15:00 24.39 8.06 45910 9.7 137.7 -62.49 29.76 2015-07-28T15:00
Mumford_Cove 41.32526111 -72.02088 2015 monitoringMC_01 3151818 2015-07-28 15:30 25.05 8.08 45960 9.94 142.8 -63.82 29.79 2015-07-28T15:30
Mumford_Cove 41.32526111 -72.02088 2015 monitoringMC_01 3151818 2015-07-28 16:00 25.32 8.12 45850 10.73 154.7 -66.21 29.7 2015-07-28T16:00
Mumford_Cove 41.32526111 -72.02088 2015 monitoringMC_01 3151818 2015-07-28 16:30 25.98 8.11 46020 10.77 157.1 -65.97 29.81 2015-07-28T16:30
Mumford_Cove 41.32526111 -72.02088 2015 monitoringMC_01 3151818 2015-07-28 17:00 25.91 8.12 45990 10.91 159.0 -66.16 29.79 2015-07-28T17:00
Mumford_Cove 41.32526111 -72.02088 2015 monitoringMC_01 3151818 2015-07-28 17:30 25.39 8.1 46040 10.53 152.2 -65.17 29.84 2015-07-28T17:30
Mumford_Cove 41.32526111 -72.02088 2015 monitoringMC_01 3151818 2015-07-28 18:00 24.79 8.09 46010 10.05 143.7 -64.31 29.83 2015-07-28T18:00
Mumford_Cove 41.32526111 -72.02088 2015 monitoringMC_01 3151818 2015-07-28 18:30 24.59 8.09 46020 9.96 142.0 -64.31 29.84 2015-07-28T18:30
Mumford_Cove 41.32526111 -72.02088 2015 monitoringMC_01 3151818 2015-07-28 19:00 24.45 8.09 45910 10.01 142.2 -64.61 29.76 2015-07-28T19:00
Mumford_Cove 41.32526111 -72.02088 2015 monitoringMC_01 3151818 2015-07-28 19:30 24.22 8.09 46030 9.88 139.8 -64.18 29.85 2015-07-28T19:30
Mumford_Cove 41.32526111 -72.02088 2015 monitoringMC_01 3151818 2015-07-28 20:00 24.07 8.08 45970 9.73 137.3 -63.74 29.81 2015-07-28T20:00
Mumford_Cove 41.32526111 -72.02088 2015 monitoringMC_01 3151818 2015-07-28 20:30 24.05 8.08 45930 9.55 134.7 -63.66 29.79 2015-07-28T20:30
Mumford_Cove 41.32526111 -72.02088 2015 monitoringMC_01 3151818 2015-07-28 21:00 23.89 8.08 46000 9.47 133.3 -63.39 29.84 2015-07-28T21:00
Mumford_Cove 41.32526111 -72.02088 2015 monitoringMC_01 3151818 2015-07-28 21:30 23.95 8.07 45990 9.44 133.0 -62.81 29.84 2015-07-28T21:30
Mumford_Cove 41.32526111 -72.02088 2015 monitoringMC_01 3151818 2015-07-28 22:00 24.01 8.07 45950 9.23 130.1 -62.97 29.8 2015-07-28T22:00
Mumford_Cove 41.32526111 -72.02088 2015 monitoringMC_01 3151818 2015-07-28 22:30 23.98 8.06 45960 9.12 128.6 -62.35 29.81 2015-07-28T22:30
Mumford_Cove 41.32526111 -72.02088 2015 monitoringMC_01 3151818 2015-07-28 23:00 24.09 8.04 45970 8.9 125.6 -61.25 29.82 2015-07-28T23:00
Mumford_Cove 41.32526111 -72.02088 2015 monitoringMC_01 3151818 2015-07-28 23:30 24.13 8.03 46020 8.31 117.5 -60.68 29.85 2015-07-28T23:30
Mumford_Cove 41.32526111 -72.02088 2015 monitoringMC_01 3151818 2015-07-29 0:00 24.14 8.05 45910 7.74 109.4 -62.19 29.77 2015-07-29T00:00
Mumford_Cove 41.32526111 -72.02088 2015 monitoringMC_01 3151818 2015-07-29 0:30 24.18 8.0 45970 7.63 107.9 -59.09 29.82 2015-07-29T00:30
Mumford_Cove 41.32526111 -72.02088 2015 monitoringMC_01 3151818 2015-07-29 1:00 24.41 7.96 45960 7.19 102.1 -56.68 29.8 2015-07-29T01:00
Mumford_Cove 41.32526111 -72.02088 2015 monitoringMC_01 3151818 2015-07-29 1:30 24.51 7.88 45970 6.52 92.8 -52.23 29.81 2015-07-29T01:30
Mumford_Cove 41.32526111 -72.02088 2015 monitoringMC_01 3151818 2015-07-29 2:00 24.68 7.94 45920 6.86 97.9 -55.6 29.77 2015-07-29T02:00
Mumford_Cove 41.32526111 -72.02088 2015 monitoringMC_01 3151818 2015-07-29 2:30 25.03 7.83 46090 5.98 85.9 -49.05 29.89 2015-07-29T02:30
Mumford_Cove 41.32526111 -72.02088 2015 monitoringMC_01 3151818 2015-07-29 3:00 25.16 7.94 45930 7.14 102.7 -55.9 29.76 2015-07-29T03:00
Mumford_Cove 41.32526111 -72.02088 2015 monitoringMC_01 3151818 2015-07-29 3:30 25.21 7.83 45870 6.48 93.3 -49.43 29.72 2015-07-29T03:30
Mumford_Cove 41.32526111 -72.02088 2015 monitoringMC_01 3151818 2015-07-29 4:00 25.82 7.93 45880 7.38 107.3 -55.0 29.71 2015-07-29T04:00
Mumford_Cove 41.32526111 -72.02088 2015 monitoringMC_01 3151818 2015-07-29 4:30 25.68 7.9 46000 7.08 102.7 -53.67 29.81 2015-07-29T04:30
Mumford_Cove 41.32526111 -72.02088 2015 monitoringMC_01 3151818 2015-07-29 5:00 25.37 7.92 45980 7.0 101.0 -54.45 29.8 2015-07-29T05:00
Mumford_Cove 41.32526111 -72.02088 2015 monitoringMC_01 3151818 2015-07-29 5:30 24.68 7.94 45900 7.16 102.2 -55.34 29.75 2015-07-29T05:30
Mumford_Cove 41.32526111 -72.02088 2015 monitoringMC_01 3151818 2015-07-29 6:00 23.39 7.94 46000 7.26 101.3 -55.44 29.85 2015-07-29T06:00
Mumford_Cove 41.32526111 -72.02088 2015 monitoringMC_01 3151818 2015-07-29 6:30 22.99 7.93 45950 7.12 98.7 -54.88 29.82 2015-07-29T06:30
Mumford_Cove 41.32526111 -72.02088 2015 monitoringMC_01 3151818 2015-07-29 7:00 22.4 7.92 45930 7.09 97.2 -54.21 29.82 2015-07-29T07:00
Mumford_Cove 41.32526111 -72.02088 2015 monitoringMC_01 3151818 2015-07-29 7:30 22.09 7.92 46010 7.04 96.0 -53.95 29.88 2015-07-29T07:30
Mumford_Cove 41.32526111 -72.02088 2015 monitoringMC_01 3151818 2015-07-29 8:00 21.89 7.93 45970 7.15 97.1 -54.66 29.85 2015-07-29T08:00
Mumford_Cove 41.32526111 -72.02088 2015 monitoringMC_01 3151818 2015-07-29 8:30 21.76 7.94 46130 7.23 98.1 -55.28 29.97 2015-07-29T08:30
Mumford_Cove 41.32526111 -72.02088 2015 monitoringMC_01 3151818 2015-07-29 9:00 21.7 7.96 46050 7.31 99.0 -56.29 29.91 2015-07-29T09:00
Mumford_Cove 41.32526111 -72.02088 2015 monitoringMC_01 3151818 2015-07-29 9:30 21.74 7.96 45990 7.38 100.0 -56.48 29.86 2015-07-29T09:30
Mumford_Cove 41.32526111 -72.02088 2015 monitoringMC_01 3151818 2015-07-29 10:00 21.89 7.95 45860 7.51 102.1 -55.7 29.77 2015-07-29T10:00
Mumford_Cove 41.32526111 -72.02088 2015 monitoringMC_01 3151818 2015-07-29 10:30 22.04 7.97 45920 7.14 97.3 -56.77 29.82 2015-07-29T10:30
Mumford_Cove 41.32526111 -72.02088 2015 monitoringMC_01 3151818 2015-07-29 11:00 22.22 7.98 45960 7.39 101.0 -57.37 29.84 2015-07-29T11:00
Mumford_Cove 41.32526111 -72.02088 2015 monitoringMC_01 3151818 2015-07-29 11:30 22.34 8.0 45970 7.6 104.1 -58.84 29.85 2015-07-29T11:30
Mumford_Cove 41.32526111 -72.02088 2015 monitoringMC_01 3151818 2015-07-29 12:00 22.47 8.02 45880 8.28 113.6 -59.87 29.78 2015-07-29T12:00
Mumford_Cove 41.32526111 -72.02088 2015 monitoringMC_01 3151818 2015-07-29 12:30 22.52 8.06 45970 9.03 124.1 -62.23 29.84 2015-07-29T12:30
Mumford_Cove 41.32526111 -72.02088 2015 monitoringMC_01 3151818 2015-07-29 13:00 22.83 8.07 45850 9.68 133.7 -62.79 29.75 2015-07-29T13:00
Mumford_Cove 41.32526111 -72.02088 2015 monitoringMC_01 3151818 2015-07-29 13:30 22.85 8.12 46000 10.13 140.0 -65.6 29.86 2015-07-29T13:30
Mumford_Cove 41.32526111 -72.02088 2015 monitoringMC_01 3151818 2015-07-29 14:00 23.09 8.12 46010 10.16 141.0 -66.01 29.86 2015-07-29T14:00
Mumford_Cove 41.32526111 -72.02088 2015 monitoringMC_01 3151818 2015-07-29 14:30 23.27 8.13 45990 10.4 144.8 -66.34 29.85 2015-07-29T14:30
Mumford_Cove 41.32526111 -72.02088 2015 monitoringMC_01 3151818 2015-07-29 15:00 24.04 8.12 46040 10.23 144.3 -65.74 29.87 2015-07-29T15:00
Mumford_Cove 41.32526111 -72.02088 2015 monitoringMC_01 3151818 2015-07-29 15:30 24.7 8.14 45950 10.56 150.7 -67.27 29.79 2015-07-29T15:30
Mumford_Cove 41.32526111 -72.02088 2015 monitoringMC_01 3151818 2015-07-29 16:00 24.42 8.14 46020 11.06 157.1 -67.31 29.84 2015-07-29T16:00
Mumford_Cove 41.32526111 -72.02088 2015 monitoringMC_01 3151818 2015-07-29 16:30 25.65 8.14 45980 11.07 160.6 -67.68 29.79 2015-07-29T16:30
Mumford_Cove 41.32526111 -72.02088 2015 monitoringMC_01 3151818 2015-07-29 17:00 26.24 8.14 46150 11.18 163.9 -67.5 29.9 2015-07-29T17:00
Mumford_Cove 41.32526111 -72.02088 2015 monitoringMC_01 3151818 2015-07-29 17:30 26.39 8.13 46130 11.29 166.0 -67.34 29.88 2015-07-29T17:30
Mumford_Cove 41.32526111 -72.02088 2015 monitoringMC_01 3151818 2015-07-29 18:00 26.1 8.11 46270 10.94 160.0 -66.05 29.99 2015-07-29T18:00
Mumford_Cove 41.32526111 -72.02088 2015 monitoringMC_01 3151818 2015-07-29 18:30 25.53 8.07 46070 10.18 147.4 -63.26 29.86 2015-07-29T18:30
Mumford_Cove 41.32526111 -72.02088 2015 monitoringMC_01 3151818 2015-07-29 19:00 24.91 8.06 46190 9.9 141.9 -62.64 29.96 2015-07-29T19:00
Mumford_Cove 41.32526111 -72.02088 2015 monitoringMC_01 3151818 2015-07-29 19:30 24.79 8.07 46200 9.96 142.6 -63.49 29.97 2015-07-29T19:30
Mumford_Cove 41.32526111 -72.02088 2015 monitoringMC_01 3151818 2015-07-29 20:00 24.51 8.09 46110 10.05 143.1 -64.29 29.91 2015-07-29T20:00
Mumford_Cove 41.32526111 -72.02088 2015 monitoringMC_01 3151818 2015-07-29 20:30 24.31 8.09 46160 9.98 141.6 -64.21 29.95 2015-07-29T20:30
Mumford_Cove 41.32526111 -72.02088 2015 monitoringMC_01 3151818 2015-07-29 21:00 24.06 8.09 46200 9.93 140.3 -64.37 29.98 2015-07-29T21:00
Mumford_Cove 41.32526111 -72.02088 2015 monitoringMC_01 3151818 2015-07-29 21:30 23.88 8.07 46130 9.48 133.5 -62.79 29.94 2015-07-29T21:30
Mumford_Cove 41.32526111 -72.02088 2015 monitoringMC_01 3151818 2015-07-29 22:00 23.89 8.06 46180 9.44 133.0 -62.29 29.97 2015-07-29T22:00
Mumford_Cove 41.32526111 -72.02088 2015 monitoringMC_01 3151818 2015-07-29 22:30 23.87 8.04 46120 8.89 125.2 -61.52 29.93 2015-07-29T22:30
Mumford_Cove 41.32526111 -72.02088 2015 monitoringMC_01 3151818 2015-07-29 23:00 23.97 8.04 46140 8.47 119.5 -61.05 29.94 2015-07-29T23:00
Mumford_Cove 41.32526111 -72.02088 2015 monitoringMC_01 3151818 2015-07-29 23:30 24.06 8.01 46060 8.07 114.0 -59.69 29.88 2015-07-29T23:30
Mumford_Cove 41.32526111 -72.02088 2015 monitoringMC_01 3151818 2015-07-30 0:00 24.14 7.94 46210 7.47 105.8 -55.8 29.99 2015-07-30T00:00
Mumford_Cove 41.32526111 -72.02088 2015 monitoringMC_01 3151818 2015-07-30 0:30 24.22 7.94 46140 6.75 95.6 -55.49 29.94 2015-07-30T00:30
Mumford_Cove 41.32526111 -72.02088 2015 monitoringMC_01 3151818 2015-07-30 1:00 24.26 7.92 46220 6.22 88.2 -54.61 30.0 2015-07-30T01:00
Mumford_Cove 41.32526111 -72.02088 2015 monitoringMC_01 3151818 2015-07-30 1:30 24.58 7.87 46250 6.91 98.6 -51.58 30.01 2015-07-30T01:30
Mumford_Cove 41.32526111 -72.02088 2015 monitoringMC_01 3151818 2015-07-30 2:00 26.01 7.94 46080 8.06 117.7 -55.95 29.85 2015-07-30T02:00
Mumford_Cove 41.32526111 -72.02088 2015 monitoringMC_01 3151818 2015-07-30 2:30 25.19 7.87 46370 7.07 101.9 -51.75 30.09 2015-07-30T02:30
Mumford_Cove 41.32526111 -72.02088 2015 monitoringMC_01 3151818 2015-07-30 3:00 25.98 7.89 46290 7.29 106.4 -52.68 30.01 2015-07-30T03:00
Mumford_Cove 41.32526111 -72.02088 2015 monitoringMC_01 3151818 2015-07-30 3:30 25.27 7.91 46200 6.83 98.5 -53.73 29.96 2015-07-30T03:30
Mumford_Cove 41.32526111 -72.02088 2015 monitoringMC_01 3151818 2015-07-30 4:00 25.7 7.95 46130 7.86 114.3 -56.39 29.9 2015-07-30T04:00
Mumford_Cove 41.32526111 -72.02088 2015 monitoringMC_01 3151818 2015-07-30 4:30 25.77 7.9 46070 6.96 101.2 -53.2 29.85 2015-07-30T04:30
Mumford_Cove 41.32526111 -72.02088 2015 monitoringMC_01 3151818 2015-07-30 5:00 25.95 7.9 46030 7.12 103.8 -53.71 29.82 2015-07-30T05:00
Mumford_Cove 41.32526111 -72.02088 2015 monitoringMC_01 3151818 2015-07-30 5:30 25.62 7.91 46100 6.97 101.1 -53.91 29.88 2015-07-30T05:30
Mumford_Cove 41.32526111 -72.02088 2015 monitoringMC_01 3151818 2015-07-30 6:00 25.2 7.91 46220 6.9 99.4 -54.14 29.97 2015-07-30T06:00
Mumford_Cove 41.32526111 -72.02088 2015 monitoringMC_01 3151818 2015-07-30 6:30 24.54 7.93 46190 6.77 96.4 -54.99 29.96 2015-07-30T06:30
Mumford_Cove 41.32526111 -72.02088 2015 monitoringMC_01 3151818 2015-07-30 7:00 23.52 7.99 46010 6.99 97.7 -58.39 29.86 2015-07-30T07:00
Mumford_Cove 41.32526111 -72.02088 2015 monitoringMC_01 3151818 2015-07-30 7:30 23.07 7.92 46040 6.93 96.2 -54.09 29.89 2015-07-30T07:30
Mumford_Cove 41.32526111 -72.02088 2015 monitoringMC_01 3151818 2015-07-30 8:00 22.77 7.92 46100 6.96 96.0 -54.08 29.93 2015-07-30T08:00
Mumford_Cove 41.32526111 -72.02088 2015 monitoringMC_01 3151818 2015-07-30 8:30 22.63 7.96 46010 7.01 96.5 -56.26 29.87 2015-07-30T08:30
Mumford_Cove 41.32526111 -72.02088 2015 monitoringMC_01 3151818 2015-07-30 9:00 22.56 7.94 46060 7.11 97.8 -55.28 29.91 2015-07-30T09:00
Mumford_Cove 41.32526111 -72.02088 2015 monitoringMC_01 3151818 2015-07-30 9:30 22.55 7.94 46160 6.94 95.5 -55.5 29.98 2015-07-30T09:30
Mumford_Cove 41.32526111 -72.02088 2015 monitoringMC_01 3151818 2015-07-30 10:00 22.6 7.95 46080 7.01 96.5 -56.03 29.92 2015-07-30T10:00
Mumford_Cove 41.32526111 -72.02088 2015 monitoringMC_01 3151818 2015-07-30 10:30 22.67 7.96 46220 6.84 94.3 -56.63 30.02 2015-07-30T10:30
Mumford_Cove 41.32526111 -72.02088 2015 monitoringMC_01 3151818 2015-07-30 11:00 22.84 7.97 46020 6.78 93.7 -57.13 29.87 2015-07-30T11:00
Mumford_Cove 41.32526111 -72.02088 2015 monitoringMC_01 3151818 2015-07-30 11:30 22.94 7.99 46080 6.86 95.0 -58.43 29.92 2015-07-30T11:30
Mumford_Cove 41.32526111 -72.02088 2015 monitoringMC_01 3151818 2015-07-30 12:00 22.99 8.03 46160 7.19 99.7 -60.49 29.97 2015-07-30T12:00
Mumford_Cove 41.32526111 -72.02088 2015 monitoringMC_01 3151818 2015-07-30 12:30 23.08 8.04 46120 8.37 116.3 -61.07 29.94 2015-07-30T12:30
Mumford_Cove 41.32526111 -72.02088 2015 monitoringMC_01 3151818 2015-07-30 13:00 23.24 8.05 46070 8.81 122.7 -61.73 29.91 2015-07-30T13:00
Mumford_Cove 41.32526111 -72.02088 2015 monitoringMC_01 3151818 2015-07-30 13:30 23.51 8.04 45990 9.06 126.6 -61.43 29.84 2015-07-30T13:30
Mumford_Cove 41.32526111 -72.02088 2015 monitoringMC_01 3151818 2015-07-30 14:00 23.86 8.06 46220 9.23 130.0 -62.22 30.0 2015-07-30T14:00
Mumford_Cove 41.32526111 -72.02088 2015 monitoringMC_01 3151818 2015-07-30 14:30 25.61 8.0 45950 8.78 127.2 -59.6 29.77 2015-07-30T14:30
Mumford_Cove 41.32526111 -72.02088 2015 monitoringMC_01 3151818 2015-07-30 15:00 25.61 8.02 46090 8.86 128.5 -60.49 29.87 2015-07-30T15:00
Mumford_Cove 41.32526111 -72.02088 2015 monitoringMC_01 3151818 2015-07-30 15:30 25.46 8.03 46200 9.09 131.5 -60.98 29.95 2015-07-30T15:30
Mumford_Cove 41.32526111 -72.02088 2015 monitoringMC_01 3151818 2015-07-30 16:00 25.82 8.03 46160 9.01 131.2 -60.93 29.92 2015-07-30T16:00
Mumford_Cove 41.32526111 -72.02088 2015 monitoringMC_01 3151818 2015-07-30 16:30 24.95 8.12 46170 10.42 149.5 -66.2 29.95 2015-07-30T16:30
Mumford_Cove 41.32526111 -72.02088 2015 monitoringMC_01 3151818 2015-07-30 17:00 25.98 8.1 46160 10.08 147.1 -65.11 29.91 2015-07-30T17:00
Mumford_Cove 41.32526111 -72.02088 2015 monitoringMC_01 3151818 2015-07-30 17:30 25.95 8.08 46070 9.83 143.4 -64.02 29.85 2015-07-30T17:30
Mumford_Cove 41.32526111 -72.02088 2015 monitoringMC_01 3151818 2015-07-30 18:00 25.72 8.05 46180 9.26 134.5 -62.06 29.94 2015-07-30T18:00
Mumford_Cove 41.32526111 -72.02088 2015 monitoringMC_01 3151818 2015-07-30 18:30 25.29 8.03 46170 8.87 127.9 -60.89 29.93 2015-07-30T18:30
Mumford_Cove 41.32526111 -72.02088 2015 monitoringMC_01 3151818 2015-07-30 19:00 24.86 8.01 46190 8.53 122.2 -59.56 29.96 2015-07-30T19:00
Mumford_Cove 41.32526111 -72.02088 2015 monitoringMC_01 3151818 2015-07-30 19:30 24.15 8.0 46180 8.22 116.3 -58.78 29.96 2015-07-30T19:30
Mumford_Cove 41.32526111 -72.02088 2015 monitoringMC_01 3151818 2015-07-30 20:00 23.88 8.0 46130 8.14 114.6 -58.98 29.93 2015-07-30T20:00
Mumford_Cove 41.32526111 -72.02088 2015 monitoringMC_01 3151818 2015-07-30 20:30 23.84 7.99 46060 7.96 111.9 -58.29 29.88 2015-07-30T20:30
Mumford_Cove 41.32526111 -72.02088 2015 monitoringMC_01 3151818 2015-07-30 21:00 23.78 8.0 45940 7.96 111.8 -58.68 29.8 2015-07-30T21:00
Mumford_Cove 41.32526111 -72.02088 2015 monitoringMC_01 3151818 2015-07-30 21:30 23.71 7.99 46010 7.73 108.5 -58.3 29.85 2015-07-30T21:30
Mumford_Cove 41.32526111 -72.02088 2015 monitoringMC_01 3151818 2015-07-30 22:00 23.64 7.98 46010 7.59 106.4 -57.7 29.85 2015-07-30T22:00
Mumford_Cove 41.32526111 -72.02088 2015 monitoringMC_01 3151818 2015-07-30 22:30 23.65 7.96 46010 7.42 104.0 -56.86 29.85 2015-07-30T22:30
Mumford_Cove 41.32526111 -72.02088 2015 monitoringMC_01 3151818 2015-07-30 23:00 23.61 7.96 45960 7.39 103.5 -56.74 29.82 2015-07-30T23:00
Mumford_Cove 41.32526111 -72.02088 2015 monitoringMC_01 3151818 2015-07-30 23:30 23.63 7.95 45910 6.92 96.9 -56.29 29.78 2015-07-30T23:30
Mumford_Cove 41.32526111 -72.02088 2015 monitoringMC_01 3151818 2015-07-31 0:00 23.71 7.93 46000 6.93 97.3 -54.91 29.84 2015-07-31T00:00
Mumford_Cove 41.32526111 -72.02088 2015 monitoringMC_01 3151818 2015-07-31 0:30 23.72 7.94 45940 7.07 99.1 -55.53 29.8 2015-07-31T00:30
Mumford_Cove 41.32526111 -72.02088 2015 monitoringMC_01 3151818 2015-07-31 1:00 23.68 7.93 45860 6.87 96.2 -54.89 29.75 2015-07-31T01:00
Mumford_Cove 41.32526111 -72.02088 2015 monitoringMC_01 3151818 2015-07-31 1:30 23.78 7.92 45970 6.89 96.8 -54.56 29.82 2015-07-31T01:30
Mumford_Cove 41.32526111 -72.02088 2015 monitoringMC_01 3151818 2015-07-31 2:00 23.85 7.92 45930 6.8 95.6 -54.24 29.79 2015-07-31T02:00
Mumford_Cove 41.32526111 -72.02088 2015 monitoringMC_01 3151818 2015-07-31 2:30 25.45 7.98 46060 7.49 108.3 -58.2 29.85 2015-07-31T02:30
Mumford_Cove 41.32526111 -72.02088 2015 monitoringMC_01 3151818 2015-07-31 3:00 25.55 7.87 45970 6.62 95.9 -51.84 29.79 2015-07-31T03:00
Mumford_Cove 41.32526111 -72.02088 2015 monitoringMC_01 3151818 2015-07-31 3:30 25.74 7.82 46040 5.81 84.5 -49.03 29.83 2015-07-31T03:30
Mumford_Cove 41.32526111 -72.02088 2015 monitoringMC_01 3151818 2015-07-31 4:00 25.75 7.81 46010 5.38 78.2 -48.23 29.81 2015-07-31T04:00
Mumford_Cove 41.32526111 -72.02088 2015 monitoringMC_01 3151818 2015-07-31 4:30 24.85 7.82 46030 5.42 77.6 -48.53 29.84 2015-07-31T04:30
Mumford_Cove 41.32526111 -72.02088 2015 monitoringMC_01 3151818 2015-07-31 5:00 25.2 7.73 45950 4.79 68.9 -43.38 29.78 2015-07-31T05:00
Mumford_Cove 41.32526111 -72.02088 2015 monitoringMC_01 3151818 2015-07-31 5:30 25.52 7.81 45990 5.54 80.2 -48.36 29.8 2015-07-31T05:30
Mumford_Cove 41.32526111 -72.02088 2015 monitoringMC_01 3151818 2015-07-31 6:00 25.26 7.8 45980 5.36 77.3 -47.4 29.8 2015-07-31T06:00
Mumford_Cove 41.32526111 -72.02088 2015 monitoringMC_01 3151818 2015-07-31 6:30 24.95 7.8 45840 5.39 77.3 -47.64 29.7 2015-07-31T06:30
Mumford_Cove 41.32526111 -72.02088 2015 monitoringMC_01 3151818 2015-07-31 7:00 24.6 7.82 45900 5.57 79.4 -48.73 29.75 2015-07-31T07:00
Mumford_Cove 41.32526111 -72.02088 2015 monitoringMC_01 3151818 2015-07-31 7:30 23.09 7.85 45900 5.95 82.5 -49.79 29.78 2015-07-31T07:30
Mumford_Cove 41.32526111 -72.02088 2015 monitoringMC_01 3151818 2015-07-31 8:00 22.55 7.85 46020 6.23 85.7 -50.21 29.88 2015-07-31T08:00
Mumford_Cove 41.32526111 -72.02088 2015 monitoringMC_01 3151818 2015-07-31 8:30 22.01 7.88 46050 6.49 88.4 -51.55 29.9 2015-07-31T08:30
Mumford_Cove 41.32526111 -72.02088 2015 monitoringMC_01 3151818 2015-07-31 9:00 21.87 7.89 45980 6.69 90.9 -51.9 29.86 2015-07-31T09:00
Mumford_Cove 41.32526111 -72.02088 2015 monitoringMC_01 3151818 2015-07-31 9:30 21.88 7.89 46000 6.86 93.2 -52.45 29.87 2015-07-31T09:30
Mumford_Cove 41.32526111 -72.02088 2015 monitoringMC_01 3151818 2015-07-31 10:00 21.99 7.91 45960 6.92 94.1 -53.33 29.84 2015-07-31T10:00
Mumford_Cove 41.32526111 -72.02088 2015 monitoringMC_01 3151818 2015-07-31 10:30 22.22 7.91 46000 7.01 95.8 -53.33 29.87 2015-07-31T10:30
Mumford_Cove 41.32526111 -72.02088 2015 monitoringMC_01 3151818 2015-07-31 11:00 22.27 7.97 46080 7.43 101.6 -57.04 29.93 2015-07-31T11:00
Mumford_Cove 41.32526111 -72.02088 2015 monitoringMC_01 3151818 2015-07-31 11:30 22.34 7.98 46000 7.59 103.9 -57.26 29.87 2015-07-31T11:30
Mumford_Cove 41.32526111 -72.02088 2015 monitoringMC_01 3151818 2015-07-31 12:00 22.49 8.0 46020 8.09 111.1 -58.73 29.88 2015-07-31T12:00
Mumford_Cove 41.32526111 -72.02088 2015 monitoringMC_01 3151818 2015-07-31 12:30 22.67 8.02 45970 8.38 115.5 -60.18 29.84 2015-07-31T12:30
Mumford_Cove 41.32526111 -72.02088 2015 monitoringMC_01 3151818 2015-07-31 13:00 22.79 8.04 46070 8.88 122.7 -61.3 29.91 2015-07-31T13:00
Mumford_Cove 41.32526111 -72.02088 2015 monitoringMC_01 3151818 2015-07-31 13:30 22.96 8.06 46090 9.35 129.6 -62.52 29.92 2015-07-31T13:30
Mumford_Cove 41.32526111 -72.02088 2015 monitoringMC_01 3151818 2015-07-31 14:00 23.1 8.1 46190 9.83 136.6 -64.4 29.99 2015-07-31T14:00
Mumford_Cove 41.32526111 -72.02088 2015 monitoringMC_01 3151818 2015-07-31 14:30 23.23 8.1 45930 10.39 144.5 -64.45 29.8 2015-07-31T14:30
Mumford_Cove 41.32526111 -72.02088 2015 monitoringMC_01 3151818 2015-07-31 15:00 24.25 8.09 45700 10.18 144.0 -64.06 29.62 2015-07-31T15:00
Mumford_Cove 41.32526111 -72.02088 2015 monitoringMC_01 3151818 2015-07-31 15:30 23.99 8.08 46260 9.89 139.6 -63.85 30.03 2015-07-31T15:30
Mumford_Cove 41.32526111 -72.02088 2015 monitoringMC_01 3151818 2015-07-31 16:00 24.23 8.1 46130 10.25 145.2 -64.97 29.93 2015-07-31T16:00
Mumford_Cove 41.32526111 -72.02088 2015 monitoringMC_01 3151818 2015-07-31 16:30 24.48 8.13 46020 10.47 148.9 -66.43 29.84 2015-07-31T16:30
Mumford_Cove 41.32526111 -72.02088 2015 monitoringMC_01 3151818 2015-07-31 17:00 25.19 8.11 46030 10.22 147.1 -65.93 29.84 2015-07-31T17:00
Mumford_Cove 41.32526111 -72.02088 2015 monitoringMC_01 3151818 2015-07-31 17:30 26.17 8.12 46030 10.6 155.2 -66.4 29.81 2015-07-31T17:30
Mumford_Cove 41.32526111 -72.02088 2015 monitoringMC_01 3151818 2015-07-31 18:00 26.62 8.13 46200 10.41 153.6 -66.95 29.92 2015-07-31T18:00
Mumford_Cove 41.32526111 -72.02088 2015 monitoringMC_01 3151818 2015-07-31 18:30 26.57 8.13 46190 10.35 152.7 -67.32 29.92 2015-07-31T18:30
Mumford_Cove 41.32526111 -72.02088 2015 monitoringMC_01 3151818 2015-07-31 19:00 26.0 8.11 46270 9.86 144.1 -65.87 29.99 2015-07-31T19:00
Mumford_Cove 41.32526111 -72.02088 2015 monitoringMC_01 3151818 2015-07-31 19:30 25.54 8.1 46220 9.66 140.0 -65.12 29.96 2015-07-31T19:30
Mumford_Cove 41.32526111 -72.02088 2015 monitoringMC_01 3151818 2015-07-31 20:00 23.91 8.05 46200 9.02 127.1 -61.92 29.99 2015-07-31T20:00
Mumford_Cove 41.32526111 -72.02088 2015 monitoringMC_01 3151818 2015-07-31 20:30 23.13 8.04 46240 8.75 121.7 -61.13 30.03 2015-07-31T20:30
Mumford_Cove 41.32526111 -72.02088 2015 monitoringMC_01 3151818 2015-07-31 21:00 22.89 8.05 46130 8.75 121.1 -61.58 29.95 2015-07-31T21:00
Mumford_Cove 41.32526111 -72.02088 2015 monitoringMC_01 3151818 2015-07-31 21:30 22.73 8.04 46170 8.57 118.3 -61.16 29.98 2015-07-31T21:30
Mumford_Cove 41.32526111 -72.02088 2015 monitoringMC_01 3151818 2015-07-31 22:00 22.67 8.03 46080 8.52 117.4 -60.68 29.92 2015-07-31T22:00
Mumford_Cove 41.32526111 -72.02088 2015 monitoringMC_01 3151818 2015-07-31 22:30 22.56 8.03 46080 8.42 115.9 -60.23 29.92 2015-07-31T22:30
Mumford_Cove 41.32526111 -72.02088 2015 monitoringMC_01 3151818 2015-07-31 23:00 22.53 8.02 46110 8.34 114.7 -59.88 29.95 2015-07-31T23:00
Mumford_Cove 41.32526111 -72.02088 2015 monitoringMC_01 3151818 2015-07-31 23:30 22.51 8.01 46130 8.18 112.4 -59.47 29.96 2015-07-31T23:30
Mumford_Cove 41.32526111 -72.02088 2015 monitoringMC_01 3151818 2015-08-01 0:00 22.51 8.0 46100 7.88 108.3 -58.74 29.93 2015-08-01T00:00
Mumford_Cove 41.32526111 -72.02088 2015 monitoringMC_01 3151818 2015-08-01 0:30 22.55 8.0 46050 7.93 109.0 -58.67 29.9 2015-08-01T00:30
Mumford_Cove 41.32526111 -72.02088 2015 monitoringMC_01 3151818 2015-08-01 1:00 22.62 7.97 46160 7.38 101.6 -56.78 29.98 2015-08-01T01:00
Mumford_Cove 41.32526111 -72.02088 2015 monitoringMC_01 3151818 2015-08-01 1:30 22.66 7.94 46180 6.92 95.4 -55.37 29.99 2015-08-01T01:30
Mumford_Cove 41.32526111 -72.02088 2015 monitoringMC_01 3151818 2015-08-01 2:00 22.7 7.89 46010 6.41 88.4 -52.48 29.87 2015-08-01T02:00
Mumford_Cove 41.32526111 -72.02088 2015 monitoringMC_01 3151818 2015-08-01 2:30 22.76 7.9 46080 6.39 88.2 -52.99 29.92 2015-08-01T02:30
Mumford_Cove 41.32526111 -72.02088 2015 monitoringMC_01 3151818 2015-08-01 3:00 22.78 7.83 46190 6.24 86.2 -48.76 30.0 2015-08-01T03:00
Mumford_Cove 41.32526111 -72.02088 2015 monitoringMC_01 3151818 2015-08-01 3:30 24.84 7.9 45620 6.5 92.8 -53.13 29.55 2015-08-01T03:30
Mumford_Cove 41.32526111 -72.02088 2015 monitoringMC_01 3151818 2015-08-01 4:00 25.14 7.89 45990 6.55 94.2 -52.78 29.81 2015-08-01T04:00
Mumford_Cove 41.32526111 -72.02088 2015 monitoringMC_01 3151818 2015-08-01 4:30 25.27 7.89 46140 6.62 95.5 -53.03 29.91 2015-08-01T04:30
Mumford_Cove 41.32526111 -72.02088 2015 monitoringMC_01 3151818 2015-08-01 5:00 25.36 7.88 45870 6.62 95.6 -52.25 29.71 2015-08-01T05:00
Mumford_Cove 41.32526111 -72.02088 2015 monitoringMC_01 3151818 2015-08-01 5:30 25.31 7.9 46050 6.6 95.3 -53.44 29.85 2015-08-01T05:30
Mumford_Cove 41.32526111 -72.02088 2015 monitoringMC_01 3151818 2015-08-01 6:00 25.04 7.85 45980 6.06 87.0 -50.27 29.8 2015-08-01T06:00
Mumford_Cove 41.32526111 -72.02088 2015 monitoringMC_01 3151818 2015-08-01 6:30 24.92 7.83 45980 5.85 83.9 -49.38 29.81 2015-08-01T06:30
Mumford_Cove 41.32526111 -72.02088 2015 monitoringMC_01 3151818 2015-08-01 7:00 24.46 7.87 46010 6.12 87.0 -51.53 29.84 2015-08-01T07:00
Mumford_Cove 41.32526111 -72.02088 2015 monitoringMC_01 3151818 2015-08-01 7:30 23.94 7.89 46020 6.39 90.0 -52.6 29.85 2015-08-01T07:30
Mumford_Cove 41.32526111 -72.02088 2015 monitoringMC_01 3151818 2015-08-01 8:00 23.01 7.9 45940 6.52 90.4 -52.75 29.81 2015-08-01T08:00
Mumford_Cove 41.32526111 -72.02088 2015 monitoringMC_01 3151818 2015-08-01 8:30 22.17 7.9 46060 6.83 93.3 -53.1 29.91 2015-08-01T08:30
Mumford_Cove 41.32526111 -72.02088 2015 monitoringMC_01 3151818 2015-08-01 9:00 21.85 7.92 46170 7.11 96.6 -53.98 30.0 2015-08-01T09:00
Mumford_Cove 41.32526111 -72.02088 2015 monitoringMC_01 3151818 2015-08-01 9:30 21.78 7.93 46070 7.33 99.4 -54.74 29.93 2015-08-01T09:30
Mumford_Cove 41.32526111 -72.02088 2015 monitoringMC_01 3151818 2015-08-01 10:00 21.9 7.95 46030 7.47 101.6 -55.43 29.89 2015-08-01T10:00
Mumford_Cove 41.32526111 -72.02088 2015 monitoringMC_01 3151818 2015-08-01 10:30 22.06 7.96 46150 7.59 103.5 -56.13 29.98 2015-08-01T10:30
Mumford_Cove 41.32526111 -72.02088 2015 monitoringMC_01 3151818 2015-08-01 11:00 22.29 7.97 46050 7.72 105.7 -56.91 29.9 2015-08-01T11:00
Mumford_Cove 41.32526111 -72.02088 2015 monitoringMC_01 3151818 2015-08-01 11:30 22.65 7.99 46000 7.63 105.1 -57.89 29.86 2015-08-01T11:30
Mumford_Cove 41.32526111 -72.02088 2015 monitoringMC_01 3151818 2015-08-01 12:00 22.59 8.01 46170 8.33 114.7 -59.4 29.99 2015-08-01T12:00
Mumford_Cove 41.32526111 -72.02088 2015 monitoringMC_01 3151818 2015-08-01 12:30 22.65 8.05 46030 8.73 120.2 -61.53 29.89 2015-08-01T12:30
Mumford_Cove 41.32526111 -72.02088 2015 monitoringMC_01 3151818 2015-08-01 13:00 22.72 8.07 46200 9.08 125.3 -63.0 30.0 2015-08-01T13:00
Mumford_Cove 41.32526111 -72.02088 2015 monitoringMC_01 3151818 2015-08-01 13:30 22.83 8.11 46110 9.95 137.6 -65.17 29.94 2015-08-01T13:30
Mumford_Cove 41.32526111 -72.02088 2015 monitoringMC_01 3151818 2015-08-01 14:00 22.95 8.11 46080 10.09 139.8 -65.25 29.91 2015-08-01T14:00
Mumford_Cove 41.32526111 -72.02088 2015 monitoringMC_01 3151818 2015-08-01 14:30 23.06 8.13 46060 10.51 145.8 -66.22 29.9 2015-08-01T14:30
Mumford_Cove 41.32526111 -72.02088 2015 monitoringMC_01 3151818 2015-08-01 15:00 23.21 8.15 46030 10.89 151.6 -67.81 29.88 2015-08-01T15:00
Mumford_Cove 41.32526111 -72.02088 2015 monitoringMC_01 3151818 2015-08-01 15:30 23.51 8.15 46250 10.92 152.9 -67.44 30.03 2015-08-01T15:30
Mumford_Cove 41.32526111 -72.02088 2015 monitoringMC_01 3151818 2015-08-01 16:00 24.47 8.1 46010 10.6 150.7 -65.18 29.84 2015-08-01T16:00
Mumford_Cove 41.32526111 -72.02088 2015 monitoringMC_01 3151818 2015-08-01 16:30 24.94 8.09 46010 10.2 146.2 -64.59 29.83 2015-08-01T16:30
Mumford_Cove 41.32526111 -72.02088 2015 monitoringMC_01 3151818 2015-08-01 17:00 24.34 8.14 46020 10.82 153.5 -67.46 29.84 2015-08-01T17:00
Mumford_Cove 41.32526111 -72.02088 2015 monitoringMC_01 3151818 2015-08-01 17:30 24.83 8.13 46040 10.58 151.4 -66.73 29.85 2015-08-01T17:30
Mumford_Cove 41.32526111 -72.02088 2015 monitoringMC_01 3151818 2015-08-01 18:00 25.28 8.13 46080 10.56 152.3 -67.04 29.87 2015-08-01T18:00
Mumford_Cove 41.32526111 -72.02088 2015 monitoringMC_01 3151818 2015-08-01 18:30 25.85 8.14 46070 10.68 155.5 -67.5 29.85 2015-08-01T18:30
Mumford_Cove 41.32526111 -72.02088 2015 monitoringMC_01 3151818 2015-08-01 19:00 25.75 8.15 46100 10.59 153.9 -68.01 29.88 2015-08-01T19:00
Mumford_Cove 41.32526111 -72.02088 2015 monitoringMC_01 3151818 2015-08-01 19:30 25.63 8.14 46200 10.08 146.4 -67.31 29.95 2015-08-01T19:30
Mumford_Cove 41.32526111 -72.02088 2015 monitoringMC_01 3151818 2015-08-01 20:00 25.19 8.12 46170 9.73 140.1 -66.02 29.94 2015-08-01T20:00
Mumford_Cove 41.32526111 -72.02088 2015 monitoringMC_01 3151818 2015-08-01 20:30 24.64 8.1 46270 9.55 136.4 -65.09 30.02 2015-08-01T20:30
Mumford_Cove 41.32526111 -72.02088 2015 monitoringMC_01 3151818 2015-08-01 21:00 23.24 8.07 46150 9.06 126.2 -62.78 29.96 2015-08-01T21:00
Mumford_Cove 41.32526111 -72.02088 2015 monitoringMC_01 3151818 2015-08-01 21:30 22.54 8.05 46120 8.82 121.3 -61.69 29.95 2015-08-01T21:30
Mumford_Cove 41.32526111 -72.02088 2015 monitoringMC_01 3151818 2015-08-01 22:00 22.27 8.05 46110 8.72 119.3 -61.64 29.95 2015-08-01T22:00
Mumford_Cove 41.32526111 -72.02088 2015 monitoringMC_01 3151818 2015-08-01 22:30 22.1 8.03 46100 8.49 115.8 -60.46 29.94 2015-08-01T22:30
Mumford_Cove 41.32526111 -72.02088 2015 monitoringMC_01 3151818 2015-08-01 23:00 22.09 8.03 46150 8.37 114.3 -60.31 29.98 2015-08-01T23:00
Mumford_Cove 41.32526111 -72.02088 2015 monitoringMC_01 3151818 2015-08-01 23:30 22.01 8.02 46090 8.23 112.1 -59.75 29.94 2015-08-01T23:30
Mumford_Cove 41.32526111 -72.02088 2015 monitoringMC_01 3151818 2015-08-02 0:00 21.97 8.01 46150 8.0 109.0 -59.37 29.98 2015-08-02T00:00
Mumford_Cove 41.32526111 -72.02088 2015 monitoringMC_01 3151818 2015-08-02 0:30 21.96 8.0 46220 7.85 106.9 -58.79 30.03 2015-08-02T00:30
Mumford_Cove 41.32526111 -72.02088 2015 monitoringMC_01 3151818 2015-08-02 1:00 21.98 7.99 46120 7.49 102.0 -58.14 29.96 2015-08-02T01:00
Mumford_Cove 41.32526111 -72.02088 2015 monitoringMC_01 3151818 2015-08-02 1:30 22.01 7.98 46100 7.54 102.8 -57.53 29.94 2015-08-02T01:30
Mumford_Cove 41.32526111 -72.02088 2015 monitoringMC_01 3151818 2015-08-02 2:00 22.1 7.94 46180 7.08 96.7 -54.99 30.0 2015-08-02T02:00
Mumford_Cove 41.32526111 -72.02088 2015 monitoringMC_01 3151818 2015-08-02 2:30 22.08 7.91 46100 6.62 90.3 -53.62 29.95 2015-08-02T02:30
Mumford_Cove 41.32526111 -72.02088 2015 monitoringMC_01 3151818 2015-08-02 3:00 22.11 7.88 46150 6.25 85.3 -51.55 29.97 2015-08-02T03:00
Mumford_Cove 41.32526111 -72.02088 2015 monitoringMC_01 3151818 2015-08-02 3:30 22.22 7.89 46170 5.85 80.1 -52.21 29.99 2015-08-02T03:30
Mumford_Cove 41.32526111 -72.02088 2015 monitoringMC_01 3151818 2015-08-02 4:00 23.19 7.91 46030 6.5 90.4 -53.32 29.87 2015-08-02T04:00
Mumford_Cove 41.32526111 -72.02088 2015 monitoringMC_01 3151818 2015-08-02 4:30 24.94 7.93 45720 6.89 98.6 -55.19 29.62 2015-08-02T04:30
Mumford_Cove 41.32526111 -72.02088 2015 monitoringMC_01 3151818 2015-08-02 5:00 25.23 7.94 46100 6.95 100.1 -55.7 29.89 2015-08-02T05:00
Mumford_Cove 41.32526111 -72.02088 2015 monitoringMC_01 3151818 2015-08-02 5:30 25.23 7.93 46110 6.76 97.4 -54.9 29.89 2015-08-02T05:30
Mumford_Cove 41.32526111 -72.02088 2015 monitoringMC_01 3151818 2015-08-02 6:00 24.91 7.92 46190 6.49 93.1 -54.62 29.96 2015-08-02T06:00
Mumford_Cove 41.32526111 -72.02088 2015 monitoringMC_01 3151818 2015-08-02 6:30 24.67 7.9 46030 6.42 91.7 -53.04 29.85 2015-08-02T06:30
Mumford_Cove 41.32526111 -72.02088 2015 monitoringMC_01 3151818 2015-08-02 7:00 24.34 7.89 46040 6.28 89.1 -52.41 29.86 2015-08-02T07:00
Mumford_Cove 41.32526111 -72.02088 2015 monitoringMC_01 3151818 2015-08-02 7:30 24.01 7.88 46240 6.22 87.8 -52.07 30.01 2015-08-02T07:30
Mumford_Cove 41.32526111 -72.02088 2015 monitoringMC_01 3151818 2015-08-02 8:00 23.52 7.92 46060 6.56 91.7 -54.12 29.89 2015-08-02T08:00
Mumford_Cove 41.32526111 -72.02088 2015 monitoringMC_01 3151818 2015-08-02 8:30 23.1 7.94 46240 6.93 96.3 -55.55 30.03 2015-08-02T08:30
Mumford_Cove 41.32526111 -72.02088 2015 monitoringMC_01 3151818 2015-08-02 9:00 22.3 7.95 46070 7.19 98.4 -55.69 29.91 2015-08-02T09:00
Mumford_Cove 41.32526111 -72.02088 2015 monitoringMC_01 3151818 2015-08-02 9:30 21.84 7.95 46300 7.36 100.0 -55.75 30.09 2015-08-02T09:30
Mumford_Cove 41.32526111 -72.02088 2015 monitoringMC_01 3151818 2015-08-02 10:00 21.56 7.96 46160 7.55 102.1 -55.97 29.99 2015-08-02T10:00
Mumford_Cove 41.32526111 -72.02088 2015 monitoringMC_01 3151818 2015-08-02 10:30 21.59 7.96 46170 7.67 103.8 -56.15 30.0 2015-08-02T10:30
Mumford_Cove 41.32526111 -72.02088 2015 monitoringMC_01 3151818 2015-08-02 11:00 21.73 7.97 46320 7.88 106.9 -56.63 30.11 2015-08-02T11:00
Mumford_Cove 41.32526111 -72.02088 2015 monitoringMC_01 3151818 2015-08-02 11:30 21.96 7.98 46170 7.99 108.8 -57.66 29.99 2015-08-02T11:30
Mumford_Cove 41.32526111 -72.02088 2015 monitoringMC_01 3151818 2015-08-02 12:00 22.17 8.0 46210 8.19 112.0 -58.49 30.02 2015-08-02T12:00
Mumford_Cove 41.32526111 -72.02088 2015 monitoringMC_01 3151818 2015-08-02 12:30 22.19 8.04 46220 8.62 117.9 -60.76 30.03 2015-08-02T12:30
Mumford_Cove 41.32526111 -72.02088 2015 monitoringMC_01 3151818 2015-08-02 13:00 22.35 8.05 46160 9.07 124.3 -61.52 29.98 2015-08-02T13:00
Mumford_Cove 41.32526111 -72.02088 2015 monitoringMC_01 3151818 2015-08-02 13:30 22.45 8.08 46160 9.42 129.3 -63.29 29.98 2015-08-02T13:30
Mumford_Cove 41.32526111 -72.02088 2015 monitoringMC_01 3151818 2015-08-02 14:00 22.55 8.1 46180 9.85 135.5 -64.28 29.99 2015-08-02T14:00
Mumford_Cove 41.32526111 -72.02088 2015 monitoringMC_01 3151818 2015-08-02 14:30 22.65 8.13 46220 10.38 143.1 -66.12 30.02 2015-08-02T14:30
Mumford_Cove 41.32526111 -72.02088 2015 monitoringMC_01 3151818 2015-08-02 15:00 22.76 8.15 46290 10.74 148.4 -67.39 30.07 2015-08-02T15:00
Mumford_Cove 41.32526111 -72.02088 2015 monitoringMC_01 3151818 2015-08-02 15:30 22.88 8.16 46210 10.94 151.4 -67.85 30.01 2015-08-02T15:30
Mumford_Cove 41.32526111 -72.02088 2015 monitoringMC_01 3151818 2015-08-02 16:00 22.99 8.18 46290 11.42 158.4 -69.24 30.06 2015-08-02T16:00
Mumford_Cove 41.32526111 -72.02088 2015 monitoringMC_01 3151818 2015-08-02 16:30 24.2 8.16 46100 11.2 158.6 -68.67 29.91 2015-08-02T16:30
Mumford_Cove 41.32526111 -72.02088 2015 monitoringMC_01 3151818 2015-08-02 17:00 25.49 8.12 46130 10.34 149.7 -66.1 29.9 2015-08-02T17:00
Mumford_Cove 41.32526111 -72.02088 2015 monitoringMC_01 3151818 2015-08-02 17:30 25.87 8.13 46100 10.37 151.1 -66.99 29.87 2015-08-02T17:30
Mumford_Cove 41.32526111 -72.02088 2015 monitoringMC_01 3151818 2015-08-02 18:00 25.65 8.14 46170 10.68 155.0 -67.75 29.93 2015-08-02T18:00
Mumford_Cove 41.32526111 -72.02088 2015 monitoringMC_01 3151818 2015-08-02 18:30 25.27 8.15 46130 10.63 153.3 -68.08 29.91 2015-08-02T18:30
Mumford_Cove 41.32526111 -72.02088 2015 monitoringMC_01 3151818 2015-08-02 19:00 25.19 8.21 46220 11.61 167.3 -71.36 29.97 2015-08-02T19:00
Mumford_Cove 41.32526111 -72.02088 2015 monitoringMC_01 3151818 2015-08-02 19:30 25.2 8.18 46210 10.88 156.8 -69.87 29.97 2015-08-02T19:30
Mumford_Cove 41.32526111 -72.02088 2015 monitoringMC_01 3151818 2015-08-02 20:00 25.1 8.16 46190 10.42 149.9 -68.54 29.95 2015-08-02T20:00
Mumford_Cove 41.32526111 -72.02088 2015 monitoringMC_01 3151818 2015-08-02 20:30 24.98 8.14 46240 10.0 143.6 -67.16 29.99 2015-08-02T20:30
Mumford_Cove 41.32526111 -72.02088 2015 monitoringMC_01 3151818 2015-08-02 21:00 24.48 8.09 46350 9.38 133.5 -64.59 30.08 2015-08-02T21:00
Mumford_Cove 41.32526111 -72.02088 2015 monitoringMC_01 3151818 2015-08-02 21:30 24.39 8.09 46220 9.23 131.2 -64.29 29.99 2015-08-02T21:30
Mumford_Cove 41.32526111 -72.02088 2015 monitoringMC_01 3151818 2015-08-02 22:00 24.05 8.07 46210 9.01 127.3 -63.26 29.99 2015-08-02T22:00
Mumford_Cove 41.32526111 -72.02088 2015 monitoringMC_01 3151818 2015-08-02 22:30 23.74 8.06 46370 8.82 124.1 -62.37 30.11 2015-08-02T22:30
Mumford_Cove 41.32526111 -72.02088 2015 monitoringMC_01 3151818 2015-08-02 23:00 23.45 8.06 46390 8.76 122.5 -62.16 30.13 2015-08-02T23:00
Mumford_Cove 41.32526111 -72.02088 2015 monitoringMC_01 3151818 2015-08-02 23:30 23.38 8.04 46220 8.5 118.7 -61.3 30.01 2015-08-02T23:30
Mumford_Cove 41.32526111 -72.02088 2015 monitoringMC_01 3151818 2015-08-03 0:00 23.08 8.03 46250 8.38 116.4 -60.42 30.03 2015-08-03T00:00
Mumford_Cove 41.32526111 -72.02088 2015 monitoringMC_01 3151818 2015-08-03 0:30 22.89 8.01 46280 8.14 112.7 -59.44 30.06 2015-08-03T00:30
Mumford_Cove 41.32526111 -72.02088 2015 monitoringMC_01 3151818 2015-08-03 1:00 22.87 8.0 46200 7.9 109.3 -59.04 30.0 2015-08-03T01:00
Mumford_Cove 41.32526111 -72.02088 2015 monitoringMC_01 3151818 2015-08-03 1:30 22.87 8.01 46380 8.06 111.7 -59.14 30.13 2015-08-03T01:30
Mumford_Cove 41.32526111 -72.02088 2015 monitoringMC_01 3151818 2015-08-03 2:00 22.94 8.0 46260 7.88 109.3 -58.53 30.05 2015-08-03T02:00
Mumford_Cove 41.32526111 -72.02088 2015 monitoringMC_01 3151818 2015-08-03 2:30 22.85 7.97 46240 7.39 102.2 -57.3 30.04 2015-08-03T02:30
Mumford_Cove 41.32526111 -72.02088 2015 monitoringMC_01 3151818 2015-08-03 3:00 22.94 7.97 46150 7.25 100.4 -56.93 29.96 2015-08-03T03:00
Mumford_Cove 41.32526111 -72.02088 2015 monitoringMC_01 3151818 2015-08-03 3:30 23.05 7.95 46320 7.1 98.6 -55.69 30.09 2015-08-03T03:30
Mumford_Cove 41.32526111 -72.02088 2015 monitoringMC_01 3151818 2015-08-03 4:00 23.06 7.98 46290 7.06 98.1 -57.75 30.07 2015-08-03T04:00
Mumford_Cove 41.32526111 -72.02088 2015 monitoringMC_01 3151818 2015-08-03 4:30 23.04 7.94 46220 6.6 91.6 -55.16 30.01 2015-08-03T04:30
Mumford_Cove 41.32526111 -72.02088 2015 monitoringMC_01 3151818 2015-08-03 5:00 24.09 7.98 46180 6.99 98.8 -57.74 29.97 2015-08-03T05:00
Mumford_Cove 41.32526111 -72.02088 2015 monitoringMC_01 3151818 2015-08-03 5:30 24.89 7.97 46080 7.21 103.3 -57.61 29.88 2015-08-03T05:30
Mumford_Cove 41.32526111 -72.02088 2015 monitoringMC_01 3151818 2015-08-03 6:00 25.05 7.97 46060 7.14 102.5 -57.61 29.86 2015-08-03T06:00
Mumford_Cove 41.32526111 -72.02088 2015 monitoringMC_01 3151818 2015-08-03 6:30 25.11 7.97 46030 7.06 101.5 -57.52 29.84 2015-08-03T06:30
Mumford_Cove 41.32526111 -72.02088 2015 monitoringMC_01 3151818 2015-08-03 7:00 24.89 7.96 46150 6.99 100.2 -56.74 29.93 2015-08-03T07:00
Mumford_Cove 41.32526111 -72.02088 2015 monitoringMC_01 3151818 2015-08-03 7:30 24.66 7.94 46220 6.8 97.1 -55.74 29.99 2015-08-03T07:30
Mumford_Cove 41.32526111 -72.02088 2015 monitoringMC_01 3151818 2015-08-03 8:00 24.55 7.95 46130 6.99 99.5 -56.43 29.92 2015-08-03T08:00
Mumford_Cove 41.32526111 -72.02088 2015 monitoringMC_01 3151818 2015-08-03 8:30 24.27 7.96 46200 7.1 100.7 -56.8 29.98 2015-08-03T08:30
Mumford_Cove 41.32526111 -72.02088 2015 monitoringMC_01 3151818 2015-08-03 9:00 24.01 8.0 46170 7.4 104.5 -58.84 29.96 2015-08-03T09:00
Mumford_Cove 41.32526111 -72.02088 2015 monitoringMC_01 3151818 2015-08-03 9:30 23.72 8.0 46310 7.59 106.7 -58.89 30.07 2015-08-03T09:30
Mumford_Cove 41.32526111 -72.02088 2015 monitoringMC_01 3151818 2015-08-03 10:00 23.42 7.99 46260 7.72 107.9 -58.3 30.04 2015-08-03T10:00
Mumford_Cove 41.32526111 -72.02088 2015 monitoringMC_01 3151818 2015-08-03 10:30 22.84 7.97 46200 7.69 106.4 -57.02 30.0 2015-08-03T10:30
Mumford_Cove 41.32526111 -72.02088 2015 monitoringMC_01 3151818 2015-08-03 11:00 22.64 7.97 46290 7.81 107.7 -57.12 30.07 2015-08-03T11:00
Mumford_Cove 41.32526111 -72.02088 2015 monitoringMC_01 3151818 2015-08-03 11:30 22.82 7.98 46320 7.91 109.5 -57.53 30.09 2015-08-03T11:30
Mumford_Cove 41.32526111 -72.02088 2015 monitoringMC_01 3151818 2015-08-03 12:00 23.03 7.99 46330 8.16 113.3 -58.36 30.1 2015-08-03T12:00
Mumford_Cove 41.32526111 -72.02088 2015 monitoringMC_01 3151818 2015-08-03 12:30 22.77 8.01 46200 8.46 116.8 -59.22 30.0 2015-08-03T12:30
Mumford_Cove 41.32526111 -72.02088 2015 monitoringMC_01 3151818 2015-08-03 13:00 22.95 8.03 46320 8.7 120.6 -60.4 30.09 2015-08-03T13:00
Mumford_Cove 41.32526111 -72.02088 2015 monitoringMC_01 3151818 2015-08-03 13:30 23.09 8.05 46160 9.0 125.1 -61.6 29.97 2015-08-03T13:30
Mumford_Cove 41.32526111 -72.02088 2015 monitoringMC_01 3151818 2015-08-03 14:00 23.32 8.06 46320 9.32 130.1 -62.57 30.08 2015-08-03T14:00
Mumford_Cove 41.32526111 -72.02088 2015 monitoringMC_01 3151818 2015-08-03 14:30 23.47 8.08 46270 9.65 134.9 -63.63 30.05 2015-08-03T14:30
Mumford_Cove 41.32526111 -72.02088 2015 monitoringMC_01 3151818 2015-08-03 15:00 23.72 8.1 46330 9.91 139.3 -64.58 30.09 2015-08-03T15:00
Mumford_Cove 41.32526111 -72.02088 2015 monitoringMC_01 3151818 2015-08-03 15:30 23.81 8.11 46310 9.99 140.6 -65.28 30.07 2015-08-03T15:30
Mumford_Cove 41.32526111 -72.02088 2015 monitoringMC_01 3151818 2015-08-03 16:00 24.27 8.12 46340 10.18 144.4 -66.3 30.08 2015-08-03T16:00
Mumford_Cove 41.32526111 -72.02088 2015 monitoringMC_01 3151818 2015-08-03 16:30 25.45 8.14 46330 10.4 150.6 -67.71 30.05 2015-08-03T16:30
Mumford_Cove 41.32526111 -72.02088 2015 monitoringMC_01 3151818 2015-08-03 17:00 25.52 8.15 46350 10.36 150.2 -68.1 30.06 2015-08-03T17:00
Mumford_Cove 41.32526111 -72.02088 2015 monitoringMC_01 3151818 2015-08-03 17:30 26.37 8.17 46250 10.28 151.1 -69.41 29.97 2015-08-03T17:30
Mumford_Cove 41.32526111 -72.02088 2015 monitoringMC_01 3151818 2015-08-03 18:00 26.48 8.17 46360 10.34 152.3 -69.29 30.05 2015-08-03T18:00
Mumford_Cove 41.32526111 -72.02088 2015 monitoringMC_01 3151818 2015-08-03 18:30 26.54 8.17 46200 10.21 150.5 -69.26 29.92 2015-08-03T18:30
Mumford_Cove 41.32526111 -72.02088 2015 monitoringMC_01 3151818 2015-08-03 19:00 26.53 8.17 46290 10.39 153.2 -69.47 29.99 2015-08-03T19:00
Mumford_Cove 41.32526111 -72.02088 2015 monitoringMC_01 3151818 2015-08-03 19:30 26.55 8.16 46250 10.11 149.0 -69.06 29.97 2015-08-03T19:30
Mumford_Cove 41.32526111 -72.02088 2015 monitoringMC_01 3151818 2015-08-03 20:00 26.17 8.17 46390 10.2 149.5 -69.55 30.08 2015-08-03T20:00
Mumford_Cove 41.32526111 -72.02088 2015 monitoringMC_01 3151818 2015-08-03 20:30 25.93 8.15 46270 9.73 141.9 -67.95 29.99 2015-08-03T20:30
Mumford_Cove 41.32526111 -72.02088 2015 monitoringMC_01 3151818 2015-08-03 21:00 25.54 8.16 46280 9.66 140.1 -68.85 30.01 2015-08-03T21:00
Mumford_Cove 41.32526111 -72.02088 2015 monitoringMC_01 3151818 2015-08-03 21:30 25.3 8.14 46460 9.04 130.6 -67.27 30.15 2015-08-03T21:30
Mumford_Cove 41.32526111 -72.02088 2015 monitoringMC_01 3151818 2015-08-03 22:00 25.1 8.09 46470 8.31 119.6 -64.22 30.16 2015-08-03T22:00
Mumford_Cove 41.32526111 -72.02088 2015 monitoringMC_01 3151818 2015-08-03 22:30 24.72 8.06 46360 8.09 115.7 -62.56 30.08 2015-08-03T22:30
Mumford_Cove 41.32526111 -72.02088 2015 monitoringMC_01 3151818 2015-08-03 23:00 24.44 8.05 46390 8.05 114.6 -62.05 30.11 2015-08-03T23:00
Mumford_Cove 41.32526111 -72.02088 2015 monitoringMC_01 3151818 2015-08-03 23:30 24.19 8.04 46390 8.02 113.6 -61.67 30.12 2015-08-03T23:30
Mumford_Cove 41.32526111 -72.02088 2015 monitoringMC_01 3151818 2015-08-04 0:00 24.07 8.04 46420 7.94 112.3 -61.43 30.14 2015-08-04T00:00
Mumford_Cove 41.32526111 -72.02088 2015 monitoringMC_01 3151818 2015-08-04 0:30 24.05 8.04 46310 7.77 109.8 -61.2 30.06 2015-08-04T00:30
Mumford_Cove 41.32526111 -72.02088 2015 monitoringMC_01 3151818 2015-08-04 1:00 24.01 8.03 46310 7.71 108.9 -60.56 30.07 2015-08-04T01:00
Mumford_Cove 41.32526111 -72.02088 2015 monitoringMC_01 3151818 2015-08-04 1:30 23.97 8.02 46360 7.59 107.1 -60.14 30.1 2015-08-04T01:30
Mumford_Cove 41.32526111 -72.02088 2015 monitoringMC_01 3151818 2015-08-04 2:00 24.03 8.0 46380 7.23 102.1 -59.01 30.11 2015-08-04T02:00
Mumford_Cove 41.32526111 -72.02088 2015 monitoringMC_01 3151818 2015-08-04 2:30 24.02 7.99 46380 7.06 99.8 -58.27 30.11 2015-08-04T02:30
Mumford_Cove 41.32526111 -72.02088 2015 monitoringMC_01 3151818 2015-08-04 3:00 24.04 7.98 46340 6.83 96.6 -57.64 30.09 2015-08-04T03:00
Mumford_Cove 41.32526111 -72.02088 2015 monitoringMC_01 3151818 2015-08-04 3:30 24.13 7.96 46400 6.59 93.3 -56.6 30.13 2015-08-04T03:30
Mumford_Cove 41.32526111 -72.02088 2015 monitoringMC_01 3151818 2015-08-04 4:00 24.12 7.95 46380 6.51 92.2 -56.1 30.11 2015-08-04T04:00
Mumford_Cove 41.32526111 -72.02088 2015 monitoringMC_01 3151818 2015-08-04 4:30 24.12 7.93 46340 6.23 88.2 -55.15 30.08 2015-08-04T04:30
Mumford_Cove 41.32526111 -72.02088 2015 monitoringMC_01 3151818 2015-08-04 5:00 24.12 7.92 46350 6.18 87.4 -54.45 30.09 2015-08-04T05:00
Mumford_Cove 41.32526111 -72.02088 2015 monitoringMC_01 3151818 2015-08-04 5:30 24.14 7.88 46490 5.69 80.6 -51.87 30.19 2015-08-04T05:30
Mumford_Cove 41.32526111 -72.02088 2015 monitoringMC_01 3151818 2015-08-04 6:00 25.22 7.96 46400 6.4 92.3 -57.16 30.11 2015-08-04T06:00
Mumford_Cove 41.32526111 -72.02088 2015 monitoringMC_01 3151818 2015-08-04 6:30 25.08 7.96 46350 6.48 93.2 -56.79 30.07 2015-08-04T06:30
Mumford_Cove 41.32526111 -72.02088 2015 monitoringMC_01 3151818 2015-08-04 7:00 25.31 7.96 46190 6.51 94.0 -56.84 29.95 2015-08-04T07:00
Mumford_Cove 41.32526111 -72.02088 2015 monitoringMC_01 3151818 2015-08-04 7:30 25.43 7.94 46160 6.16 89.0 -55.68 29.93 2015-08-04T07:30
Mumford_Cove 41.32526111 -72.02088 2015 monitoringMC_01 3151818 2015-08-04 8:00 25.43 7.95 46350 6.15 89.0 -56.06 30.06 2015-08-04T08:00
Mumford_Cove 41.32526111 -72.02088 2015 monitoringMC_01 3151818 2015-08-04 8:30 25.18 7.92 46130 6.09 87.7 -54.59 29.91 2015-08-04T08:30
Mumford_Cove 41.32526111 -72.02088 2015 monitoringMC_01 3151818 2015-08-04 9:00 25.06 7.96 46110 6.44 92.5 -56.66 29.9 2015-08-04T09:00
Mumford_Cove 41.32526111 -72.02088 2015 monitoringMC_01 3151818 2015-08-04 9:30 24.67 7.94 46140 6.4 91.4 -55.72 29.93 2015-08-04T09:30
Mumford_Cove 41.32526111 -72.02088 2015 monitoringMC_01 3151818 2015-08-04 10:00 24.3 7.94 46180 6.44 91.4 -55.61 29.96 2015-08-04T10:00
Mumford_Cove 41.32526111 -72.02088 2015 monitoringMC_01 3151818 2015-08-04 10:30 24.24 7.95 46130 6.62 93.8 -56.18 29.93 2015-08-04T10:30
Mumford_Cove 41.32526111 -72.02088 2015 monitoringMC_01 3151818 2015-08-04 11:00 23.66 7.96 46330 6.87 96.5 -56.48 30.08 2015-08-04T11:00
Mumford_Cove 41.32526111 -72.02088 2015 monitoringMC_01 3151818 2015-08-04 11:30 23.53 7.97 46210 7.01 98.2 -57.05 30.0 2015-08-04T11:30
Mumford_Cove 41.32526111 -72.02088 2015 monitoringMC_01 3151818 2015-08-04 12:00 23.38 7.97 46250 7.34 102.5 -57.2 30.03 2015-08-04T12:00
Mumford_Cove 41.32526111 -72.02088 2015 monitoringMC_01 3151818 2015-08-04 12:30 23.46 7.98 46280 7.56 105.8 -57.71 30.05 2015-08-04T12:30
Mumford_Cove 41.32526111 -72.02088 2015 monitoringMC_01 3151818 2015-08-04 13:00 23.58 8.01 46210 7.7 107.9 -59.24 30.0 2015-08-04T13:00
Mumford_Cove 41.32526111 -72.02088 2015 monitoringMC_01 3151818 2015-08-04 13:30 23.73 8.03 46330 8.1 113.8 -60.98 30.09 2015-08-04T13:30
Mumford_Cove 41.32526111 -72.02088 2015 monitoringMC_01 3151818 2015-08-04 14:00 23.73 8.05 46310 8.37 117.6 -61.64 30.07 2015-08-04T14:00
Mumford_Cove 41.32526111 -72.02088 2015 monitoringMC_01 3151818 2015-08-04 14:30 23.86 8.08 46290 8.72 122.9 -63.65 30.05 2015-08-04T14:30
Mumford_Cove 41.32526111 -72.02088 2015 monitoringMC_01 3151818 2015-08-04 15:00 23.96 8.08 46310 9.11 128.6 -63.51 30.06 2015-08-04T15:00
Mumford_Cove 41.32526111 -72.02088 2015 monitoringMC_01 3151818 2015-08-04 15:30 24.05 8.08 46230 9.12 128.9 -63.89 30.01 2015-08-04T15:30
Mumford_Cove 41.32526111 -72.02088 2015 monitoringMC_01 3151818 2015-08-04 16:00 24.26 8.08 46300 9.2 130.6 -63.93 30.05 2015-08-04T16:00
Mumford_Cove 41.32526111 -72.02088 2015 monitoringMC_01 3151818 2015-08-04 16:30 24.3 8.1 46360 9.32 132.4 -65.12 30.09 2015-08-04T16:30
Mumford_Cove 41.32526111 -72.02088 2015 monitoringMC_01 3151818 2015-08-04 17:00 24.34 8.11 46460 9.18 130.5 -65.55 30.17 2015-08-04T17:00
Mumford_Cove 41.32526111 -72.02088 2015 monitoringMC_01 3151818 2015-08-04 17:30 24.33 8.11 46320 9.52 135.2 -65.71 30.06 2015-08-04T17:30
Mumford_Cove 41.32526111 -72.02088 2015 monitoringMC_01 3151818 2015-08-04 18:00 24.4 8.11 46320 9.61 136.7 -65.43 30.06 2015-08-04T18:00
Mumford_Cove 41.32526111 -72.02088 2015 monitoringMC_01 3151818 2015-08-04 18:30 25.58 8.11 46240 9.62 139.5 -65.79 29.98 2015-08-04T18:30
Mumford_Cove 41.32526111 -72.02088 2015 monitoringMC_01 3151818 2015-08-04 19:00 25.9 8.13 46160 9.3 135.6 -66.98 29.91 2015-08-04T19:00
Mumford_Cove 41.32526111 -72.02088 2015 monitoringMC_01 3151818 2015-08-04 19:30 25.24 8.12 46260 9.48 136.8 -66.03 30.0 2015-08-04T19:30
Mumford_Cove 41.32526111 -72.02088 2015 monitoringMC_01 3151818 2015-08-04 20:00 25.64 8.14 46380 9.79 142.2 -67.72 30.08 2015-08-04T20:00
Mumford_Cove 41.32526111 -72.02088 2015 monitoringMC_01 3151818 2015-08-04 20:30 25.77 8.12 46220 9.44 137.3 -66.65 29.96 2015-08-04T20:30
Mumford_Cove 41.32526111 -72.02088 2015 monitoringMC_01 3151818 2015-08-04 21:00 25.91 8.14 46350 9.49 138.4 -67.59 30.05 2015-08-04T21:00
Mumford_Cove 41.32526111 -72.02088 2015 monitoringMC_01 3151818 2015-08-04 21:30 25.89 8.11 46240 9.15 133.4 -65.95 29.97 2015-08-04T21:30
Mumford_Cove 41.32526111 -72.02088 2015 monitoringMC_01 3151818 2015-08-04 22:00 25.73 8.09 46330 8.73 127.0 -64.76 30.04 2015-08-04T22:00
Mumford_Cove 41.32526111 -72.02088 2015 monitoringMC_01 3151818 2015-08-04 22:30 25.54 8.08 46200 8.42 122.0 -64.08 29.95 2015-08-04T22:30
Mumford_Cove 41.32526111 -72.02088 2015 monitoringMC_01 3151818 2015-08-04 23:00 25.38 8.07 46360 8.25 119.3 -63.38 30.07 2015-08-04T23:00
Mumford_Cove 41.32526111 -72.02088 2015 monitoringMC_01 3151818 2015-08-04 23:30 25.18 8.05 46190 7.91 113.9 -62.31 29.96 2015-08-04T23:30
Mumford_Cove 41.32526111 -72.02088 2015 monitoringMC_01 3151818 2015-08-05 0:00 24.94 8.05 46350 7.64 109.6 -62.25 30.07 2015-08-05T00:00
Mumford_Cove 41.32526111 -72.02088 2015 monitoringMC_01 3151818 2015-08-05 0:30 24.09 8.02 46350 7.73 109.3 -59.93 30.09 2015-08-05T00:30
Mumford_Cove 41.32526111 -72.02088 2015 monitoringMC_01 3151818 2015-08-05 1:00 23.44 8.0 46220 7.75 108.4 -58.85 30.01 2015-08-05T01:00
Mumford_Cove 41.32526111 -72.02088 2015 monitoringMC_01 3151818 2015-08-05 1:30 23.29 7.99 46270 7.3 101.7 -58.42 30.04 2015-08-05T01:30
Mumford_Cove 41.32526111 -72.02088 2015 monitoringMC_01 3151818 2015-08-05 2:00 23.11 7.98 46210 7.24 100.6 -57.51 30.01 2015-08-05T02:00
Mumford_Cove 41.32526111 -72.02088 2015 monitoringMC_01 3151818 2015-08-05 2:30 22.89 7.97 46230 7.12 98.5 -57.12 30.03 2015-08-05T02:30
Mumford_Cove 41.32526111 -72.02088 2015 monitoringMC_01 3151818 2015-08-05 3:00 22.92 7.97 46200 6.8 94.2 -57.0 30.0 2015-08-05T03:00
Mumford_Cove 41.32526111 -72.02088 2015 monitoringMC_01 3151818 2015-08-05 3:30 22.99 7.95 46240 6.66 92.4 -55.61 30.03 2015-08-05T03:30
Mumford_Cove 41.32526111 -72.02088 2015 monitoringMC_01 3151818 2015-08-05 4:00 23.07 7.93 46290 6.59 91.6 -54.83 30.06 2015-08-05T04:00
Mumford_Cove 41.32526111 -72.02088 2015 monitoringMC_01 3151818 2015-08-05 4:30 23.12 7.91 46170 6.33 87.9 -53.86 29.98 2015-08-05T04:30
Mumford_Cove 41.32526111 -72.02088 2015 monitoringMC_01 3151818 2015-08-05 5:00 23.19 7.91 46260 6.14 85.5 -53.86 30.04 2015-08-05T05:00
Mumford_Cove 41.32526111 -72.02088 2015 monitoringMC_01 3151818 2015-08-05 5:30 23.24 7.9 46260 6.01 83.8 -52.84 30.04 2015-08-05T05:30
Mumford_Cove 41.32526111 -72.02088 2015 monitoringMC_01 3151818 2015-08-05 6:00 23.28 7.88 46300 5.91 82.4 -51.95 30.07 2015-08-05T06:00
Mumford_Cove 41.32526111 -72.02088 2015 monitoringMC_01 3151818 2015-08-05 6:30 24.01 7.87 46310 5.57 78.7 -51.36 30.06 2015-08-05T06:30
Mumford_Cove 41.32526111 -72.02088 2015 monitoringMC_01 3151818 2015-08-05 7:00 25.24 7.92 46230 6.15 88.6 -54.66 29.98 2015-08-05T07:00
Mumford_Cove 41.32526111 -72.02088 2015 monitoringMC_01 3151818 2015-08-05 7:30 25.38 7.92 46120 5.86 84.7 -54.29 29.9 2015-08-05T07:30
Mumford_Cove 41.32526111 -72.02088 2015 monitoringMC_01 3151818 2015-08-05 8:00 25.57 7.9 46220 5.7 82.7 -53.45 29.96 2015-08-05T08:00
Mumford_Cove 41.32526111 -72.02088 2015 monitoringMC_01 3151818 2015-08-05 8:30 25.41 7.89 46280 5.2 75.2 -53.07 30.01 2015-08-05T08:30
Mumford_Cove 41.32526111 -72.02088 2015 monitoringMC_01 3151818 2015-08-05 9:00 25.38 7.88 46220 5.42 78.3 -52.3 29.97 2015-08-05T09:00
Mumford_Cove 41.32526111 -72.02088 2015 monitoringMC_01 3151818 2015-08-05 9:30 25.39 7.95 46100 6.54 94.4 -56.5 29.88 2015-08-05T09:30
Mumford_Cove 41.32526111 -72.02088 2015 monitoringMC_01 3151818 2015-08-05 10:00 25.29 7.99 46200 7.08 102.1 -58.82 29.96 2015-08-05T10:00
Mumford_Cove 41.32526111 -72.02088 2015 monitoringMC_01 3151818 2015-08-05 10:30 25.04 8.0 46310 7.3 105.0 -59.15 30.04 2015-08-05T10:30
Mumford_Cove 41.32526111 -72.02088 2015 monitoringMC_01 3151818 2015-08-05 11:00 24.66 8.0 46240 7.3 104.2 -59.11 30.0 2015-08-05T11:00
Mumford_Cove 41.32526111 -72.02088 2015 monitoringMC_01 3151818 2015-08-05 11:30 24.22 7.99 46270 7.45 105.6 -58.51 30.03 2015-08-05T11:30
Mumford_Cove 41.32526111 -72.02088 2015 monitoringMC_01 3151818 2015-08-05 12:00 23.64 7.97 46270 7.5 105.2 -57.29 30.04 2015-08-05T12:00
Mumford_Cove 41.32526111 -72.02088 2015 monitoringMC_01 3151818 2015-08-05 12:30 23.49 7.98 46220 7.76 108.6 -57.96 30.01 2015-08-05T12:30
Mumford_Cove 41.32526111 -72.02088 2015 monitoringMC_01 3151818 2015-08-05 13:00 23.35 7.98 46330 7.75 108.2 -57.97 30.09 2015-08-05T13:00
Mumford_Cove 41.32526111 -72.02088 2015 monitoringMC_01 3151818 2015-08-05 13:30 23.56 8.01 46280 7.94 111.3 -59.34 30.05 2015-08-05T13:30
Mumford_Cove 41.32526111 -72.02088 2015 monitoringMC_01 3151818 2015-08-05 14:00 23.69 8.01 46290 7.94 111.5 -59.7 30.05 2015-08-05T14:00
Mumford_Cove 41.32526111 -72.02088 2015 monitoringMC_01 3151818 2015-08-05 14:30 23.79 8.03 46260 8.22 115.6 -60.72 30.03 2015-08-05T14:30
Mumford_Cove 41.32526111 -72.02088 2015 monitoringMC_01 3151818 2015-08-05 15:00 23.81 8.06 46280 8.72 122.7 -62.45 30.05 2015-08-05T15:00
Mumford_Cove 41.32526111 -72.02088 2015 monitoringMC_01 3151818 2015-08-05 15:30 23.98 8.07 46250 9.28 130.9 -63.03 30.02 2015-08-05T15:30
Mumford_Cove 41.32526111 -72.02088 2015 monitoringMC_01 3151818 2015-08-05 16:00 24.02 8.11 46430 9.6 135.7 -65.21 30.15 2015-08-05T16:00
Mumford_Cove 41.32526111 -72.02088 2015 monitoringMC_01 3151818 2015-08-05 16:30 24.13 8.13 46270 9.86 139.6 -66.4 30.03 2015-08-05T16:30
Mumford_Cove 41.32526111 -72.02088 2015 monitoringMC_01 3151818 2015-08-05 17:00 24.25 8.13 46310 10.06 142.6 -66.48 30.06 2015-08-05T17:00
Mumford_Cove 41.32526111 -72.02088 2015 monitoringMC_01 3151818 2015-08-05 17:30 24.36 8.11 46330 9.78 139.0 -65.66 30.07 2015-08-05T17:30
Mumford_Cove 41.32526111 -72.02088 2015 monitoringMC_01 3151818 2015-08-05 18:00 24.26 8.14 46350 9.6 136.3 -67.34 30.09 2015-08-05T18:00
Mumford_Cove 41.32526111 -72.02088 2015 monitoringMC_01 3151818 2015-08-05 18:30 24.26 8.11 46360 9.68 137.3 -65.25 30.1 2015-08-05T18:30
Mumford_Cove 41.32526111 -72.02088 2015 monitoringMC_01 3151818 2015-08-05 19:00 24.26 8.1 46250 9.77 138.6 -64.79 30.02 2015-08-05T19:00
Mumford_Cove 41.32526111 -72.02088 2015 monitoringMC_01 3151818 2015-08-05 19:30 24.28 8.1 46330 9.84 139.7 -64.71 30.07 2015-08-05T19:30
Mumford_Cove 41.32526111 -72.02088 2015 monitoringMC_01 3151818 2015-08-05 20:00 24.27 8.09 46330 9.16 129.9 -64.1 30.07 2015-08-05T20:00
Mumford_Cove 41.32526111 -72.02088 2015 monitoringMC_01 3151818 2015-08-05 20:30 24.78 8.09 46300 9.46 135.4 -64.52 30.04 2015-08-05T20:30
Mumford_Cove 41.32526111 -72.02088 2015 monitoringMC_01 3151818 2015-08-05 21:00 24.74 8.09 46360 9.2 131.5 -64.27 30.09 2015-08-05T21:00
Mumford_Cove 41.32526111 -72.02088 2015 monitoringMC_01 3151818 2015-08-05 21:30 24.9 8.14 46500 9.76 140.2 -67.12 30.18 2015-08-05T21:30
Mumford_Cove 41.32526111 -72.02088 2015 monitoringMC_01 3151818 2015-08-05 22:00 25.29 8.1 46370 10.03 144.8 -65.35 30.08 2015-08-05T22:00
Mumford_Cove 41.32526111 -72.02088 2015 monitoringMC_01 3151818 2015-08-05 22:30 25.78 8.09 46310 9.14 133.0 -64.5 30.03 2015-08-05T22:30
Mumford_Cove 41.32526111 -72.02088 2015 monitoringMC_01 3151818 2015-08-05 23:00 25.53 8.06 46190 8.28 120.0 -62.76 29.95 2015-08-05T23:00
Mumford_Cove 41.32526111 -72.02088 2015 monitoringMC_01 3151818 2015-08-05 23:30 25.26 8.06 46400 7.91 114.1 -62.68 30.1 2015-08-05T23:30
Mumford_Cove 41.32526111 -72.02088 2015 monitoringMC_01 3151818 2015-08-06 0:00 24.87 8.04 46350 7.58 108.7 -61.56 30.07 2015-08-06T00:00
Mumford_Cove 41.32526111 -72.02088 2015 monitoringMC_01 3151818 2015-08-06 0:30 24.28 8.03 46230 7.26 103.0 -60.71 30.0 2015-08-06T00:30
Mumford_Cove 41.32526111 -72.02088 2015 monitoringMC_01 3151818 2015-08-06 1:00 23.26 8.01 46270 7.2 100.3 -59.35 30.05 2015-08-06T01:00
Mumford_Cove 41.32526111 -72.02088 2015 monitoringMC_01 3151818 2015-08-06 1:30 22.83 8.0 46350 7.08 98.0 -58.59 30.11 2015-08-06T01:30
Mumford_Cove 41.32526111 -72.02088 2015 monitoringMC_01 3151818 2015-08-06 2:00 22.38 7.98 46300 6.71 92.0 -57.67 30.09 2015-08-06T02:00
Mumford_Cove 41.32526111 -72.02088 2015 monitoringMC_01 3151818 2015-08-06 2:30 22.19 7.97 46310 6.44 88.1 -56.99 30.09 2015-08-06T02:30
Mumford_Cove 41.32526111 -72.02088 2015 monitoringMC_01 3151818 2015-08-06 3:00 22.11 7.96 46380 6.25 85.4 -56.09 30.15 2015-08-06T03:00
Mumford_Cove 41.32526111 -72.02088 2015 monitoringMC_01 3151818 2015-08-06 3:30 22.05 7.95 46130 5.87 80.1 -55.44 29.96 2015-08-06T03:30
Mumford_Cove 41.32526111 -72.02088 2015 monitoringMC_01 3151818 2015-08-06 4:00 22.01 7.94 46290 5.55 75.6 -55.4 30.08 2015-08-06T04:00
Mumford_Cove 41.32526111 -72.02088 2015 monitoringMC_01 3151818 2015-08-06 4:30 22.03 7.93 46310 5.43 74.0 -54.69 30.09 2015-08-06T04:30
Mumford_Cove 41.32526111 -72.02088 2015 monitoringMC_01 3151818 2015-08-06 5:00 22.04 7.93 46380 5.24 71.5 -54.29 30.15 2015-08-06T05:00
Mumford_Cove 41.32526111 -72.02088 2015 monitoringMC_01 3151818 2015-08-06 5:30 22.06 7.89 46310 4.98 68.0 -52.39 30.09 2015-08-06T05:30
Mumford_Cove 41.32526111 -72.02088 2015 monitoringMC_01 3151818 2015-08-06 6:00 22.08 7.89 46340 4.71 64.3 -52.08 30.12 2015-08-06T06:00
Mumford_Cove 41.32526111 -72.02088 2015 monitoringMC_01 3151818 2015-08-06 6:30 22.12 7.87 46270 4.38 59.9 -51.23 30.07 2015-08-06T06:30
Mumford_Cove 41.32526111 -72.02088 2015 monitoringMC_01 3151818 2015-08-06 7:00 22.16 7.84 46390 4.07 55.6 -49.36 30.15 2015-08-06T07:00
Mumford_Cove 41.32526111 -72.02088 2015 monitoringMC_01 3151818 2015-08-06 7:30 22.28 7.82 46270 4.42 60.6 -48.44 30.07 2015-08-06T07:30
Mumford_Cove 41.32526111 -72.02088 2015 monitoringMC_01 3151818 2015-08-06 8:00 22.77 7.85 46330 4.55 62.9 -49.77 30.1 2015-08-06T08:00
Mumford_Cove 41.32526111 -72.02088 2015 monitoringMC_01 3151818 2015-08-06 8:30 22.85 7.84 46420 4.38 60.6 -49.51 30.16 2015-08-06T08:30
Mumford_Cove 41.32526111 -72.02088 2015 monitoringMC_01 3151818 2015-08-06 9:00 23.03 7.84 46340 4.99 69.3 -49.44 30.1 2015-08-06T09:00
Mumford_Cove 41.32526111 -72.02088 2015 monitoringMC_01 3151818 2015-08-06 9:30 23.41 7.79 46290 4.83 67.5 -46.43 30.06 2015-08-06T09:30
Mumford_Cove 41.32526111 -72.02088 2015 monitoringMC_01 3151818 2015-08-06 10:00 23.82 7.84 46340 5.26 74.1 -49.49 30.09 2015-08-06T10:00
Mumford_Cove 41.32526111 -72.02088 2015 monitoringMC_01 3151818 2015-08-06 10:30 24.7 7.98 46320 6.47 92.5 -57.98 30.06 2015-08-06T10:30
Mumford_Cove 41.32526111 -72.02088 2015 monitoringMC_01 3151818 2015-08-06 11:00 24.58 8.05 46320 7.67 109.4 -62.07 30.06 2015-08-06T11:00
Mumford_Cove 41.32526111 -72.02088 2015 monitoringMC_01 3151818 2015-08-06 11:30 24.18 8.02 46460 7.69 109.1 -60.27 30.17 2015-08-06T11:30
Mumford_Cove 41.32526111 -72.02088 2015 monitoringMC_01 3151818 2015-08-06 12:00 23.42 8.02 46450 8.02 112.2 -60.1 30.18 2015-08-06T12:00
Mumford_Cove 41.32526111 -72.02088 2015 monitoringMC_01 3151818 2015-08-06 12:30 23.3 8.02 46350 8.37 116.8 -59.97 30.1 2015-08-06T12:30
Mumford_Cove 41.32526111 -72.02088 2015 monitoringMC_01 3151818 2015-08-06 13:00 22.92 8.01 46440 8.32 115.4 -59.4 30.18 2015-08-06T13:00
Mumford_Cove 41.32526111 -72.02088 2015 monitoringMC_01 3151818 2015-08-06 13:30 22.59 8.01 46420 8.35 115.0 -59.58 30.17 2015-08-06T13:30
Mumford_Cove 41.32526111 -72.02088 2015 monitoringMC_01 3151818 2015-08-06 14:00 22.52 8.02 46360 8.51 117.1 -60.01 30.13 2015-08-06T14:00
Mumford_Cove 41.32526111 -72.02088 2015 monitoringMC_01 3151818 2015-08-06 14:30 22.56 8.03 46380 8.59 118.3 -60.6 30.14 2015-08-06T14:30
Mumford_Cove 41.32526111 -72.02088 2015 monitoringMC_01 3151818 2015-08-06 15:00 22.6 8.04 46320 8.47 116.7 -60.84 30.09 2015-08-06T15:00
Mumford_Cove 41.32526111 -72.02088 2015 monitoringMC_01 3151818 2015-08-06 15:30 22.69 8.04 46450 8.39 115.9 -61.15 30.19 2015-08-06T15:30
Mumford_Cove 41.32526111 -72.02088 2015 monitoringMC_01 3151818 2015-08-06 16:00 22.84 8.05 46340 8.46 117.2 -61.94 30.11 2015-08-06T16:00
Mumford_Cove 41.32526111 -72.02088 2015 monitoringMC_01 3151818 2015-08-06 16:30 22.95 8.07 46480 8.67 120.3 -62.75 30.2 2015-08-06T16:30
Mumford_Cove 41.32526111 -72.02088 2015 monitoringMC_01 3151818 2015-08-06 17:00 22.94 8.08 46320 8.91 123.5 -63.32 30.09 2015-08-06T17:00
Mumford_Cove 41.32526111 -72.02088 2015 monitoringMC_01 3151818 2015-08-06 17:30 22.98 8.08 46370 8.89 123.4 -63.44 30.12 2015-08-06T17:30
Mumford_Cove 41.32526111 -72.02088 2015 monitoringMC_01 3151818 2015-08-06 18:00 23.02 8.08 46360 8.65 120.2 -63.24 30.12 2015-08-06T18:00
Mumford_Cove 41.32526111 -72.02088 2015 monitoringMC_01 3151818 2015-08-06 18:30 23.02 8.07 46430 8.75 121.5 -63.03 30.17 2015-08-06T18:30
Mumford_Cove 41.32526111 -72.02088 2015 monitoringMC_01 3151818 2015-08-06 19:00 23.04 8.06 46380 8.85 122.9 -62.54 30.13 2015-08-06T19:00
Mumford_Cove 41.32526111 -72.02088 2015 monitoringMC_01 3151818 2015-08-06 19:30 23.09 8.07 46380 8.62 119.9 -62.85 30.13 2015-08-06T19:30
Mumford_Cove 41.32526111 -72.02088 2015 monitoringMC_01 3151818 2015-08-06 20:00 23.07 8.06 46410 8.57 119.1 -62.21 30.15 2015-08-06T20:00
Mumford_Cove 41.32526111 -72.02088 2015 monitoringMC_01 3151818 2015-08-06 20:30 23.94 8.11 46380 9.09 128.2 -65.46 30.12 2015-08-06T20:30
Mumford_Cove 41.32526111 -72.02088 2015 monitoringMC_01 3151818 2015-08-06 21:00 24.16 8.11 46430 9.15 129.7 -65.2 30.15 2015-08-06T21:00
Mumford_Cove 41.32526111 -72.02088 2015 monitoringMC_01 3151818 2015-08-06 21:30 24.81 8.09 46450 9.05 129.6 -64.15 30.15 2015-08-06T21:30
Mumford_Cove 41.32526111 -72.02088 2015 monitoringMC_01 3151818 2015-08-06 22:00 24.71 8.06 46300 8.42 120.3 -62.53 30.04 2015-08-06T22:00
Mumford_Cove 41.32526111 -72.02088 2015 monitoringMC_01 3151818 2015-08-06 22:30 24.06 8.06 46350 8.02 113.3 -62.53 30.09 2015-08-06T22:30
Mumford_Cove 41.32526111 -72.02088 2015 monitoringMC_01 3151818 2015-08-06 23:00 24.2 8.06 46370 8.72 123.6 -62.27 30.1 2015-08-06T23:00
Mumford_Cove 41.32526111 -72.02088 2015 monitoringMC_01 3151818 2015-08-06 23:30 24.76 8.07 46400 8.68 124.3 -63.51 30.11 2015-08-06T23:30
Mumford_Cove 41.32526111 -72.02088 2015 monitoringMC_01 3151818 2015-08-07 0:00 24.43 8.06 46260 8.2 116.6 -62.85 30.02 2015-08-07T00:00
Mumford_Cove 41.32526111 -72.02088 2015 monitoringMC_01 3151818 2015-08-07 0:30 24.15 8.07 46240 7.95 112.5 -63.08 30.01 2015-08-07T00:30
Mumford_Cove 41.32526111 -72.02088 2015 monitoringMC_01 3151818 2015-08-07 1:00 23.91 8.05 46300 7.61 107.2 -62.11 30.06 2015-08-07T01:00
Mumford_Cove 41.32526111 -72.02088 2015 monitoringMC_01 3151818 2015-08-07 1:30 23.6 8.04 46460 7.21 101.2 -61.44 30.18 2015-08-07T01:30
Mumford_Cove 41.32526111 -72.02088 2015 monitoringMC_01 3151818 2015-08-07 2:00 23.1 8.03 46420 7.03 97.8 -60.83 30.16 2015-08-07T02:00
Mumford_Cove 41.32526111 -72.02088 2015 monitoringMC_01 3151818 2015-08-07 2:30 22.79 8.0 46320 6.62 91.6 -58.7 30.09 2015-08-07T02:30
Mumford_Cove 41.32526111 -72.02088 2015 monitoringMC_01 3151818 2015-08-07 3:00 22.39 7.98 46370 6.82 93.7 -57.55 30.14 2015-08-07T03:00
Mumford_Cove 41.32526111 -72.02088 2015 monitoringMC_01 3151818 2015-08-07 3:30 22.07 7.97 46360 6.94 94.7 -57.01 30.13 2015-08-07T03:30
Mumford_Cove 41.32526111 -72.02088 2015 monitoringMC_01 3151818 2015-08-07 4:00 21.99 7.97 46270 6.87 93.7 -56.59 30.07 2015-08-07T04:00
Mumford_Cove 41.32526111 -72.02088 2015 monitoringMC_01 3151818 2015-08-07 4:30 21.92 7.96 46230 6.5 88.5 -56.2 30.04 2015-08-07T04:30
Mumford_Cove 41.32526111 -72.02088 2015 monitoringMC_01 3151818 2015-08-07 5:00 21.98 7.93 46310 5.82 79.3 -54.39 30.09 2015-08-07T05:00
Mumford_Cove 41.32526111 -72.02088 2015 monitoringMC_01 3151818 2015-08-07 5:30 22.12 7.94 46280 6.23 85.1 -55.43 30.07 2015-08-07T05:30
Mumford_Cove 41.32526111 -72.02088 2015 monitoringMC_01 3151818 2015-08-07 6:00 22.01 7.91 46300 5.86 79.9 -53.66 30.09 2015-08-07T06:00
Mumford_Cove 41.32526111 -72.02088 2015 monitoringMC_01 3151818 2015-08-07 6:30 22.17 7.92 46240 5.81 79.4 -53.84 30.04 2015-08-07T06:30
Mumford_Cove 41.32526111 -72.02088 2015 monitoringMC_01 3151818 2015-08-07 7:00 22.35 7.9 46250 5.78 79.3 -53.1 30.05 2015-08-07T07:00
Mumford_Cove 41.32526111 -72.02088 2015 monitoringMC_01 3151818 2015-08-07 7:30 23.2 7.96 46430 6.04 84.2 -56.24 30.16 2015-08-07T07:30
Mumford_Cove 41.32526111 -72.02088 2015 monitoringMC_01 3151818 2015-08-07 8:00 22.75 7.92 46310 5.75 79.5 -53.93 30.09 2015-08-07T08:00
Mumford_Cove 41.32526111 -72.02088 2015 monitoringMC_01 3151818 2015-08-07 8:30 22.89 7.89 46320 5.71 79.1 -52.39 30.09 2015-08-07T08:30
Mumford_Cove 41.32526111 -72.02088 2015 monitoringMC_01 3151818 2015-08-07 9:00 23.97 7.92 46310 5.85 82.6 -54.46 30.07 2015-08-07T09:00
Mumford_Cove 41.32526111 -72.02088 2015 monitoringMC_01 3151818 2015-08-07 9:30 23.57 7.92 46540 5.92 83.1 -54.13 30.24 2015-08-07T09:30
Mumford_Cove 41.32526111 -72.02088 2015 monitoringMC_01 3151818 2015-08-07 10:00 23.82 7.93 46260 6.01 84.6 -54.96 30.03 2015-08-07T10:00
Mumford_Cove 41.32526111 -72.02088 2015 monitoringMC_01 3151818 2015-08-07 10:30 23.64 7.92 46290 6.34 88.9 -54.25 30.05 2015-08-07T10:30
Mumford_Cove 41.32526111 -72.02088 2015 monitoringMC_01 3151818 2015-08-07 11:00 23.68 7.93 46520 6.32 88.8 -54.73 30.22 2015-08-07T11:00
Mumford_Cove 41.32526111 -72.02088 2015 monitoringMC_01 3151818 2015-08-07 11:30 24.31 8.02 46340 7.19 102.1 -60.29 30.08 2015-08-07T11:30
Mumford_Cove 41.32526111 -72.02088 2015 monitoringMC_01 3151818 2015-08-07 12:00 24.31 8.07 46400 8.23 116.9 -63.17 30.13 2015-08-07T12:00
Mumford_Cove 41.32526111 -72.02088 2015 monitoringMC_01 3151818 2015-08-07 12:30 24.28 8.08 46510 8.59 122.0 -63.66 30.2 2015-08-07T12:30
Mumford_Cove 41.32526111 -72.02088 2015 monitoringMC_01 3151818 2015-08-07 13:00 24.09 8.09 46470 8.76 123.9 -64.01 30.18 2015-08-07T13:00
Mumford_Cove 41.32526111 -72.02088 2015 monitoringMC_01 3151818 2015-08-07 13:30 24.14 8.11 46490 8.92 126.4 -65.24 30.19 2015-08-07T13:30
Mumford_Cove 41.32526111 -72.02088 2015 monitoringMC_01 3151818 2015-08-07 14:00 23.64 8.09 46470 9.18 128.9 -64.2 30.19 2015-08-07T14:00
Mumford_Cove 41.32526111 -72.02088 2015 monitoringMC_01 3151818 2015-08-07 14:30 23.36 8.08 46500 9.3 130.0 -63.78 30.21 2015-08-07T14:30
Mumford_Cove 41.32526111 -72.02088 2015 monitoringMC_01 3151818 2015-08-07 15:00 22.71 8.05 46260 8.85 122.2 -61.57 30.05 2015-08-07T15:00
Mumford_Cove 41.32526111 -72.02088 2015 monitoringMC_01 3151818 2015-08-07 15:30 22.86 8.06 46390 8.76 121.3 -62.49 30.14 2015-08-07T15:30
Mumford_Cove 41.32526111 -72.02088 2015 monitoringMC_01 3151818 2015-08-07 16:00 22.75 8.06 46410 8.92 123.3 -62.47 30.16 2015-08-07T16:00
Mumford_Cove 41.32526111 -72.02088 2015 monitoringMC_01 3151818 2015-08-07 16:30 22.71 8.06 46390 9.06 125.2 -62.51 30.15 2015-08-07T16:30
Mumford_Cove 41.32526111 -72.02088 2015 monitoringMC_01 3151818 2015-08-07 17:00 22.74 8.07 46380 8.97 123.9 -62.76 30.14 2015-08-07T17:00
Mumford_Cove 41.32526111 -72.02088 2015 monitoringMC_01 3151818 2015-08-07 17:30 22.81 8.08 46300 9.2 127.2 -63.25 30.08 2015-08-07T17:30
Mumford_Cove 41.32526111 -72.02088 2015 monitoringMC_01 3151818 2015-08-07 18:00 22.85 8.06 46370 8.92 123.5 -62.39 30.12 2015-08-07T18:00
Mumford_Cove 41.32526111 -72.02088 2015 monitoringMC_01 3151818 2015-08-07 18:30 22.98 8.07 46420 8.86 123.0 -62.63 30.16 2015-08-07T18:30
Mumford_Cove 41.32526111 -72.02088 2015 monitoringMC_01 3151818 2015-08-07 19:00 22.92 8.07 46360 9.07 125.7 -62.99 30.12 2015-08-07T19:00
Mumford_Cove 41.32526111 -72.02088 2015 monitoringMC_01 3151818 2015-08-07 19:30 22.97 8.07 46430 8.75 121.5 -62.7 30.17 2015-08-07T19:30
Mumford_Cove 41.32526111 -72.02088 2015 monitoringMC_01 3151818 2015-08-07 20:00 23.02 8.06 46500 8.62 119.8 -62.57 30.22 2015-08-07T20:00
Mumford_Cove 41.32526111 -72.02088 2015 monitoringMC_01 3151818 2015-08-07 20:30 23.04 8.05 46280 8.39 116.5 -61.79 30.06 2015-08-07T20:30
Mumford_Cove 41.32526111 -72.02088 2015 monitoringMC_01 3151818 2015-08-07 21:00 23.07 8.08 46460 8.86 123.2 -63.47 30.19 2015-08-07T21:00
Mumford_Cove 41.32526111 -72.02088 2015 monitoringMC_01 3151818 2015-08-07 21:30 24.61 8.14 46510 9.72 138.8 -67.37 30.2 2015-08-07T21:30
Mumford_Cove 41.32526111 -72.02088 2015 monitoringMC_01 3151818 2015-08-07 22:00 25.16 8.13 46330 9.24 133.1 -66.85 30.05 2015-08-07T22:00
Mumford_Cove 41.32526111 -72.02088 2015 monitoringMC_01 3151818 2015-08-07 22:30 25.49 8.1 46350 8.84 128.1 -65.21 30.06 2015-08-07T22:30
Mumford_Cove 41.32526111 -72.02088 2015 monitoringMC_01 3151818 2015-08-07 23:00 25.63 8.1 46420 8.39 121.9 -65.37 30.11 2015-08-07T23:00
Mumford_Cove 41.32526111 -72.02088 2015 monitoringMC_01 3151818 2015-08-07 23:30 25.27 8.09 46390 8.02 115.8 -64.4 30.1 2015-08-07T23:30
Mumford_Cove 41.32526111 -72.02088 2015 monitoringMC_01 3151818 2015-08-08 0:00 24.7 8.09 46500 8.43 120.5 -64.54 30.19 2015-08-08T00:00
Mumford_Cove 41.32526111 -72.02088 2015 monitoringMC_01 3151818 2015-08-08 0:30 24.63 8.1 46410 8.68 123.9 -65.06 30.12 2015-08-08T00:30
Mumford_Cove 41.32526111 -72.02088 2015 monitoringMC_01 3151818 2015-08-08 1:00 24.3 8.09 46540 8.33 118.4 -64.14 30.22 2015-08-08T01:00
Mumford_Cove 41.32526111 -72.02088 2015 monitoringMC_01 3151818 2015-08-08 1:30 24.0 8.08 46520 8.05 113.7 -63.89 30.22 2015-08-08T01:30
Mumford_Cove 41.32526111 -72.02088 2015 monitoringMC_01 3151818 2015-08-08 2:00 23.74 8.08 46490 7.75 109.0 -63.33 30.2 2015-08-08T02:00
Mumford_Cove 41.32526111 -72.02088 2015 monitoringMC_01 3151818 2015-08-08 2:30 23.4 8.07 46500 7.72 108.0 -62.98 30.21 2015-08-08T02:30
Mumford_Cove 41.32526111 -72.02088 2015 monitoringMC_01 3151818 2015-08-08 3:00 23.0 8.05 46460 7.26 100.9 -61.47 30.19 2015-08-08T03:00
Mumford_Cove 41.32526111 -72.02088 2015 monitoringMC_01 3151818 2015-08-08 3:30 22.67 8.01 46480 6.87 94.8 -59.27 30.21 2015-08-08T03:30
Mumford_Cove 41.32526111 -72.02088 2015 monitoringMC_01 3151818 2015-08-08 4:00 22.27 7.97 46380 6.38 87.4 -57.11 30.14 2015-08-08T04:00
Mumford_Cove 41.32526111 -72.02088 2015 monitoringMC_01 3151818 2015-08-08 4:30 21.92 7.96 46330 6.13 83.5 -55.99 30.11 2015-08-08T04:30
Mumford_Cove 41.32526111 -72.02088 2015 monitoringMC_01 3151818 2015-08-08 5:00 21.68 7.95 46400 6.1 82.7 -55.54 30.16 2015-08-08T05:00
Mumford_Cove 41.32526111 -72.02088 2015 monitoringMC_01 3151818 2015-08-08 5:30 21.66 7.92 46380 5.8 78.6 -54.13 30.15 2015-08-08T05:30
Mumford_Cove 41.32526111 -72.02088 2015 monitoringMC_01 3151818 2015-08-08 6:00 21.65 7.92 46480 5.52 74.8 -54.07 30.22 2015-08-08T06:00
Mumford_Cove 41.32526111 -72.02088 2015 monitoringMC_01 3151818 2015-08-08 6:30 21.94 7.93 46340 5.49 74.8 -54.28 30.12 2015-08-08T06:30
Mumford_Cove 41.32526111 -72.02088 2015 monitoringMC_01 3151818 2015-08-08 7:00 22.48 7.96 46340 5.74 78.9 -56.22 30.11 2015-08-08T07:00
Mumford_Cove 41.32526111 -72.02088 2015 monitoringMC_01 3151818 2015-08-08 7:30 22.48 7.95 46490 5.67 78.1 -55.86 30.22 2015-08-08T07:30
Mumford_Cove 41.32526111 -72.02088 2015 monitoringMC_01 3151818 2015-08-08 8:00 22.86 7.95 46350 5.56 77.0 -55.95 30.11 2015-08-08T08:00
Mumford_Cove 41.32526111 -72.02088 2015 monitoringMC_01 3151818 2015-08-08 8:30 23.14 7.95 46360 5.79 80.6 -55.96 30.12 2015-08-08T08:30
Mumford_Cove 41.32526111 -72.02088 2015 monitoringMC_01 3151818 2015-08-08 9:00 23.28 7.96 46370 5.69 79.4 -56.24 30.12 2015-08-08T09:00
Mumford_Cove 41.32526111 -72.02088 2015 monitoringMC_01 3151818 2015-08-08 9:30 23.13 7.94 46510 5.77 80.4 -55.6 30.23 2015-08-08T09:30
Mumford_Cove 41.32526111 -72.02088 2015 monitoringMC_01 3151818 2015-08-08 10:00 23.6 7.98 46420 6.13 86.0 -57.79 30.15 2015-08-08T10:00
Mumford_Cove 41.32526111 -72.02088 2015 monitoringMC_01 3151818 2015-08-08 10:30 23.41 7.99 46610 6.64 92.9 -58.39 30.29 2015-08-08T10:30
Mumford_Cove 41.32526111 -72.02088 2015 monitoringMC_01 3151818 2015-08-08 11:00 23.6 8.05 46510 6.49 91.0 -61.72 30.22 2015-08-08T11:00
Mumford_Cove 41.32526111 -72.02088 2015 monitoringMC_01 3151818 2015-08-08 11:30 23.67 8.06 46440 7.63 107.1 -62.59 30.16 2015-08-08T11:30
Mumford_Cove 41.32526111 -72.02088 2015 monitoringMC_01 3151818 2015-08-08 12:00 23.73 8.05 46400 7.33 103.1 -61.91 30.13 2015-08-08T12:00
Mumford_Cove 41.32526111 -72.02088 2015 monitoringMC_01 3151818 2015-08-08 12:30 23.88 8.04 46500 7.61 107.3 -61.29 30.21 2015-08-08T12:30
Mumford_Cove 41.32526111 -72.02088 2015 monitoringMC_01 3151818 2015-08-08 13:00 23.91 8.09 46490 8.63 121.8 -64.13 30.19 2015-08-08T13:00
Mumford_Cove 41.32526111 -72.02088 2015 monitoringMC_01 3151818 2015-08-08 13:30 23.78 8.08 46540 8.64 121.6 -63.35 30.24 2015-08-08T13:30
Mumford_Cove 41.32526111 -72.02088 2015 monitoringMC_01 3151818 2015-08-08 14:00 23.88 8.06 46530 8.49 119.7 -62.78 30.23 2015-08-08T14:00
Mumford_Cove 41.32526111 -72.02088 2015 monitoringMC_01 3151818 2015-08-08 14:30 23.59 8.08 46520 8.86 124.3 -63.58 30.22 2015-08-08T14:30
Mumford_Cove 41.32526111 -72.02088 2015 monitoringMC_01 3151818 2015-08-08 15:00 23.38 8.09 46440 9.08 127.0 -64.05 30.17 2015-08-08T15:00
Mumford_Cove 41.32526111 -72.02088 2015 monitoringMC_01 3151818 2015-08-08 15:30 22.86 8.09 46560 9.02 125.0 -63.9 30.26 2015-08-08T15:30
Mumford_Cove 41.32526111 -72.02088 2015 monitoringMC_01 3151818 2015-08-08 16:00 22.81 8.06 46520 8.66 119.9 -62.18 30.24 2015-08-08T16:00
Mumford_Cove 41.32526111 -72.02088 2015 monitoringMC_01 3151818 2015-08-08 16:30 22.73 8.07 46450 8.95 123.7 -62.99 30.19 2015-08-08T16:30
Mumford_Cove 41.32526111 -72.02088 2015 monitoringMC_01 3151818 2015-08-08 17:00 22.65 8.07 46560 8.81 121.7 -62.88 30.27 2015-08-08T17:00
Mumford_Cove 41.32526111 -72.02088 2015 monitoringMC_01 3151818 2015-08-08 17:30 22.65 8.08 46590 8.5 117.4 -63.33 30.29 2015-08-08T17:30
Mumford_Cove 41.32526111 -72.02088 2015 monitoringMC_01 3151818 2015-08-08 18:00 22.68 8.06 46390 8.44 116.5 -62.45 30.14 2015-08-08T18:00
Mumford_Cove 41.32526111 -72.02088 2015 monitoringMC_01 3151818 2015-08-08 18:30 22.64 8.07 46490 8.65 119.4 -62.52 30.22 2015-08-08T18:30
Mumford_Cove 41.32526111 -72.02088 2015 monitoringMC_01 3151818 2015-08-08 19:00 22.68 8.08 46510 8.44 116.6 -63.38 30.23 2015-08-08T19:00
Mumford_Cove 41.32526111 -72.02088 2015 monitoringMC_01 3151818 2015-08-08 19:30 22.75 8.07 46510 8.07 111.6 -62.86 30.23 2015-08-08T19:30
Mumford_Cove 41.32526111 -72.02088 2015 monitoringMC_01 3151818 2015-08-08 20:00 23.05 8.09 46390 8.23 114.3 -64.08 30.14 2015-08-08T20:00
Mumford_Cove 41.32526111 -72.02088 2015 monitoringMC_01 3151818 2015-08-08 20:30 22.82 8.06 46460 8.39 116.1 -62.22 30.19 2015-08-08T20:30
Mumford_Cove 41.32526111 -72.02088 2015 monitoringMC_01 3151818 2015-08-08 21:00 22.9 8.04 46520 8.02 111.2 -61.38 30.24 2015-08-08T21:00
Mumford_Cove 41.32526111 -72.02088 2015 monitoringMC_01 3151818 2015-08-08 21:30 23.04 8.05 46650 7.83 108.9 -61.62 30.32 2015-08-08T21:30
Mumford_Cove 41.32526111 -72.02088 2015 monitoringMC_01 3151818 2015-08-08 22:00 22.99 8.01 46490 7.17 99.5 -59.67 30.21 2015-08-08T22:00
Mumford_Cove 41.32526111 -72.02088 2015 monitoringMC_01 3151818 2015-08-08 22:30 24.22 8.12 46530 8.36 118.7 -66.31 30.22 2015-08-08T22:30
Mumford_Cove 41.32526111 -72.02088 2015 monitoringMC_01 3151818 2015-08-08 23:00 24.47 8.1 46520 8.15 116.2 -65.2 30.2 2015-08-08T23:00
Mumford_Cove 41.32526111 -72.02088 2015 monitoringMC_01 3151818 2015-08-08 23:30 24.55 8.07 46530 7.81 111.4 -63.25 30.21 2015-08-08T23:30
Mumford_Cove 41.32526111 -72.02088 2015 monitoringMC_01 3151818 2015-08-09 0:00 23.89 7.99 46730 7.14 100.8 -58.61 30.37 2015-08-09T00:00
Mumford_Cove 41.32526111 -72.02088 2015 monitoringMC_01 3151818 2015-08-09 0:30 24.28 8.04 46360 6.71 95.2 -61.17 30.1 2015-08-09T00:30
Mumford_Cove 41.32526111 -72.02088 2015 monitoringMC_01 3151818 2015-08-09 1:00 23.81 8.01 46460 7.19 101.3 -59.29 30.18 2015-08-09T01:00
Mumford_Cove 41.32526111 -72.02088 2015 monitoringMC_01 3151818 2015-08-09 1:30 24.2 8.05 46520 7.35 104.3 -61.85 30.21 2015-08-09T01:30
Mumford_Cove 41.32526111 -72.02088 2015 monitoringMC_01 3151818 2015-08-09 2:00 23.97 8.06 46550 7.85 110.9 -62.54 30.24 2015-08-09T02:00
Mumford_Cove 41.32526111 -72.02088 2015 monitoringMC_01 3151818 2015-08-09 2:30 23.5 8.05 46540 7.66 107.3 -61.57 30.24 2015-08-09T02:30
Mumford_Cove 41.32526111 -72.02088 2015 monitoringMC_01 3151818 2015-08-09 3:00 23.26 8.05 46610 7.4 103.2 -61.75 30.29 2015-08-09T03:00
Mumford_Cove 41.32526111 -72.02088 2015 monitoringMC_01 3151818 2015-08-09 3:30 23.05 8.03 46570 7.03 97.8 -60.36 30.27 2015-08-09T03:30
Mumford_Cove 41.32526111 -72.02088 2015 monitoringMC_01 3151818 2015-08-09 4:00 22.89 8.02 46640 6.83 94.8 -59.69 30.32 2015-08-09T04:00
Mumford_Cove 41.32526111 -72.02088 2015 monitoringMC_01 3151818 2015-08-09 4:30 22.51 7.98 46540 6.66 91.7 -57.5 30.25 2015-08-09T04:30
Mumford_Cove 41.32526111 -72.02088 2015 monitoringMC_01 3151818 2015-08-09 5:00 22.08 7.97 46490 6.71 91.7 -56.62 30.23 2015-08-09T05:00
Mumford_Cove 41.32526111 -72.02088 2015 monitoringMC_01 3151818 2015-08-09 5:30 21.74 7.95 46530 6.23 84.6 -55.54 30.26 2015-08-09T05:30
Mumford_Cove 41.32526111 -72.02088 2015 monitoringMC_01 3151818 2015-08-09 6:00 21.6 7.93 46480 5.88 79.6 -54.56 30.22 2015-08-09T06:00
Mumford_Cove 41.32526111 -72.02088 2015 monitoringMC_01 3151818 2015-08-09 6:30 21.71 7.93 46490 5.66 76.8 -54.4 30.23 2015-08-09T06:30
Mumford_Cove 41.32526111 -72.02088 2015 monitoringMC_01 3151818 2015-08-09 7:00 21.53 7.92 46400 5.73 77.6 -53.6 30.17 2015-08-09T07:00
Mumford_Cove 41.32526111 -72.02088 2015 monitoringMC_01 3151818 2015-08-09 7:30 21.72 7.91 46470 5.59 75.9 -53.36 30.21 2015-08-09T07:30
Mumford_Cove 41.32526111 -72.02088 2015 monitoringMC_01 3151818 2015-08-09 8:00 22.26 7.95 46510 5.68 77.9 -55.68 30.24 2015-08-09T08:00
Mumford_Cove 41.32526111 -72.02088 2015 monitoringMC_01 3151818 2015-08-09 8:30 22.53 7.96 46550 5.97 82.2 -56.6 30.26 2015-08-09T08:30
Mumford_Cove 41.32526111 -72.02088 2015 monitoringMC_01 3151818 2015-08-09 9:00 22.74 7.97 46570 6.11 84.5 -56.91 30.27 2015-08-09T09:00
Mumford_Cove 41.32526111 -72.02088 2015 monitoringMC_01 3151818 2015-08-09 9:30 22.87 7.97 46470 6.36 88.1 -57.28 30.2 2015-08-09T09:30
Mumford_Cove 41.32526111 -72.02088 2015 monitoringMC_01 3151818 2015-08-09 10:00 23.01 7.97 46510 6.23 86.5 -56.8 30.23 2015-08-09T10:00
Mumford_Cove 41.32526111 -72.02088 2015 monitoringMC_01 3151818 2015-08-09 10:30 23.12 7.96 46530 6.18 86.0 -56.22 30.24 2015-08-09T10:30
Mumford_Cove 41.32526111 -72.02088 2015 monitoringMC_01 3151818 2015-08-09 11:00 23.27 8.0 46560 6.7 93.5 -58.83 30.26 2015-08-09T11:00
Mumford_Cove 41.32526111 -72.02088 2015 monitoringMC_01 3151818 2015-08-09 11:30 23.48 8.01 46520 6.87 96.2 -59.76 30.22 2015-08-09T11:30
Mumford_Cove 41.32526111 -72.02088 2015 monitoringMC_01 3151818 2015-08-09 12:00 23.7 8.03 46570 7.56 106.3 -60.92 30.25 2015-08-09T12:00
Mumford_Cove 41.32526111 -72.02088 2015 monitoringMC_01 3151818 2015-08-09 12:30 23.85 8.06 46530 7.74 109.2 -62.19 30.23 2015-08-09T12:30
Mumford_Cove 41.32526111 -72.02088 2015 monitoringMC_01 3151818 2015-08-09 13:00 23.64 8.06 46580 8.16 114.6 -62.38 30.27 2015-08-09T13:00
Mumford_Cove 41.32526111 -72.02088 2015 monitoringMC_01 3151818 2015-08-09 13:30 23.72 8.1 46540 8.56 120.4 -64.5 30.24 2015-08-09T13:30
Mumford_Cove 41.32526111 -72.02088 2015 monitoringMC_01 3151818 2015-08-09 14:00 23.73 8.13 46580 9.17 129.1 -66.47 30.27 2015-08-09T14:00
Mumford_Cove 41.32526111 -72.02088 2015 monitoringMC_01 3151818 2015-08-09 14:30 23.51 8.12 46560 9.22 129.2 -65.95 30.26 2015-08-09T14:30
Mumford_Cove 41.32526111 -72.02088 2015 monitoringMC_01 3151818 2015-08-09 15:00 23.54 8.11 46650 9.01 126.4 -65.52 30.32 2015-08-09T15:00
Mumford_Cove 41.32526111 -72.02088 2015 monitoringMC_01 3151818 2015-08-09 15:30 23.58 8.12 46610 9.04 126.8 -66.17 30.29 2015-08-09T15:30
Mumford_Cove 41.32526111 -72.02088 2015 monitoringMC_01 3151818 2015-08-09 16:00 23.45 8.15 46520 9.43 132.0 -67.78 30.22 2015-08-09T16:00
Mumford_Cove 41.32526111 -72.02088 2015 monitoringMC_01 3151818 2015-08-09 16:30 23.25 8.14 46600 9.52 132.8 -67.1 30.29 2015-08-09T16:30
Mumford_Cove 41.32526111 -72.02088 2015 monitoringMC_01 3151818 2015-08-09 17:00 22.73 8.1 46510 8.95 123.7 -64.86 30.23 2015-08-09T17:00
Mumford_Cove 41.32526111 -72.02088 2015 monitoringMC_01 3151818 2015-08-09 17:30 22.55 8.07 46670 8.59 118.4 -63.07 30.35 2015-08-09T17:30
Mumford_Cove 41.32526111 -72.02088 2015 monitoringMC_01 3151818 2015-08-09 18:00 22.23 8.07 46510 8.52 116.7 -62.5 30.23 2015-08-09T18:00
Mumford_Cove 41.32526111 -72.02088 2015 monitoringMC_01 3151818 2015-08-09 18:30 21.98 8.04 46500 8.19 111.8 -60.81 30.23 2015-08-09T18:30
Mumford_Cove 41.32526111 -72.02088 2015 monitoringMC_01 3151818 2015-08-09 19:00 21.91 8.02 46490 7.79 106.0 -60.04 30.23 2015-08-09T19:00
Mumford_Cove 41.32526111 -72.02088 2015 monitoringMC_01 3151818 2015-08-09 19:30 21.87 7.99 46460 7.51 102.2 -58.14 30.2 2015-08-09T19:30
Mumford_Cove 41.32526111 -72.02088 2015 monitoringMC_01 3151818 2015-08-09 20:00 21.81 7.99 46450 7.49 101.8 -58.17 30.2 2015-08-09T20:00
Mumford_Cove 41.32526111 -72.02088 2015 monitoringMC_01 3151818 2015-08-09 20:30 21.79 7.99 46550 7.41 100.8 -57.73 30.27 2015-08-09T20:30
Mumford_Cove 41.32526111 -72.02088 2015 monitoringMC_01 3151818 2015-08-09 21:00 21.83 7.99 46620 7.23 98.4 -57.81 30.33 2015-08-09T21:00
Mumford_Cove 41.32526111 -72.02088 2015 monitoringMC_01 3151818 2015-08-09 21:30 21.84 7.96 46480 7.01 95.4 -56.23 30.22 2015-08-09T21:30
Mumford_Cove 41.32526111 -72.02088 2015 monitoringMC_01 3151818 2015-08-09 22:00 21.88 7.93 46450 6.74 91.8 -54.23 30.2 2015-08-09T22:00
Mumford_Cove 41.32526111 -72.02088 2015 monitoringMC_01 3151818 2015-08-09 22:30 21.96 7.92 46630 6.51 88.8 -54.15 30.33 2015-08-09T22:30
Mumford_Cove 41.32526111 -72.02088 2015 monitoringMC_01 3151818 2015-08-09 23:00 22.06 7.93 46450 5.85 79.9 -54.61 30.19 2015-08-09T23:00
Mumford_Cove 41.32526111 -72.02088 2015 monitoringMC_01 3151818 2015-08-09 23:30 22.76 7.97 46510 6.71 92.8 -57.3 30.23 2015-08-09T23:30
Mumford_Cove 41.32526111 -72.02088 2015 monitoringMC_01 3151818 2015-08-10 0:00 22.12 7.9 46580 6.26 85.6 -52.93 30.29 2015-08-10T00:00
Mumford_Cove 41.32526111 -72.02088 2015 monitoringMC_01 3151818 2015-08-10 0:30 23.0 8.0 46740 6.42 89.3 -58.68 30.4 2015-08-10T00:30
Mumford_Cove 41.32526111 -72.02088 2015 monitoringMC_01 3151818 2015-08-10 1:00 23.8 8.02 46560 6.66 93.9 -60.22 30.25 2015-08-10T01:00
Mumford_Cove 41.32526111 -72.02088 2015 monitoringMC_01 3151818 2015-08-10 1:30 22.75 7.91 46420 6.05 83.7 -53.69 30.16 2015-08-10T01:30
Mumford_Cove 41.32526111 -72.02088 2015 monitoringMC_01 3151818 2015-08-10 2:00 23.24 8.0 46610 6.53 91.2 -58.56 30.29 2015-08-10T02:00
Mumford_Cove 41.32526111 -72.02088 2015 monitoringMC_01 3151818 2015-08-10 2:30 23.49 8.02 46550 6.56 92.0 -59.84 30.25 2015-08-10T02:30
Mumford_Cove 41.32526111 -72.02088 2015 monitoringMC_01 3151818 2015-08-10 3:00 23.38 8.02 46540 6.75 94.3 -60.1 30.24 2015-08-10T03:00
Mumford_Cove 41.32526111 -72.02088 2015 monitoringMC_01 3151818 2015-08-10 3:30 23.07 8.02 46510 6.77 94.1 -60.15 30.22 2015-08-10T03:30
Mumford_Cove 41.32526111 -72.02088 2015 monitoringMC_01 3151818 2015-08-10 4:00 22.88 8.01 46650 6.35 88.1 -59.45 30.33 2015-08-10T04:00
Mumford_Cove 41.32526111 -72.02088 2015 monitoringMC_01 3151818 2015-08-10 4:30 22.65 8.01 46570 6.41 88.5 -59.26 30.28 2015-08-10T04:30
Mumford_Cove 41.32526111 -72.02088 2015 monitoringMC_01 3151818 2015-08-10 5:00 22.43 8.0 46640 6.38 87.8 -58.67 30.33 2015-08-10T05:00
Mumford_Cove 41.32526111 -72.02088 2015 monitoringMC_01 3151818 2015-08-10 5:30 22.22 7.99 46540 6.16 84.4 -57.87 30.26 2015-08-10T05:30
Mumford_Cove 41.32526111 -72.02088 2015 monitoringMC_01 3151818 2015-08-10 6:00 21.9 7.96 46590 5.75 78.3 -56.26 30.3 2015-08-10T06:00
Mumford_Cove 41.32526111 -72.02088 2015 monitoringMC_01 3151818 2015-08-10 6:30 21.68 7.9 46590 5.2 70.6 -52.66 30.3 2015-08-10T06:30
Mumford_Cove 41.32526111 -72.02088 2015 monitoringMC_01 3151818 2015-08-10 7:00 21.53 7.9 46480 5.56 75.2 -52.89 30.22 2015-08-10T07:00
Mumford_Cove 41.32526111 -72.02088 2015 monitoringMC_01 3151818 2015-08-10 7:30 21.45 7.92 46600 5.78 78.2 -53.95 30.31 2015-08-10T07:30
Mumford_Cove 41.32526111 -72.02088 2015 monitoringMC_01 3151818 2015-08-10 8:00 21.33 7.93 46540 5.77 77.8 -54.15 30.27 2015-08-10T08:00
Mumford_Cove 41.32526111 -72.02088 2015 monitoringMC_01 3151818 2015-08-10 8:30 21.36 7.9 46500 5.48 73.9 -52.74 30.24 2015-08-10T08:30
Mumford_Cove 41.32526111 -72.02088 2015 monitoringMC_01 3151818 2015-08-10 9:00 21.48 7.89 46630 5.46 73.8 -52.02 30.33 2015-08-10T09:00
Mumford_Cove 41.32526111 -72.02088 2015 monitoringMC_01 3151818 2015-08-10 9:30 21.7 7.9 46580 5.67 77.0 -52.5 30.3 2015-08-10T09:30
Mumford_Cove 41.32526111 -72.02088 2015 monitoringMC_01 3151818 2015-08-10 10:00 21.8 7.88 46720 5.51 75.0 -51.66 30.39 2015-08-10T10:00
Mumford_Cove 41.32526111 -72.02088 2015 monitoringMC_01 3151818 2015-08-10 10:30 21.9 7.9 46520 5.64 76.8 -52.94 30.25 2015-08-10T10:30
Mumford_Cove 41.32526111 -72.02088 2015 monitoringMC_01 3151818 2015-08-10 11:00 22.06 7.93 46670 6.12 83.6 -54.82 30.35 2015-08-10T11:00
Mumford_Cove 41.32526111 -72.02088 2015 monitoringMC_01 3151818 2015-08-10 11:30 22.71 7.97 46580 6.4 88.4 -57.18 30.28 2015-08-10T11:30
Mumford_Cove 41.32526111 -72.02088 2015 monitoringMC_01 3151818 2015-08-10 12:00 23.1 8.04 46580 7.04 98.0 -61.04 30.27 2015-08-10T12:00
Mumford_Cove 41.32526111 -72.02088 2015 monitoringMC_01 3151818 2015-08-10 12:30 22.9 8.05 46590 7.53 104.5 -61.54 30.29 2015-08-10T12:30
Mumford_Cove 41.32526111 -72.02088 2015 monitoringMC_01 3151818 2015-08-10 13:00 23.57 8.08 46510 8.16 114.5 -63.73 30.21 2015-08-10T13:00
Mumford_Cove 41.32526111 -72.02088 2015 monitoringMC_01 3151818 2015-08-10 13:30 23.6 8.1 46520 8.64 121.2 -64.98 30.22 2015-08-10T13:30
Mumford_Cove 41.32526111 -72.02088 2015 monitoringMC_01 3151818 2015-08-10 14:00 23.74 8.11 46550 8.82 124.2 -65.31 30.24 2015-08-10T14:00
Mumford_Cove 41.32526111 -72.02088 2015 monitoringMC_01 3151818 2015-08-10 14:30 23.88 8.12 46650 8.99 126.9 -65.89 30.31 2015-08-10T14:30
Mumford_Cove 41.32526111 -72.02088 2015 monitoringMC_01 3151818 2015-08-10 15:00 24.22 8.12 46660 9.11 129.4 -65.9 30.32 2015-08-10T15:00
Mumford_Cove 41.32526111 -72.02088 2015 monitoringMC_01 3151818 2015-08-10 15:30 24.59 8.13 46750 9.31 133.1 -66.5 30.37 2015-08-10T15:30
Mumford_Cove 41.32526111 -72.02088 2015 monitoringMC_01 3151818 2015-08-10 16:00 24.87 8.12 46790 9.4 135.0 -66.2 30.39 2015-08-10T16:00
Mumford_Cove 41.32526111 -72.02088 2015 monitoringMC_01 3151818 2015-08-10 16:30 25.0 8.11 46790 9.15 131.8 -65.64 30.39 2015-08-10T16:30
Mumford_Cove 41.32526111 -72.02088 2015 monitoringMC_01 3151818 2015-08-10 17:00 24.96 8.12 46740 9.35 134.5 -66.35 30.36 2015-08-10T17:00
Mumford_Cove 41.32526111 -72.02088 2015 monitoringMC_01 3151818 2015-08-10 17:30 24.69 8.12 46690 9.32 133.4 -66.23 30.33 2015-08-10T17:30
Mumford_Cove 41.32526111 -72.02088 2015 monitoringMC_01 3151818 2015-08-10 18:00 24.44 8.12 46760 9.25 131.8 -65.9 30.39 2015-08-10T18:00
Mumford_Cove 41.32526111 -72.02088 2015 monitoringMC_01 3151818 2015-08-10 18:30 24.13 8.1 46790 9.18 130.1 -64.81 30.41 2015-08-10T18:30
Mumford_Cove 41.32526111 -72.02088 2015 monitoringMC_01 3151818 2015-08-10 19:00 24.05 8.09 46740 9.11 129.1 -64.44 30.38 2015-08-10T19:00
Mumford_Cove 41.32526111 -72.02088 2015 monitoringMC_01 3151818 2015-08-10 19:30 23.91 8.05 46780 8.41 118.8 -61.89 30.41 2015-08-10T19:30
Mumford_Cove 41.32526111 -72.02088 2015 monitoringMC_01 3151818 2015-08-10 20:00 23.97 8.01 46770 7.91 111.8 -59.55 30.4 2015-08-10T20:00
Mumford_Cove 41.32526111 -72.02088 2015 monitoringMC_01 3151818 2015-08-10 20:30 24.14 8.08 46720 7.67 108.7 -63.53 30.36 2015-08-10T20:30
Mumford_Cove 41.32526111 -72.02088 2015 monitoringMC_01 3151818 2015-08-10 21:00 24.34 8.12 46810 8.9 126.7 -66.06 30.42 2015-08-10T21:00
Mumford_Cove 41.32526111 -72.02088 2015 monitoringMC_01 3151818 2015-08-10 21:30 24.49 8.11 46840 8.64 123.3 -65.7 30.44 2015-08-10T21:30
Mumford_Cove 41.32526111 -72.02088 2015 monitoringMC_01 3151818 2015-08-10 22:00 24.6 8.12 46810 8.7 124.4 -66.02 30.41 2015-08-10T22:00
Mumford_Cove 41.32526111 -72.02088 2015 monitoringMC_01 3151818 2015-08-10 22:30 24.65 8.12 46800 8.75 125.2 -65.98 30.4 2015-08-10T22:30
Mumford_Cove 41.32526111 -72.02088 2015 monitoringMC_01 3151818 2015-08-10 23:00 24.7 8.12 46780 8.75 125.2 -66.07 30.39 2015-08-10T23:00
Mumford_Cove 41.32526111 -72.02088 2015 monitoringMC_01 3151818 2015-08-10 23:30 24.76 8.13 46680 8.87 127.1 -67.07 30.32 2015-08-10T23:30
Mumford_Cove 41.32526111 -72.02088 2015 monitoringMC_01 3151818 2015-08-11 0:00 24.94 8.17 46790 9.06 130.3 -68.88 30.39 2015-08-11T00:00
Mumford_Cove 41.32526111 -72.02088 2015 monitoringMC_01 3151818 2015-08-11 0:30 25.01 8.16 46750 8.82 126.9 -68.74 30.36 2015-08-11T00:30
Mumford_Cove 41.32526111 -72.02088 2015 monitoringMC_01 3151818 2015-08-11 1:00 25.06 8.15 46610 8.65 124.5 -68.14 30.26 2015-08-11T01:00
Mumford_Cove 41.32526111 -72.02088 2015 monitoringMC_01 3151818 2015-08-11 1:30 25.08 8.14 46650 8.28 119.3 -67.58 30.29 2015-08-11T01:30
Mumford_Cove 41.32526111 -72.02088 2015 monitoringMC_01 3151818 2015-08-11 2:00 25.06 8.12 46660 7.95 114.5 -66.38 30.29 2015-08-11T02:00
Mumford_Cove 41.32526111 -72.02088 2015 monitoringMC_01 3151818 2015-08-11 2:30 25.01 8.1 46680 7.48 107.7 -65.19 30.31 2015-08-11T02:30
Mumford_Cove 41.32526111 -72.02088 2015 monitoringMC_01 3151818 2015-08-11 3:00 24.84 8.11 46630 7.73 110.9 -65.43 30.28 2015-08-11T03:00
Mumford_Cove 41.32526111 -72.02088 2015 monitoringMC_01 3151818 2015-08-11 3:30 24.53 8.08 46710 7.53 107.6 -63.86 30.34 2015-08-11T03:30
Mumford_Cove 41.32526111 -72.02088 2015 monitoringMC_01 3151818 2015-08-11 4:00 24.32 8.06 46730 7.19 102.3 -62.57 30.36 2015-08-11T04:00
Mumford_Cove 41.32526111 -72.02088 2015 monitoringMC_01 3151818 2015-08-11 4:30 24.01 8.03 46710 7.07 100.1 -60.91 30.35 2015-08-11T04:30
Mumford_Cove 41.32526111 -72.02088 2015 monitoringMC_01 3151818 2015-08-11 5:00 23.8 8.02 46710 6.86 96.7 -60.06 30.36 2015-08-11T05:00
Mumford_Cove 41.32526111 -72.02088 2015 monitoringMC_01 3151818 2015-08-11 5:30 23.65 8.02 46660 6.6 92.8 -59.92 30.32 2015-08-11T05:30
Mumford_Cove 41.32526111 -72.02088 2015 monitoringMC_01 3151818 2015-08-11 6:00 23.42 7.99 46780 6.68 93.6 -58.47 30.42 2015-08-11T06:00
Mumford_Cove 41.32526111 -72.02088 2015 monitoringMC_01 3151818 2015-08-11 6:30 23.34 7.98 46820 6.54 91.5 -57.73 30.44 2015-08-11T06:30
Mumford_Cove 41.32526111 -72.02088 2015 monitoringMC_01 3151818 2015-08-11 7:00 23.29 7.97 46620 6.25 87.3 -56.97 30.3 2015-08-11T07:00
Mumford_Cove 41.32526111 -72.02088 2015 monitoringMC_01 3151818 2015-08-11 7:30 22.98 7.95 46790 6.42 89.2 -55.91 30.43 2015-08-11T07:30
Mumford_Cove 41.32526111 -72.02088 2015 monitoringMC_01 3151818 2015-08-11 8:00 23.04 7.93 46730 6.09 84.7 -54.59 30.38 2015-08-11T08:00
Mumford_Cove 41.32526111 -72.02088 2015 monitoringMC_01 3151818 2015-08-11 8:30 23.27 7.95 46640 6.17 86.1 -55.79 30.32 2015-08-11T08:30
Mumford_Cove 41.32526111 -72.02088 2015 monitoringMC_01 3151818 2015-08-11 9:00 23.4 7.94 46680 6.04 84.5 -55.36 30.34 2015-08-11T09:00
Mumford_Cove 41.32526111 -72.02088 2015 monitoringMC_01 3151818 2015-08-11 9:30 23.61 7.96 46590 6.06 85.1 -56.71 30.27 2015-08-11T09:30
Mumford_Cove 41.32526111 -72.02088 2015 monitoringMC_01 3151818 2015-08-11 10:00 23.71 7.97 46570 5.89 82.8 -57.16 30.26 2015-08-11T10:00
Mumford_Cove 41.32526111 -72.02088 2015 monitoringMC_01 3151818 2015-08-11 10:30 23.84 7.93 46570 5.67 80.0 -54.93 30.25 2015-08-11T10:30
Mumford_Cove 41.32526111 -72.02088 2015 monitoringMC_01 3151818 2015-08-11 11:00 23.72 7.96 46450 5.84 82.1 -56.62 30.17 2015-08-11T11:00
Mumford_Cove 41.32526111 -72.02088 2015 monitoringMC_01 3151818 2015-08-11 11:30 23.86 7.92 46400 5.53 77.9 -54.18 30.13 2015-08-11T11:30
Mumford_Cove 41.32526111 -72.02088 2015 monitoringMC_01 3151818 2015-08-11 12:00 23.85 7.91 46330 5.51 77.7 -53.75 30.08 2015-08-11T12:00
Mumford_Cove 41.32526111 -72.02088 2015 monitoringMC_01 3151818 2015-08-11 12:30 23.99 7.95 46100 5.72 80.7 -56.02 29.91 2015-08-11T12:30
Mumford_Cove 41.32526111 -72.02088 2015 monitoringMC_01 3151818 2015-08-11 13:00 24.04 7.95 46150 5.72 80.7 -56.02 29.94 2015-08-11T13:00
Mumford_Cove 41.32526111 -72.02088 2015 monitoringMC_01 3151818 2015-08-11 13:30 24.05 7.95 46170 5.77 81.5 -56.26 29.96 2015-08-11T13:30
Mumford_Cove 41.32526111 -72.02088 2015 monitoringMC_01 3151818 2015-08-11 14:00 24.08 7.95 46210 5.93 83.8 -56.16 29.99 2015-08-11T14:00
Mumford_Cove 41.32526111 -72.02088 2015 monitoringMC_01 3151818 2015-08-11 14:30 23.96 7.96 46060 6.13 86.4 -56.9 29.88 2015-08-11T14:30
Mumford_Cove 41.32526111 -72.02088 2015 monitoringMC_01 3151818 2015-08-11 15:00 23.86 7.96 46100 6.01 84.6 -56.79 29.92 2015-08-11T15:00
Mumford_Cove 41.32526111 -72.02088 2015 monitoringMC_01 3151818 2015-08-11 15:30 23.51 7.93 45860 6.38 89.2 -54.67 29.75 2015-08-11T15:30
Mumford_Cove 41.32526111 -72.02088 2015 monitoringMC_01 3151818 2015-08-11 16:00 23.34 7.91 45780 6.26 87.2 -53.62 29.69 2015-08-11T16:00
Mumford_Cove 41.32526111 -72.02088 2015 monitoringMC_01 3151818 2015-08-11 16:30 23.13 7.91 45720 6.46 89.7 -53.52 29.65 2015-08-11T16:30
Mumford_Cove 41.32526111 -72.02088 2015 monitoringMC_01 3151818 2015-08-11 17:00 22.8 7.87 45520 6.3 86.8 -50.94 29.51 2015-08-11T17:00
Mumford_Cove 41.32526111 -72.02088 2015 monitoringMC_01 3151818 2015-08-11 17:30 22.82 7.87 45600 6.16 85.0 -50.96 29.57 2015-08-11T17:30
Mumford_Cove 41.32526111 -72.02088 2015 monitoringMC_01 3151818 2015-08-11 18:00 22.64 7.86 45630 6.12 84.2 -50.79 29.6 2015-08-11T18:00
Mumford_Cove 41.32526111 -72.02088 2015 monitoringMC_01 3151818 2015-08-11 18:30 22.48 7.84 45680 5.82 79.9 -49.41 29.63 2015-08-11T18:30
Mumford_Cove 41.32526111 -72.02088 2015 monitoringMC_01 3151818 2015-08-11 19:00 22.34 7.85 45640 5.97 81.7 -49.93 29.6 2015-08-11T19:00
Mumford_Cove 41.32526111 -72.02088 2015 monitoringMC_01 3151818 2015-08-11 19:30 22.34 7.85 45690 5.9 80.7 -49.77 29.64 2015-08-11T19:30
Mumford_Cove 41.32526111 -72.02088 2015 monitoringMC_01 3151818 2015-08-11 20:00 22.34 7.82 45670 5.69 77.9 -47.93 29.63 2015-08-11T20:00
Mumford_Cove 41.32526111 -72.02088 2015 monitoringMC_01 3151818 2015-08-11 20:30 22.33 7.81 45700 5.65 77.3 -47.79 29.65 2015-08-11T20:30
Mumford_Cove 41.32526111 -72.02088 2015 monitoringMC_01 3151818 2015-08-11 21:00 22.31 7.81 45730 5.65 77.3 -47.61 29.67 2015-08-11T21:00
Mumford_Cove 41.32526111 -72.02088 2015 monitoringMC_01 3151818 2015-08-11 21:30 22.31 7.77 45740 5.34 73.1 -45.2 29.68 2015-08-11T21:30
Mumford_Cove 41.32526111 -72.02088 2015 monitoringMC_01 3151818 2015-08-11 22:00 22.34 7.75 45640 5.16 70.6 -44.12 29.6 2015-08-11T22:00
Mumford_Cove 41.32526111 -72.02088 2015 monitoringMC_01 3151818 2015-08-11 22:30 22.35 7.72 45560 4.88 66.7 -42.59 29.55 2015-08-11T22:30
Mumford_Cove 41.32526111 -72.02088 2015 monitoringMC_01 3151818 2015-08-11 23:00 22.39 7.75 45670 4.83 66.2 -44.37 29.63 2015-08-11T23:00
Mumford_Cove 41.32526111 -72.02088 2015 monitoringMC_01 3151818 2015-08-11 23:30 22.42 7.73 45700 4.93 67.5 -42.94 29.65 2015-08-11T23:30
Mumford_Cove 41.32526111 -72.02088 2015 monitoringMC_01 3151818 2015-08-12 0:00 22.44 7.7 45710 4.49 61.5 -41.21 29.66 2015-08-12T00:00
Mumford_Cove 41.32526111 -72.02088 2015 monitoringMC_01 3151818 2015-08-12 0:30 22.43 7.72 45650 4.04 55.3 -42.54 29.61 2015-08-12T00:30
Mumford_Cove 41.32526111 -72.02088 2015 monitoringMC_01 3151818 2015-08-12 1:00 22.7 7.74 45780 4.59 63.2 -43.71 29.7 2015-08-12T01:00
Mumford_Cove 41.32526111 -72.02088 2015 monitoringMC_01 3151818 2015-08-12 1:30 22.94 7.77 45750 4.9 67.8 -45.22 29.68 2015-08-12T01:30
Mumford_Cove 41.32526111 -72.02088 2015 monitoringMC_01 3151818 2015-08-12 2:00 22.96 7.77 45690 4.82 66.7 -45.26 29.63 2015-08-12T02:00
Mumford_Cove 41.32526111 -72.02088 2015 monitoringMC_01 3151818 2015-08-12 2:30 22.95 7.73 45870 4.1 56.7 -43.04 29.76 2015-08-12T02:30
Mumford_Cove 41.32526111 -72.02088 2015 monitoringMC_01 3151818 2015-08-12 3:00 23.16 7.74 45820 4.18 58.1 -43.72 29.72 2015-08-12T03:00
Mumford_Cove 41.32526111 -72.02088 2015 monitoringMC_01 3151818 2015-08-12 3:30 23.16 7.75 45690 4.43 61.5 -44.21 29.63 2015-08-12T03:30
Mumford_Cove 41.32526111 -72.02088 2015 monitoringMC_01 3151818 2015-08-12 4:00 23.14 7.74 45710 4.06 56.4 -43.61 29.65 2015-08-12T04:00
Mumford_Cove 41.32526111 -72.02088 2015 monitoringMC_01 3151818 2015-08-12 4:30 23.1 7.73 45360 4.32 59.8 -43.33 29.39 2015-08-12T04:30
Mumford_Cove 41.32526111 -72.02088 2015 monitoringMC_01 3151818 2015-08-12 5:00 23.01 7.72 45460 4.23 58.5 -42.25 29.47 2015-08-12T05:00
Mumford_Cove 41.32526111 -72.02088 2015 monitoringMC_01 3151818 2015-08-12 5:30 22.79 7.74 45300 4.38 60.3 -43.82 29.35 2015-08-12T05:30
Mumford_Cove 41.32526111 -72.02088 2015 monitoringMC_01 3151818 2015-08-12 6:00 22.68 7.73 45370 4.1 56.3 -43.27 29.4 2015-08-12T06:00
Mumford_Cove 41.32526111 -72.02088 2015 monitoringMC_01 3151818 2015-08-12 6:30 22.52 7.7 45590 3.85 52.8 -41.27 29.57 2015-08-12T06:30
Mumford_Cove 41.32526111 -72.02088 2015 monitoringMC_01 3151818 2015-08-12 7:00 22.3 7.7 45660 4.14 56.6 -41.46 29.62 2015-08-12T07:00
Mumford_Cove 41.32526111 -72.02088 2015 monitoringMC_01 3151818 2015-08-12 7:30 21.79 7.72 45880 4.28 58.0 -42.05 29.79 2015-08-12T07:30
Mumford_Cove 41.32526111 -72.02088 2015 monitoringMC_01 3151818 2015-08-12 8:00 21.59 7.71 45900 4.3 58.1 -41.66 29.8 2015-08-12T08:00
Mumford_Cove 41.32526111 -72.02088 2015 monitoringMC_01 3151818 2015-08-12 8:30 21.51 7.72 45870 4.65 62.8 -42.12 29.78 2015-08-12T08:30
Mumford_Cove 41.32526111 -72.02088 2015 monitoringMC_01 3151818 2015-08-12 9:00 21.38 7.74 45940 4.83 65.1 -43.6 29.83 2015-08-12T09:00
Mumford_Cove 41.32526111 -72.02088 2015 monitoringMC_01 3151818 2015-08-12 9:30 21.35 7.77 46000 5.03 67.7 -45.26 29.88 2015-08-12T09:30
Mumford_Cove 41.32526111 -72.02088 2015 monitoringMC_01 3151818 2015-08-12 10:00 21.42 7.77 46070 5.28 71.2 -45.23 29.93 2015-08-12T10:00
Mumford_Cove 41.32526111 -72.02088 2015 monitoringMC_01 3151818 2015-08-12 10:30 21.59 7.75 45890 5.47 73.9 -44.22 29.79 2015-08-12T10:30
Mumford_Cove 41.32526111 -72.02088 2015 monitoringMC_01 3151818 2015-08-12 11:00 21.6 7.82 46000 5.83 78.8 -48.08 29.88 2015-08-12T11:00
Mumford_Cove 41.32526111 -72.02088 2015 monitoringMC_01 3151818 2015-08-12 11:30 21.76 7.84 45960 6.25 84.7 -49.56 29.85 2015-08-12T11:30
Mumford_Cove 41.32526111 -72.02088 2015 monitoringMC_01 3151818 2015-08-12 12:00 21.88 7.85 45920 6.44 87.5 -49.89 29.82 2015-08-12T12:00
Mumford_Cove 41.32526111 -72.02088 2015 monitoringMC_01 3151818 2015-08-12 12:30 22.02 7.91 45960 7.02 95.5 -53.39 29.85 2015-08-12T12:30
Mumford_Cove 41.32526111 -72.02088 2015 monitoringMC_01 3151818 2015-08-12 13:00 22.13 7.88 45970 6.96 95.0 -51.89 29.85 2015-08-12T13:00
Mumford_Cove 41.32526111 -72.02088 2015 monitoringMC_01 3151818 2015-08-12 13:30 22.24 7.93 45860 7.55 103.2 -54.68 29.77 2015-08-12T13:30
Mumford_Cove 41.32526111 -72.02088 2015 monitoringMC_01 3151818 2015-08-12 14:00 22.37 7.92 45900 7.21 98.8 -53.85 29.8 2015-08-12T14:00
Mumford_Cove 41.32526111 -72.02088 2015 monitoringMC_01 3151818 2015-08-12 14:30 22.51 7.93 45940 7.45 102.3 -54.71 29.82 2015-08-12T14:30
Mumford_Cove 41.32526111 -72.02088 2015 monitoringMC_01 3151818 2015-08-12 15:00 22.71 7.95 45940 7.47 103.0 -55.63 29.81 2015-08-12T15:00
Mumford_Cove 41.32526111 -72.02088 2015 monitoringMC_01 3151818 2015-09-08 12:00 25.57 7.94 47970 6.45 94.3 -57.66 31.23 2015-09-08T12:00
Mumford_Cove 41.32526111 -72.02088 2015 monitoringMC_01 3151818 2015-09-08 12:30 25.82 7.97 47840 6.77 99.3 -59.7 31.14 2015-09-08T12:30
Mumford_Cove 41.32526111 -72.02088 2015 monitoringMC_01 3151818 2015-09-08 13:00 25.92 7.99 47890 7.01 103.0 -60.52 31.17 2015-09-08T13:00
Mumford_Cove 41.32526111 -72.02088 2015 monitoringMC_01 3151818 2015-09-08 13:30 26.16 8.03 47900 7.66 113.0 -62.82 31.17 2015-09-08T13:30
Mumford_Cove 41.32526111 -72.02088 2015 monitoringMC_01 3151818 2015-09-08 14:00 26.29 8.08 47860 8.6 127.1 -65.95 31.14 2015-09-08T14:00
Mumford_Cove 41.32526111 -72.02088 2015 monitoringMC_01 3151818 2015-09-08 14:30 26.47 8.04 47960 8.23 122.0 -63.72 31.21 2015-09-08T14:30
Mumford_Cove 41.32526111 -72.02088 2015 monitoringMC_01 3151818 2015-09-08 15:00 26.66 8.09 47940 9.02 134.1 -66.4 31.19 2015-09-08T15:00
Mumford_Cove 41.32526111 -72.02088 2015 monitoringMC_01 3151818 2015-09-08 15:30 26.76 8.1 47700 9.51 141.5 -67.1 31.01 2015-09-08T15:30
Mumford_Cove 41.32526111 -72.02088 2015 monitoringMC_01 3151818 2015-09-08 16:00 26.77 8.12 47700 9.82 146.2 -68.34 31.01 2015-09-08T16:00
Mumford_Cove 41.32526111 -72.02088 2015 monitoringMC_01 3151818 2015-09-08 16:30 26.82 8.19 47740 10.78 160.6 -72.58 31.04 2015-09-08T16:30
Mumford_Cove 41.32526111 -72.02088 2015 monitoringMC_01 3151818 2015-09-08 17:00 26.44 8.11 47560 9.82 145.3 -67.82 30.92 2015-09-08T17:00
Mumford_Cove 41.32526111 -72.02088 2015 monitoringMC_01 3151818 2015-09-08 17:30 26.09 8.1 47630 9.49 139.6 -66.69 30.98 2015-09-08T17:30
Mumford_Cove 41.32526111 -72.02088 2015 monitoringMC_01 3151818 2015-09-08 18:00 25.68 8.08 47360 9.21 134.5 -65.91 30.79 2015-09-08T18:00
Mumford_Cove 41.32526111 -72.02088 2015 monitoringMC_01 3151818 2015-09-08 18:30 25.34 8.08 47400 9.15 132.7 -65.8 30.83 2015-09-08T18:30
Mumford_Cove 41.32526111 -72.02088 2015 monitoringMC_01 3151818 2015-09-08 19:00 25.22 8.08 47370 9.12 132.0 -65.66 30.81 2015-09-08T19:00
Mumford_Cove 41.32526111 -72.02088 2015 monitoringMC_01 3151818 2015-09-08 19:30 25.13 8.08 47340 9.0 130.1 -65.52 30.79 2015-09-08T19:30
Mumford_Cove 41.32526111 -72.02088 2015 monitoringMC_01 3151818 2015-09-08 20:00 25.14 8.08 47380 8.99 130.0 -65.81 30.82 2015-09-08T20:00
Mumford_Cove 41.32526111 -72.02088 2015 monitoringMC_01 3151818 2015-09-08 20:30 25.25 8.07 47500 8.84 128.1 -65.19 30.9 2015-09-08T20:30
Mumford_Cove 41.32526111 -72.02088 2015 monitoringMC_01 3151818 2015-09-08 21:00 25.26 8.06 47430 8.56 124.1 -64.26 30.85 2015-09-08T21:00
Mumford_Cove 41.32526111 -72.02088 2015 monitoringMC_01 3151818 2015-09-08 21:30 25.41 8.03 47470 8.19 119.0 -62.9 30.88 2015-09-08T21:30
Mumford_Cove 41.32526111 -72.02088 2015 monitoringMC_01 3151818 2015-09-08 22:00 25.33 8.03 47470 7.99 116.0 -62.68 30.88 2015-09-08T22:00
Mumford_Cove 41.32526111 -72.02088 2015 monitoringMC_01 3151818 2015-09-08 22:30 25.73 8.08 47630 8.41 122.9 -65.73 30.99 2015-09-08T22:30
Mumford_Cove 41.32526111 -72.02088 2015 monitoringMC_01 3151818 2015-09-08 23:00 25.79 8.07 47630 8.04 117.6 -65.13 30.99 2015-09-08T23:00
Mumford_Cove 41.32526111 -72.02088 2015 monitoringMC_01 3151818 2015-09-08 23:30 26.23 8.08 47740 8.33 122.9 -65.67 31.05 2015-09-08T23:30
Mumford_Cove 41.32526111 -72.02088 2015 monitoringMC_01 3151818 2015-09-09 0:00 26.5 8.09 47640 8.24 122.0 -66.42 30.97 2015-09-09T00:00
Mumford_Cove 41.32526111 -72.02088 2015 monitoringMC_01 3151818 2015-09-09 0:30 26.62 8.1 47870 8.81 130.9 -67.22 31.14 2015-09-09T00:30
Mumford_Cove 41.32526111 -72.02088 2015 monitoringMC_01 3151818 2015-09-09 1:00 26.74 8.11 47740 8.63 128.4 -67.71 31.04 2015-09-09T01:00
Mumford_Cove 41.32526111 -72.02088 2015 monitoringMC_01 3151818 2015-09-09 1:30 26.73 8.1 47780 8.49 126.3 -67.08 31.07 2015-09-09T01:30
Mumford_Cove 41.32526111 -72.02088 2015 monitoringMC_01 3151818 2015-09-09 2:00 26.49 8.04 47770 7.97 118.1 -63.61 31.07 2015-09-09T02:00
Mumford_Cove 41.32526111 -72.02088 2015 monitoringMC_01 3151818 2015-09-09 2:30 26.26 8.01 47730 7.56 111.6 -61.99 31.05 2015-09-09T02:30
Mumford_Cove 41.32526111 -72.02088 2015 monitoringMC_01 3151818 2015-09-09 3:00 26.19 8.01 47750 7.18 105.9 -61.74 31.07 2015-09-09T03:00
Mumford_Cove 41.32526111 -72.02088 2015 monitoringMC_01 3151818 2015-09-09 3:30 26.02 8.0 47830 7.2 105.9 -61.33 31.12 2015-09-09T03:30
Mumford_Cove 41.32526111 -72.02088 2015 monitoringMC_01 3151818 2015-09-09 4:00 25.76 7.98 47650 6.93 101.4 -60.14 31.0 2015-09-09T04:00
Mumford_Cove 41.32526111 -72.02088 2015 monitoringMC_01 3151818 2015-09-09 4:30 25.62 7.97 47700 6.72 98.1 -59.15 31.04 2015-09-09T04:30
Mumford_Cove 41.32526111 -72.02088 2015 monitoringMC_01 3151818 2015-09-09 5:00 25.44 7.97 47690 6.63 96.5 -59.14 31.03 2015-09-09T05:00
Mumford_Cove 41.32526111 -72.02088 2015 monitoringMC_01 3151818 2015-09-09 5:30 25.34 7.95 47630 6.38 92.7 -58.17 30.99 2015-09-09T05:30
Mumford_Cove 41.32526111 -72.02088 2015 monitoringMC_01 3151818 2015-09-09 6:00 25.18 7.94 47540 6.31 91.4 -57.33 30.93 2015-09-09T06:00
Mumford_Cove 41.32526111 -72.02088 2015 monitoringMC_01 3151818 2015-09-09 6:30 25.1 7.91 47700 5.99 86.7 -55.73 31.05 2015-09-09T06:30
Mumford_Cove 41.32526111 -72.02088 2015 monitoringMC_01 3151818 2015-09-09 7:00 24.66 7.89 47490 5.79 83.1 -54.38 30.91 2015-09-09T07:00
Mumford_Cove 41.32526111 -72.02088 2015 monitoringMC_01 3151818 2015-09-09 7:30 24.11 7.87 47440 5.67 80.7 -53.45 30.88 2015-09-09T07:30
Mumford_Cove 41.32526111 -72.02088 2015 monitoringMC_01 3151818 2015-09-09 8:00 24.01 7.86 47370 5.65 80.1 -53.06 30.83 2015-09-09T08:00
Mumford_Cove 41.32526111 -72.02088 2015 monitoringMC_01 3151818 2015-09-09 8:30 23.93 7.86 47510 5.61 79.6 -53.08 30.94 2015-09-09T08:30
Mumford_Cove 41.32526111 -72.02088 2015 monitoringMC_01 3151818 2015-09-09 9:00 24.05 7.86 47360 5.62 79.8 -53.08 30.83 2015-09-09T09:00
Mumford_Cove 41.32526111 -72.02088 2015 monitoringMC_01 3151818 2015-09-09 9:30 24.05 7.87 47410 5.67 80.5 -53.44 30.86 2015-09-09T09:30
Mumford_Cove 41.32526111 -72.02088 2015 monitoringMC_01 3151818 2015-09-09 10:00 24.12 7.87 47430 5.72 81.3 -53.21 30.88 2015-09-09T10:00
Mumford_Cove 41.32526111 -72.02088 2015 monitoringMC_01 3151818 2015-09-09 10:30 24.52 7.89 47530 5.82 83.3 -54.84 30.94 2015-09-09T10:30
Mumford_Cove 41.32526111 -72.02088 2015 monitoringMC_01 3151818 2015-09-09 11:00 24.74 7.91 47520 6.03 86.7 -55.8 30.93 2015-09-09T11:00
Mumford_Cove 41.32526111 -72.02088 2015 monitoringMC_01 3151818 2015-09-09 11:30 25.26 7.92 47480 6.24 90.4 -56.66 30.89 2015-09-09T11:30
Mumford_Cove 41.32526111 -72.02088 2015 monitoringMC_01 3151818 2015-09-09 12:00 25.75 7.94 47770 6.33 92.7 -57.61 31.08 2015-09-09T12:00
Mumford_Cove 41.32526111 -72.02088 2015 monitoringMC_01 3151818 2015-09-09 12:30 26.22 7.96 47830 6.59 97.2 -59.18 31.12 2015-09-09T12:30
Mumford_Cove 41.32526111 -72.02088 2015 monitoringMC_01 3151818 2015-09-09 13:00 26.41 7.99 47860 6.88 101.8 -60.48 31.14 2015-09-09T13:00
Mumford_Cove 41.32526111 -72.02088 2015 monitoringMC_01 3151818 2015-09-09 13:30 26.67 8.03 47880 7.53 112.0 -63.31 31.14 2015-09-09T13:30
Mumford_Cove 41.32526111 -72.02088 2015 monitoringMC_01 3151818 2015-09-09 14:00 26.67 8.03 47730 7.33 108.9 -62.95 31.04 2015-09-09T14:00
Mumford_Cove 41.32526111 -72.02088 2015 monitoringMC_01 3151818 2015-09-09 14:30 26.81 8.04 47840 7.39 110.2 -63.38 31.11 2015-09-09T14:30
Mumford_Cove 41.32526111 -72.02088 2015 monitoringMC_01 3151818 2015-09-09 15:00 26.79 8.07 47830 8.09 120.5 -65.25 31.11 2015-09-09T15:00
Mumford_Cove 41.32526111 -72.02088 2015 monitoringMC_01 3151818 2015-09-09 15:30 26.71 8.08 47720 8.79 130.7 -66.03 31.02 2015-09-09T15:30
Mumford_Cove 41.32526111 -72.02088 2015 monitoringMC_01 3151818 2015-09-09 16:00 26.96 8.1 47730 9.34 139.4 -67.22 31.03 2015-09-09T16:00
Mumford_Cove 41.32526111 -72.02088 2015 monitoringMC_01 3151818 2015-09-09 16:30 27.09 8.11 47650 9.63 144.0 -67.6 30.97 2015-09-09T16:30
Mumford_Cove 41.32526111 -72.02088 2015 monitoringMC_01 3151818 2015-09-09 17:00 27.13 8.1 47760 9.61 144.0 -67.01 31.04 2015-09-09T17:00
Mumford_Cove 41.32526111 -72.02088 2015 monitoringMC_01 3151818 2015-09-09 17:30 27.28 8.12 47740 9.93 149.0 -68.23 31.03 2015-09-09T17:30
Mumford_Cove 41.32526111 -72.02088 2015 monitoringMC_01 3151818 2015-09-09 18:00 27.1 8.08 47670 9.54 142.8 -66.32 30.98 2015-09-09T18:00
Mumford_Cove 41.32526111 -72.02088 2015 monitoringMC_01 3151818 2015-09-09 18:30 26.94 8.07 47600 9.33 139.2 -65.59 30.93 2015-09-09T18:30
Mumford_Cove 41.32526111 -72.02088 2015 monitoringMC_01 3151818 2015-09-09 19:00 26.73 8.05 47520 8.91 132.5 -64.28 30.88 2015-09-09T19:00
Mumford_Cove 41.32526111 -72.02088 2015 monitoringMC_01 3151818 2015-09-09 19:30 26.52 8.03 47450 8.46 125.3 -62.76 30.84 2015-09-09T19:30
Mumford_Cove 41.32526111 -72.02088 2015 monitoringMC_01 3151818 2015-09-09 20:00 26.37 8.01 47510 8.25 121.9 -61.75 30.88 2015-09-09T20:00
Mumford_Cove 41.32526111 -72.02088 2015 monitoringMC_01 3151818 2015-09-09 20:30 26.51 8.03 47520 8.31 123.1 -62.93 30.89 2015-09-09T20:30
Mumford_Cove 41.32526111 -72.02088 2015 monitoringMC_01 3151818 2015-09-09 21:00 26.53 8.02 47510 8.24 122.1 -62.35 30.88 2015-09-09T21:00
Mumford_Cove 41.32526111 -72.02088 2015 monitoringMC_01 3151818 2015-09-09 21:30 26.53 8.01 47580 8.06 119.4 -61.74 30.93 2015-09-09T21:30
Mumford_Cove 41.32526111 -72.02088 2015 monitoringMC_01 3151818 2015-09-09 22:00 26.76 8.03 47640 8.36 124.3 -63.2 30.97 2015-09-09T22:00
Mumford_Cove 41.32526111 -72.02088 2015 monitoringMC_01 3151818 2015-09-09 22:30 26.7 8.02 47710 8.21 122.0 -62.67 31.02 2015-09-09T22:30
Mumford_Cove 41.32526111 -72.02088 2015 monitoringMC_01 3151818 2015-09-09 23:00 27.16 8.09 47680 8.86 132.6 -66.66 30.98 2015-09-09T23:00
Mumford_Cove 41.32526111 -72.02088 2015 monitoringMC_01 3151818 2015-09-09 23:30 27.18 8.04 47550 8.35 125.0 -63.69 30.89 2015-09-09T23:30
Mumford_Cove 41.32526111 -72.02088 2015 monitoringMC_01 3151818 2015-09-10 0:00 27.33 8.05 47710 8.21 123.3 -64.09 31.0 2015-09-10T00:00
Mumford_Cove 41.32526111 -72.02088 2015 monitoringMC_01 3151818 2015-09-10 0:30 27.48 8.08 47860 8.3 125.0 -65.88 31.11 2015-09-10T00:30
Mumford_Cove 41.32526111 -72.02088 2015 monitoringMC_01 3151818 2015-09-10 1:00 27.59 8.08 47840 8.18 123.4 -66.25 31.09 2015-09-10T01:00
Mumford_Cove 41.32526111 -72.02088 2015 monitoringMC_01 3151818 2015-09-10 1:30 27.63 8.07 47890 7.91 119.5 -65.54 31.12 2015-09-10T01:30
Mumford_Cove 41.32526111 -72.02088 2015 monitoringMC_01 3151818 2015-09-10 2:00 27.66 8.05 47800 7.59 114.7 -64.43 31.06 2015-09-10T02:00
Mumford_Cove 41.32526111 -72.02088 2015 monitoringMC_01 3151818 2015-09-10 2:30 27.73 8.05 47800 7.48 113.2 -64.43 31.06 2015-09-10T02:30
Mumford_Cove 41.32526111 -72.02088 2015 monitoringMC_01 3151818 2015-09-10 3:00 27.64 8.01 47870 6.94 104.9 -62.06 31.11 2015-09-10T03:00
Mumford_Cove 41.32526111 -72.02088 2015 monitoringMC_01 3151818 2015-09-10 3:30 27.47 8.0 47800 6.84 103.1 -61.32 31.06 2015-09-10T03:30
Mumford_Cove 41.32526111 -72.02088 2015 monitoringMC_01 3151818 2015-09-10 4:00 27.19 7.96 47740 6.46 96.9 -59.05 31.03 2015-09-10T04:00
Mumford_Cove 41.32526111 -72.02088 2015 monitoringMC_01 3151818 2015-09-10 4:30 27.03 7.93 47770 6.25 93.5 -57.44 31.06 2015-09-10T04:30
Mumford_Cove 41.32526111 -72.02088 2015 monitoringMC_01 3151818 2015-09-10 5:00 26.8 7.89 47640 5.94 88.5 -55.25 30.97 2015-09-10T05:00
Mumford_Cove 41.32526111 -72.02088 2015 monitoringMC_01 3151818 2015-09-10 5:30 26.51 7.88 47690 5.81 86.0 -54.55 31.01 2015-09-10T05:30
Mumford_Cove 41.32526111 -72.02088 2015 monitoringMC_01 3151818 2015-09-10 6:00 26.45 7.87 47760 5.71 84.6 -53.65 31.07 2015-09-10T06:00
Mumford_Cove 41.32526111 -72.02088 2015 monitoringMC_01 3151818 2015-09-10 6:30 25.99 7.84 47480 5.43 79.7 -51.81 30.87 2015-09-10T06:30
Mumford_Cove 41.32526111 -72.02088 2015 monitoringMC_01 3151818 2015-09-10 7:00 25.76 7.8 47460 5.06 74.0 -49.88 30.86 2015-09-10T07:00
Mumford_Cove 41.32526111 -72.02088 2015 monitoringMC_01 3151818 2015-09-10 7:30 25.14 7.8 47330 4.95 71.6 -49.62 30.78 2015-09-10T07:30
Mumford_Cove 41.32526111 -72.02088 2015 monitoringMC_01 3151818 2015-09-10 8:00 24.72 7.79 47360 5.07 72.8 -49.08 30.81 2015-09-10T08:00
Mumford_Cove 41.32526111 -72.02088 2015 monitoringMC_01 3151818 2015-09-10 8:30 24.17 7.81 47000 5.4 76.6 -49.9 30.56 2015-09-10T08:30
Mumford_Cove 41.32526111 -72.02088 2015 monitoringMC_01 3151818 2015-09-10 9:00 24.08 7.8 47080 5.14 73.0 -49.23 30.62 2015-09-10T09:00
Mumford_Cove 41.32526111 -72.02088 2015 monitoringMC_01 3151818 2015-09-10 9:30 23.92 7.81 46970 5.41 76.6 -50.1 30.55 2015-09-10T09:30
Mumford_Cove 41.32526111 -72.02088 2015 monitoringMC_01 3151818 2015-09-10 10:00 24.12 7.79 46940 5.29 75.1 -49.08 30.52 2015-09-10T10:00
Mumford_Cove 41.32526111 -72.02088 2015 monitoringMC_01 3151818 2015-09-10 10:30 24.58 7.77 47150 5.19 74.3 -47.92 30.66 2015-09-10T10:30
Mumford_Cove 41.32526111 -72.02088 2015 monitoringMC_01 3151818 2015-09-10 11:00 24.24 7.8 47230 5.29 75.3 -49.32 30.73 2015-09-10T11:00
Mumford_Cove 41.32526111 -72.02088 2015 monitoringMC_01 3151818 2015-09-10 11:30 24.4 7.8 47230 5.28 75.3 -49.48 30.72 2015-09-10T11:30
Mumford_Cove 41.32526111 -72.02088 2015 monitoringMC_01 3151818 2015-09-10 12:00 24.46 7.81 47190 5.4 77.1 -50.15 30.69 2015-09-10T12:00
Mumford_Cove 41.32526111 -72.02088 2015 monitoringMC_01 3151818 2015-09-10 12:30 24.59 7.83 47200 5.67 81.2 -51.36 30.7 2015-09-10T12:30
Mumford_Cove 41.32526111 -72.02088 2015 monitoringMC_01 3151818 2015-09-10 13:00 25.76 7.76 47270 4.76 69.6 -47.1 30.72 2015-09-10T13:00
Mumford_Cove 41.32526111 -72.02088 2015 monitoringMC_01 3151818 2015-09-10 13:30 24.62 7.83 47230 5.69 81.5 -50.96 30.72 2015-09-10T13:30
Mumford_Cove 41.32526111 -72.02088 2015 monitoringMC_01 3151818 2015-09-10 14:00 24.76 7.82 47240 5.67 81.4 -50.87 30.72 2015-09-10T14:00
Mumford_Cove 41.32526111 -72.02088 2015 monitoringMC_01 3151818 2015-09-10 14:30 25.0 7.82 47200 5.49 79.1 -50.64 30.69 2015-09-10T14:30
Mumford_Cove 41.32526111 -72.02088 2015 monitoringMC_01 3151818 2015-09-10 15:00 25.15 7.81 47270 5.49 79.4 -50.42 30.73 2015-09-10T15:00
Mumford_Cove 41.32526111 -72.02088 2015 monitoringMC_01 3151818 2015-09-10 15:30 26.33 7.89 46870 5.64 83.1 -54.99 30.42 2015-09-10T15:30
Mumford_Cove 41.32526111 -72.02088 2015 monitoringMC_01 3151818 2015-09-10 16:00 26.24 7.86 46560 5.46 80.2 -53.32 30.2 2015-09-10T16:00
Mumford_Cove 41.32526111 -72.02088 2015 monitoringMC_01 3151818 2015-09-10 16:30 26.34 7.88 46470 5.43 79.8 -54.37 30.13 2015-09-10T16:30
Mumford_Cove 41.32526111 -72.02088 2015 monitoringMC_01 3151818 2015-09-10 17:00 25.81 7.84 46210 5.4 78.7 -51.86 29.95 2015-09-10T17:00
Mumford_Cove 41.32526111 -72.02088 2015 monitoringMC_01 3151818 2015-09-10 17:30 25.71 7.85 46100 5.58 81.0 -52.41 29.88 2015-09-10T17:30
Mumford_Cove 41.32526111 -72.02088 2015 monitoringMC_01 3151818 2015-09-10 18:00 25.64 7.88 45830 5.83 84.6 -54.09 29.68 2015-09-10T18:00
Mumford_Cove 41.32526111 -72.02088 2015 monitoringMC_01 3151818 2015-09-10 18:30 25.71 7.85 45850 5.67 82.2 -52.74 29.69 2015-09-10T18:30
Mumford_Cove 41.32526111 -72.02088 2015 monitoringMC_01 3151818 2015-09-10 19:00 25.68 7.83 46020 5.35 77.6 -51.42 29.82 2015-09-10T19:00
Mumford_Cove 41.32526111 -72.02088 2015 monitoringMC_01 3151818 2015-09-10 19:30 25.43 7.73 46190 4.56 65.9 -45.64 29.95 2015-09-10T19:30
Mumford_Cove 41.32526111 -72.02088 2015 monitoringMC_01 3151818 2015-09-10 20:00 24.58 7.74 45740 4.64 66.0 -46.25 29.64 2015-09-10T20:00
Mumford_Cove 41.32526111 -72.02088 2015 monitoringMC_01 3151818 2015-09-10 20:30 23.3 7.9 45660 6.33 88.1 -54.96 29.61 2015-09-10T20:30
Mumford_Cove 41.32526111 -72.02088 2015 monitoringMC_01 3151818 2015-09-10 21:00 23.0 7.91 45790 6.59 91.2 -55.73 29.7 2015-09-10T21:00
Mumford_Cove 41.32526111 -72.02088 2015 monitoringMC_01 3151818 2015-09-10 21:30 22.97 7.91 45700 6.53 90.3 -55.41 29.64 2015-09-10T21:30
Mumford_Cove 41.32526111 -72.02088 2015 monitoringMC_01 3151818 2015-09-10 22:00 22.92 7.91 45730 6.43 88.9 -55.28 29.66 2015-09-10T22:00
Mumford_Cove 41.32526111 -72.02088 2015 monitoringMC_01 3151818 2015-09-10 22:30 22.95 7.89 45870 6.26 86.6 -54.15 29.76 2015-09-10T22:30
Mumford_Cove 41.32526111 -72.02088 2015 monitoringMC_01 3151818 2015-09-10 23:00 23.05 7.87 45770 6.02 83.4 -53.14 29.69 2015-09-10T23:00
Mumford_Cove 41.32526111 -72.02088 2015 monitoringMC_01 3151818 2015-09-10 23:30 23.67 7.8 45510 5.49 76.9 -49.52 29.49 2015-09-10T23:30
Mumford_Cove 41.32526111 -72.02088 2015 monitoringMC_01 3151818 2015-09-11 0:00 23.09 7.84 45730 5.62 78.0 -51.28 29.66 2015-09-11T00:00
Mumford_Cove 41.32526111 -72.02088 2015 monitoringMC_01 3151818 2015-09-11 0:30 23.23 7.8 45710 5.31 73.8 -49.43 29.64 2015-09-11T00:30
Mumford_Cove 41.32526111 -72.02088 2015 monitoringMC_01 3151818 2015-09-11 1:00 23.22 7.8 45780 5.27 73.2 -49.49 29.69 2015-09-11T01:00
Mumford_Cove 41.32526111 -72.02088 2015 monitoringMC_01 3151818 2015-09-11 1:30 23.28 7.78 45730 5.02 69.9 -48.2 29.65 2015-09-11T01:30
Mumford_Cove 41.32526111 -72.02088 2015 monitoringMC_01 3151818 2015-09-11 2:00 23.57 7.78 45600 5.14 71.8 -48.25 29.56 2015-09-11T02:00
Mumford_Cove 41.32526111 -72.02088 2015 monitoringMC_01 3151818 2015-09-11 2:30 23.48 7.66 45780 3.85 53.8 -41.12 29.69 2015-09-11T02:30
Mumford_Cove 41.32526111 -72.02088 2015 monitoringMC_01 3151818 2015-09-11 3:00 23.45 7.71 45590 4.39 61.1 -44.07 29.55 2015-09-11T03:00
Mumford_Cove 41.32526111 -72.02088 2015 monitoringMC_01 3151818 2015-09-11 3:30 23.51 7.68 45630 4.04 56.4 -42.64 29.58 2015-09-11T03:30
Mumford_Cove 41.32526111 -72.02088 2015 monitoringMC_01 3151818 2015-09-11 4:00 23.79 7.55 45820 3.21 45.0 -35.18 29.71 2015-09-11T04:00
Mumford_Cove 41.32526111 -72.02088 2015 monitoringMC_01 3151818 2015-09-11 4:30 23.56 7.63 45430 3.48 48.6 -39.84 29.43 2015-09-11T04:30
Mumford_Cove 41.32526111 -72.02088 2015 monitoringMC_01 3151818 2015-09-11 5:00 23.7 7.67 44680 4.0 55.9 -41.74 28.89 2015-09-11T05:00
Mumford_Cove 41.32526111 -72.02088 2015 monitoringMC_01 3151818 2015-09-11 5:30 23.42 7.69 44410 4.29 59.4 -43.27 28.7 2015-09-11T05:30
Mumford_Cove 41.32526111 -72.02088 2015 monitoringMC_01 3151818 2015-09-11 6:00 22.96 7.73 44540 4.74 65.3 -45.11 28.8 2015-09-11T06:00
Mumford_Cove 41.32526111 -72.02088 2015 monitoringMC_01 3151818 2015-09-11 6:30 22.85 7.69 44850 4.58 63.0 -43.2 29.03 2015-09-11T06:30
Mumford_Cove 41.32526111 -72.02088 2015 monitoringMC_01 3151818 2015-09-11 7:00 22.6 7.69 45070 4.48 61.5 -42.66 29.19 2015-09-11T07:00
Mumford_Cove 41.32526111 -72.02088 2015 monitoringMC_01 3151818 2015-09-11 7:30 22.36 7.73 45480 4.91 67.2 -44.9 29.49 2015-09-11T07:30
Mumford_Cove 41.32526111 -72.02088 2015 monitoringMC_01 3151818 2015-09-11 8:00 22.14 7.74 45640 5.1 69.4 -45.95 29.61 2015-09-11T08:00
Mumford_Cove 41.32526111 -72.02088 2015 monitoringMC_01 3151818 2015-09-11 8:30 22.08 7.76 45660 5.25 71.4 -47.01 29.62 2015-09-11T08:30
Mumford_Cove 41.32526111 -72.02088 2015 monitoringMC_01 3151818 2015-09-11 9:00 21.98 7.75 45800 5.19 70.6 -46.43 29.73 2015-09-11T09:00
Mumford_Cove 41.32526111 -72.02088 2015 monitoringMC_01 3151818 2015-09-11 9:30 22.02 7.77 45740 5.39 73.4 -47.65 29.68 2015-09-11T09:30
Mumford_Cove 41.32526111 -72.02088 2015 monitoringMC_01 3151818 2015-09-11 10:00 22.05 7.79 45740 5.49 74.7 -48.32 29.68 2015-09-11T10:00
Mumford_Cove 41.32526111 -72.02088 2015 monitoringMC_01 3151818 2015-09-11 10:30 22.09 7.8 45910 5.65 77.0 -49.19 29.8 2015-09-11T10:30
Mumford_Cove 41.32526111 -72.02088 2015 monitoringMC_01 3151818 2015-09-11 11:00 22.06 7.81 46080 5.64 76.9 -49.57 29.93 2015-09-11T11:00
Mumford_Cove 41.32526111 -72.02088 2015 monitoringMC_01 3151818 2015-09-11 11:30 22.14 7.83 45890 5.92 80.7 -50.52 29.79 2015-09-11T11:30
Mumford_Cove 41.32526111 -72.02088 2015 monitoringMC_01 3151818 2015-09-11 12:00 22.19 7.86 45940 6.22 84.9 -52.25 29.83 2015-09-11T12:00
Mumford_Cove 41.32526111 -72.02088 2015 monitoringMC_01 3151818 2015-09-11 12:30 22.25 7.87 45940 6.37 87.0 -52.88 29.83 2015-09-11T12:30
Mumford_Cove 41.32526111 -72.02088 2015 monitoringMC_01 3151818 2015-09-11 13:00 22.33 7.89 45990 6.61 90.5 -54.1 29.86 2015-09-11T13:00
Mumford_Cove 41.32526111 -72.02088 2015 monitoringMC_01 3151818 2015-09-11 13:30 22.4 7.89 45970 6.66 91.3 -54.27 29.84 2015-09-11T13:30
Mumford_Cove 41.32526111 -72.02088 2015 monitoringMC_01 3151818 2015-09-11 14:00 22.68 7.98 45800 7.59 104.5 -59.39 29.72 2015-09-11T14:00
Mumford_Cove 41.32526111 -72.02088 2015 monitoringMC_01 3151818 2015-09-11 14:30 23.06 7.92 45250 7.24 100.2 -56.29 29.32 2015-09-11T14:30
Mumford_Cove 41.32526111 -72.02088 2015 monitoringMC_01 3151818 2015-09-11 15:00 23.65 7.87 44950 6.62 92.3 -53.36 29.09 2015-09-11T15:00
Mumford_Cove 41.32526111 -72.02088 2015 monitoringMC_01 3151818 2015-09-11 15:30 23.74 7.87 44930 6.78 94.7 -53.6 29.07 2015-09-11T15:30
Mumford_Cove 41.32526111 -72.02088 2015 monitoringMC_01 3151818 2015-09-11 16:00 24.08 7.84 44560 6.48 90.9 -51.42 28.8 2015-09-11T16:00
Mumford_Cove 41.32526111 -72.02088 2015 monitoringMC_01 3151818 2015-09-11 16:30 24.22 7.9 44530 6.99 98.3 -55.22 28.77 2015-09-11T16:30
Mumford_Cove 41.32526111 -72.02088 2015 monitoringMC_01 3151818 2015-09-11 17:00 23.56 7.93 45240 7.33 102.2 -56.61 29.3 2015-09-11T17:00
Mumford_Cove 41.32526111 -72.02088 2015 monitoringMC_01 3151818 2015-09-11 17:30 23.29 7.96 45510 7.77 107.9 -58.55 29.49 2015-09-11T17:30
Mumford_Cove 41.32526111 -72.02088 2015 monitoringMC_01 3151818 2015-09-11 18:00 23.48 7.97 45220 7.98 111.2 -58.91 29.29 2015-09-11T18:00
Mumford_Cove 41.32526111 -72.02088 2015 monitoringMC_01 3151818 2015-09-11 18:30 23.51 7.98 45260 8.04 112.0 -59.38 29.31 2015-09-11T18:30
Mumford_Cove 41.32526111 -72.02088 2015 monitoringMC_01 3151818 2015-09-11 19:00 23.22 8.0 45940 8.01 111.4 -60.79 29.81 2015-09-11T19:00
Mumford_Cove 41.32526111 -72.02088 2015 monitoringMC_01 3151818 2015-09-11 19:30 22.9 8.03 46330 8.29 114.9 -62.26 30.1 2015-09-11T19:30
Mumford_Cove 41.32526111 -72.02088 2015 monitoringMC_01 3151818 2015-09-11 20:00 22.74 8.03 46430 8.2 113.3 -62.47 30.17 2015-09-11T20:00
Mumford_Cove 41.32526111 -72.02088 2015 monitoringMC_01 3151818 2015-09-11 20:30 22.59 8.02 46530 7.9 108.9 -61.44 30.24 2015-09-11T20:30
Mumford_Cove 41.32526111 -72.02088 2015 monitoringMC_01 3151818 2015-09-11 21:00 22.49 8.0 46540 7.64 105.1 -60.45 30.26 2015-09-11T21:00
Mumford_Cove 41.32526111 -72.02088 2015 monitoringMC_01 3151818 2015-09-11 21:30 22.43 8.0 46520 7.56 103.9 -60.42 30.24 2015-09-11T21:30
Mumford_Cove 41.32526111 -72.02088 2015 monitoringMC_01 3151818 2015-09-11 22:00 22.39 7.99 46550 7.48 102.7 -60.09 30.26 2015-09-11T22:00
Mumford_Cove 41.32526111 -72.02088 2015 monitoringMC_01 3151818 2015-09-11 22:30 22.36 7.98 46630 7.33 100.7 -59.58 30.32 2015-09-11T22:30
Mumford_Cove 41.32526111 -72.02088 2015 monitoringMC_01 3151818 2015-09-11 23:00 22.36 7.97 46620 7.11 97.6 -58.75 30.31 2015-09-11T23:00
Mumford_Cove 41.32526111 -72.02088 2015 monitoringMC_01 3151818 2015-09-11 23:30 22.36 7.96 46570 7.01 96.2 -58.32 30.28 2015-09-11T23:30
Mumford_Cove 41.32526111 -72.02088 2015 monitoringMC_01 3151818 2015-09-12 0:00 22.37 7.95 46630 6.73 92.4 -57.42 30.32 2015-09-12T00:00
Mumford_Cove 41.32526111 -72.02088 2015 monitoringMC_01 3151818 2015-09-12 0:30 22.39 7.92 46690 6.46 88.7 -56.14 30.36 2015-09-12T00:30
Mumford_Cove 41.32526111 -72.02088 2015 monitoringMC_01 3151818 2015-09-12 1:00 22.41 7.91 46700 6.37 87.6 -55.31 30.38 2015-09-12T01:00
Mumford_Cove 41.32526111 -72.02088 2015 monitoringMC_01 3151818 2015-09-12 1:30 22.41 7.9 46580 6.24 85.7 -54.74 30.29 2015-09-12T01:30
Mumford_Cove 41.32526111 -72.02088 2015 monitoringMC_01 3151818 2015-09-12 2:00 22.42 7.88 46600 5.86 80.6 -53.51 30.3 2015-09-12T02:00
Mumford_Cove 41.32526111 -72.02088 2015 monitoringMC_01 3151818 2015-09-12 2:30 22.55 7.86 46420 5.59 76.9 -52.71 30.17 2015-09-12T02:30
Mumford_Cove 41.32526111 -72.02088 2015 monitoringMC_01 3151818 2015-09-12 3:00 22.59 7.83 46390 5.51 75.9 -50.87 30.14 2015-09-12T03:00
Mumford_Cove 41.32526111 -72.02088 2015 monitoringMC_01 3151818 2015-09-12 3:30 22.65 7.7 46360 4.35 59.9 -43.66 30.13 2015-09-12T03:30
Mumford_Cove 41.32526111 -72.02088 2015 monitoringMC_01 3151818 2015-09-12 4:00 22.51 7.74 46550 4.21 58.0 -45.94 30.26 2015-09-12T04:00
Mumford_Cove 41.32526111 -72.02088 2015 monitoringMC_01 3151818 2015-09-12 4:30 22.54 7.72 46570 4.28 58.9 -44.79 30.27 2015-09-12T04:30
Mumford_Cove 41.32526111 -72.02088 2015 monitoringMC_01 3151818 2015-09-12 5:00 22.57 7.7 46610 4.15 57.2 -43.48 30.31 2015-09-12T05:00
Mumford_Cove 41.32526111 -72.02088 2015 monitoringMC_01 3151818 2015-09-12 5:30 22.56 7.74 46500 4.32 59.5 -45.61 30.22 2015-09-12T05:30
Mumford_Cove 41.32526111 -72.02088 2015 monitoringMC_01 3151818 2015-09-12 6:00 22.56 7.72 45870 4.29 59.0 -44.69 29.77 2015-09-12T06:00
Mumford_Cove 41.32526111 -72.02088 2015 monitoringMC_01 3151818 2015-09-12 6:30 22.48 7.7 46170 4.32 59.4 -43.73 29.99 2015-09-12T06:30
Mumford_Cove 41.32526111 -72.02088 2015 monitoringMC_01 3151818 2015-09-12 7:00 22.27 7.74 45840 4.73 64.6 -45.91 29.75 2015-09-12T07:00
Mumford_Cove 41.32526111 -72.02088 2015 monitoringMC_01 3151818 2015-09-12 7:30 22.19 7.71 46080 4.33 59.2 -43.93 29.93 2015-09-12T07:30
Mumford_Cove 41.32526111 -72.02088 2015 monitoringMC_01 3151818 2015-09-12 8:00 21.96 7.74 46300 4.64 63.2 -45.68 30.09 2015-09-12T08:00
Mumford_Cove 41.32526111 -72.02088 2015 monitoringMC_01 3151818 2015-09-12 8:30 21.74 7.79 46480 5.1 69.3 -48.71 30.22 2015-09-12T08:30
Mumford_Cove 41.32526111 -72.02088 2015 monitoringMC_01 3151818 2015-09-12 9:00 21.65 7.82 46590 5.36 72.6 -50.26 30.31 2015-09-12T09:00
Mumford_Cove 41.32526111 -72.02088 2015 monitoringMC_01 3151818 2015-09-12 9:30 21.65 7.85 46650 5.7 77.3 -51.81 30.35 2015-09-12T09:30
Mumford_Cove 41.32526111 -72.02088 2015 monitoringMC_01 3151818 2015-09-12 10:00 21.69 7.87 46650 5.89 79.9 -52.98 30.35 2015-09-12T10:00
Mumford_Cove 41.32526111 -72.02088 2015 monitoringMC_01 3151818 2015-09-12 10:30 21.82 7.88 46620 6.06 82.4 -53.85 30.33 2015-09-12T10:30
Mumford_Cove 41.32526111 -72.02088 2015 monitoringMC_01 3151818 2015-09-12 11:00 21.85 7.9 46680 6.31 85.8 -54.75 30.37 2015-09-12T11:00
Mumford_Cove 41.32526111 -72.02088 2015 monitoringMC_01 3151818 2015-09-12 11:30 21.92 7.9 46610 6.24 85.0 -54.91 30.32 2015-09-12T11:30
Mumford_Cove 41.32526111 -72.02088 2015 monitoringMC_01 3151818 2015-09-12 12:00 22.06 7.93 46540 6.68 91.3 -56.35 30.26 2015-09-12T12:00
Mumford_Cove 41.32526111 -72.02088 2015 monitoringMC_01 3151818 2015-09-12 12:30 22.35 7.88 46410 5.53 75.8 -53.52 30.16 2015-09-12T12:30
Mumford_Cove 41.32526111 -72.02088 2015 monitoringMC_01 3151818 2015-09-12 13:00 22.26 7.94 46610 6.65 91.2 -56.88 30.31 2015-09-12T13:00
Mumford_Cove 41.32526111 -72.02088 2015 monitoringMC_01 3151818 2015-09-12 13:30 22.31 7.91 46440 6.33 86.8 -55.17 30.18 2015-09-12T13:30
Mumford_Cove 41.32526111 -72.02088 2015 monitoringMC_01 3151818 2015-09-12 14:00 22.83 7.92 46030 6.82 94.2 -55.86 29.88 2015-09-12T14:00
Mumford_Cove 41.32526111 -72.02088 2015 monitoringMC_01 3151818 2015-09-12 14:30 22.85 7.88 25320 6.89 87.6 -53.7 2015-09-12T14:30
Mumford_Cove 41.32526111 -72.02088 2015 monitoringMC_01 3151818 2015-09-12 15:00 23.24 7.89 46000 6.53 90.9 -54.35 29.85 2015-09-12T15:00
Mumford_Cove 41.32526111 -72.02088 2015 monitoringMC_01 3151818 2015-09-12 15:30 23.53 7.91 46090 6.85 95.9 -55.81 29.92 2015-09-12T15:30
Mumford_Cove 41.32526111 -72.02088 2015 monitoringMC_01 3151818 2015-09-12 16:00 23.51 7.92 45950 6.96 97.3 -56.27 29.81 2015-09-12T16:00
Mumford_Cove 41.32526111 -72.02088 2015 monitoringMC_01 3151818 2015-09-12 16:30 23.53 7.94 45980 7.16 100.1 -57.39 29.83 2015-09-12T16:30
Mumford_Cove 41.32526111 -72.02088 2015 monitoringMC_01 3151818 2015-09-12 17:00 23.6 7.93 45970 7.05 98.8 -56.88 29.83 2015-09-12T17:00
Mumford_Cove 41.32526111 -72.02088 2015 monitoringMC_01 3151818 2015-09-12 17:30 23.49 7.96 45980 7.16 100.1 -58.37 29.84 2015-09-12T17:30
Mumford_Cove 41.32526111 -72.02088 2015 monitoringMC_01 3151818 2015-09-12 18:00 23.57 8.04 45790 8.48 118.6 -63.07 29.7 2015-09-12T18:00
Mumford_Cove 41.32526111 -72.02088 2015 monitoringMC_01 3151818 2015-09-12 18:30 23.58 8.07 45780 8.85 123.7 -64.84 29.69 2015-09-12T18:30
Mumford_Cove 41.32526111 -72.02088 2015 monitoringMC_01 3151818 2015-09-12 19:00 23.56 8.03 45940 8.29 116.0 -62.5 29.81 2015-09-12T19:00
Mumford_Cove 41.32526111 -72.02088 2015 monitoringMC_01 3151818 2015-09-12 19:30 23.49 8.02 45950 8.23 115.0 -61.92 29.81 2015-09-12T19:30
Mumford_Cove 41.32526111 -72.02088 2015 monitoringMC_01 3151818 2015-09-12 20:00 23.43 8.01 46080 8.02 112.0 -61.28 29.91 2015-09-12T20:00
Mumford_Cove 41.32526111 -72.02088 2015 monitoringMC_01 3151818 2015-09-12 20:30 23.42 8.01 46260 7.92 110.6 -61.19 30.04 2015-09-12T20:30
Mumford_Cove 41.32526111 -72.02088 2015 monitoringMC_01 3151818 2015-09-12 21:00 23.29 7.99 46290 7.68 107.1 -60.02 30.06 2015-09-12T21:00
Mumford_Cove 41.32526111 -72.02088 2015 monitoringMC_01 3151818 2015-09-12 21:30 23.08 7.99 46320 7.49 104.1 -59.97 30.09 2015-09-12T21:30
Mumford_Cove 41.32526111 -72.02088 2015 monitoringMC_01 3151818 2015-09-12 22:00 23.08 7.98 46390 7.37 102.4 -59.37 30.14 2015-09-12T22:00
Mumford_Cove 41.32526111 -72.02088 2015 monitoringMC_01 3151818 2015-09-12 22:30 23.03 7.96 46380 7.08 98.3 -58.37 30.13 2015-09-12T22:30
Mumford_Cove 41.32526111 -72.02088 2015 monitoringMC_01 3151818 2015-09-12 23:00 23.09 7.95 46360 7.05 98.0 -57.99 30.11 2015-09-12T23:00
Mumford_Cove 41.32526111 -72.02088 2015 monitoringMC_01 3151818 2015-09-12 23:30 23.1 7.93 46400 6.81 94.6 -56.66 30.14 2015-09-12T23:30
Mumford_Cove 41.32526111 -72.02088 2015 monitoringMC_01 3151818 2015-09-13 0:00 23.09 7.95 46000 6.93 96.2 -57.74 29.86 2015-09-13T00:00
Mumford_Cove 41.32526111 -72.02088 2015 monitoringMC_01 3151818 2015-09-13 0:30 23.12 7.92 45930 6.55 90.9 -56.34 29.81 2015-09-13T00:30
Mumford_Cove 41.32526111 -72.02088 2015 monitoringMC_01 3151818 2015-09-13 1:00 23.09 7.9 46050 6.35 88.1 -54.79 29.89 2015-09-13T01:00
Mumford_Cove 41.32526111 -72.02088 2015 monitoringMC_01 3151818 2015-09-13 1:30 23.08 7.88 45900 6.26 86.9 -54.04 29.78 2015-09-13T01:30
Mumford_Cove 41.32526111 -72.02088 2015 monitoringMC_01 3151818 2015-09-13 2:00 23.14 7.88 45730 6.03 83.7 -53.8 29.66 2015-09-13T02:00
Mumford_Cove 41.32526111 -72.02088 2015 monitoringMC_01 3151818 2015-09-13 2:30 23.12 7.86 45790 5.87 81.4 -52.63 29.7 2015-09-13T02:30
Mumford_Cove 41.32526111 -72.02088 2015 monitoringMC_01 3151818 2015-09-13 3:00 23.17 7.85 45640 5.82 80.8 -52.28 29.59 2015-09-13T03:00
Mumford_Cove 41.32526111 -72.02088 2015 monitoringMC_01 3151818 2015-09-13 3:30 23.24 7.85 45530 5.74 79.7 -51.85 29.51 2015-09-13T03:30
Mumford_Cove 41.32526111 -72.02088 2015 monitoringMC_01 3151818 2015-09-13 4:00 23.22 7.82 45520 5.68 78.8 -50.3 29.51 2015-09-13T04:00
Mumford_Cove 41.32526111 -72.02088 2015 monitoringMC_01 3151818 2015-09-13 4:30 23.18 7.84 45510 5.75 79.8 -51.34 29.5 2015-09-13T04:30
Mumford_Cove 41.32526111 -72.02088 2015 monitoringMC_01 3151818 2015-09-13 5:00 23.18 7.77 45580 5.09 70.6 -47.3 29.55 2015-09-13T05:00
Mumford_Cove 41.32526111 -72.02088 2015 monitoringMC_01 3151818 2015-09-13 5:30 22.96 7.78 45530 5.05 69.8 -48.19 29.52 2015-09-13T05:30
Mumford_Cove 41.32526111 -72.02088 2015 monitoringMC_01 3151818 2015-09-13 6:00 22.69 7.8 45920 5.37 74.0 -49.39 29.8 2015-09-13T06:00
Mumford_Cove 41.32526111 -72.02088 2015 monitoringMC_01 3151818 2015-09-13 6:30 22.59 7.79 45810 5.11 70.3 -48.39 29.72 2015-09-13T06:30
Mumford_Cove 41.32526111 -72.02088 2015 monitoringMC_01 3151818 2015-09-13 7:00 22.47 7.78 45990 4.95 68.0 -47.74 29.86 2015-09-13T07:00
Mumford_Cove 41.32526111 -72.02088 2015 monitoringMC_01 3151818 2015-09-13 7:30 22.33 7.78 46080 5.06 69.4 -48.22 29.93 2015-09-13T07:30
Mumford_Cove 41.32526111 -72.02088 2015 monitoringMC_01 3151818 2015-09-13 8:00 22.18 7.79 46040 5.16 70.5 -48.7 29.9 2015-09-13T08:00
Mumford_Cove 41.32526111 -72.02088 2015 monitoringMC_01 3151818 2015-09-13 8:30 22.13 7.79 46120 5.15 70.3 -48.79 29.96 2015-09-13T08:30
Mumford_Cove 41.32526111 -72.02088 2015 monitoringMC_01 3151818 2015-09-13 9:00 22.03 7.8 46140 5.2 70.9 -49.03 29.97 2015-09-13T09:00
Mumford_Cove 41.32526111 -72.02088 2015 monitoringMC_01 3151818 2015-09-13 9:30 21.93 7.83 46150 5.51 74.9 -50.7 29.98 2015-09-13T09:30
Mumford_Cove 41.32526111 -72.02088 2015 monitoringMC_01 3151818 2015-09-13 10:00 21.62 7.87 46590 5.89 79.8 -53.23 30.31 2015-09-13T10:00
Mumford_Cove 41.32526111 -72.02088 2015 monitoringMC_01 3151818 2015-09-13 10:30 21.54 7.89 46500 6.09 82.4 -54.1 30.24 2015-09-13T10:30
Mumford_Cove 41.32526111 -72.02088 2015 monitoringMC_01 3151818 2015-09-13 11:00 21.55 7.89 46690 6.17 83.6 -54.26 30.38 2015-09-13T11:00
Mumford_Cove 41.32526111 -72.02088 2015 monitoringMC_01 3151818 2015-09-13 11:30 21.57 7.89 46660 5.91 80.1 -54.08 30.35 2015-09-13T11:30
Mumford_Cove 41.32526111 -72.02088 2015 monitoringMC_01 3151818 2015-09-13 12:00 21.64 7.89 46610 6.07 82.3 -54.25 30.32 2015-09-13T12:00
Mumford_Cove 41.32526111 -72.02088 2015 monitoringMC_01 3151818 2015-09-13 12:30 21.73 7.89 46550 6.15 83.5 -54.12 30.27 2015-09-13T12:30
Mumford_Cove 41.32526111 -72.02088 2015 monitoringMC_01 3151818 2015-09-13 13:00 21.92 7.91 46360 6.22 84.7 -55.34 30.14 2015-09-13T13:00
Mumford_Cove 41.32526111 -72.02088 2015 monitoringMC_01 3151818 2015-09-13 13:30 21.99 7.89 46240 6.37 86.8 -54.38 30.05 2015-09-13T13:30
Mumford_Cove 41.32526111 -72.02088 2015 monitoringMC_01 3151818 2015-09-13 14:00 21.98 7.97 46510 7.14 97.3 -58.78 30.24 2015-09-13T14:00
Mumford_Cove 41.32526111 -72.02088 2015 monitoringMC_01 3151818 2015-09-13 14:30 22.12 7.99 46380 7.38 100.9 -59.99 30.14 2015-09-13T14:30
Mumford_Cove 41.32526111 -72.02088 2015 monitoringMC_01 3151818 2015-09-13 15:00 22.11 7.97 46510 7.2 98.4 -58.93 30.24 2015-09-13T15:00
Mumford_Cove 41.32526111 -72.02088 2015 monitoringMC_01 3151818 2015-09-13 15:30 22.39 7.86 45980 6.17 84.5 -52.56 29.85 2015-09-13T15:30
Mumford_Cove 41.32526111 -72.02088 2015 monitoringMC_01 3151818 2015-09-13 16:00 22.36 7.94 46130 6.71 92.0 -56.86 29.96 2015-09-13T16:00
Mumford_Cove 41.32526111 -72.02088 2015 monitoringMC_01 3151818 2015-09-13 16:30 22.42 8.03 46140 8.09 111.0 -62.37 29.96 2015-09-13T16:30
Mumford_Cove 41.32526111 -72.02088 2015 monitoringMC_01 3151818 2015-09-13 17:00 22.59 8.02 46130 7.61 104.7 -61.68 29.95 2015-09-13T17:00
Mumford_Cove 41.32526111 -72.02088 2015 monitoringMC_01 3151818 2015-09-13 17:30 22.37 8.03 46440 8.27 113.5 -62.18 30.18 2015-09-13T17:30
Mumford_Cove 41.32526111 -72.02088 2015 monitoringMC_01 3151818 2015-09-13 18:00 22.44 7.99 46130 7.47 102.6 -59.73 29.96 2015-09-13T18:00
Mumford_Cove 41.32526111 -72.02088 2015 monitoringMC_01 3151818 2015-09-13 18:30 22.71 7.98 46080 7.8 107.5 -59.66 29.92 2015-09-13T18:30
Mumford_Cove 41.32526111 -72.02088 2015 monitoringMC_01 3151818 2015-09-13 19:00 22.55 7.97 46160 7.64 105.2 -58.74 29.98 2015-09-13T19:00
Mumford_Cove 41.32526111 -72.02088 2015 monitoringMC_01 3151818 2015-09-13 19:30 22.72 7.98 46020 7.75 106.9 -59.69 29.87 2015-09-13T19:30
Mumford_Cove 41.32526111 -72.02088 2015 monitoringMC_01 3151818 2015-09-13 20:00 22.73 7.98 46070 7.54 104.0 -59.19 29.91 2015-09-13T20:00
Mumford_Cove 41.32526111 -72.02088 2015 monitoringMC_01 3151818 2015-09-13 20:30 22.58 7.97 46310 7.43 102.3 -58.73 30.09 2015-09-13T20:30
Mumford_Cove 41.32526111 -72.02088 2015 monitoringMC_01 3151818 2015-09-13 21:00 22.57 7.97 46370 7.37 101.5 -58.57 30.13 2015-09-13T21:00
Mumford_Cove 41.32526111 -72.02088 2015 monitoringMC_01 3151818 2015-09-13 21:30 22.55 7.94 46240 7.18 98.8 -57.3 30.04 2015-09-13T21:30
Mumford_Cove 41.32526111 -72.02088 2015 monitoringMC_01 3151818 2015-09-13 22:00 22.54 7.94 46260 6.96 95.8 -56.98 30.05 2015-09-13T22:00
Mumford_Cove 41.32526111 -72.02088 2015 monitoringMC_01 3151818 2015-09-13 22:30 22.46 7.94 46310 6.99 96.0 -57.16 30.09 2015-09-13T22:30
Mumford_Cove 41.32526111 -72.02088 2015 monitoringMC_01 3151818 2015-09-13 23:00 22.43 7.92 46280 6.71 92.2 -55.92 30.07 2015-09-13T23:00
Mumford_Cove 41.32526111 -72.02088 2015 monitoringMC_01 3151818 2015-09-13 23:30 22.43 7.91 46230 6.64 91.2 -55.46 30.03 2015-09-13T23:30
Mumford_Cove 41.32526111 -72.02088 2015 monitoringMC_01 3151818 2015-09-14 0:00 22.41 7.89 46320 6.34 87.1 -54.0 30.1 2015-09-14T00:00
Mumford_Cove 41.32526111 -72.02088 2015 monitoringMC_01 3151818 2015-09-14 0:30 22.47 7.85 46340 5.96 82.0 -52.04 30.11 2015-09-14T00:30
Mumford_Cove 41.32526111 -72.02088 2015 monitoringMC_01 3151818 2015-09-14 1:00 22.24 7.86 46450 5.79 79.2 -52.26 30.19 2015-09-14T01:00
Mumford_Cove 41.32526111 -72.02088 2015 monitoringMC_01 3151818 2015-09-14 1:30 22.2 7.85 46460 5.7 78.0 -51.73 30.2 2015-09-14T01:30
Mumford_Cove 41.32526111 -72.02088 2015 monitoringMC_01 3151818 2015-09-14 2:00 22.27 7.87 46320 6.03 82.5 -53.23 30.1 2015-09-14T02:00
Mumford_Cove 41.32526111 -72.02088 2015 monitoringMC_01 3151818 2015-09-14 2:30 22.44 7.82 46260 5.6 76.9 -50.46 30.05 2015-09-14T02:30
Mumford_Cove 41.32526111 -72.02088 2015 monitoringMC_01 3151818 2015-09-14 3:00 22.45 7.81 46390 5.3 72.8 -49.63 30.15 2015-09-14T03:00
Mumford_Cove 41.32526111 -72.02088 2015 monitoringMC_01 3151818 2015-09-14 3:30 22.44 7.81 46330 5.4 74.2 -49.95 30.1 2015-09-14T03:30
Mumford_Cove 41.32526111 -72.02088 2015 monitoringMC_01 3151818 2015-09-14 4:00 22.41 7.79 46290 5.12 70.3 -48.78 30.08 2015-09-14T04:00
Mumford_Cove 41.32526111 -72.02088 2015 monitoringMC_01 3151818 2015-09-14 4:30 22.41 7.77 46330 4.88 67.1 -47.52 30.11 2015-09-14T04:30
Mumford_Cove 41.32526111 -72.02088 2015 monitoringMC_01 3151818 2015-09-14 5:00 22.4 7.76 46320 4.79 65.8 -46.74 30.1 2015-09-14T05:00
Mumford_Cove 41.32526111 -72.02088 2015 monitoringMC_01 3151818 2015-09-14 5:30 22.32 7.76 46260 4.61 63.2 -46.65 30.05 2015-09-14T05:30
Mumford_Cove 41.32526111 -72.02088 2015 monitoringMC_01 3151818 2015-09-14 6:00 22.26 7.68 46470 3.97 54.5 -42.52 30.21 2015-09-14T06:00
Mumford_Cove 41.32526111 -72.02088 2015 monitoringMC_01 3151818 2015-09-14 6:30 22.18 7.73 46220 4.34 59.3 -44.88 30.03 2015-09-14T06:30
Mumford_Cove 41.32526111 -72.02088 2015 monitoringMC_01 3151818 2015-09-14 7:00 22.07 7.67 46250 3.92 53.5 -41.78 30.05 2015-09-14T07:00
Mumford_Cove 41.32526111 -72.02088 2015 monitoringMC_01 3151818 2015-09-14 7:30 21.44 7.7 45750 4.33 58.3 -43.29 29.7 2015-09-14T07:30
Mumford_Cove 41.32526111 -72.02088 2015 monitoringMC_01 3151818 2015-09-14 8:00 21.44 7.69 45920 4.34 58.4 -42.87 29.82 2015-09-14T08:00
Mumford_Cove 41.32526111 -72.02088 2015 monitoringMC_01 3151818 2015-09-14 8:30 21.14 7.71 46050 4.53 60.7 -44.06 29.92 2015-09-14T08:30
Mumford_Cove 41.32526111 -72.02088 2015 monitoringMC_01 3151818 2015-09-14 9:00 20.95 7.75 45940 5.01 66.9 -46.19 29.84 2015-09-14T09:00
Mumford_Cove 41.32526111 -72.02088 2015 monitoringMC_01 3151818 2015-09-14 9:30 20.81 7.76 46060 5.17 68.9 -46.49 29.93 2015-09-14T09:30
Mumford_Cove 41.32526111 -72.02088 2015 monitoringMC_01 3151818 2015-09-14 10:00 20.55 7.75 46560 5.09 67.6 -46.18 30.29 2015-09-14T10:00
Mumford_Cove 41.32526111 -72.02088 2015 monitoringMC_01 3151818 2015-09-14 10:30 20.5 7.76 46610 5.18 68.8 -46.38 30.33 2015-09-14T10:30
Mumford_Cove 41.32526111 -72.02088 2015 monitoringMC_01 3151818 2015-09-14 11:00 20.58 7.77 46660 5.4 71.9 -47.27 30.37 2015-09-14T11:00
Mumford_Cove 41.32526111 -72.02088 2015 monitoringMC_01 3151818 2015-09-14 11:30 20.71 7.8 46770 5.57 74.3 -48.68 30.45 2015-09-14T11:30
Mumford_Cove 41.32526111 -72.02088 2015 monitoringMC_01 3151818 2015-09-14 12:00 20.8 7.8 46680 5.64 75.3 -49.16 30.37 2015-09-14T12:00
Mumford_Cove 41.32526111 -72.02088 2015 monitoringMC_01 3151818 2015-09-14 12:30 20.84 7.8 46710 5.59 74.8 -49.03 30.4 2015-09-14T12:30
Mumford_Cove 41.32526111 -72.02088 2015 monitoringMC_01 3151818 2015-09-14 13:00 20.94 7.81 46590 5.71 76.5 -49.74 30.31 2015-09-14T13:00
Mumford_Cove 41.32526111 -72.02088 2015 monitoringMC_01 3151818 2015-09-14 13:30 21.07 7.83 46570 6.05 81.2 -50.75 30.29 2015-09-14T13:30
Mumford_Cove 41.32526111 -72.02088 2015 monitoringMC_01 3151818 2015-09-14 14:00 21.18 7.85 46580 6.17 83.0 -51.92 30.3 2015-09-14T14:00
Mumford_Cove 41.32526111 -72.02088 2015 monitoringMC_01 3151818 2015-09-14 14:30 21.27 7.87 46390 6.26 84.2 -53.09 30.17 2015-09-14T14:30
Mumford_Cove 41.32526111 -72.02088 2015 monitoringMC_01 3151818 2015-09-14 15:00 21.65 7.94 46030 7.01 94.9 -56.77 29.9 2015-09-14T15:00
Mumford_Cove 41.32526111 -72.02088 2015 monitoringMC_01 3151818 2015-09-14 15:30 21.72 7.93 46340 7.11 96.5 -56.55 30.12 2015-09-14T15:30
Mumford_Cove 41.32526111 -72.02088 2015 monitoringMC_01 3151818 2015-09-14 16:00 21.83 7.98 46340 7.8 106.0 -59.4 30.12 2015-09-14T16:00
Mumford_Cove 41.32526111 -72.02088 2015 monitoringMC_01 3151818 2015-09-14 16:30 22.35 7.94 45950 7.43 101.7 -57.28 29.83 2015-09-14T16:30
Mumford_Cove 41.32526111 -72.02088 2015 monitoringMC_01 3151818 2015-09-14 17:00 22.69 7.99 45570 8.17 112.4 -59.88 29.55 2015-09-14T17:00
Mumford_Cove 41.32526111 -72.02088 2015 monitoringMC_01 3151818 2015-09-14 17:30 22.9 8.01 45510 8.44 116.5 -61.03 29.5 2015-09-14T17:30
Mumford_Cove 41.32526111 -72.02088 2015 monitoringMC_01 3151818 2015-09-14 18:00 22.73 8.0 45590 8.38 115.4 -60.8 29.57 2015-09-14T18:00
Mumford_Cove 41.32526111 -72.02088 2015 monitoringMC_01 3151818 2015-09-14 18:30 22.19 7.93 46110 7.15 97.8 -56.75 29.95 2015-09-14T18:30
Mumford_Cove 41.32526111 -72.02088 2015 monitoringMC_01 3151818 2015-09-14 19:00 22.35 8.0 45920 7.98 109.3 -60.61 29.81 2015-09-14T19:00
Mumford_Cove 41.32526111 -72.02088 2015 monitoringMC_01 3151818 2015-09-14 19:30 22.25 8.04 45890 8.54 116.7 -62.69 29.79 2015-09-14T19:30
Mumford_Cove 41.32526111 -72.02088 2015 monitoringMC_01 3151818 2015-09-14 20:00 22.14 8.03 45880 8.42 114.9 -62.24 29.78 2015-09-14T20:00
Mumford_Cove 41.32526111 -72.02088 2015 monitoringMC_01 3151818 2015-09-14 20:30 22.08 8.0 45900 8.33 113.5 -60.45 29.8 2015-09-14T20:30
Mumford_Cove 41.32526111 -72.02088 2015 monitoringMC_01 3151818 2015-09-14 21:00 21.98 7.96 45880 7.49 101.9 -58.05 29.78 2015-09-14T21:00
Mumford_Cove 41.32526111 -72.02088 2015 monitoringMC_01 3151818 2015-09-14 21:30 21.83 7.92 46220 7.01 95.2 -55.86 30.03 2015-09-14T21:30
Mumford_Cove 41.32526111 -72.02088 2015 monitoringMC_01 3151818 2015-09-14 22:00 21.62 7.89 46580 6.56 88.9 -54.23 30.29 2015-09-14T22:00
Mumford_Cove 41.32526111 -72.02088 2015 monitoringMC_01 3151818 2015-09-14 22:30 21.38 7.88 46830 6.22 84.1 -53.38 30.48 2015-09-14T22:30
Mumford_Cove 41.32526111 -72.02088 2015 monitoringMC_01 3151818 2015-09-14 23:00 21.25 7.87 46890 6.07 81.9 -52.94 30.52 2015-09-14T23:00
Mumford_Cove 41.32526111 -72.02088 2015 monitoringMC_01 3151818 2015-09-14 23:30 21.17 7.86 46920 5.9 79.4 -52.56 30.55 2015-09-14T23:30
Mumford_Cove 41.32526111 -72.02088 2015 monitoringMC_01 3151818 2015-09-15 0:00 21.14 7.85 46880 5.75 77.4 -51.94 30.52 2015-09-15T00:00
Mumford_Cove 41.32526111 -72.02088 2015 monitoringMC_01 3151818 2015-09-15 0:30 21.08 7.85 46910 5.61 75.5 -51.81 30.54 2015-09-15T00:30
Mumford_Cove 41.32526111 -72.02088 2015 monitoringMC_01 3151818 2015-09-15 1:00 21.06 7.84 46900 5.44 73.1 -51.02 30.53 2015-09-15T01:00
Mumford_Cove 41.32526111 -72.02088 2015 monitoringMC_01 3151818 2015-09-15 1:30 21.07 7.82 46870 5.24 70.4 -49.78 30.52 2015-09-15T01:30
Mumford_Cove 41.32526111 -72.02088 2015 monitoringMC_01 3151818 2015-09-15 2:00 21.22 7.74 46990 4.7 63.3 -45.65 30.6 2015-09-15T02:00
Mumford_Cove 41.32526111 -72.02088 2015 monitoringMC_01 3151818 2015-09-15 2:30 21.31 7.7 46780 4.29 57.9 -43.42 30.45 2015-09-15T02:30
Mumford_Cove 41.32526111 -72.02088 2015 monitoringMC_01 3151818 2015-09-15 3:00 21.22 7.68 46800 3.79 51.1 -42.08 30.46 2015-09-15T03:00
Mumford_Cove 41.32526111 -72.02088 2015 monitoringMC_01 3151818 2015-09-15 3:30 21.3 7.61 46760 3.25 43.8 -38.25 30.43 2015-09-15T03:30
Mumford_Cove 41.32526111 -72.02088 2015 monitoringMC_01 3151818 2015-09-15 4:00 21.26 7.64 46850 3.09 41.6 -40.02 30.49 2015-09-15T04:00
Mumford_Cove 41.32526111 -72.02088 2015 monitoringMC_01 3151818 2015-09-15 4:30 21.27 7.63 46840 3.01 40.6 -39.07 30.49 2015-09-15T04:30
Mumford_Cove 41.32526111 -72.02088 2015 monitoringMC_01 3151818 2015-09-15 5:00 21.37 7.59 46680 2.84 38.4 -36.81 30.37 2015-09-15T05:00
Mumford_Cove 41.32526111 -72.02088 2015 monitoringMC_01 3151818 2015-09-15 5:30 21.29 7.62 46700 2.9 39.1 -38.98 30.39 2015-09-15T05:30
Mumford_Cove 41.32526111 -72.02088 2015 monitoringMC_01 3151818 2015-09-15 6:00 21.29 7.45 46790 2.08 28.1 -28.86 30.45 2015-09-15T06:00
Mumford_Cove 41.32526111 -72.02088 2015 monitoringMC_01 3151818 2015-09-15 6:30 20.76 7.84 45940 4.74 63.1 -51.08 29.84 2015-09-15T06:30
Mumford_Cove 41.32526111 -72.02088 2015 monitoringMC_01 3151818 2015-09-15 7:00 20.89 7.78 46260 5.29 70.7 -47.99 30.07 2015-09-15T07:00
Mumford_Cove 41.32526111 -72.02088 2015 monitoringMC_01 3151818 2015-09-15 7:30 20.76 7.77 46210 5.0 66.7 -47.22 30.03 2015-09-15T07:30
Mumford_Cove 41.32526111 -72.02088 2015 monitoringMC_01 3151818 2015-09-15 8:00 20.51 7.8 46120 5.29 70.2 -48.89 29.97 2015-09-15T08:00
Mumford_Cove 41.32526111 -72.02088 2015 monitoringMC_01 3151818 2015-09-15 8:30 20.36 7.81 46140 5.4 71.5 -49.3 29.99 2015-09-15T08:30
Mumford_Cove 41.32526111 -72.02088 2015 monitoringMC_01 3151818 2015-09-15 9:00 20.25 7.81 42380 5.56 72.3 -49.47 27.28 2015-09-15T09:00
Mumford_Cove 41.32526111 -72.02088 2015 monitoringMC_01 3151818 2015-09-15 9:30 20.11 7.82 46350 5.59 73.6 -49.89 30.14 2015-09-15T09:30
Mumford_Cove 41.32526111 -72.02088 2015 monitoringMC_01 3151818 2015-09-15 10:00 20.04 7.84 46390 5.73 75.4 -51.0 30.18 2015-09-15T10:00
Mumford_Cove 41.32526111 -72.02088 2015 monitoringMC_01 3151818 2015-09-15 10:30 20.13 7.86 46550 6.04 79.7 -52.05 30.29 2015-09-15T10:30
Mumford_Cove 41.32526111 -72.02088 2015 monitoringMC_01 3151818 2015-09-15 11:00 20.27 7.88 46540 6.34 83.9 -53.56 30.28 2015-09-15T11:00
Mumford_Cove 41.32526111 -72.02088 2015 monitoringMC_01 3151818 2015-09-15 11:30 20.36 7.91 46560 6.76 89.5 -55.22 30.29 2015-09-15T11:30
Mumford_Cove 41.32526111 -72.02088 2015 monitoringMC_01 3151818 2015-09-15 12:00 20.52 7.94 46680 7.04 93.5 -56.62 30.38 2015-09-15T12:00
Mumford_Cove 41.32526111 -72.02088 2015 monitoringMC_01 3151818 2015-09-15 12:30 20.69 7.96 46760 7.24 96.5 -57.84 30.44 2015-09-15T12:30
Mumford_Cove 41.32526111 -72.02088 2015 monitoringMC_01 3151818 2015-09-15 13:00 20.82 7.98 29850 8.03 100.0 -59.3 2015-09-15T13:00
Mumford_Cove 41.32526111 -72.02088 2015 monitoringMC_01 3151818 2015-09-15 13:30 20.96 8.0 46830 7.74 103.8 -60.46 30.49 2015-09-15T13:30
Mumford_Cove 41.32526111 -72.02088 2015 monitoringMC_01 3151818 2015-09-15 14:00 21.12 8.04 46920 8.29 111.6 -62.72 30.55 2015-09-15T14:00
Mumford_Cove 41.32526111 -72.02088 2015 monitoringMC_01 3151818 2015-09-15 14:30 21.2 8.06 46850 8.54 115.0 -63.57 30.5 2015-09-15T14:30
Mumford_Cove 41.32526111 -72.02088 2015 monitoringMC_01 3151818 2015-09-15 15:00 21.29 8.05 46930 8.61 116.2 -63.39 30.55 2015-09-15T15:00
Mumford_Cove 41.32526111 -72.02088 2015 monitoringMC_01 3151818 2015-09-15 15:30 21.43 8.13 46670 9.58 129.5 -67.6 30.37 2015-09-15T15:30
Mumford_Cove 41.32526111 -72.02088 2015 monitoringMC_01 3151818 2015-09-15 16:00 21.52 8.13 46760 9.71 131.4 -67.77 30.43 2015-09-15T16:00
Mumford_Cove 41.32526111 -72.02088 2015 monitoringMC_01 3151818 2015-09-15 16:30 21.57 8.19 46800 10.77 145.9 -71.39 30.46 2015-09-15T16:30
Mumford_Cove 41.32526111 -72.02088 2015 monitoringMC_01 3151818 2015-09-15 17:00 21.54 8.15 46770 9.92 134.4 -68.76 30.43 2015-09-15T17:00
Mumford_Cove 41.32526111 -72.02088 2015 monitoringMC_01 3151818 2015-09-15 17:30 21.57 8.16 46670 10.1 136.9 -69.29 30.36 2015-09-15T17:30
Mumford_Cove 41.32526111 -72.02088 2015 monitoringMC_01 3151818 2015-09-15 18:00 21.54 8.13 46770 10.02 135.7 -67.46 30.43 2015-09-15T18:00
Mumford_Cove 41.32526111 -72.02088 2015 monitoringMC_01 3151818 2015-09-15 18:30 22.15 8.22 46420 11.14 152.3 -73.16 30.17 2015-09-15T18:30
Mumford_Cove 41.32526111 -72.02088 2015 monitoringMC_01 3151818 2015-09-15 19:00 22.28 8.19 46260 10.61 145.3 -71.16 30.06 2015-09-15T19:00
Mumford_Cove 41.32526111 -72.02088 2015 monitoringMC_01 3151818 2015-09-15 19:30 22.08 8.17 46480 10.27 140.3 -70.06 30.22 2015-09-15T19:30
Mumford_Cove 41.32526111 -72.02088 2015 monitoringMC_01 3151818 2015-09-15 20:00 22.28 8.16 46260 9.98 136.6 -69.48 30.05 2015-09-15T20:00
Mumford_Cove 41.32526111 -72.02088 2015 monitoringMC_01 3151818 2015-09-15 20:30 22.25 8.14 46290 9.63 131.8 -68.64 30.08 2015-09-15T20:30
Mumford_Cove 41.32526111 -72.02088 2015 monitoringMC_01 3151818 2015-09-15 21:00 22.23 8.13 46230 9.38 128.4 -67.85 30.04 2015-09-15T21:00
Mumford_Cove 41.32526111 -72.02088 2015 monitoringMC_01 3151818 2015-09-15 21:30 22.24 8.06 46560 8.55 117.2 -63.78 30.28 2015-09-15T21:30
Mumford_Cove 41.32526111 -72.02088 2015 monitoringMC_01 3151818 2015-09-15 22:00 22.23 8.02 46470 7.94 108.8 -61.64 30.21 2015-09-15T22:00
Mumford_Cove 41.32526111 -72.02088 2015 monitoringMC_01 3151818 2015-09-15 22:30 22.25 8.03 46900 7.73 106.1 -62.06 30.52 2015-09-15T22:30
Mumford_Cove 41.32526111 -72.02088 2015 monitoringMC_01 3151818 2015-09-15 23:00 22.0 8.04 46840 7.67 104.8 -62.56 30.48 2015-09-15T23:00
Mumford_Cove 41.32526111 -72.02088 2015 monitoringMC_01 3151818 2015-09-15 23:30 21.93 8.05 46890 7.69 104.9 -63.1 30.51 2015-09-15T23:30
Mumford_Cove 41.32526111 -72.02088 2015 monitoringMC_01 3151818 2015-09-16 0:00 21.83 8.05 46990 7.63 104.0 -63.18 30.59 2015-09-16T00:00
Mumford_Cove 41.32526111 -72.02088 2015 monitoringMC_01 3151818 2015-09-16 0:30 21.73 8.04 46980 7.43 101.0 -62.67 30.58 2015-09-16T00:30
Mumford_Cove 41.32526111 -72.02088 2015 monitoringMC_01 3151818 2015-09-16 1:00 21.65 8.03 47090 7.29 99.1 -61.97 30.67 2015-09-16T01:00
Mumford_Cove 41.32526111 -72.02088 2015 monitoringMC_01 3151818 2015-09-16 1:30 21.61 8.02 47090 7.15 97.1 -61.64 30.67 2015-09-16T01:30
Mumford_Cove 41.32526111 -72.02088 2015 monitoringMC_01 3151818 2015-09-16 2:00 21.6 8.01 47050 6.93 94.1 -61.15 30.63 2015-09-16T02:00
Mumford_Cove 41.32526111 -72.02088 2015 monitoringMC_01 3151818 2015-09-16 2:30 21.61 7.98 47100 6.64 90.2 -59.49 30.67 2015-09-16T02:30
Mumford_Cove 41.32526111 -72.02088 2015 monitoringMC_01 3151818 2015-09-16 3:00 21.64 7.97 47050 6.5 88.3 -58.88 30.63 2015-09-16T03:00
Mumford_Cove 41.32526111 -72.02088 2015 monitoringMC_01 3151818 2015-09-16 3:30 21.68 7.92 47080 5.77 78.5 -56.01 30.66 2015-09-16T03:30
Mumford_Cove 41.32526111 -72.02088 2015 monitoringMC_01 3151818 2015-09-16 4:00 21.7 7.85 47070 5.02 68.3 -51.79 30.65 2015-09-16T04:00
Mumford_Cove 41.32526111 -72.02088 2015 monitoringMC_01 3151818 2015-09-16 4:30 21.9 7.79 46590 5.71 77.7 -48.37 30.3 2015-09-16T04:30
Mumford_Cove 41.32526111 -72.02088 2015 monitoringMC_01 3151818 2015-09-16 5:00 21.81 7.97 46340 6.96 94.5 -58.49 30.12 2015-09-16T05:00
Mumford_Cove 41.32526111 -72.02088 2015 monitoringMC_01 3151818 2015-09-16 5:30 21.7 7.89 46860 6.08 82.7 -54.27 30.5 2015-09-16T05:30
Mumford_Cove 41.32526111 -72.02088 2015 monitoringMC_01 3151818 2015-09-16 6:00 21.71 7.82 46640 4.98 67.6 -49.91 30.34 2015-09-16T06:00
Mumford_Cove 41.32526111 -72.02088 2015 monitoringMC_01 3151818 2015-09-16 6:30 21.63 7.86 46560 5.19 70.4 -52.67 30.28 2015-09-16T06:30
Mumford_Cove 41.32526111 -72.02088 2015 monitoringMC_01 3151818 2015-09-16 7:00 21.52 7.9 46260 5.37 72.5 -54.72 30.07 2015-09-16T07:00
Mumford_Cove 41.32526111 -72.02088 2015 monitoringMC_01 3151818 2015-09-16 7:30 21.32 7.95 46320 6.28 84.6 -57.28 30.11 2015-09-16T07:30
Mumford_Cove 41.32526111 -72.02088 2015 monitoringMC_01 3151818 2015-09-16 8:00 21.17 7.96 45940 6.62 88.8 -57.97 29.84 2015-09-16T08:00
Mumford_Cove 41.32526111 -72.02088 2015 monitoringMC_01 3151818 2015-09-16 8:30 21.13 7.95 46310 6.51 87.3 -57.69 30.11 2015-09-16T08:30
Mumford_Cove 41.32526111 -72.02088 2015 monitoringMC_01 3151818 2015-09-16 9:00 21.1 7.95 25480 7.16 88.3 -57.59 2015-09-16T09:00
Mumford_Cove 41.32526111 -72.02088 2015 monitoringMC_01 3151818 2015-09-16 9:30 21.03 7.97 46440 6.75 90.5 -58.82 30.2 2015-09-16T09:30
Mumford_Cove 41.32526111 -72.02088 2015 monitoringMC_01 3151818 2015-09-16 10:00 21.03 7.99 46420 6.78 90.8 -59.79 30.18 2015-09-16T10:00
Mumford_Cove 41.32526111 -72.02088 2015 monitoringMC_01 3151818 2015-09-16 10:30 20.91 7.99 46680 6.97 93.3 -59.51 30.38 2015-09-16T10:30
Mumford_Cove 41.32526111 -72.02088 2015 monitoringMC_01 3151818 2015-09-16 11:00 21.01 7.99 46510 7.07 94.8 -59.88 30.25 2015-09-16T11:00
Mumford_Cove 41.32526111 -72.02088 2015 monitoringMC_01 3151818 2015-09-16 11:30 21.18 8.0 46590 7.28 97.8 -60.55 30.31 2015-09-16T11:30
Mumford_Cove 41.32526111 -72.02088 2015 monitoringMC_01 3151818 2015-09-16 12:00 21.34 8.01 46870 7.4 99.9 -60.94 30.51 2015-09-16T12:00
Mumford_Cove 41.32526111 -72.02088 2015 monitoringMC_01 3151818 2015-09-16 12:30 21.43 8.02 46850 7.43 100.4 -61.38 30.5 2015-09-16T12:30
Mumford_Cove 41.32526111 -72.02088 2015 monitoringMC_01 3151818 2015-09-16 13:00 21.51 8.05 46770 7.84 106.1 -63.1 30.43 2015-09-16T13:00
Mumford_Cove 41.32526111 -72.02088 2015 monitoringMC_01 3151818 2015-09-16 13:30 21.64 8.06 46840 7.98 108.3 -63.68 30.49 2015-09-16T13:30
Mumford_Cove 41.32526111 -72.02088 2015 monitoringMC_01 3151818 2015-09-16 14:00 21.71 8.08 46780 8.38 113.9 -64.72 30.44 2015-09-16T14:00
Mumford_Cove 41.32526111 -72.02088 2015 monitoringMC_01 3151818 2015-09-16 14:30 21.8 8.08 46790 8.45 115.0 -65.07 30.45 2015-09-16T14:30
Mumford_Cove 41.32526111 -72.02088 2015 monitoringMC_01 3151818 2015-09-16 15:00 21.9 8.09 47010 8.6 117.4 -65.79 30.61 2015-09-16T15:00
Mumford_Cove 41.32526111 -72.02088 2015 monitoringMC_01 3151818 2015-09-16 15:30 21.97 8.1 46830 8.56 116.9 -66.34 30.48 2015-09-16T15:30
Mumford_Cove 41.32526111 -72.02088 2015 monitoringMC_01 3151818 2015-09-16 16:00 22.03 8.15 46870 9.2 125.7 -69.21 30.5 2015-09-16T16:00
Mumford_Cove 41.32526111 -72.02088 2015 monitoringMC_01 3151818 2015-09-16 16:30 21.89 8.1 46610 8.77 119.5 -65.98 30.32 2015-09-16T16:30
Mumford_Cove 41.32526111 -72.02088 2015 monitoringMC_01 3151818 2015-09-16 17:00 21.98 8.09 46380 8.71 118.7 -65.63 30.15 2015-09-16T17:00
Mumford_Cove 41.32526111 -72.02088 2015 monitoringMC_01 3151818 2015-09-16 17:30 22.09 8.09 46370 8.61 117.6 -65.34 30.14 2015-09-16T17:30
Mumford_Cove 41.32526111 -72.02088 2015 monitoringMC_01 3151818 2015-09-16 18:00 22.16 8.1 46440 8.78 120.1 -66.12 30.19 2015-09-16T18:00
Mumford_Cove 41.32526111 -72.02088 2015 monitoringMC_01 3151818 2015-09-16 18:30 22.21 8.11 46410 8.97 122.8 -66.99 30.16 2015-09-16T18:30
Mumford_Cove 41.32526111 -72.02088 2015 monitoringMC_01 3151818 2015-09-16 19:00 22.15 8.11 46380 8.94 122.2 -66.81 30.15 2015-09-16T19:00
Mumford_Cove 41.32526111 -72.02088 2015 monitoringMC_01 3151818 2015-09-16 19:30 22.09 8.11 46390 8.95 122.2 -66.6 30.15 2015-09-16T19:30
Mumford_Cove 41.32526111 -72.02088 2015 monitoringMC_01 3151818 2015-09-16 20:00 22.31 8.13 46570 9.42 129.2 -68.15 30.28 2015-09-16T20:00
Mumford_Cove 41.32526111 -72.02088 2015 monitoringMC_01 3151818 2015-09-16 20:30 22.57 8.2 46580 10.03 138.3 -71.77 30.28 2015-09-16T20:30
Mumford_Cove 41.32526111 -72.02088 2015 monitoringMC_01 3151818 2015-09-16 21:00 22.58 8.15 46590 9.78 134.8 -69.34 30.29 2015-09-16T21:00
Mumford_Cove 41.32526111 -72.02088 2015 monitoringMC_01 3151818 2015-09-16 21:30 22.64 8.14 46680 9.47 130.8 -68.55 30.36 2015-09-16T21:30
Mumford_Cove 41.32526111 -72.02088 2015 monitoringMC_01 3151818 2015-09-16 22:00 22.64 8.11 46610 9.1 125.7 -67.09 30.3 2015-09-16T22:00
Mumford_Cove 41.32526111 -72.02088 2015 monitoringMC_01 3151818 2015-09-16 22:30 22.65 8.1 46720 8.92 123.2 -66.23 30.38 2015-09-16T22:30
Mumford_Cove 41.32526111 -72.02088 2015 monitoringMC_01 3151818 2015-09-16 23:00 22.6 8.09 46720 8.73 120.5 -65.45 30.39 2015-09-16T23:00
Mumford_Cove 41.32526111 -72.02088 2015 monitoringMC_01